<?xml version="1.0" encoding="UTF-8" standalone="no" ?>
<gpx xmlns="http://www.topografix.com/GPX/1/1" xmlns:xsi="http://www.w3.org/2001/XMLSchema-instance" xsi:schemaLocation="http://www.topografix.com/GPX/1/1 http://www.topografix.com/GPX/1/1/gpx.xsd" version="1.1" creator="VisuGPX - https://www.visugpx.com">
  <metadata>
    <name>Rando VTT Damville - Forêt de Villalet</name>
    <desc><![CDATA[Rando VTT sympa.]]></desc>
  </metadata>
  <trk>
    <name><![CDATA[Rando VTT Damville - Forêt de Villalet_1]]></name>
    <trkseg>
      <trkpt lat="48.88352" lon="1.09611">
        <ele>184</ele>
        <time>2014-06-15T09:18:01.000Z</time>
      </trkpt>
      <trkpt lat="48.88346" lon="1.09609">
        <ele>189</ele>
        <time>2014-06-15T09:19:45.000Z</time>
      </trkpt>
      <trkpt lat="48.88345" lon="1.0962">
        <ele>189</ele>
        <time>2014-06-15T09:19:47.000Z</time>
      </trkpt>
      <trkpt lat="48.88348" lon="1.09629">
        <ele>189</ele>
        <time>2014-06-15T09:19:49.000Z</time>
      </trkpt>
      <trkpt lat="48.88354" lon="1.0964">
        <ele>190</ele>
        <time>2014-06-15T09:19:51.000Z</time>
      </trkpt>
      <trkpt lat="48.88359" lon="1.09647">
        <ele>190</ele>
        <time>2014-06-15T09:19:53.000Z</time>
      </trkpt>
      <trkpt lat="48.88365" lon="1.09656">
        <ele>190</ele>
        <time>2014-06-15T09:19:55.000Z</time>
      </trkpt>
      <trkpt lat="48.88371" lon="1.09664">
        <ele>190</ele>
        <time>2014-06-15T09:19:57.000Z</time>
      </trkpt>
      <trkpt lat="48.88376" lon="1.09672">
        <ele>191</ele>
        <time>2014-06-15T09:19:59.000Z</time>
      </trkpt>
      <trkpt lat="48.88382" lon="1.0968">
        <ele>192</ele>
        <time>2014-06-15T09:20:01.000Z</time>
      </trkpt>
      <trkpt lat="48.88387" lon="1.09689">
        <ele>193</ele>
        <time>2014-06-15T09:20:03.000Z</time>
      </trkpt>
      <trkpt lat="48.88392" lon="1.09698">
        <ele>194</ele>
        <time>2014-06-15T09:20:05.000Z</time>
      </trkpt>
      <trkpt lat="48.88397" lon="1.09708">
        <ele>194</ele>
        <time>2014-06-15T09:20:07.000Z</time>
      </trkpt>
      <trkpt lat="48.88401" lon="1.09715">
        <ele>194</ele>
        <time>2014-06-15T09:20:09.000Z</time>
      </trkpt>
      <trkpt lat="48.88405" lon="1.09723">
        <ele>194</ele>
        <time>2014-06-15T09:20:11.000Z</time>
      </trkpt>
      <trkpt lat="48.8841" lon="1.09733">
        <ele>194</ele>
        <time>2014-06-15T09:20:13.000Z</time>
      </trkpt>
      <trkpt lat="48.88414" lon="1.09743">
        <ele>194</ele>
        <time>2014-06-15T09:20:15.000Z</time>
      </trkpt>
      <trkpt lat="48.88418" lon="1.09755">
        <ele>194</ele>
        <time>2014-06-15T09:20:17.000Z</time>
      </trkpt>
      <trkpt lat="48.88421" lon="1.09766">
        <ele>194</ele>
        <time>2014-06-15T09:20:19.000Z</time>
      </trkpt>
      <trkpt lat="48.88424" lon="1.09778">
        <ele>194</ele>
        <time>2014-06-15T09:20:21.000Z</time>
      </trkpt>
      <trkpt lat="48.88426" lon="1.0979">
        <ele>195</ele>
        <time>2014-06-15T09:20:23.000Z</time>
      </trkpt>
      <trkpt lat="48.88428" lon="1.09802">
        <ele>195</ele>
        <time>2014-06-15T09:20:25.000Z</time>
      </trkpt>
      <trkpt lat="48.88431" lon="1.09814">
        <ele>195</ele>
        <time>2014-06-15T09:20:27.000Z</time>
      </trkpt>
      <trkpt lat="48.88433" lon="1.09826">
        <ele>195</ele>
        <time>2014-06-15T09:20:29.000Z</time>
      </trkpt>
      <trkpt lat="48.88437" lon="1.09838">
        <ele>194</ele>
        <time>2014-06-15T09:20:31.000Z</time>
      </trkpt>
      <trkpt lat="48.88442" lon="1.09845">
        <ele>194</ele>
        <time>2014-06-15T09:20:33.000Z</time>
      </trkpt>
      <trkpt lat="48.88448" lon="1.09845">
        <ele>194</ele>
        <time>2014-06-15T09:20:35.000Z</time>
      </trkpt>
      <trkpt lat="48.88453" lon="1.09836">
        <ele>194</ele>
        <time>2014-06-15T09:20:37.000Z</time>
      </trkpt>
      <trkpt lat="48.88457" lon="1.09823">
        <ele>195</ele>
        <time>2014-06-15T09:20:39.000Z</time>
      </trkpt>
      <trkpt lat="48.88462" lon="1.09809">
        <ele>195</ele>
        <time>2014-06-15T09:20:41.000Z</time>
      </trkpt>
      <trkpt lat="48.88466" lon="1.09795">
        <ele>195</ele>
        <time>2014-06-15T09:20:43.000Z</time>
      </trkpt>
      <trkpt lat="48.8847" lon="1.09778">
        <ele>195</ele>
        <time>2014-06-15T09:20:45.000Z</time>
      </trkpt>
      <trkpt lat="48.88473" lon="1.09761">
        <ele>196</ele>
        <time>2014-06-15T09:20:47.000Z</time>
      </trkpt>
      <trkpt lat="48.88476" lon="1.09745">
        <ele>196</ele>
        <time>2014-06-15T09:20:49.000Z</time>
      </trkpt>
      <trkpt lat="48.88478" lon="1.0973">
        <ele>196</ele>
        <time>2014-06-15T09:20:51.000Z</time>
      </trkpt>
      <trkpt lat="48.88481" lon="1.09716">
        <ele>196</ele>
        <time>2014-06-15T09:20:53.000Z</time>
      </trkpt>
      <trkpt lat="48.88483" lon="1.097">
        <ele>196</ele>
        <time>2014-06-15T09:20:55.000Z</time>
      </trkpt>
      <trkpt lat="48.88485" lon="1.09685">
        <ele>195</ele>
        <time>2014-06-15T09:20:57.000Z</time>
      </trkpt>
      <trkpt lat="48.88488" lon="1.0967">
        <ele>195</ele>
        <time>2014-06-15T09:20:59.000Z</time>
      </trkpt>
      <trkpt lat="48.8849" lon="1.09655">
        <ele>195</ele>
        <time>2014-06-15T09:21:01.000Z</time>
      </trkpt>
      <trkpt lat="48.88491" lon="1.0964">
        <ele>194</ele>
        <time>2014-06-15T09:21:03.000Z</time>
      </trkpt>
      <trkpt lat="48.88493" lon="1.09626">
        <ele>194</ele>
        <time>2014-06-15T09:21:05.000Z</time>
      </trkpt>
      <trkpt lat="48.88495" lon="1.09612">
        <ele>194</ele>
        <time>2014-06-15T09:21:07.000Z</time>
      </trkpt>
      <trkpt lat="48.88498" lon="1.09597">
        <ele>194</ele>
        <time>2014-06-15T09:21:09.000Z</time>
      </trkpt>
      <trkpt lat="48.88499" lon="1.09582">
        <ele>194</ele>
        <time>2014-06-15T09:21:11.000Z</time>
      </trkpt>
      <trkpt lat="48.88502" lon="1.09567">
        <ele>194</ele>
        <time>2014-06-15T09:21:13.000Z</time>
      </trkpt>
      <trkpt lat="48.88504" lon="1.09553">
        <ele>194</ele>
        <time>2014-06-15T09:21:15.000Z</time>
      </trkpt>
      <trkpt lat="48.88505" lon="1.09539">
        <ele>194</ele>
        <time>2014-06-15T09:21:17.000Z</time>
      </trkpt>
      <trkpt lat="48.88507" lon="1.09527">
        <ele>194</ele>
        <time>2014-06-15T09:21:19.000Z</time>
      </trkpt>
      <trkpt lat="48.88509" lon="1.09516">
        <ele>194</ele>
        <time>2014-06-15T09:21:21.000Z</time>
      </trkpt>
      <trkpt lat="48.8851" lon="1.09503">
        <ele>193</ele>
        <time>2014-06-15T09:21:23.000Z</time>
      </trkpt>
      <trkpt lat="48.88512" lon="1.09488">
        <ele>193</ele>
        <time>2014-06-15T09:21:25.000Z</time>
      </trkpt>
      <trkpt lat="48.88512" lon="1.09476">
        <ele>192</ele>
        <time>2014-06-15T09:21:27.000Z</time>
      </trkpt>
      <trkpt lat="48.88514" lon="1.09463">
        <ele>190</ele>
        <time>2014-06-15T09:21:29.000Z</time>
      </trkpt>
      <trkpt lat="48.88515" lon="1.09452">
        <ele>190</ele>
        <time>2014-06-15T09:21:31.000Z</time>
      </trkpt>
      <trkpt lat="48.88516" lon="1.09439">
        <ele>189</ele>
        <time>2014-06-15T09:21:33.000Z</time>
      </trkpt>
      <trkpt lat="48.88517" lon="1.09427">
        <ele>189</ele>
        <time>2014-06-15T09:21:35.000Z</time>
      </trkpt>
      <trkpt lat="48.88519" lon="1.09414">
        <ele>189</ele>
        <time>2014-06-15T09:21:37.000Z</time>
      </trkpt>
      <trkpt lat="48.8852" lon="1.09402">
        <ele>190</ele>
        <time>2014-06-15T09:21:39.000Z</time>
      </trkpt>
      <trkpt lat="48.88519" lon="1.09388">
        <ele>191</ele>
        <time>2014-06-15T09:21:41.000Z</time>
      </trkpt>
      <trkpt lat="48.8852" lon="1.09374">
        <ele>192</ele>
        <time>2014-06-15T09:21:43.000Z</time>
      </trkpt>
      <trkpt lat="48.88523" lon="1.09358">
        <ele>192</ele>
        <time>2014-06-15T09:21:45.000Z</time>
      </trkpt>
      <trkpt lat="48.88525" lon="1.09342">
        <ele>193</ele>
        <time>2014-06-15T09:21:47.000Z</time>
      </trkpt>
      <trkpt lat="48.8853" lon="1.09326">
        <ele>193</ele>
        <time>2014-06-15T09:21:49.000Z</time>
      </trkpt>
      <trkpt lat="48.88536" lon="1.09312">
        <ele>192</ele>
        <time>2014-06-15T09:21:51.000Z</time>
      </trkpt>
      <trkpt lat="48.88543" lon="1.09298">
        <ele>191</ele>
        <time>2014-06-15T09:21:53.000Z</time>
      </trkpt>
      <trkpt lat="48.88549" lon="1.09285">
        <ele>189</ele>
        <time>2014-06-15T09:21:55.000Z</time>
      </trkpt>
      <trkpt lat="48.88557" lon="1.09272">
        <ele>188</ele>
        <time>2014-06-15T09:21:57.000Z</time>
      </trkpt>
      <trkpt lat="48.88564" lon="1.09262">
        <ele>187</ele>
        <time>2014-06-15T09:21:59.000Z</time>
      </trkpt>
      <trkpt lat="48.88573" lon="1.09253">
        <ele>188</ele>
        <time>2014-06-15T09:22:01.000Z</time>
      </trkpt>
      <trkpt lat="48.88581" lon="1.09244">
        <ele>188</ele>
        <time>2014-06-15T09:22:03.000Z</time>
      </trkpt>
      <trkpt lat="48.88591" lon="1.09235">
        <ele>189</ele>
        <time>2014-06-15T09:22:05.000Z</time>
      </trkpt>
      <trkpt lat="48.886" lon="1.09226">
        <ele>189</ele>
        <time>2014-06-15T09:22:07.000Z</time>
      </trkpt>
      <trkpt lat="48.88609" lon="1.09217">
        <ele>189</ele>
        <time>2014-06-15T09:22:09.000Z</time>
      </trkpt>
      <trkpt lat="48.88619" lon="1.09206">
        <ele>189</ele>
        <time>2014-06-15T09:22:11.000Z</time>
      </trkpt>
      <trkpt lat="48.88628" lon="1.09195">
        <ele>189</ele>
        <time>2014-06-15T09:22:13.000Z</time>
      </trkpt>
      <trkpt lat="48.88637" lon="1.09187">
        <ele>191</ele>
        <time>2014-06-15T09:22:15.000Z</time>
      </trkpt>
      <trkpt lat="48.88647" lon="1.09178">
        <ele>192</ele>
        <time>2014-06-15T09:22:17.000Z</time>
      </trkpt>
      <trkpt lat="48.88657" lon="1.09169">
        <ele>193</ele>
        <time>2014-06-15T09:22:19.000Z</time>
      </trkpt>
      <trkpt lat="48.88667" lon="1.09159">
        <ele>193</ele>
        <time>2014-06-15T09:22:21.000Z</time>
      </trkpt>
      <trkpt lat="48.88675" lon="1.09151">
        <ele>194</ele>
        <time>2014-06-15T09:22:23.000Z</time>
      </trkpt>
      <trkpt lat="48.88684" lon="1.09141">
        <ele>194</ele>
        <time>2014-06-15T09:22:25.000Z</time>
      </trkpt>
      <trkpt lat="48.88694" lon="1.09131">
        <ele>193</ele>
        <time>2014-06-15T09:22:27.000Z</time>
      </trkpt>
      <trkpt lat="48.88703" lon="1.09122">
        <ele>193</ele>
        <time>2014-06-15T09:22:29.000Z</time>
      </trkpt>
      <trkpt lat="48.8871" lon="1.09113">
        <ele>194</ele>
        <time>2014-06-15T09:22:31.000Z</time>
      </trkpt>
      <trkpt lat="48.88717" lon="1.09107">
        <ele>194</ele>
        <time>2014-06-15T09:22:33.000Z</time>
      </trkpt>
      <trkpt lat="48.88723" lon="1.09103">
        <ele>194</ele>
        <time>2014-06-15T09:22:35.000Z</time>
      </trkpt>
      <trkpt lat="48.88728" lon="1.09098">
        <ele>194</ele>
        <time>2014-06-15T09:22:37.000Z</time>
      </trkpt>
      <trkpt lat="48.88735" lon="1.09086">
        <ele>193</ele>
        <time>2014-06-15T09:22:39.000Z</time>
      </trkpt>
      <trkpt lat="48.88745" lon="1.09074">
        <ele>193</ele>
        <time>2014-06-15T09:22:41.000Z</time>
      </trkpt>
      <trkpt lat="48.88754" lon="1.09062">
        <ele>194</ele>
        <time>2014-06-15T09:22:43.000Z</time>
      </trkpt>
      <trkpt lat="48.88762" lon="1.09051">
        <ele>193</ele>
        <time>2014-06-15T09:22:45.000Z</time>
      </trkpt>
      <trkpt lat="48.88769" lon="1.09039">
        <ele>192</ele>
        <time>2014-06-15T09:22:47.000Z</time>
      </trkpt>
      <trkpt lat="48.88777" lon="1.09026">
        <ele>191</ele>
        <time>2014-06-15T09:22:49.000Z</time>
      </trkpt>
      <trkpt lat="48.88784" lon="1.09013">
        <ele>190</ele>
        <time>2014-06-15T09:22:51.000Z</time>
      </trkpt>
      <trkpt lat="48.88791" lon="1.09002">
        <ele>189</ele>
        <time>2014-06-15T09:22:53.000Z</time>
      </trkpt>
      <trkpt lat="48.88799" lon="1.08989">
        <ele>189</ele>
        <time>2014-06-15T09:22:55.000Z</time>
      </trkpt>
      <trkpt lat="48.88808" lon="1.08979">
        <ele>189</ele>
        <time>2014-06-15T09:22:57.000Z</time>
      </trkpt>
      <trkpt lat="48.88818" lon="1.08967">
        <ele>191</ele>
        <time>2014-06-15T09:22:59.000Z</time>
      </trkpt>
      <trkpt lat="48.88828" lon="1.08951">
        <ele>193</ele>
        <time>2014-06-15T09:23:01.000Z</time>
      </trkpt>
      <trkpt lat="48.8884" lon="1.08935">
        <ele>194</ele>
        <time>2014-06-15T09:23:03.000Z</time>
      </trkpt>
      <trkpt lat="48.8885" lon="1.0892">
        <ele>194</ele>
        <time>2014-06-15T09:23:05.000Z</time>
      </trkpt>
      <trkpt lat="48.88857" lon="1.08908">
        <ele>194</ele>
        <time>2014-06-15T09:23:07.000Z</time>
      </trkpt>
      <trkpt lat="48.88867" lon="1.08896">
        <ele>194</ele>
        <time>2014-06-15T09:23:09.000Z</time>
      </trkpt>
      <trkpt lat="48.88875" lon="1.08885">
        <ele>194</ele>
        <time>2014-06-15T09:23:11.000Z</time>
      </trkpt>
      <trkpt lat="48.88884" lon="1.08867">
        <ele>196</ele>
        <time>2014-06-15T09:23:13.000Z</time>
      </trkpt>
      <trkpt lat="48.88893" lon="1.08849">
        <ele>198</ele>
        <time>2014-06-15T09:23:15.000Z</time>
      </trkpt>
      <trkpt lat="48.88903" lon="1.08833">
        <ele>201</ele>
        <time>2014-06-15T09:23:17.000Z</time>
      </trkpt>
      <trkpt lat="48.88915" lon="1.08817">
        <ele>202</ele>
        <time>2014-06-15T09:23:19.000Z</time>
      </trkpt>
      <trkpt lat="48.88928" lon="1.08799">
        <ele>202</ele>
        <time>2014-06-15T09:23:21.000Z</time>
      </trkpt>
      <trkpt lat="48.88939" lon="1.08781">
        <ele>202</ele>
        <time>2014-06-15T09:23:23.000Z</time>
      </trkpt>
      <trkpt lat="48.8895" lon="1.08763">
        <ele>200</ele>
        <time>2014-06-15T09:23:25.000Z</time>
      </trkpt>
      <trkpt lat="48.88958" lon="1.08747">
        <ele>198</ele>
        <time>2014-06-15T09:23:27.000Z</time>
      </trkpt>
      <trkpt lat="48.88968" lon="1.0873">
        <ele>196</ele>
        <time>2014-06-15T09:23:29.000Z</time>
      </trkpt>
      <trkpt lat="48.88979" lon="1.08712">
        <ele>195</ele>
        <time>2014-06-15T09:23:31.000Z</time>
      </trkpt>
      <trkpt lat="48.88991" lon="1.08696">
        <ele>194</ele>
        <time>2014-06-15T09:23:33.000Z</time>
      </trkpt>
      <trkpt lat="48.89001" lon="1.08679">
        <ele>193</ele>
        <time>2014-06-15T09:23:35.000Z</time>
      </trkpt>
      <trkpt lat="48.89011" lon="1.08662">
        <ele>194</ele>
        <time>2014-06-15T09:23:37.000Z</time>
      </trkpt>
      <trkpt lat="48.89021" lon="1.08644">
        <ele>194</ele>
        <time>2014-06-15T09:23:39.000Z</time>
      </trkpt>
      <trkpt lat="48.89031" lon="1.08626">
        <ele>195</ele>
        <time>2014-06-15T09:23:41.000Z</time>
      </trkpt>
      <trkpt lat="48.8904" lon="1.08611">
        <ele>196</ele>
        <time>2014-06-15T09:23:43.000Z</time>
      </trkpt>
      <trkpt lat="48.89049" lon="1.08595">
        <ele>197</ele>
        <time>2014-06-15T09:23:45.000Z</time>
      </trkpt>
      <trkpt lat="48.89059" lon="1.08578">
        <ele>197</ele>
        <time>2014-06-15T09:23:47.000Z</time>
      </trkpt>
      <trkpt lat="48.89069" lon="1.08562">
        <ele>198</ele>
        <time>2014-06-15T09:23:49.000Z</time>
      </trkpt>
      <trkpt lat="48.8908" lon="1.08545">
        <ele>197</ele>
        <time>2014-06-15T09:23:51.000Z</time>
      </trkpt>
      <trkpt lat="48.89091" lon="1.08528">
        <ele>196</ele>
        <time>2014-06-15T09:23:53.000Z</time>
      </trkpt>
      <trkpt lat="48.89101" lon="1.0851">
        <ele>195</ele>
        <time>2014-06-15T09:23:55.000Z</time>
      </trkpt>
      <trkpt lat="48.89112" lon="1.0849">
        <ele>194</ele>
        <time>2014-06-15T09:23:57.000Z</time>
      </trkpt>
      <trkpt lat="48.89122" lon="1.0847">
        <ele>194</ele>
        <time>2014-06-15T09:23:59.000Z</time>
      </trkpt>
      <trkpt lat="48.89131" lon="1.08451">
        <ele>193</ele>
        <time>2014-06-15T09:24:01.000Z</time>
      </trkpt>
      <trkpt lat="48.89141" lon="1.08431">
        <ele>191</ele>
        <time>2014-06-15T09:24:03.000Z</time>
      </trkpt>
      <trkpt lat="48.89153" lon="1.08414">
        <ele>190</ele>
        <time>2014-06-15T09:24:05.000Z</time>
      </trkpt>
      <trkpt lat="48.89164" lon="1.08397">
        <ele>189</ele>
        <time>2014-06-15T09:24:07.000Z</time>
      </trkpt>
      <trkpt lat="48.89176" lon="1.08381">
        <ele>189</ele>
        <time>2014-06-15T09:24:09.000Z</time>
      </trkpt>
      <trkpt lat="48.89186" lon="1.08365">
        <ele>189</ele>
        <time>2014-06-15T09:24:11.000Z</time>
      </trkpt>
      <trkpt lat="48.89198" lon="1.0835">
        <ele>189</ele>
        <time>2014-06-15T09:24:13.000Z</time>
      </trkpt>
      <trkpt lat="48.8921" lon="1.08336">
        <ele>188</ele>
        <time>2014-06-15T09:24:15.000Z</time>
      </trkpt>
      <trkpt lat="48.89221" lon="1.08322">
        <ele>188</ele>
        <time>2014-06-15T09:24:17.000Z</time>
      </trkpt>
      <trkpt lat="48.89233" lon="1.08308">
        <ele>188</ele>
        <time>2014-06-15T09:24:19.000Z</time>
      </trkpt>
      <trkpt lat="48.89245" lon="1.08296">
        <ele>188</ele>
        <time>2014-06-15T09:24:21.000Z</time>
      </trkpt>
      <trkpt lat="48.89257" lon="1.08286">
        <ele>188</ele>
        <time>2014-06-15T09:24:23.000Z</time>
      </trkpt>
      <trkpt lat="48.8927" lon="1.08277">
        <ele>188</ele>
        <time>2014-06-15T09:24:25.000Z</time>
      </trkpt>
      <trkpt lat="48.89283" lon="1.08269">
        <ele>187</ele>
        <time>2014-06-15T09:24:27.000Z</time>
      </trkpt>
      <trkpt lat="48.89297" lon="1.08263">
        <ele>187</ele>
        <time>2014-06-15T09:24:29.000Z</time>
      </trkpt>
      <trkpt lat="48.8931" lon="1.08259">
        <ele>186</ele>
        <time>2014-06-15T09:24:31.000Z</time>
      </trkpt>
      <trkpt lat="48.89324" lon="1.08254">
        <ele>186</ele>
        <time>2014-06-15T09:24:33.000Z</time>
      </trkpt>
      <trkpt lat="48.89339" lon="1.08249">
        <ele>185</ele>
        <time>2014-06-15T09:24:35.000Z</time>
      </trkpt>
      <trkpt lat="48.89352" lon="1.08244">
        <ele>185</ele>
        <time>2014-06-15T09:24:37.000Z</time>
      </trkpt>
      <trkpt lat="48.89365" lon="1.08239">
        <ele>184</ele>
        <time>2014-06-15T09:24:39.000Z</time>
      </trkpt>
      <trkpt lat="48.89377" lon="1.08232">
        <ele>185</ele>
        <time>2014-06-15T09:24:41.000Z</time>
      </trkpt>
      <trkpt lat="48.89388" lon="1.08225">
        <ele>185</ele>
        <time>2014-06-15T09:24:43.000Z</time>
      </trkpt>
      <trkpt lat="48.89398" lon="1.08219">
        <ele>185</ele>
        <time>2014-06-15T09:24:45.000Z</time>
      </trkpt>
      <trkpt lat="48.89405" lon="1.08226">
        <ele>186</ele>
        <time>2014-06-15T09:24:47.000Z</time>
      </trkpt>
      <trkpt lat="48.89411" lon="1.08238">
        <ele>187</ele>
        <time>2014-06-15T09:24:49.000Z</time>
      </trkpt>
      <trkpt lat="48.89417" lon="1.08251">
        <ele>187</ele>
        <time>2014-06-15T09:24:51.000Z</time>
      </trkpt>
      <trkpt lat="48.89423" lon="1.08264">
        <ele>187</ele>
        <time>2014-06-15T09:24:53.000Z</time>
      </trkpt>
      <trkpt lat="48.89429" lon="1.08278">
        <ele>187</ele>
        <time>2014-06-15T09:24:55.000Z</time>
      </trkpt>
      <trkpt lat="48.89435" lon="1.08292">
        <ele>187</ele>
        <time>2014-06-15T09:24:57.000Z</time>
      </trkpt>
      <trkpt lat="48.89442" lon="1.08305">
        <ele>187</ele>
        <time>2014-06-15T09:24:59.000Z</time>
      </trkpt>
      <trkpt lat="48.89448" lon="1.08319">
        <ele>188</ele>
        <time>2014-06-15T09:25:01.000Z</time>
      </trkpt>
      <trkpt lat="48.89455" lon="1.08332">
        <ele>188</ele>
        <time>2014-06-15T09:25:03.000Z</time>
      </trkpt>
      <trkpt lat="48.89462" lon="1.08345">
        <ele>189</ele>
        <time>2014-06-15T09:25:05.000Z</time>
      </trkpt>
      <trkpt lat="48.89466" lon="1.08356">
        <ele>189</ele>
        <time>2014-06-15T09:25:07.000Z</time>
      </trkpt>
      <trkpt lat="48.8947" lon="1.08365">
        <ele>189</ele>
        <time>2014-06-15T09:25:09.000Z</time>
      </trkpt>
      <trkpt lat="48.89473" lon="1.08374">
        <ele>189</ele>
        <time>2014-06-15T09:25:11.000Z</time>
      </trkpt>
      <trkpt lat="48.89476" lon="1.08384">
        <ele>190</ele>
        <time>2014-06-15T09:25:13.000Z</time>
      </trkpt>
      <trkpt lat="48.89479" lon="1.08392">
        <ele>190</ele>
        <time>2014-06-15T09:25:15.000Z</time>
      </trkpt>
      <trkpt lat="48.89479" lon="1.08392">
        <ele>190</ele>
        <time>2014-06-15T09:25:17.000Z</time>
      </trkpt>
      <trkpt lat="48.89481" lon="1.08409">
        <ele>190</ele>
        <time>2014-06-15T09:25:19.000Z</time>
      </trkpt>
      <trkpt lat="48.89481" lon="1.08409">
        <ele>190</ele>
        <time>2014-06-15T09:25:21.000Z</time>
      </trkpt>
      <trkpt lat="48.89484" lon="1.08427">
        <ele>191</ele>
        <time>2014-06-15T09:25:23.000Z</time>
      </trkpt>
      <trkpt lat="48.89484" lon="1.08436">
        <ele>191</ele>
        <time>2014-06-15T09:25:25.000Z</time>
      </trkpt>
      <trkpt lat="48.89484" lon="1.08447">
        <ele>192</ele>
        <time>2014-06-15T09:25:27.000Z</time>
      </trkpt>
      <trkpt lat="48.89484" lon="1.08456">
        <ele>192</ele>
        <time>2014-06-15T09:25:29.000Z</time>
      </trkpt>
      <trkpt lat="48.89484" lon="1.08465">
        <ele>192</ele>
        <time>2014-06-15T09:25:31.000Z</time>
      </trkpt>
      <trkpt lat="48.89484" lon="1.08465">
        <ele>192</ele>
        <time>2014-06-15T09:25:33.000Z</time>
      </trkpt>
      <trkpt lat="48.89486" lon="1.08482">
        <ele>193</ele>
        <time>2014-06-15T09:25:35.000Z</time>
      </trkpt>
      <trkpt lat="48.89489" lon="1.08492">
        <ele>193</ele>
        <time>2014-06-15T09:25:37.000Z</time>
      </trkpt>
      <trkpt lat="48.89492" lon="1.08502">
        <ele>194</ele>
        <time>2014-06-15T09:25:39.000Z</time>
      </trkpt>
      <trkpt lat="48.89495" lon="1.08513">
        <ele>194</ele>
        <time>2014-06-15T09:25:41.000Z</time>
      </trkpt>
      <trkpt lat="48.89499" lon="1.08522">
        <ele>194</ele>
        <time>2014-06-15T09:25:43.000Z</time>
      </trkpt>
      <trkpt lat="48.89506" lon="1.08536">
        <ele>195</ele>
        <time>2014-06-15T09:25:45.000Z</time>
      </trkpt>
      <trkpt lat="48.89512" lon="1.08551">
        <ele>196</ele>
        <time>2014-06-15T09:25:47.000Z</time>
      </trkpt>
      <trkpt lat="48.89517" lon="1.08564">
        <ele>197</ele>
        <time>2014-06-15T09:25:49.000Z</time>
      </trkpt>
      <trkpt lat="48.89521" lon="1.08576">
        <ele>197</ele>
        <time>2014-06-15T09:25:51.000Z</time>
      </trkpt>
      <trkpt lat="48.89524" lon="1.08588">
        <ele>197</ele>
        <time>2014-06-15T09:25:53.000Z</time>
      </trkpt>
      <trkpt lat="48.89527" lon="1.08601">
        <ele>197</ele>
        <time>2014-06-15T09:25:55.000Z</time>
      </trkpt>
      <trkpt lat="48.89529" lon="1.08615">
        <ele>197</ele>
        <time>2014-06-15T09:25:57.000Z</time>
      </trkpt>
      <trkpt lat="48.8953" lon="1.08631">
        <ele>198</ele>
        <time>2014-06-15T09:25:59.000Z</time>
      </trkpt>
      <trkpt lat="48.89529" lon="1.08647">
        <ele>199</ele>
        <time>2014-06-15T09:26:01.000Z</time>
      </trkpt>
      <trkpt lat="48.89528" lon="1.08661">
        <ele>199</ele>
        <time>2014-06-15T09:26:03.000Z</time>
      </trkpt>
      <trkpt lat="48.89528" lon="1.08675">
        <ele>199</ele>
        <time>2014-06-15T09:26:05.000Z</time>
      </trkpt>
      <trkpt lat="48.89534" lon="1.08683">
        <ele>199</ele>
        <time>2014-06-15T09:26:07.000Z</time>
      </trkpt>
      <trkpt lat="48.89543" lon="1.08685">
        <ele>199</ele>
        <time>2014-06-15T09:26:09.000Z</time>
      </trkpt>
      <trkpt lat="48.89555" lon="1.08685">
        <ele>199</ele>
        <time>2014-06-15T09:26:11.000Z</time>
      </trkpt>
      <trkpt lat="48.89566" lon="1.08682">
        <ele>199</ele>
        <time>2014-06-15T09:26:13.000Z</time>
      </trkpt>
      <trkpt lat="48.89577" lon="1.08681">
        <ele>200</ele>
        <time>2014-06-15T09:26:15.000Z</time>
      </trkpt>
      <trkpt lat="48.89589" lon="1.08678">
        <ele>200</ele>
        <time>2014-06-15T09:26:17.000Z</time>
      </trkpt>
      <trkpt lat="48.89598" lon="1.08675">
        <ele>200</ele>
        <time>2014-06-15T09:26:19.000Z</time>
      </trkpt>
      <trkpt lat="48.89608" lon="1.08673">
        <ele>199</ele>
        <time>2014-06-15T09:26:21.000Z</time>
      </trkpt>
      <trkpt lat="48.89617" lon="1.08671">
        <ele>198</ele>
        <time>2014-06-15T09:26:23.000Z</time>
      </trkpt>
      <trkpt lat="48.89624" lon="1.08669">
        <ele>199</ele>
        <time>2014-06-15T09:26:25.000Z</time>
      </trkpt>
      <trkpt lat="48.89624" lon="1.08669">
        <ele>199</ele>
        <time>2014-06-15T09:26:27.000Z</time>
      </trkpt>
      <trkpt lat="48.89631" lon="1.08667">
        <ele>199</ele>
        <time>2014-06-15T09:26:29.000Z</time>
      </trkpt>
      <trkpt lat="48.89631" lon="1.08667">
        <ele>199</ele>
        <time>2014-06-15T09:26:31.000Z</time>
      </trkpt>
      <trkpt lat="48.89642" lon="1.08667">
        <ele>200</ele>
        <time>2014-06-15T09:26:34.000Z</time>
      </trkpt>
      <trkpt lat="48.89648" lon="1.08668">
        <ele>200</ele>
        <time>2014-06-15T09:26:36.000Z</time>
      </trkpt>
      <trkpt lat="48.89657" lon="1.08666">
        <ele>200</ele>
        <time>2014-06-15T09:26:38.000Z</time>
      </trkpt>
      <trkpt lat="48.89663" lon="1.08664">
        <ele>200</ele>
        <time>2014-06-15T09:26:40.000Z</time>
      </trkpt>
      <trkpt lat="48.89673" lon="1.08661">
        <ele>201</ele>
        <time>2014-06-15T09:26:42.000Z</time>
      </trkpt>
      <trkpt lat="48.89682" lon="1.0866">
        <ele>202</ele>
        <time>2014-06-15T09:26:44.000Z</time>
      </trkpt>
      <trkpt lat="48.89688" lon="1.08662">
        <ele>202</ele>
        <time>2014-06-15T09:26:46.000Z</time>
      </trkpt>
      <trkpt lat="48.89705" lon="1.08661">
        <ele>202</ele>
        <time>2014-06-15T09:26:50.000Z</time>
      </trkpt>
      <trkpt lat="48.89716" lon="1.08658">
        <ele>203</ele>
        <time>2014-06-15T09:26:52.000Z</time>
      </trkpt>
      <trkpt lat="48.89725" lon="1.08656">
        <ele>203</ele>
        <time>2014-06-15T09:26:54.000Z</time>
      </trkpt>
      <trkpt lat="48.89725" lon="1.08656">
        <ele>203</ele>
        <time>2014-06-15T09:26:56.000Z</time>
      </trkpt>
      <trkpt lat="48.8974" lon="1.08651">
        <ele>203</ele>
        <time>2014-06-15T09:26:58.000Z</time>
      </trkpt>
      <trkpt lat="48.89751" lon="1.08649">
        <ele>203</ele>
        <time>2014-06-15T09:27:00.000Z</time>
      </trkpt>
      <trkpt lat="48.89763" lon="1.08645">
        <ele>202</ele>
        <time>2014-06-15T09:27:02.000Z</time>
      </trkpt>
      <trkpt lat="48.89775" lon="1.08638">
        <ele>195</ele>
        <time>2014-06-15T09:27:04.000Z</time>
      </trkpt>
      <trkpt lat="48.89788" lon="1.08629">
        <ele>189</ele>
        <time>2014-06-15T09:27:06.000Z</time>
      </trkpt>
      <trkpt lat="48.89812" lon="1.0861">
        <ele>183</ele>
        <time>2014-06-15T09:27:09.000Z</time>
      </trkpt>
      <trkpt lat="48.89828" lon="1.08596">
        <ele>180</ele>
        <time>2014-06-15T09:27:11.000Z</time>
      </trkpt>
      <trkpt lat="48.89843" lon="1.08583">
        <ele>179</ele>
        <time>2014-06-15T09:27:13.000Z</time>
      </trkpt>
      <trkpt lat="48.89857" lon="1.0857">
        <ele>177</ele>
        <time>2014-06-15T09:27:15.000Z</time>
      </trkpt>
      <trkpt lat="48.89869" lon="1.08559">
        <ele>177</ele>
        <time>2014-06-15T09:27:17.000Z</time>
      </trkpt>
      <trkpt lat="48.89881" lon="1.08548">
        <ele>176</ele>
        <time>2014-06-15T09:27:19.000Z</time>
      </trkpt>
      <trkpt lat="48.89907" lon="1.08525">
        <ele>177</ele>
        <time>2014-06-15T09:27:22.000Z</time>
      </trkpt>
      <trkpt lat="48.89922" lon="1.08512">
        <ele>179</ele>
        <time>2014-06-15T09:27:24.000Z</time>
      </trkpt>
      <trkpt lat="48.89935" lon="1.08502">
        <ele>180</ele>
        <time>2014-06-15T09:27:26.000Z</time>
      </trkpt>
      <trkpt lat="48.89948" lon="1.08491">
        <ele>181</ele>
        <time>2014-06-15T09:27:28.000Z</time>
      </trkpt>
      <trkpt lat="48.8996" lon="1.08481">
        <ele>181</ele>
        <time>2014-06-15T09:27:30.000Z</time>
      </trkpt>
      <trkpt lat="48.89973" lon="1.0847">
        <ele>181</ele>
        <time>2014-06-15T09:27:32.000Z</time>
      </trkpt>
      <trkpt lat="48.89986" lon="1.08458">
        <ele>181</ele>
        <time>2014-06-15T09:27:34.000Z</time>
      </trkpt>
      <trkpt lat="48.89999" lon="1.08447">
        <ele>183</ele>
        <time>2014-06-15T09:27:36.000Z</time>
      </trkpt>
      <trkpt lat="48.90013" lon="1.08436">
        <ele>184</ele>
        <time>2014-06-15T09:27:38.000Z</time>
      </trkpt>
      <trkpt lat="48.90028" lon="1.08424">
        <ele>185</ele>
        <time>2014-06-15T09:27:40.000Z</time>
      </trkpt>
      <trkpt lat="48.90042" lon="1.08411">
        <ele>185</ele>
        <time>2014-06-15T09:27:42.000Z</time>
      </trkpt>
      <trkpt lat="48.90056" lon="1.08399">
        <ele>185</ele>
        <time>2014-06-15T09:27:44.000Z</time>
      </trkpt>
      <trkpt lat="48.90069" lon="1.08386">
        <ele>185</ele>
        <time>2014-06-15T09:27:46.000Z</time>
      </trkpt>
      <trkpt lat="48.90082" lon="1.08374">
        <ele>185</ele>
        <time>2014-06-15T09:27:48.000Z</time>
      </trkpt>
      <trkpt lat="48.90095" lon="1.08362">
        <ele>185</ele>
        <time>2014-06-15T09:27:50.000Z</time>
      </trkpt>
      <trkpt lat="48.90107" lon="1.08349">
        <ele>185</ele>
        <time>2014-06-15T09:27:52.000Z</time>
      </trkpt>
      <trkpt lat="48.90119" lon="1.08336">
        <ele>185</ele>
        <time>2014-06-15T09:27:54.000Z</time>
      </trkpt>
      <trkpt lat="48.90131" lon="1.08324">
        <ele>184</ele>
        <time>2014-06-15T09:27:56.000Z</time>
      </trkpt>
      <trkpt lat="48.90142" lon="1.08311">
        <ele>184</ele>
        <time>2014-06-15T09:27:58.000Z</time>
      </trkpt>
      <trkpt lat="48.90153" lon="1.08297">
        <ele>184</ele>
        <time>2014-06-15T09:28:00.000Z</time>
      </trkpt>
      <trkpt lat="48.90165" lon="1.08283">
        <ele>184</ele>
        <time>2014-06-15T09:28:02.000Z</time>
      </trkpt>
      <trkpt lat="48.90176" lon="1.08269">
        <ele>183</ele>
        <time>2014-06-15T09:28:04.000Z</time>
      </trkpt>
      <trkpt lat="48.90187" lon="1.08255">
        <ele>183</ele>
        <time>2014-06-15T09:28:06.000Z</time>
      </trkpt>
      <trkpt lat="48.90198" lon="1.08242">
        <ele>183</ele>
        <time>2014-06-15T09:28:08.000Z</time>
      </trkpt>
      <trkpt lat="48.9021" lon="1.08229">
        <ele>183</ele>
        <time>2014-06-15T09:28:10.000Z</time>
      </trkpt>
      <trkpt lat="48.90222" lon="1.08217">
        <ele>182</ele>
        <time>2014-06-15T09:28:12.000Z</time>
      </trkpt>
      <trkpt lat="48.90235" lon="1.08206">
        <ele>182</ele>
        <time>2014-06-15T09:28:14.000Z</time>
      </trkpt>
      <trkpt lat="48.90248" lon="1.08197">
        <ele>182</ele>
        <time>2014-06-15T09:28:16.000Z</time>
      </trkpt>
      <trkpt lat="48.90263" lon="1.08201">
        <ele>181</ele>
        <time>2014-06-15T09:28:18.000Z</time>
      </trkpt>
      <trkpt lat="48.90276" lon="1.08215">
        <ele>180</ele>
        <time>2014-06-15T09:28:20.000Z</time>
      </trkpt>
      <trkpt lat="48.90282" lon="1.08237">
        <ele>180</ele>
        <time>2014-06-15T09:28:22.000Z</time>
      </trkpt>
      <trkpt lat="48.90279" lon="1.08258">
        <ele>179</ele>
        <time>2014-06-15T09:28:24.000Z</time>
      </trkpt>
      <trkpt lat="48.90276" lon="1.0828">
        <ele>179</ele>
        <time>2014-06-15T09:28:26.000Z</time>
      </trkpt>
      <trkpt lat="48.90275" lon="1.083">
        <ele>180</ele>
        <time>2014-06-15T09:28:28.000Z</time>
      </trkpt>
      <trkpt lat="48.90275" lon="1.08317">
        <ele>180</ele>
        <time>2014-06-15T09:28:30.000Z</time>
      </trkpt>
      <trkpt lat="48.90275" lon="1.08331">
        <ele>180</ele>
        <time>2014-06-15T09:28:32.000Z</time>
      </trkpt>
      <trkpt lat="48.90274" lon="1.08345">
        <ele>181</ele>
        <time>2014-06-15T09:28:34.000Z</time>
      </trkpt>
      <trkpt lat="48.90273" lon="1.08356">
        <ele>181</ele>
        <time>2014-06-15T09:28:36.000Z</time>
      </trkpt>
      <trkpt lat="48.90273" lon="1.08367">
        <ele>182</ele>
        <time>2014-06-15T09:28:38.000Z</time>
      </trkpt>
      <trkpt lat="48.90275" lon="1.08378">
        <ele>183</ele>
        <time>2014-06-15T09:28:40.000Z</time>
      </trkpt>
      <trkpt lat="48.90278" lon="1.08391">
        <ele>182</ele>
        <time>2014-06-15T09:28:42.000Z</time>
      </trkpt>
      <trkpt lat="48.90282" lon="1.08404">
        <ele>182</ele>
        <time>2014-06-15T09:28:44.000Z</time>
      </trkpt>
      <trkpt lat="48.90285" lon="1.08417">
        <ele>182</ele>
        <time>2014-06-15T09:28:46.000Z</time>
      </trkpt>
      <trkpt lat="48.90287" lon="1.08429">
        <ele>182</ele>
        <time>2014-06-15T09:28:48.000Z</time>
      </trkpt>
      <trkpt lat="48.90289" lon="1.0844">
        <ele>182</ele>
        <time>2014-06-15T09:28:50.000Z</time>
      </trkpt>
      <trkpt lat="48.90289" lon="1.08451">
        <ele>182</ele>
        <time>2014-06-15T09:28:52.000Z</time>
      </trkpt>
      <trkpt lat="48.90289" lon="1.08462">
        <ele>182</ele>
        <time>2014-06-15T09:28:54.000Z</time>
      </trkpt>
      <trkpt lat="48.90289" lon="1.08473">
        <ele>183</ele>
        <time>2014-06-15T09:28:56.000Z</time>
      </trkpt>
      <trkpt lat="48.90287" lon="1.08486">
        <ele>184</ele>
        <time>2014-06-15T09:28:58.000Z</time>
      </trkpt>
      <trkpt lat="48.90284" lon="1.08499">
        <ele>184</ele>
        <time>2014-06-15T09:29:00.000Z</time>
      </trkpt>
      <trkpt lat="48.90279" lon="1.08514">
        <ele>184</ele>
        <time>2014-06-15T09:29:02.000Z</time>
      </trkpt>
      <trkpt lat="48.90274" lon="1.08527">
        <ele>184</ele>
        <time>2014-06-15T09:29:04.000Z</time>
      </trkpt>
      <trkpt lat="48.90268" lon="1.0854">
        <ele>185</ele>
        <time>2014-06-15T09:29:06.000Z</time>
      </trkpt>
      <trkpt lat="48.90262" lon="1.08552">
        <ele>185</ele>
        <time>2014-06-15T09:29:08.000Z</time>
      </trkpt>
      <trkpt lat="48.90256" lon="1.08562">
        <ele>185</ele>
        <time>2014-06-15T09:29:10.000Z</time>
      </trkpt>
      <trkpt lat="48.90249" lon="1.08571">
        <ele>185</ele>
        <time>2014-06-15T09:29:12.000Z</time>
      </trkpt>
      <trkpt lat="48.90243" lon="1.08578">
        <ele>185</ele>
        <time>2014-06-15T09:29:14.000Z</time>
      </trkpt>
      <trkpt lat="48.90236" lon="1.08586">
        <ele>185</ele>
        <time>2014-06-15T09:29:16.000Z</time>
      </trkpt>
      <trkpt lat="48.9023" lon="1.08593">
        <ele>185</ele>
        <time>2014-06-15T09:29:18.000Z</time>
      </trkpt>
      <trkpt lat="48.90224" lon="1.08599">
        <ele>186</ele>
        <time>2014-06-15T09:29:20.000Z</time>
      </trkpt>
      <trkpt lat="48.90218" lon="1.08607">
        <ele>186</ele>
        <time>2014-06-15T09:29:22.000Z</time>
      </trkpt>
      <trkpt lat="48.90212" lon="1.08614">
        <ele>186</ele>
        <time>2014-06-15T09:29:24.000Z</time>
      </trkpt>
      <trkpt lat="48.90206" lon="1.08623">
        <ele>186</ele>
        <time>2014-06-15T09:29:26.000Z</time>
      </trkpt>
      <trkpt lat="48.90199" lon="1.08631">
        <ele>186</ele>
        <time>2014-06-15T09:29:28.000Z</time>
      </trkpt>
      <trkpt lat="48.90192" lon="1.08641">
        <ele>186</ele>
        <time>2014-06-15T09:29:30.000Z</time>
      </trkpt>
      <trkpt lat="48.90186" lon="1.08654">
        <ele>185</ele>
        <time>2014-06-15T09:29:32.000Z</time>
      </trkpt>
      <trkpt lat="48.9018" lon="1.08668">
        <ele>185</ele>
        <time>2014-06-15T09:29:34.000Z</time>
      </trkpt>
      <trkpt lat="48.90177" lon="1.0868">
        <ele>186</ele>
        <time>2014-06-15T09:29:36.000Z</time>
      </trkpt>
      <trkpt lat="48.90174" lon="1.08692">
        <ele>186</ele>
        <time>2014-06-15T09:29:38.000Z</time>
      </trkpt>
      <trkpt lat="48.90171" lon="1.08705">
        <ele>185</ele>
        <time>2014-06-15T09:29:40.000Z</time>
      </trkpt>
      <trkpt lat="48.9017" lon="1.08719">
        <ele>185</ele>
        <time>2014-06-15T09:29:42.000Z</time>
      </trkpt>
      <trkpt lat="48.90169" lon="1.08732">
        <ele>185</ele>
        <time>2014-06-15T09:29:44.000Z</time>
      </trkpt>
      <trkpt lat="48.90168" lon="1.08743">
        <ele>185</ele>
        <time>2014-06-15T09:29:46.000Z</time>
      </trkpt>
      <trkpt lat="48.90168" lon="1.08754">
        <ele>185</ele>
        <time>2014-06-15T09:29:48.000Z</time>
      </trkpt>
      <trkpt lat="48.90167" lon="1.08765">
        <ele>185</ele>
        <time>2014-06-15T09:29:50.000Z</time>
      </trkpt>
      <trkpt lat="48.90167" lon="1.08765">
        <ele>185</ele>
        <time>2014-06-15T09:29:52.000Z</time>
      </trkpt>
      <trkpt lat="48.90166" lon="1.0878">
        <ele>185</ele>
        <time>2014-06-15T09:29:54.000Z</time>
      </trkpt>
      <trkpt lat="48.90164" lon="1.0879">
        <ele>186</ele>
        <time>2014-06-15T09:29:56.000Z</time>
      </trkpt>
      <trkpt lat="48.90161" lon="1.08801">
        <ele>186</ele>
        <time>2014-06-15T09:29:58.000Z</time>
      </trkpt>
      <trkpt lat="48.90157" lon="1.08809">
        <ele>187</ele>
        <time>2014-06-15T09:30:00.000Z</time>
      </trkpt>
      <trkpt lat="48.90151" lon="1.08823">
        <ele>187</ele>
        <time>2014-06-15T09:30:04.000Z</time>
      </trkpt>
      <trkpt lat="48.90147" lon="1.08832">
        <ele>187</ele>
        <time>2014-06-15T09:30:06.000Z</time>
      </trkpt>
      <trkpt lat="48.90144" lon="1.0884">
        <ele>187</ele>
        <time>2014-06-15T09:30:08.000Z</time>
      </trkpt>
      <trkpt lat="48.90144" lon="1.0884">
        <ele>187</ele>
        <time>2014-06-15T09:30:10.000Z</time>
      </trkpt>
      <trkpt lat="48.90141" lon="1.08855">
        <ele>188</ele>
        <time>2014-06-15T09:30:12.000Z</time>
      </trkpt>
      <trkpt lat="48.90139" lon="1.08865">
        <ele>188</ele>
        <time>2014-06-15T09:30:14.000Z</time>
      </trkpt>
      <trkpt lat="48.90138" lon="1.08874">
        <ele>188</ele>
        <time>2014-06-15T09:30:16.000Z</time>
      </trkpt>
      <trkpt lat="48.90137" lon="1.08887">
        <ele>189</ele>
        <time>2014-06-15T09:30:18.000Z</time>
      </trkpt>
      <trkpt lat="48.90136" lon="1.08899">
        <ele>189</ele>
        <time>2014-06-15T09:30:20.000Z</time>
      </trkpt>
      <trkpt lat="48.90136" lon="1.0891">
        <ele>190</ele>
        <time>2014-06-15T09:30:22.000Z</time>
      </trkpt>
      <trkpt lat="48.90136" lon="1.0892">
        <ele>190</ele>
        <time>2014-06-15T09:30:24.000Z</time>
      </trkpt>
      <trkpt lat="48.90136" lon="1.0892">
        <ele>190</ele>
        <time>2014-06-15T09:30:26.000Z</time>
      </trkpt>
      <trkpt lat="48.90135" lon="1.08936">
        <ele>191</ele>
        <time>2014-06-15T09:30:28.000Z</time>
      </trkpt>
      <trkpt lat="48.90134" lon="1.08947">
        <ele>191</ele>
        <time>2014-06-15T09:30:30.000Z</time>
      </trkpt>
      <trkpt lat="48.90134" lon="1.08957">
        <ele>192</ele>
        <time>2014-06-15T09:30:32.000Z</time>
      </trkpt>
      <trkpt lat="48.90133" lon="1.08967">
        <ele>192</ele>
        <time>2014-06-15T09:30:34.000Z</time>
      </trkpt>
      <trkpt lat="48.90132" lon="1.08978">
        <ele>193</ele>
        <time>2014-06-15T09:30:36.000Z</time>
      </trkpt>
      <trkpt lat="48.9013" lon="1.08993">
        <ele>193</ele>
        <time>2014-06-15T09:30:38.000Z</time>
      </trkpt>
      <trkpt lat="48.90128" lon="1.09005">
        <ele>194</ele>
        <time>2014-06-15T09:30:40.000Z</time>
      </trkpt>
      <trkpt lat="48.90123" lon="1.09017">
        <ele>194</ele>
        <time>2014-06-15T09:30:42.000Z</time>
      </trkpt>
      <trkpt lat="48.90119" lon="1.09029">
        <ele>194</ele>
        <time>2014-06-15T09:30:44.000Z</time>
      </trkpt>
      <trkpt lat="48.90116" lon="1.09038">
        <ele>194</ele>
        <time>2014-06-15T09:30:46.000Z</time>
      </trkpt>
      <trkpt lat="48.90114" lon="1.09049">
        <ele>193</ele>
        <time>2014-06-15T09:30:48.000Z</time>
      </trkpt>
      <trkpt lat="48.90117" lon="1.09061">
        <ele>192</ele>
        <time>2014-06-15T09:30:50.000Z</time>
      </trkpt>
      <trkpt lat="48.9012" lon="1.09076">
        <ele>190</ele>
        <time>2014-06-15T09:30:52.000Z</time>
      </trkpt>
      <trkpt lat="48.90125" lon="1.09093">
        <ele>189</ele>
        <time>2014-06-15T09:30:54.000Z</time>
      </trkpt>
      <trkpt lat="48.90129" lon="1.09111">
        <ele>188</ele>
        <time>2014-06-15T09:30:56.000Z</time>
      </trkpt>
      <trkpt lat="48.90134" lon="1.09132">
        <ele>187</ele>
        <time>2014-06-15T09:30:58.000Z</time>
      </trkpt>
      <trkpt lat="48.9014" lon="1.09153">
        <ele>186</ele>
        <time>2014-06-15T09:31:00.000Z</time>
      </trkpt>
      <trkpt lat="48.9015" lon="1.09169">
        <ele>186</ele>
        <time>2014-06-15T09:31:02.000Z</time>
      </trkpt>
      <trkpt lat="48.90165" lon="1.09175">
        <ele>185</ele>
        <time>2014-06-15T09:31:04.000Z</time>
      </trkpt>
      <trkpt lat="48.90178" lon="1.09172">
        <ele>185</ele>
        <time>2014-06-15T09:31:06.000Z</time>
      </trkpt>
      <trkpt lat="48.90192" lon="1.09164">
        <ele>185</ele>
        <time>2014-06-15T09:31:08.000Z</time>
      </trkpt>
      <trkpt lat="48.90206" lon="1.09155">
        <ele>185</ele>
        <time>2014-06-15T09:31:10.000Z</time>
      </trkpt>
      <trkpt lat="48.90219" lon="1.09139">
        <ele>184</ele>
        <time>2014-06-15T09:31:12.000Z</time>
      </trkpt>
      <trkpt lat="48.9023" lon="1.09124">
        <ele>184</ele>
        <time>2014-06-15T09:31:14.000Z</time>
      </trkpt>
      <trkpt lat="48.90239" lon="1.09108">
        <ele>184</ele>
        <time>2014-06-15T09:31:16.000Z</time>
      </trkpt>
      <trkpt lat="48.90248" lon="1.09093">
        <ele>184</ele>
        <time>2014-06-15T09:31:18.000Z</time>
      </trkpt>
      <trkpt lat="48.90258" lon="1.09077">
        <ele>184</ele>
        <time>2014-06-15T09:31:20.000Z</time>
      </trkpt>
      <trkpt lat="48.90266" lon="1.09061">
        <ele>184</ele>
        <time>2014-06-15T09:31:22.000Z</time>
      </trkpt>
      <trkpt lat="48.90273" lon="1.09044">
        <ele>184</ele>
        <time>2014-06-15T09:31:24.000Z</time>
      </trkpt>
      <trkpt lat="48.90279" lon="1.09026">
        <ele>184</ele>
        <time>2014-06-15T09:31:26.000Z</time>
      </trkpt>
      <trkpt lat="48.90285" lon="1.09007">
        <ele>184</ele>
        <time>2014-06-15T09:31:28.000Z</time>
      </trkpt>
      <trkpt lat="48.90292" lon="1.08989">
        <ele>184</ele>
        <time>2014-06-15T09:31:30.000Z</time>
      </trkpt>
      <trkpt lat="48.90298" lon="1.08973">
        <ele>184</ele>
        <time>2014-06-15T09:31:32.000Z</time>
      </trkpt>
      <trkpt lat="48.90308" lon="1.0896">
        <ele>183</ele>
        <time>2014-06-15T09:31:34.000Z</time>
      </trkpt>
      <trkpt lat="48.90318" lon="1.08949">
        <ele>183</ele>
        <time>2014-06-15T09:31:36.000Z</time>
      </trkpt>
      <trkpt lat="48.90329" lon="1.08941">
        <ele>183</ele>
        <time>2014-06-15T09:31:38.000Z</time>
      </trkpt>
      <trkpt lat="48.90342" lon="1.08933">
        <ele>182</ele>
        <time>2014-06-15T09:31:40.000Z</time>
      </trkpt>
      <trkpt lat="48.90355" lon="1.08925">
        <ele>182</ele>
        <time>2014-06-15T09:31:42.000Z</time>
      </trkpt>
      <trkpt lat="48.90366" lon="1.08919">
        <ele>182</ele>
        <time>2014-06-15T09:31:44.000Z</time>
      </trkpt>
      <trkpt lat="48.90379" lon="1.08913">
        <ele>182</ele>
        <time>2014-06-15T09:31:46.000Z</time>
      </trkpt>
      <trkpt lat="48.90393" lon="1.08905">
        <ele>182</ele>
        <time>2014-06-15T09:31:48.000Z</time>
      </trkpt>
      <trkpt lat="48.90406" lon="1.08897">
        <ele>182</ele>
        <time>2014-06-15T09:31:50.000Z</time>
      </trkpt>
      <trkpt lat="48.90417" lon="1.08889">
        <ele>182</ele>
        <time>2014-06-15T09:31:52.000Z</time>
      </trkpt>
      <trkpt lat="48.90428" lon="1.0888">
        <ele>182</ele>
        <time>2014-06-15T09:31:54.000Z</time>
      </trkpt>
      <trkpt lat="48.9044" lon="1.08871">
        <ele>181</ele>
        <time>2014-06-15T09:31:56.000Z</time>
      </trkpt>
      <trkpt lat="48.90452" lon="1.0886">
        <ele>180</ele>
        <time>2014-06-15T09:31:58.000Z</time>
      </trkpt>
      <trkpt lat="48.90464" lon="1.08848">
        <ele>179</ele>
        <time>2014-06-15T09:32:00.000Z</time>
      </trkpt>
      <trkpt lat="48.90475" lon="1.08835">
        <ele>178</ele>
        <time>2014-06-15T09:32:02.000Z</time>
      </trkpt>
      <trkpt lat="48.90482" lon="1.0882">
        <ele>177</ele>
        <time>2014-06-15T09:32:04.000Z</time>
      </trkpt>
      <trkpt lat="48.90488" lon="1.08802">
        <ele>176</ele>
        <time>2014-06-15T09:32:06.000Z</time>
      </trkpt>
      <trkpt lat="48.90492" lon="1.08781">
        <ele>177</ele>
        <time>2014-06-15T09:32:08.000Z</time>
      </trkpt>
      <trkpt lat="48.90493" lon="1.08761">
        <ele>176</ele>
        <time>2014-06-15T09:32:10.000Z</time>
      </trkpt>
      <trkpt lat="48.90493" lon="1.08744">
        <ele>175</ele>
        <time>2014-06-15T09:32:12.000Z</time>
      </trkpt>
      <trkpt lat="48.90494" lon="1.08726">
        <ele>174</ele>
        <time>2014-06-15T09:32:14.000Z</time>
      </trkpt>
      <trkpt lat="48.90499" lon="1.08711">
        <ele>173</ele>
        <time>2014-06-15T09:32:16.000Z</time>
      </trkpt>
      <trkpt lat="48.90505" lon="1.08696">
        <ele>174</ele>
        <time>2014-06-15T09:32:18.000Z</time>
      </trkpt>
      <trkpt lat="48.90513" lon="1.08681">
        <ele>176</ele>
        <time>2014-06-15T09:32:20.000Z</time>
      </trkpt>
      <trkpt lat="48.90521" lon="1.0867">
        <ele>177</ele>
        <time>2014-06-15T09:32:22.000Z</time>
      </trkpt>
      <trkpt lat="48.90528" lon="1.08665">
        <ele>177</ele>
        <time>2014-06-15T09:32:25.000Z</time>
      </trkpt>
      <trkpt lat="48.90528" lon="1.08665">
        <ele>177</ele>
        <time>2014-06-15T09:32:27.000Z</time>
      </trkpt>
      <trkpt lat="48.90539" lon="1.08669">
        <ele>177</ele>
        <time>2014-06-15T09:32:29.000Z</time>
      </trkpt>
      <trkpt lat="48.90546" lon="1.08674">
        <ele>177</ele>
        <time>2014-06-15T09:32:31.000Z</time>
      </trkpt>
      <trkpt lat="48.90546" lon="1.08674">
        <ele>177</ele>
        <time>2014-06-15T09:32:33.000Z</time>
      </trkpt>
      <trkpt lat="48.9055" lon="1.08682">
        <ele>177</ele>
        <time>2014-06-15T09:32:35.000Z</time>
      </trkpt>
      <trkpt lat="48.9055" lon="1.08682">
        <ele>177</ele>
        <time>2014-06-15T09:32:37.000Z</time>
      </trkpt>
      <trkpt lat="48.90553" lon="1.08686">
        <ele>177</ele>
        <time>2014-06-15T09:32:41.000Z</time>
      </trkpt>
      <trkpt lat="48.90555" lon="1.08689">
        <ele>177</ele>
        <time>2014-06-15T09:32:47.000Z</time>
      </trkpt>
      <trkpt lat="48.90555" lon="1.08689">
        <ele>177</ele>
        <time>2014-06-15T09:32:49.000Z</time>
      </trkpt>
      <trkpt lat="48.90555" lon="1.08689">
        <ele>177</ele>
        <time>2014-06-15T09:32:51.000Z</time>
      </trkpt>
      <trkpt lat="48.90555" lon="1.08689">
        <ele>177</ele>
        <time>2014-06-15T09:32:53.000Z</time>
      </trkpt>
      <trkpt lat="48.90555" lon="1.08689">
        <ele>177</ele>
        <time>2014-06-15T09:32:55.000Z</time>
      </trkpt>
      <trkpt lat="48.90555" lon="1.08694">
        <ele>177</ele>
        <time>2014-06-15T09:33:07.000Z</time>
      </trkpt>
      <trkpt lat="48.90555" lon="1.08694">
        <ele>177</ele>
        <time>2014-06-15T09:33:09.000Z</time>
      </trkpt>
      <trkpt lat="48.90555" lon="1.08694">
        <ele>177</ele>
        <time>2014-06-15T09:33:11.000Z</time>
      </trkpt>
      <trkpt lat="48.90555" lon="1.08699">
        <ele>178</ele>
        <time>2014-06-15T09:33:24.000Z</time>
      </trkpt>
      <trkpt lat="48.90555" lon="1.08699">
        <ele>178</ele>
        <time>2014-06-15T09:33:26.000Z</time>
      </trkpt>
      <trkpt lat="48.90555" lon="1.08699">
        <ele>178</ele>
        <time>2014-06-15T09:33:28.000Z</time>
      </trkpt>
      <trkpt lat="48.90557" lon="1.08704">
        <ele>179</ele>
        <time>2014-06-15T09:33:30.000Z</time>
      </trkpt>
      <trkpt lat="48.90559" lon="1.08709">
        <ele>180</ele>
        <time>2014-06-15T09:33:32.000Z</time>
      </trkpt>
      <trkpt lat="48.90559" lon="1.08709">
        <ele>180</ele>
        <time>2014-06-15T09:33:34.000Z</time>
      </trkpt>
      <trkpt lat="48.90561" lon="1.08713">
        <ele>180</ele>
        <time>2014-06-15T09:33:36.000Z</time>
      </trkpt>
      <trkpt lat="48.90563" lon="1.08718">
        <ele>180</ele>
        <time>2014-06-15T09:33:38.000Z</time>
      </trkpt>
      <trkpt lat="48.90567" lon="1.08723">
        <ele>181</ele>
        <time>2014-06-15T09:33:40.000Z</time>
      </trkpt>
      <trkpt lat="48.9057" lon="1.08726">
        <ele>181</ele>
        <time>2014-06-15T09:33:42.000Z</time>
      </trkpt>
      <trkpt lat="48.90573" lon="1.08729">
        <ele>181</ele>
        <time>2014-06-15T09:33:44.000Z</time>
      </trkpt>
      <trkpt lat="48.90578" lon="1.08733">
        <ele>182</ele>
        <time>2014-06-15T09:33:46.000Z</time>
      </trkpt>
      <trkpt lat="48.90578" lon="1.08733">
        <ele>182</ele>
        <time>2014-06-15T09:33:48.000Z</time>
      </trkpt>
      <trkpt lat="48.90586" lon="1.08739">
        <ele>183</ele>
        <time>2014-06-15T09:33:52.000Z</time>
      </trkpt>
      <trkpt lat="48.90586" lon="1.08739">
        <ele>183</ele>
        <time>2014-06-15T09:33:54.000Z</time>
      </trkpt>
      <trkpt lat="48.90586" lon="1.08739">
        <ele>183</ele>
        <time>2014-06-15T09:33:56.000Z</time>
      </trkpt>
      <trkpt lat="48.90586" lon="1.08739">
        <ele>183</ele>
        <time>2014-06-15T09:33:58.000Z</time>
      </trkpt>
      <trkpt lat="48.90586" lon="1.08739">
        <ele>183</ele>
        <time>2014-06-15T09:34:00.000Z</time>
      </trkpt>
      <trkpt lat="48.90586" lon="1.08739">
        <ele>183</ele>
        <time>2014-06-15T09:34:02.000Z</time>
      </trkpt>
      <trkpt lat="48.90592" lon="1.08746">
        <ele>187</ele>
        <time>2014-06-15T09:34:04.000Z</time>
      </trkpt>
      <trkpt lat="48.90592" lon="1.08746">
        <ele>187</ele>
        <time>2014-06-15T09:34:08.000Z</time>
      </trkpt>
      <trkpt lat="48.90599" lon="1.08753">
        <ele>187</ele>
        <time>2014-06-15T09:34:10.000Z</time>
      </trkpt>
      <trkpt lat="48.90599" lon="1.08753">
        <ele>187</ele>
        <time>2014-06-15T09:34:12.000Z</time>
      </trkpt>
      <trkpt lat="48.90606" lon="1.08756">
        <ele>187</ele>
        <time>2014-06-15T09:34:14.000Z</time>
      </trkpt>
      <trkpt lat="48.90613" lon="1.08761">
        <ele>187</ele>
        <time>2014-06-15T09:34:18.000Z</time>
      </trkpt>
      <trkpt lat="48.90622" lon="1.08768">
        <ele>187</ele>
        <time>2014-06-15T09:34:22.000Z</time>
      </trkpt>
      <trkpt lat="48.90631" lon="1.08778">
        <ele>186</ele>
        <time>2014-06-15T09:34:26.000Z</time>
      </trkpt>
      <trkpt lat="48.90635" lon="1.08792">
        <ele>186</ele>
        <time>2014-06-15T09:34:30.000Z</time>
      </trkpt>
      <trkpt lat="48.90639" lon="1.08805">
        <ele>186</ele>
        <time>2014-06-15T09:34:34.000Z</time>
      </trkpt>
      <trkpt lat="48.90644" lon="1.08816">
        <ele>187</ele>
        <time>2014-06-15T09:34:38.000Z</time>
      </trkpt>
      <trkpt lat="48.90644" lon="1.08816">
        <ele>187</ele>
        <time>2014-06-15T09:34:40.000Z</time>
      </trkpt>
      <trkpt lat="48.90649" lon="1.08829">
        <ele>187</ele>
        <time>2014-06-15T09:34:42.000Z</time>
      </trkpt>
      <trkpt lat="48.90654" lon="1.08847">
        <ele>188</ele>
        <time>2014-06-15T09:34:46.000Z</time>
      </trkpt>
      <trkpt lat="48.90657" lon="1.08859">
        <ele>188</ele>
        <time>2014-06-15T09:34:48.000Z</time>
      </trkpt>
      <trkpt lat="48.90661" lon="1.08871">
        <ele>188</ele>
        <time>2014-06-15T09:34:50.000Z</time>
      </trkpt>
      <trkpt lat="48.90664" lon="1.08885">
        <ele>189</ele>
        <time>2014-06-15T09:34:52.000Z</time>
      </trkpt>
      <trkpt lat="48.90667" lon="1.08899">
        <ele>190</ele>
        <time>2014-06-15T09:34:54.000Z</time>
      </trkpt>
      <trkpt lat="48.9067" lon="1.08913">
        <ele>191</ele>
        <time>2014-06-15T09:34:56.000Z</time>
      </trkpt>
      <trkpt lat="48.90673" lon="1.08927">
        <ele>191</ele>
        <time>2014-06-15T09:34:58.000Z</time>
      </trkpt>
      <trkpt lat="48.90674" lon="1.08936">
        <ele>191</ele>
        <time>2014-06-15T09:35:00.000Z</time>
      </trkpt>
      <trkpt lat="48.90674" lon="1.08936">
        <ele>191</ele>
        <time>2014-06-15T09:35:02.000Z</time>
      </trkpt>
      <trkpt lat="48.90678" lon="1.08952">
        <ele>192</ele>
        <time>2014-06-15T09:35:04.000Z</time>
      </trkpt>
      <trkpt lat="48.90678" lon="1.08952">
        <ele>192</ele>
        <time>2014-06-15T09:35:06.000Z</time>
      </trkpt>
      <trkpt lat="48.90681" lon="1.08966">
        <ele>192</ele>
        <time>2014-06-15T09:35:08.000Z</time>
      </trkpt>
      <trkpt lat="48.90681" lon="1.08966">
        <ele>192</ele>
        <time>2014-06-15T09:35:10.000Z</time>
      </trkpt>
      <trkpt lat="48.90685" lon="1.08979">
        <ele>193</ele>
        <time>2014-06-15T09:35:12.000Z</time>
      </trkpt>
      <trkpt lat="48.90685" lon="1.08979">
        <ele>193</ele>
        <time>2014-06-15T09:35:14.000Z</time>
      </trkpt>
      <trkpt lat="48.90688" lon="1.08991">
        <ele>193</ele>
        <time>2014-06-15T09:35:16.000Z</time>
      </trkpt>
      <trkpt lat="48.9069" lon="1.09005">
        <ele>194</ele>
        <time>2014-06-15T09:35:20.000Z</time>
      </trkpt>
      <trkpt lat="48.90694" lon="1.09019">
        <ele>194</ele>
        <time>2014-06-15T09:35:24.000Z</time>
      </trkpt>
      <trkpt lat="48.90699" lon="1.09036">
        <ele>195</ele>
        <time>2014-06-15T09:35:28.000Z</time>
      </trkpt>
      <trkpt lat="48.90699" lon="1.09036">
        <ele>195</ele>
        <time>2014-06-15T09:35:30.000Z</time>
      </trkpt>
      <trkpt lat="48.90703" lon="1.09046">
        <ele>195</ele>
        <time>2014-06-15T09:35:32.000Z</time>
      </trkpt>
      <trkpt lat="48.90703" lon="1.09046">
        <ele>195</ele>
        <time>2014-06-15T09:35:34.000Z</time>
      </trkpt>
      <trkpt lat="48.90706" lon="1.09057">
        <ele>196</ele>
        <time>2014-06-15T09:35:36.000Z</time>
      </trkpt>
      <trkpt lat="48.90706" lon="1.09057">
        <ele>196</ele>
        <time>2014-06-15T09:35:38.000Z</time>
      </trkpt>
      <trkpt lat="48.9071" lon="1.09068">
        <ele>196</ele>
        <time>2014-06-15T09:35:40.000Z</time>
      </trkpt>
      <trkpt lat="48.90714" lon="1.09082">
        <ele>196</ele>
        <time>2014-06-15T09:35:44.000Z</time>
      </trkpt>
      <trkpt lat="48.90717" lon="1.09089">
        <ele>196</ele>
        <time>2014-06-15T09:35:48.000Z</time>
      </trkpt>
      <trkpt lat="48.90721" lon="1.09098">
        <ele>196</ele>
        <time>2014-06-15T09:35:50.000Z</time>
      </trkpt>
      <trkpt lat="48.90723" lon="1.09106">
        <ele>197</ele>
        <time>2014-06-15T09:35:52.000Z</time>
      </trkpt>
      <trkpt lat="48.90726" lon="1.09113">
        <ele>197</ele>
        <time>2014-06-15T09:35:54.000Z</time>
      </trkpt>
      <trkpt lat="48.9073" lon="1.09122">
        <ele>197</ele>
        <time>2014-06-15T09:35:56.000Z</time>
      </trkpt>
      <trkpt lat="48.90737" lon="1.0914">
        <ele>197</ele>
        <time>2014-06-15T09:35:58.000Z</time>
      </trkpt>
      <trkpt lat="48.90741" lon="1.09148">
        <ele>197</ele>
        <time>2014-06-15T09:36:00.000Z</time>
      </trkpt>
      <trkpt lat="48.90747" lon="1.09155">
        <ele>198</ele>
        <time>2014-06-15T09:36:02.000Z</time>
      </trkpt>
      <trkpt lat="48.90752" lon="1.09163">
        <ele>198</ele>
        <time>2014-06-15T09:36:04.000Z</time>
      </trkpt>
      <trkpt lat="48.90752" lon="1.09172">
        <ele>198</ele>
        <time>2014-06-15T09:36:06.000Z</time>
      </trkpt>
      <trkpt lat="48.90748" lon="1.09182">
        <ele>199</ele>
        <time>2014-06-15T09:36:08.000Z</time>
      </trkpt>
      <trkpt lat="48.90742" lon="1.09188">
        <ele>199</ele>
        <time>2014-06-15T09:36:10.000Z</time>
      </trkpt>
      <trkpt lat="48.90736" lon="1.09192">
        <ele>199</ele>
        <time>2014-06-15T09:36:12.000Z</time>
      </trkpt>
      <trkpt lat="48.90726" lon="1.09198">
        <ele>200</ele>
        <time>2014-06-15T09:36:14.000Z</time>
      </trkpt>
      <trkpt lat="48.90716" lon="1.09204">
        <ele>204</ele>
        <time>2014-06-15T09:36:16.000Z</time>
      </trkpt>
      <trkpt lat="48.90704" lon="1.09211">
        <ele>207</ele>
        <time>2014-06-15T09:36:18.000Z</time>
      </trkpt>
      <trkpt lat="48.90696" lon="1.09221">
        <ele>207</ele>
        <time>2014-06-15T09:36:20.000Z</time>
      </trkpt>
      <trkpt lat="48.90695" lon="1.09231">
        <ele>207</ele>
        <time>2014-06-15T09:36:25.000Z</time>
      </trkpt>
      <trkpt lat="48.9072" lon="1.09262">
        <ele>204</ele>
        <time>2014-06-15T09:36:30.000Z</time>
      </trkpt>
      <trkpt lat="48.90729" lon="1.09272">
        <ele>205</ele>
        <time>2014-06-15T09:36:32.000Z</time>
      </trkpt>
      <trkpt lat="48.90738" lon="1.09281">
        <ele>205</ele>
        <time>2014-06-15T09:36:34.000Z</time>
      </trkpt>
      <trkpt lat="48.90747" lon="1.09291">
        <ele>206</ele>
        <time>2014-06-15T09:36:36.000Z</time>
      </trkpt>
      <trkpt lat="48.90756" lon="1.09299">
        <ele>207</ele>
        <time>2014-06-15T09:36:38.000Z</time>
      </trkpt>
      <trkpt lat="48.90763" lon="1.09305">
        <ele>207</ele>
        <time>2014-06-15T09:36:40.000Z</time>
      </trkpt>
      <trkpt lat="48.9077" lon="1.0931">
        <ele>207</ele>
        <time>2014-06-15T09:36:42.000Z</time>
      </trkpt>
      <trkpt lat="48.90779" lon="1.09318">
        <ele>207</ele>
        <time>2014-06-15T09:36:44.000Z</time>
      </trkpt>
      <trkpt lat="48.90787" lon="1.09326">
        <ele>208</ele>
        <time>2014-06-15T09:36:46.000Z</time>
      </trkpt>
      <trkpt lat="48.90787" lon="1.09326">
        <ele>208</ele>
        <time>2014-06-15T09:36:48.000Z</time>
      </trkpt>
      <trkpt lat="48.90794" lon="1.09332">
        <ele>208</ele>
        <time>2014-06-15T09:36:50.000Z</time>
      </trkpt>
      <trkpt lat="48.90806" lon="1.0933">
        <ele>208</ele>
        <time>2014-06-15T09:36:56.000Z</time>
      </trkpt>
      <trkpt lat="48.90815" lon="1.09333">
        <ele>208</ele>
        <time>2014-06-15T09:36:58.000Z</time>
      </trkpt>
      <trkpt lat="48.90826" lon="1.09336">
        <ele>208</ele>
        <time>2014-06-15T09:37:00.000Z</time>
      </trkpt>
      <trkpt lat="48.90837" lon="1.0934">
        <ele>208</ele>
        <time>2014-06-15T09:37:02.000Z</time>
      </trkpt>
      <trkpt lat="48.90848" lon="1.09346">
        <ele>208</ele>
        <time>2014-06-15T09:37:04.000Z</time>
      </trkpt>
      <trkpt lat="48.90859" lon="1.09353">
        <ele>208</ele>
        <time>2014-06-15T09:37:06.000Z</time>
      </trkpt>
      <trkpt lat="48.90866" lon="1.0936">
        <ele>208</ele>
        <time>2014-06-15T09:37:08.000Z</time>
      </trkpt>
      <trkpt lat="48.90873" lon="1.09366">
        <ele>208</ele>
        <time>2014-06-15T09:37:10.000Z</time>
      </trkpt>
      <trkpt lat="48.90878" lon="1.09372">
        <ele>208</ele>
        <time>2014-06-15T09:37:12.000Z</time>
      </trkpt>
      <trkpt lat="48.90882" lon="1.09377">
        <ele>207</ele>
        <time>2014-06-15T09:37:14.000Z</time>
      </trkpt>
      <trkpt lat="48.90882" lon="1.09377">
        <ele>207</ele>
        <time>2014-06-15T09:37:16.000Z</time>
      </trkpt>
      <trkpt lat="48.90891" lon="1.09387">
        <ele>207</ele>
        <time>2014-06-15T09:37:18.000Z</time>
      </trkpt>
      <trkpt lat="48.90899" lon="1.094">
        <ele>207</ele>
        <time>2014-06-15T09:37:22.000Z</time>
      </trkpt>
      <trkpt lat="48.90899" lon="1.094">
        <ele>207</ele>
        <time>2014-06-15T09:37:24.000Z</time>
      </trkpt>
      <trkpt lat="48.90904" lon="1.09413">
        <ele>207</ele>
        <time>2014-06-15T09:37:26.000Z</time>
      </trkpt>
      <trkpt lat="48.90904" lon="1.09413">
        <ele>207</ele>
        <time>2014-06-15T09:37:28.000Z</time>
      </trkpt>
      <trkpt lat="48.90913" lon="1.09431">
        <ele>206</ele>
        <time>2014-06-15T09:37:30.000Z</time>
      </trkpt>
      <trkpt lat="48.90919" lon="1.09442">
        <ele>206</ele>
        <time>2014-06-15T09:37:32.000Z</time>
      </trkpt>
      <trkpt lat="48.90923" lon="1.09452">
        <ele>206</ele>
        <time>2014-06-15T09:37:34.000Z</time>
      </trkpt>
      <trkpt lat="48.9093" lon="1.09465">
        <ele>206</ele>
        <time>2014-06-15T09:37:36.000Z</time>
      </trkpt>
      <trkpt lat="48.90936" lon="1.09476">
        <ele>206</ele>
        <time>2014-06-15T09:37:38.000Z</time>
      </trkpt>
      <trkpt lat="48.90941" lon="1.09486">
        <ele>205</ele>
        <time>2014-06-15T09:37:40.000Z</time>
      </trkpt>
      <trkpt lat="48.90945" lon="1.09496">
        <ele>205</ele>
        <time>2014-06-15T09:37:42.000Z</time>
      </trkpt>
      <trkpt lat="48.9095" lon="1.09504">
        <ele>204</ele>
        <time>2014-06-15T09:37:44.000Z</time>
      </trkpt>
      <trkpt lat="48.90953" lon="1.09513">
        <ele>204</ele>
        <time>2014-06-15T09:37:46.000Z</time>
      </trkpt>
      <trkpt lat="48.90958" lon="1.09523">
        <ele>204</ele>
        <time>2014-06-15T09:37:48.000Z</time>
      </trkpt>
      <trkpt lat="48.90965" lon="1.0953">
        <ele>203</ele>
        <time>2014-06-15T09:37:50.000Z</time>
      </trkpt>
      <trkpt lat="48.90973" lon="1.09529">
        <ele>203</ele>
        <time>2014-06-15T09:37:52.000Z</time>
      </trkpt>
      <trkpt lat="48.9098" lon="1.09528">
        <ele>203</ele>
        <time>2014-06-15T09:37:54.000Z</time>
      </trkpt>
      <trkpt lat="48.90984" lon="1.0952">
        <ele>203</ele>
        <time>2014-06-15T09:37:56.000Z</time>
      </trkpt>
      <trkpt lat="48.90987" lon="1.09507">
        <ele>203</ele>
        <time>2014-06-15T09:38:00.000Z</time>
      </trkpt>
      <trkpt lat="48.90987" lon="1.09507">
        <ele>203</ele>
        <time>2014-06-15T09:38:02.000Z</time>
      </trkpt>
      <trkpt lat="48.90989" lon="1.09491">
        <ele>204</ele>
        <time>2014-06-15T09:38:04.000Z</time>
      </trkpt>
      <trkpt lat="48.90989" lon="1.09482">
        <ele>204</ele>
        <time>2014-06-15T09:38:06.000Z</time>
      </trkpt>
      <trkpt lat="48.90989" lon="1.09472">
        <ele>205</ele>
        <time>2014-06-15T09:38:08.000Z</time>
      </trkpt>
      <trkpt lat="48.90989" lon="1.09453">
        <ele>207</ele>
        <time>2014-06-15T09:38:12.000Z</time>
      </trkpt>
      <trkpt lat="48.9099" lon="1.09436">
        <ele>209</ele>
        <time>2014-06-15T09:38:14.000Z</time>
      </trkpt>
      <trkpt lat="48.9099" lon="1.09417">
        <ele>210</ele>
        <time>2014-06-15T09:38:16.000Z</time>
      </trkpt>
      <trkpt lat="48.90989" lon="1.09401">
        <ele>211</ele>
        <time>2014-06-15T09:38:18.000Z</time>
      </trkpt>
      <trkpt lat="48.90987" lon="1.09386">
        <ele>212</ele>
        <time>2014-06-15T09:38:20.000Z</time>
      </trkpt>
      <trkpt lat="48.90986" lon="1.09371">
        <ele>213</ele>
        <time>2014-06-15T09:38:22.000Z</time>
      </trkpt>
      <trkpt lat="48.90984" lon="1.09351">
        <ele>214</ele>
        <time>2014-06-15T09:38:24.000Z</time>
      </trkpt>
      <trkpt lat="48.90982" lon="1.09334">
        <ele>214</ele>
        <time>2014-06-15T09:38:26.000Z</time>
      </trkpt>
      <trkpt lat="48.90981" lon="1.09323">
        <ele>215</ele>
        <time>2014-06-15T09:38:28.000Z</time>
      </trkpt>
      <trkpt lat="48.90981" lon="1.09307">
        <ele>216</ele>
        <time>2014-06-15T09:38:30.000Z</time>
      </trkpt>
      <trkpt lat="48.9098" lon="1.09289">
        <ele>220</ele>
        <time>2014-06-15T09:38:32.000Z</time>
      </trkpt>
      <trkpt lat="48.90978" lon="1.09253">
        <ele>221</ele>
        <time>2014-06-15T09:38:35.000Z</time>
      </trkpt>
      <trkpt lat="48.90976" lon="1.09233">
        <ele>221</ele>
        <time>2014-06-15T09:38:37.000Z</time>
      </trkpt>
      <trkpt lat="48.90976" lon="1.09216">
        <ele>222</ele>
        <time>2014-06-15T09:38:39.000Z</time>
      </trkpt>
      <trkpt lat="48.90976" lon="1.09197">
        <ele>222</ele>
        <time>2014-06-15T09:38:41.000Z</time>
      </trkpt>
      <trkpt lat="48.90977" lon="1.09179">
        <ele>223</ele>
        <time>2014-06-15T09:38:43.000Z</time>
      </trkpt>
      <trkpt lat="48.90978" lon="1.09159">
        <ele>223</ele>
        <time>2014-06-15T09:38:45.000Z</time>
      </trkpt>
      <trkpt lat="48.90979" lon="1.09141">
        <ele>223</ele>
        <time>2014-06-15T09:38:47.000Z</time>
      </trkpt>
      <trkpt lat="48.90981" lon="1.09125">
        <ele>223</ele>
        <time>2014-06-15T09:38:49.000Z</time>
      </trkpt>
      <trkpt lat="48.90982" lon="1.09104">
        <ele>223</ele>
        <time>2014-06-15T09:38:51.000Z</time>
      </trkpt>
      <trkpt lat="48.90984" lon="1.09087">
        <ele>223</ele>
        <time>2014-06-15T09:38:53.000Z</time>
      </trkpt>
      <trkpt lat="48.90985" lon="1.0907">
        <ele>223</ele>
        <time>2014-06-15T09:38:55.000Z</time>
      </trkpt>
      <trkpt lat="48.90985" lon="1.09057">
        <ele>223</ele>
        <time>2014-06-15T09:38:57.000Z</time>
      </trkpt>
      <trkpt lat="48.90986" lon="1.09047">
        <ele>222</ele>
        <time>2014-06-15T09:38:59.000Z</time>
      </trkpt>
      <trkpt lat="48.90986" lon="1.09047">
        <ele>222</ele>
        <time>2014-06-15T09:39:01.000Z</time>
      </trkpt>
      <trkpt lat="48.90991" lon="1.09031">
        <ele>220</ele>
        <time>2014-06-15T09:39:03.000Z</time>
      </trkpt>
      <trkpt lat="48.90995" lon="1.09019">
        <ele>218</ele>
        <time>2014-06-15T09:39:05.000Z</time>
      </trkpt>
      <trkpt lat="48.91" lon="1.09006">
        <ele>217</ele>
        <time>2014-06-15T09:39:07.000Z</time>
      </trkpt>
      <trkpt lat="48.91004" lon="1.08991">
        <ele>215</ele>
        <time>2014-06-15T09:39:09.000Z</time>
      </trkpt>
      <trkpt lat="48.91008" lon="1.08975">
        <ele>213</ele>
        <time>2014-06-15T09:39:11.000Z</time>
      </trkpt>
      <trkpt lat="48.91011" lon="1.08957">
        <ele>213</ele>
        <time>2014-06-15T09:39:13.000Z</time>
      </trkpt>
      <trkpt lat="48.91015" lon="1.08939">
        <ele>214</ele>
        <time>2014-06-15T09:39:15.000Z</time>
      </trkpt>
      <trkpt lat="48.91021" lon="1.08921">
        <ele>214</ele>
        <time>2014-06-15T09:39:17.000Z</time>
      </trkpt>
      <trkpt lat="48.91026" lon="1.08902">
        <ele>213</ele>
        <time>2014-06-15T09:39:19.000Z</time>
      </trkpt>
      <trkpt lat="48.91027" lon="1.08885">
        <ele>212</ele>
        <time>2014-06-15T09:39:21.000Z</time>
      </trkpt>
      <trkpt lat="48.91028" lon="1.08864">
        <ele>213</ele>
        <time>2014-06-15T09:39:23.000Z</time>
      </trkpt>
      <trkpt lat="48.91028" lon="1.08838">
        <ele>213</ele>
        <time>2014-06-15T09:39:25.000Z</time>
      </trkpt>
      <trkpt lat="48.91029" lon="1.08815">
        <ele>211</ele>
        <time>2014-06-15T09:39:27.000Z</time>
      </trkpt>
      <trkpt lat="48.91032" lon="1.08793">
        <ele>209</ele>
        <time>2014-06-15T09:39:29.000Z</time>
      </trkpt>
      <trkpt lat="48.91036" lon="1.08772">
        <ele>208</ele>
        <time>2014-06-15T09:39:31.000Z</time>
      </trkpt>
      <trkpt lat="48.9104" lon="1.0875">
        <ele>206</ele>
        <time>2014-06-15T09:39:33.000Z</time>
      </trkpt>
      <trkpt lat="48.91046" lon="1.08728">
        <ele>202</ele>
        <time>2014-06-15T09:39:35.000Z</time>
      </trkpt>
      <trkpt lat="48.91052" lon="1.08707">
        <ele>199</ele>
        <time>2014-06-15T09:39:37.000Z</time>
      </trkpt>
      <trkpt lat="48.9106" lon="1.08684">
        <ele>198</ele>
        <time>2014-06-15T09:39:39.000Z</time>
      </trkpt>
      <trkpt lat="48.91068" lon="1.08661">
        <ele>198</ele>
        <time>2014-06-15T09:39:41.000Z</time>
      </trkpt>
      <trkpt lat="48.91075" lon="1.08638">
        <ele>197</ele>
        <time>2014-06-15T09:39:43.000Z</time>
      </trkpt>
      <trkpt lat="48.9108" lon="1.08615">
        <ele>197</ele>
        <time>2014-06-15T09:39:45.000Z</time>
      </trkpt>
      <trkpt lat="48.91086" lon="1.08592">
        <ele>196</ele>
        <time>2014-06-15T09:39:47.000Z</time>
      </trkpt>
      <trkpt lat="48.91091" lon="1.08568">
        <ele>195</ele>
        <time>2014-06-15T09:39:49.000Z</time>
      </trkpt>
      <trkpt lat="48.91119" lon="1.08474">
        <ele>194</ele>
        <time>2014-06-15T09:39:54.000Z</time>
      </trkpt>
      <trkpt lat="48.91132" lon="1.08422">
        <ele>191</ele>
        <time>2014-06-15T09:39:58.000Z</time>
      </trkpt>
      <trkpt lat="48.91138" lon="1.08399">
        <ele>188</ele>
        <time>2014-06-15T09:40:00.000Z</time>
      </trkpt>
      <trkpt lat="48.91145" lon="1.08378">
        <ele>187</ele>
        <time>2014-06-15T09:40:02.000Z</time>
      </trkpt>
      <trkpt lat="48.91154" lon="1.0836">
        <ele>186</ele>
        <time>2014-06-15T09:40:04.000Z</time>
      </trkpt>
      <trkpt lat="48.91164" lon="1.08341">
        <ele>187</ele>
        <time>2014-06-15T09:40:06.000Z</time>
      </trkpt>
      <trkpt lat="48.91174" lon="1.08325">
        <ele>187</ele>
        <time>2014-06-15T09:40:08.000Z</time>
      </trkpt>
      <trkpt lat="48.91184" lon="1.08311">
        <ele>187</ele>
        <time>2014-06-15T09:40:10.000Z</time>
      </trkpt>
      <trkpt lat="48.91192" lon="1.08302">
        <ele>185</ele>
        <time>2014-06-15T09:40:12.000Z</time>
      </trkpt>
      <trkpt lat="48.91199" lon="1.08293">
        <ele>185</ele>
        <time>2014-06-15T09:40:14.000Z</time>
      </trkpt>
      <trkpt lat="48.91206" lon="1.08284">
        <ele>185</ele>
        <time>2014-06-15T09:40:16.000Z</time>
      </trkpt>
      <trkpt lat="48.91216" lon="1.08272">
        <ele>186</ele>
        <time>2014-06-15T09:40:18.000Z</time>
      </trkpt>
      <trkpt lat="48.91226" lon="1.08259">
        <ele>188</ele>
        <time>2014-06-15T09:40:20.000Z</time>
      </trkpt>
      <trkpt lat="48.91234" lon="1.08248">
        <ele>188</ele>
        <time>2014-06-15T09:40:22.000Z</time>
      </trkpt>
      <trkpt lat="48.91245" lon="1.08235">
        <ele>188</ele>
        <time>2014-06-15T09:40:24.000Z</time>
      </trkpt>
      <trkpt lat="48.91254" lon="1.08222">
        <ele>190</ele>
        <time>2014-06-15T09:40:26.000Z</time>
      </trkpt>
      <trkpt lat="48.91261" lon="1.0821">
        <ele>191</ele>
        <time>2014-06-15T09:40:28.000Z</time>
      </trkpt>
      <trkpt lat="48.91267" lon="1.08198">
        <ele>192</ele>
        <time>2014-06-15T09:40:30.000Z</time>
      </trkpt>
      <trkpt lat="48.91273" lon="1.08186">
        <ele>192</ele>
        <time>2014-06-15T09:40:32.000Z</time>
      </trkpt>
      <trkpt lat="48.91279" lon="1.08171">
        <ele>191</ele>
        <time>2014-06-15T09:40:34.000Z</time>
      </trkpt>
      <trkpt lat="48.91286" lon="1.08158">
        <ele>192</ele>
        <time>2014-06-15T09:40:36.000Z</time>
      </trkpt>
      <trkpt lat="48.9129" lon="1.08149">
        <ele>191</ele>
        <time>2014-06-15T09:40:38.000Z</time>
      </trkpt>
      <trkpt lat="48.91294" lon="1.08143">
        <ele>191</ele>
        <time>2014-06-15T09:40:40.000Z</time>
      </trkpt>
      <trkpt lat="48.91298" lon="1.08134">
        <ele>191</ele>
        <time>2014-06-15T09:40:42.000Z</time>
      </trkpt>
      <trkpt lat="48.91303" lon="1.08123">
        <ele>191</ele>
        <time>2014-06-15T09:40:44.000Z</time>
      </trkpt>
      <trkpt lat="48.91307" lon="1.0811">
        <ele>191</ele>
        <time>2014-06-15T09:40:46.000Z</time>
      </trkpt>
      <trkpt lat="48.91315" lon="1.08095">
        <ele>191</ele>
        <time>2014-06-15T09:40:48.000Z</time>
      </trkpt>
      <trkpt lat="48.91323" lon="1.08079">
        <ele>191</ele>
        <time>2014-06-15T09:40:50.000Z</time>
      </trkpt>
      <trkpt lat="48.9133" lon="1.08065">
        <ele>192</ele>
        <time>2014-06-15T09:40:52.000Z</time>
      </trkpt>
      <trkpt lat="48.91335" lon="1.08055">
        <ele>192</ele>
        <time>2014-06-15T09:40:54.000Z</time>
      </trkpt>
      <trkpt lat="48.91339" lon="1.08046">
        <ele>192</ele>
        <time>2014-06-15T09:40:56.000Z</time>
      </trkpt>
      <trkpt lat="48.91345" lon="1.08036">
        <ele>193</ele>
        <time>2014-06-15T09:40:58.000Z</time>
      </trkpt>
      <trkpt lat="48.91351" lon="1.08026">
        <ele>193</ele>
        <time>2014-06-15T09:41:00.000Z</time>
      </trkpt>
      <trkpt lat="48.91357" lon="1.08016">
        <ele>194</ele>
        <time>2014-06-15T09:41:02.000Z</time>
      </trkpt>
      <trkpt lat="48.91363" lon="1.08006">
        <ele>194</ele>
        <time>2014-06-15T09:41:04.000Z</time>
      </trkpt>
      <trkpt lat="48.91368" lon="1.07997">
        <ele>194</ele>
        <time>2014-06-15T09:41:06.000Z</time>
      </trkpt>
      <trkpt lat="48.91375" lon="1.07984">
        <ele>194</ele>
        <time>2014-06-15T09:41:08.000Z</time>
      </trkpt>
      <trkpt lat="48.91383" lon="1.07971">
        <ele>195</ele>
        <time>2014-06-15T09:41:10.000Z</time>
      </trkpt>
      <trkpt lat="48.91389" lon="1.07961">
        <ele>194</ele>
        <time>2014-06-15T09:41:12.000Z</time>
      </trkpt>
      <trkpt lat="48.91395" lon="1.07949">
        <ele>192</ele>
        <time>2014-06-15T09:41:14.000Z</time>
      </trkpt>
      <trkpt lat="48.91402" lon="1.07935">
        <ele>192</ele>
        <time>2014-06-15T09:41:16.000Z</time>
      </trkpt>
      <trkpt lat="48.9141" lon="1.07923">
        <ele>191</ele>
        <time>2014-06-15T09:41:18.000Z</time>
      </trkpt>
      <trkpt lat="48.91418" lon="1.07908">
        <ele>190</ele>
        <time>2014-06-15T09:41:20.000Z</time>
      </trkpt>
      <trkpt lat="48.91425" lon="1.07894">
        <ele>191</ele>
        <time>2014-06-15T09:41:22.000Z</time>
      </trkpt>
      <trkpt lat="48.9143" lon="1.07879">
        <ele>191</ele>
        <time>2014-06-15T09:41:24.000Z</time>
      </trkpt>
      <trkpt lat="48.91436" lon="1.0786">
        <ele>192</ele>
        <time>2014-06-15T09:41:26.000Z</time>
      </trkpt>
      <trkpt lat="48.9144" lon="1.0784">
        <ele>191</ele>
        <time>2014-06-15T09:41:28.000Z</time>
      </trkpt>
      <trkpt lat="48.91444" lon="1.0782">
        <ele>191</ele>
        <time>2014-06-15T09:41:30.000Z</time>
      </trkpt>
      <trkpt lat="48.91448" lon="1.078">
        <ele>190</ele>
        <time>2014-06-15T09:41:32.000Z</time>
      </trkpt>
      <trkpt lat="48.91452" lon="1.07782">
        <ele>188</ele>
        <time>2014-06-15T09:41:34.000Z</time>
      </trkpt>
      <trkpt lat="48.91455" lon="1.07763">
        <ele>187</ele>
        <time>2014-06-15T09:41:36.000Z</time>
      </trkpt>
      <trkpt lat="48.91458" lon="1.07745">
        <ele>186</ele>
        <time>2014-06-15T09:41:38.000Z</time>
      </trkpt>
      <trkpt lat="48.9146" lon="1.07728">
        <ele>186</ele>
        <time>2014-06-15T09:41:40.000Z</time>
      </trkpt>
      <trkpt lat="48.91464" lon="1.07713">
        <ele>185</ele>
        <time>2014-06-15T09:41:42.000Z</time>
      </trkpt>
      <trkpt lat="48.91469" lon="1.077">
        <ele>186</ele>
        <time>2014-06-15T09:41:44.000Z</time>
      </trkpt>
      <trkpt lat="48.91475" lon="1.07691">
        <ele>186</ele>
        <time>2014-06-15T09:41:46.000Z</time>
      </trkpt>
      <trkpt lat="48.91475" lon="1.07691">
        <ele>186</ele>
        <time>2014-06-15T09:41:48.000Z</time>
      </trkpt>
      <trkpt lat="48.91489" lon="1.07683">
        <ele>186</ele>
        <time>2014-06-15T09:41:50.000Z</time>
      </trkpt>
      <trkpt lat="48.915" lon="1.07682">
        <ele>186</ele>
        <time>2014-06-15T09:41:52.000Z</time>
      </trkpt>
      <trkpt lat="48.9151" lon="1.07682">
        <ele>186</ele>
        <time>2014-06-15T09:41:54.000Z</time>
      </trkpt>
      <trkpt lat="48.9152" lon="1.07683">
        <ele>186</ele>
        <time>2014-06-15T09:41:56.000Z</time>
      </trkpt>
      <trkpt lat="48.91531" lon="1.07686">
        <ele>186</ele>
        <time>2014-06-15T09:41:58.000Z</time>
      </trkpt>
      <trkpt lat="48.9154" lon="1.07687">
        <ele>186</ele>
        <time>2014-06-15T09:42:00.000Z</time>
      </trkpt>
      <trkpt lat="48.91546" lon="1.07689">
        <ele>186</ele>
        <time>2014-06-15T09:42:02.000Z</time>
      </trkpt>
      <trkpt lat="48.91553" lon="1.0769">
        <ele>186</ele>
        <time>2014-06-15T09:42:04.000Z</time>
      </trkpt>
      <trkpt lat="48.91561" lon="1.07691">
        <ele>187</ele>
        <time>2014-06-15T09:42:06.000Z</time>
      </trkpt>
      <trkpt lat="48.91572" lon="1.07692">
        <ele>187</ele>
        <time>2014-06-15T09:42:08.000Z</time>
      </trkpt>
      <trkpt lat="48.91582" lon="1.07692">
        <ele>188</ele>
        <time>2014-06-15T09:42:10.000Z</time>
      </trkpt>
      <trkpt lat="48.9159" lon="1.07692">
        <ele>188</ele>
        <time>2014-06-15T09:42:12.000Z</time>
      </trkpt>
      <trkpt lat="48.91598" lon="1.0769">
        <ele>189</ele>
        <time>2014-06-15T09:42:14.000Z</time>
      </trkpt>
      <trkpt lat="48.91605" lon="1.0769">
        <ele>189</ele>
        <time>2014-06-15T09:42:16.000Z</time>
      </trkpt>
      <trkpt lat="48.91612" lon="1.07691">
        <ele>189</ele>
        <time>2014-06-15T09:42:18.000Z</time>
      </trkpt>
      <trkpt lat="48.91619" lon="1.0769">
        <ele>190</ele>
        <time>2014-06-15T09:42:20.000Z</time>
      </trkpt>
      <trkpt lat="48.91625" lon="1.07689">
        <ele>190</ele>
        <time>2014-06-15T09:42:22.000Z</time>
      </trkpt>
      <trkpt lat="48.91632" lon="1.07689">
        <ele>190</ele>
        <time>2014-06-15T09:42:24.000Z</time>
      </trkpt>
      <trkpt lat="48.91642" lon="1.07688">
        <ele>191</ele>
        <time>2014-06-15T09:42:26.000Z</time>
      </trkpt>
      <trkpt lat="48.91651" lon="1.07686">
        <ele>191</ele>
        <time>2014-06-15T09:42:28.000Z</time>
      </trkpt>
      <trkpt lat="48.91651" lon="1.07686">
        <ele>191</ele>
        <time>2014-06-15T09:42:30.000Z</time>
      </trkpt>
      <trkpt lat="48.9166" lon="1.07683">
        <ele>192</ele>
        <time>2014-06-15T09:42:32.000Z</time>
      </trkpt>
      <trkpt lat="48.91669" lon="1.0768">
        <ele>192</ele>
        <time>2014-06-15T09:42:36.000Z</time>
      </trkpt>
      <trkpt lat="48.91669" lon="1.0768">
        <ele>192</ele>
        <time>2014-06-15T09:42:38.000Z</time>
      </trkpt>
      <trkpt lat="48.91681" lon="1.07678">
        <ele>193</ele>
        <time>2014-06-15T09:42:40.000Z</time>
      </trkpt>
      <trkpt lat="48.91687" lon="1.07676">
        <ele>193</ele>
        <time>2014-06-15T09:42:42.000Z</time>
      </trkpt>
      <trkpt lat="48.91694" lon="1.07674">
        <ele>193</ele>
        <time>2014-06-15T09:42:44.000Z</time>
      </trkpt>
      <trkpt lat="48.91703" lon="1.07673">
        <ele>193</ele>
        <time>2014-06-15T09:42:46.000Z</time>
      </trkpt>
      <trkpt lat="48.91712" lon="1.07671">
        <ele>194</ele>
        <time>2014-06-15T09:42:48.000Z</time>
      </trkpt>
      <trkpt lat="48.91719" lon="1.0767">
        <ele>194</ele>
        <time>2014-06-15T09:42:50.000Z</time>
      </trkpt>
      <trkpt lat="48.91727" lon="1.07668">
        <ele>194</ele>
        <time>2014-06-15T09:42:52.000Z</time>
      </trkpt>
      <trkpt lat="48.91737" lon="1.07666">
        <ele>194</ele>
        <time>2014-06-15T09:42:54.000Z</time>
      </trkpt>
      <trkpt lat="48.91747" lon="1.07664">
        <ele>194</ele>
        <time>2014-06-15T09:42:56.000Z</time>
      </trkpt>
      <trkpt lat="48.91757" lon="1.07662">
        <ele>194</ele>
        <time>2014-06-15T09:42:58.000Z</time>
      </trkpt>
      <trkpt lat="48.91767" lon="1.0766">
        <ele>194</ele>
        <time>2014-06-15T09:43:00.000Z</time>
      </trkpt>
      <trkpt lat="48.91774" lon="1.07658">
        <ele>194</ele>
        <time>2014-06-15T09:43:02.000Z</time>
      </trkpt>
      <trkpt lat="48.91782" lon="1.07657">
        <ele>194</ele>
        <time>2014-06-15T09:43:04.000Z</time>
      </trkpt>
      <trkpt lat="48.91792" lon="1.07655">
        <ele>194</ele>
        <time>2014-06-15T09:43:06.000Z</time>
      </trkpt>
      <trkpt lat="48.91801" lon="1.07654">
        <ele>194</ele>
        <time>2014-06-15T09:43:08.000Z</time>
      </trkpt>
      <trkpt lat="48.91808" lon="1.07655">
        <ele>194</ele>
        <time>2014-06-15T09:43:10.000Z</time>
      </trkpt>
      <trkpt lat="48.91814" lon="1.07658">
        <ele>195</ele>
        <time>2014-06-15T09:43:12.000Z</time>
      </trkpt>
      <trkpt lat="48.91814" lon="1.07658">
        <ele>195</ele>
        <time>2014-06-15T09:43:14.000Z</time>
      </trkpt>
      <trkpt lat="48.91823" lon="1.07662">
        <ele>195</ele>
        <time>2014-06-15T09:43:16.000Z</time>
      </trkpt>
      <trkpt lat="48.91823" lon="1.07662">
        <ele>195</ele>
        <time>2014-06-15T09:43:18.000Z</time>
      </trkpt>
      <trkpt lat="48.91833" lon="1.07665">
        <ele>197</ele>
        <time>2014-06-15T09:43:20.000Z</time>
      </trkpt>
      <trkpt lat="48.91839" lon="1.07667">
        <ele>197</ele>
        <time>2014-06-15T09:43:22.000Z</time>
      </trkpt>
      <trkpt lat="48.91847" lon="1.07665">
        <ele>198</ele>
        <time>2014-06-15T09:43:26.000Z</time>
      </trkpt>
      <trkpt lat="48.91847" lon="1.07665">
        <ele>198</ele>
        <time>2014-06-15T09:43:28.000Z</time>
      </trkpt>
      <trkpt lat="48.91847" lon="1.07665">
        <ele>198</ele>
        <time>2014-06-15T09:43:30.000Z</time>
      </trkpt>
      <trkpt lat="48.91854" lon="1.07661">
        <ele>199</ele>
        <time>2014-06-15T09:43:32.000Z</time>
      </trkpt>
      <trkpt lat="48.91859" lon="1.07659">
        <ele>199</ele>
        <time>2014-06-15T09:43:34.000Z</time>
      </trkpt>
      <trkpt lat="48.91866" lon="1.07656">
        <ele>199</ele>
        <time>2014-06-15T09:43:36.000Z</time>
      </trkpt>
      <trkpt lat="48.91873" lon="1.07651">
        <ele>200</ele>
        <time>2014-06-15T09:43:38.000Z</time>
      </trkpt>
      <trkpt lat="48.9188" lon="1.07647">
        <ele>200</ele>
        <time>2014-06-15T09:43:40.000Z</time>
      </trkpt>
      <trkpt lat="48.91886" lon="1.07643">
        <ele>200</ele>
        <time>2014-06-15T09:43:42.000Z</time>
      </trkpt>
      <trkpt lat="48.91892" lon="1.07641">
        <ele>201</ele>
        <time>2014-06-15T09:43:44.000Z</time>
      </trkpt>
      <trkpt lat="48.919" lon="1.07637">
        <ele>201</ele>
        <time>2014-06-15T09:43:46.000Z</time>
      </trkpt>
      <trkpt lat="48.91908" lon="1.07633">
        <ele>201</ele>
        <time>2014-06-15T09:43:48.000Z</time>
      </trkpt>
      <trkpt lat="48.91914" lon="1.07628">
        <ele>202</ele>
        <time>2014-06-15T09:43:50.000Z</time>
      </trkpt>
      <trkpt lat="48.91922" lon="1.07623">
        <ele>202</ele>
        <time>2014-06-15T09:43:52.000Z</time>
      </trkpt>
      <trkpt lat="48.91929" lon="1.07617">
        <ele>202</ele>
        <time>2014-06-15T09:43:54.000Z</time>
      </trkpt>
      <trkpt lat="48.91936" lon="1.07612">
        <ele>202</ele>
        <time>2014-06-15T09:43:56.000Z</time>
      </trkpt>
      <trkpt lat="48.91945" lon="1.07606">
        <ele>203</ele>
        <time>2014-06-15T09:43:58.000Z</time>
      </trkpt>
      <trkpt lat="48.91954" lon="1.076">
        <ele>203</ele>
        <time>2014-06-15T09:44:00.000Z</time>
      </trkpt>
      <trkpt lat="48.9196" lon="1.07595">
        <ele>203</ele>
        <time>2014-06-15T09:44:02.000Z</time>
      </trkpt>
      <trkpt lat="48.91967" lon="1.07591">
        <ele>203</ele>
        <time>2014-06-15T09:44:04.000Z</time>
      </trkpt>
      <trkpt lat="48.91974" lon="1.07586">
        <ele>203</ele>
        <time>2014-06-15T09:44:06.000Z</time>
      </trkpt>
      <trkpt lat="48.91982" lon="1.07581">
        <ele>203</ele>
        <time>2014-06-15T09:44:08.000Z</time>
      </trkpt>
      <trkpt lat="48.91988" lon="1.07577">
        <ele>203</ele>
        <time>2014-06-15T09:44:10.000Z</time>
      </trkpt>
      <trkpt lat="48.91995" lon="1.07573">
        <ele>203</ele>
        <time>2014-06-15T09:44:12.000Z</time>
      </trkpt>
      <trkpt lat="48.92001" lon="1.0757">
        <ele>203</ele>
        <time>2014-06-15T09:44:14.000Z</time>
      </trkpt>
      <trkpt lat="48.92007" lon="1.07567">
        <ele>202</ele>
        <time>2014-06-15T09:44:16.000Z</time>
      </trkpt>
      <trkpt lat="48.92014" lon="1.07562">
        <ele>202</ele>
        <time>2014-06-15T09:44:18.000Z</time>
      </trkpt>
      <trkpt lat="48.92022" lon="1.07557">
        <ele>202</ele>
        <time>2014-06-15T09:44:20.000Z</time>
      </trkpt>
      <trkpt lat="48.92028" lon="1.07553">
        <ele>203</ele>
        <time>2014-06-15T09:44:22.000Z</time>
      </trkpt>
      <trkpt lat="48.92035" lon="1.07548">
        <ele>203</ele>
        <time>2014-06-15T09:44:24.000Z</time>
      </trkpt>
      <trkpt lat="48.92041" lon="1.07542">
        <ele>203</ele>
        <time>2014-06-15T09:44:26.000Z</time>
      </trkpt>
      <trkpt lat="48.92049" lon="1.07535">
        <ele>203</ele>
        <time>2014-06-15T09:44:30.000Z</time>
      </trkpt>
      <trkpt lat="48.92055" lon="1.0753">
        <ele>204</ele>
        <time>2014-06-15T09:44:32.000Z</time>
      </trkpt>
      <trkpt lat="48.92061" lon="1.07525">
        <ele>204</ele>
        <time>2014-06-15T09:44:34.000Z</time>
      </trkpt>
      <trkpt lat="48.92068" lon="1.07521">
        <ele>204</ele>
        <time>2014-06-15T09:44:36.000Z</time>
      </trkpt>
      <trkpt lat="48.92078" lon="1.07514">
        <ele>205</ele>
        <time>2014-06-15T09:44:40.000Z</time>
      </trkpt>
      <trkpt lat="48.92085" lon="1.0751">
        <ele>205</ele>
        <time>2014-06-15T09:44:42.000Z</time>
      </trkpt>
      <trkpt lat="48.92091" lon="1.07507">
        <ele>206</ele>
        <time>2014-06-15T09:44:44.000Z</time>
      </trkpt>
      <trkpt lat="48.92091" lon="1.07507">
        <ele>206</ele>
        <time>2014-06-15T09:44:46.000Z</time>
      </trkpt>
      <trkpt lat="48.92101" lon="1.07501">
        <ele>206</ele>
        <time>2014-06-15T09:44:48.000Z</time>
      </trkpt>
      <trkpt lat="48.92107" lon="1.07495">
        <ele>206</ele>
        <time>2014-06-15T09:44:50.000Z</time>
      </trkpt>
      <trkpt lat="48.92114" lon="1.0749">
        <ele>206</ele>
        <time>2014-06-15T09:44:52.000Z</time>
      </trkpt>
      <trkpt lat="48.9212" lon="1.07486">
        <ele>206</ele>
        <time>2014-06-15T09:44:54.000Z</time>
      </trkpt>
      <trkpt lat="48.92127" lon="1.07483">
        <ele>206</ele>
        <time>2014-06-15T09:44:56.000Z</time>
      </trkpt>
      <trkpt lat="48.92133" lon="1.07479">
        <ele>206</ele>
        <time>2014-06-15T09:44:58.000Z</time>
      </trkpt>
      <trkpt lat="48.9214" lon="1.07476">
        <ele>206</ele>
        <time>2014-06-15T09:45:00.000Z</time>
      </trkpt>
      <trkpt lat="48.92146" lon="1.07473">
        <ele>206</ele>
        <time>2014-06-15T09:45:02.000Z</time>
      </trkpt>
      <trkpt lat="48.92161" lon="1.07464">
        <ele>206</ele>
        <time>2014-06-15T09:45:06.000Z</time>
      </trkpt>
      <trkpt lat="48.92168" lon="1.07459">
        <ele>207</ele>
        <time>2014-06-15T09:45:08.000Z</time>
      </trkpt>
      <trkpt lat="48.92178" lon="1.07453">
        <ele>207</ele>
        <time>2014-06-15T09:45:10.000Z</time>
      </trkpt>
      <trkpt lat="48.92187" lon="1.07447">
        <ele>207</ele>
        <time>2014-06-15T09:45:12.000Z</time>
      </trkpt>
      <trkpt lat="48.92195" lon="1.07441">
        <ele>207</ele>
        <time>2014-06-15T09:45:14.000Z</time>
      </trkpt>
      <trkpt lat="48.92203" lon="1.07433">
        <ele>207</ele>
        <time>2014-06-15T09:45:16.000Z</time>
      </trkpt>
      <trkpt lat="48.92209" lon="1.07428">
        <ele>207</ele>
        <time>2014-06-15T09:45:18.000Z</time>
      </trkpt>
      <trkpt lat="48.92216" lon="1.07422">
        <ele>207</ele>
        <time>2014-06-15T09:45:20.000Z</time>
      </trkpt>
      <trkpt lat="48.92225" lon="1.07416">
        <ele>207</ele>
        <time>2014-06-15T09:45:22.000Z</time>
      </trkpt>
      <trkpt lat="48.92232" lon="1.07411">
        <ele>208</ele>
        <time>2014-06-15T09:45:24.000Z</time>
      </trkpt>
      <trkpt lat="48.92239" lon="1.07406">
        <ele>208</ele>
        <time>2014-06-15T09:45:26.000Z</time>
      </trkpt>
      <trkpt lat="48.92247" lon="1.07403">
        <ele>208</ele>
        <time>2014-06-15T09:45:28.000Z</time>
      </trkpt>
      <trkpt lat="48.92255" lon="1.07398">
        <ele>208</ele>
        <time>2014-06-15T09:45:30.000Z</time>
      </trkpt>
      <trkpt lat="48.92266" lon="1.07391">
        <ele>208</ele>
        <time>2014-06-15T09:45:32.000Z</time>
      </trkpt>
      <trkpt lat="48.92276" lon="1.07384">
        <ele>209</ele>
        <time>2014-06-15T09:45:34.000Z</time>
      </trkpt>
      <trkpt lat="48.92286" lon="1.07377">
        <ele>211</ele>
        <time>2014-06-15T09:45:36.000Z</time>
      </trkpt>
      <trkpt lat="48.92299" lon="1.07371">
        <ele>212</ele>
        <time>2014-06-15T09:45:38.000Z</time>
      </trkpt>
      <trkpt lat="48.92309" lon="1.07365">
        <ele>212</ele>
        <time>2014-06-15T09:45:40.000Z</time>
      </trkpt>
      <trkpt lat="48.92316" lon="1.07362">
        <ele>212</ele>
        <time>2014-06-15T09:45:42.000Z</time>
      </trkpt>
      <trkpt lat="48.92326" lon="1.07356">
        <ele>210</ele>
        <time>2014-06-15T09:45:44.000Z</time>
      </trkpt>
      <trkpt lat="48.92337" lon="1.07348">
        <ele>207</ele>
        <time>2014-06-15T09:45:46.000Z</time>
      </trkpt>
      <trkpt lat="48.92347" lon="1.07341">
        <ele>206</ele>
        <time>2014-06-15T09:45:48.000Z</time>
      </trkpt>
      <trkpt lat="48.92356" lon="1.07333">
        <ele>205</ele>
        <time>2014-06-15T09:45:50.000Z</time>
      </trkpt>
      <trkpt lat="48.92364" lon="1.07328">
        <ele>205</ele>
        <time>2014-06-15T09:45:52.000Z</time>
      </trkpt>
      <trkpt lat="48.92373" lon="1.07322">
        <ele>205</ele>
        <time>2014-06-15T09:45:54.000Z</time>
      </trkpt>
      <trkpt lat="48.92382" lon="1.07317">
        <ele>205</ele>
        <time>2014-06-15T09:45:56.000Z</time>
      </trkpt>
      <trkpt lat="48.92391" lon="1.07311">
        <ele>205</ele>
        <time>2014-06-15T09:45:58.000Z</time>
      </trkpt>
      <trkpt lat="48.924" lon="1.07303">
        <ele>205</ele>
        <time>2014-06-15T09:46:00.000Z</time>
      </trkpt>
      <trkpt lat="48.92408" lon="1.07295">
        <ele>205</ele>
        <time>2014-06-15T09:46:02.000Z</time>
      </trkpt>
      <trkpt lat="48.92417" lon="1.07288">
        <ele>204</ele>
        <time>2014-06-15T09:46:04.000Z</time>
      </trkpt>
      <trkpt lat="48.92425" lon="1.07281">
        <ele>204</ele>
        <time>2014-06-15T09:46:06.000Z</time>
      </trkpt>
      <trkpt lat="48.92434" lon="1.07275">
        <ele>204</ele>
        <time>2014-06-15T09:46:08.000Z</time>
      </trkpt>
      <trkpt lat="48.92444" lon="1.0727">
        <ele>204</ele>
        <time>2014-06-15T09:46:10.000Z</time>
      </trkpt>
      <trkpt lat="48.92452" lon="1.07265">
        <ele>204</ele>
        <time>2014-06-15T09:46:12.000Z</time>
      </trkpt>
      <trkpt lat="48.92461" lon="1.0726">
        <ele>204</ele>
        <time>2014-06-15T09:46:14.000Z</time>
      </trkpt>
      <trkpt lat="48.92469" lon="1.07256">
        <ele>204</ele>
        <time>2014-06-15T09:46:16.000Z</time>
      </trkpt>
      <trkpt lat="48.92477" lon="1.0725">
        <ele>203</ele>
        <time>2014-06-15T09:46:18.000Z</time>
      </trkpt>
      <trkpt lat="48.92487" lon="1.07243">
        <ele>203</ele>
        <time>2014-06-15T09:46:20.000Z</time>
      </trkpt>
      <trkpt lat="48.92497" lon="1.07237">
        <ele>202</ele>
        <time>2014-06-15T09:46:22.000Z</time>
      </trkpt>
      <trkpt lat="48.92506" lon="1.07231">
        <ele>202</ele>
        <time>2014-06-15T09:46:24.000Z</time>
      </trkpt>
      <trkpt lat="48.92514" lon="1.07226">
        <ele>202</ele>
        <time>2014-06-15T09:46:26.000Z</time>
      </trkpt>
      <trkpt lat="48.92522" lon="1.0722">
        <ele>201</ele>
        <time>2014-06-15T09:46:28.000Z</time>
      </trkpt>
      <trkpt lat="48.9253" lon="1.07214">
        <ele>201</ele>
        <time>2014-06-15T09:46:30.000Z</time>
      </trkpt>
      <trkpt lat="48.92539" lon="1.07208">
        <ele>201</ele>
        <time>2014-06-15T09:46:32.000Z</time>
      </trkpt>
      <trkpt lat="48.92549" lon="1.07202">
        <ele>200</ele>
        <time>2014-06-15T09:46:34.000Z</time>
      </trkpt>
      <trkpt lat="48.9256" lon="1.07195">
        <ele>199</ele>
        <time>2014-06-15T09:46:36.000Z</time>
      </trkpt>
      <trkpt lat="48.92571" lon="1.07187">
        <ele>199</ele>
        <time>2014-06-15T09:46:38.000Z</time>
      </trkpt>
      <trkpt lat="48.9258" lon="1.0718">
        <ele>199</ele>
        <time>2014-06-15T09:46:40.000Z</time>
      </trkpt>
      <trkpt lat="48.92591" lon="1.07172">
        <ele>198</ele>
        <time>2014-06-15T09:46:42.000Z</time>
      </trkpt>
      <trkpt lat="48.92601" lon="1.07166">
        <ele>197</ele>
        <time>2014-06-15T09:46:44.000Z</time>
      </trkpt>
      <trkpt lat="48.92612" lon="1.07158">
        <ele>198</ele>
        <time>2014-06-15T09:46:46.000Z</time>
      </trkpt>
      <trkpt lat="48.92622" lon="1.07152">
        <ele>198</ele>
        <time>2014-06-15T09:46:48.000Z</time>
      </trkpt>
      <trkpt lat="48.92629" lon="1.07145">
        <ele>198</ele>
        <time>2014-06-15T09:46:50.000Z</time>
      </trkpt>
      <trkpt lat="48.92636" lon="1.07139">
        <ele>197</ele>
        <time>2014-06-15T09:46:52.000Z</time>
      </trkpt>
      <trkpt lat="48.92641" lon="1.07131">
        <ele>197</ele>
        <time>2014-06-15T09:46:54.000Z</time>
      </trkpt>
      <trkpt lat="48.92641" lon="1.07131">
        <ele>197</ele>
        <time>2014-06-15T09:46:56.000Z</time>
      </trkpt>
      <trkpt lat="48.92644" lon="1.07122">
        <ele>196</ele>
        <time>2014-06-15T09:46:58.000Z</time>
      </trkpt>
      <trkpt lat="48.92644" lon="1.07122">
        <ele>196</ele>
        <time>2014-06-15T09:47:00.000Z</time>
      </trkpt>
      <trkpt lat="48.92644" lon="1.07122">
        <ele>196</ele>
        <time>2014-06-15T09:47:02.000Z</time>
      </trkpt>
      <trkpt lat="48.92646" lon="1.07112">
        <ele>195</ele>
        <time>2014-06-15T09:47:04.000Z</time>
      </trkpt>
      <trkpt lat="48.92647" lon="1.07099">
        <ele>195</ele>
        <time>2014-06-15T09:47:08.000Z</time>
      </trkpt>
      <trkpt lat="48.92645" lon="1.07086">
        <ele>196</ele>
        <time>2014-06-15T09:47:12.000Z</time>
      </trkpt>
      <trkpt lat="48.92644" lon="1.07076">
        <ele>197</ele>
        <time>2014-06-15T09:47:14.000Z</time>
      </trkpt>
      <trkpt lat="48.92644" lon="1.07067">
        <ele>197</ele>
        <time>2014-06-15T09:47:16.000Z</time>
      </trkpt>
      <trkpt lat="48.92645" lon="1.07055">
        <ele>197</ele>
        <time>2014-06-15T09:47:18.000Z</time>
      </trkpt>
      <trkpt lat="48.92645" lon="1.07055">
        <ele>197</ele>
        <time>2014-06-15T09:47:29.000Z</time>
      </trkpt>
      <trkpt lat="48.92647" lon="1.07048">
        <ele>198</ele>
        <time>2014-06-15T09:47:30.000Z</time>
      </trkpt>
      <trkpt lat="48.92649" lon="1.07042">
        <ele>198</ele>
        <time>2014-06-15T09:47:30.000Z</time>
      </trkpt>
      <trkpt lat="48.9265" lon="1.07036">
        <ele>198</ele>
        <time>2014-06-15T09:47:31.000Z</time>
      </trkpt>
      <trkpt lat="48.92652" lon="1.07031">
        <ele>198</ele>
        <time>2014-06-15T09:47:32.000Z</time>
      </trkpt>
      <trkpt lat="48.92656" lon="1.07026">
        <ele>198</ele>
        <time>2014-06-15T09:47:33.000Z</time>
      </trkpt>
      <trkpt lat="48.92664" lon="1.07018">
        <ele>198</ele>
        <time>2014-06-15T09:47:33.000Z</time>
      </trkpt>
      <trkpt lat="48.92664" lon="1.07018">
        <ele>198</ele>
        <time>2014-06-15T09:47:34.000Z</time>
      </trkpt>
      <trkpt lat="48.92676" lon="1.07015">
        <ele>198</ele>
        <time>2014-06-15T09:47:36.000Z</time>
      </trkpt>
      <trkpt lat="48.92688" lon="1.07015">
        <ele>198</ele>
        <time>2014-06-15T09:47:40.000Z</time>
      </trkpt>
      <trkpt lat="48.92694" lon="1.07015">
        <ele>198</ele>
        <time>2014-06-15T09:47:42.000Z</time>
      </trkpt>
      <trkpt lat="48.92694" lon="1.07015">
        <ele>198</ele>
        <time>2014-06-15T09:47:44.000Z</time>
      </trkpt>
      <trkpt lat="48.92708" lon="1.07011">
        <ele>197</ele>
        <time>2014-06-15T09:47:46.000Z</time>
      </trkpt>
      <trkpt lat="48.92708" lon="1.07011">
        <ele>197</ele>
        <time>2014-06-15T09:47:48.000Z</time>
      </trkpt>
      <trkpt lat="48.92717" lon="1.07008">
        <ele>196</ele>
        <time>2014-06-15T09:47:50.000Z</time>
      </trkpt>
      <trkpt lat="48.92723" lon="1.07009">
        <ele>196</ele>
        <time>2014-06-15T09:48:00.000Z</time>
      </trkpt>
      <trkpt lat="48.92723" lon="1.07009">
        <ele>196</ele>
        <time>2014-06-15T09:48:02.000Z</time>
      </trkpt>
      <trkpt lat="48.9273" lon="1.06994">
        <ele>195</ele>
        <time>2014-06-15T09:48:04.000Z</time>
      </trkpt>
      <trkpt lat="48.92735" lon="1.06985">
        <ele>195</ele>
        <time>2014-06-15T09:48:06.000Z</time>
      </trkpt>
      <trkpt lat="48.9274" lon="1.06978">
        <ele>195</ele>
        <time>2014-06-15T09:48:08.000Z</time>
      </trkpt>
      <trkpt lat="48.92744" lon="1.06972">
        <ele>196</ele>
        <time>2014-06-15T09:48:10.000Z</time>
      </trkpt>
      <trkpt lat="48.92749" lon="1.06963">
        <ele>196</ele>
        <time>2014-06-15T09:48:12.000Z</time>
      </trkpt>
      <trkpt lat="48.92759" lon="1.06943">
        <ele>197</ele>
        <time>2014-06-15T09:48:16.000Z</time>
      </trkpt>
      <trkpt lat="48.92762" lon="1.06934">
        <ele>197</ele>
        <time>2014-06-15T09:48:18.000Z</time>
      </trkpt>
      <trkpt lat="48.92762" lon="1.06934">
        <ele>197</ele>
        <time>2014-06-15T09:48:20.000Z</time>
      </trkpt>
      <trkpt lat="48.92765" lon="1.06918">
        <ele>199</ele>
        <time>2014-06-15T09:48:22.000Z</time>
      </trkpt>
      <trkpt lat="48.92765" lon="1.06918">
        <ele>199</ele>
        <time>2014-06-15T09:48:24.000Z</time>
      </trkpt>
      <trkpt lat="48.92768" lon="1.06904">
        <ele>200</ele>
        <time>2014-06-15T09:48:26.000Z</time>
      </trkpt>
      <trkpt lat="48.92768" lon="1.06904">
        <ele>200</ele>
        <time>2014-06-15T09:48:28.000Z</time>
      </trkpt>
      <trkpt lat="48.92768" lon="1.06885">
        <ele>201</ele>
        <time>2014-06-15T09:48:30.000Z</time>
      </trkpt>
      <trkpt lat="48.92768" lon="1.06874">
        <ele>202</ele>
        <time>2014-06-15T09:48:32.000Z</time>
      </trkpt>
      <trkpt lat="48.92769" lon="1.06865">
        <ele>202</ele>
        <time>2014-06-15T09:48:34.000Z</time>
      </trkpt>
      <trkpt lat="48.92772" lon="1.06854">
        <ele>203</ele>
        <time>2014-06-15T09:48:36.000Z</time>
      </trkpt>
      <trkpt lat="48.92773" lon="1.06842">
        <ele>203</ele>
        <time>2014-06-15T09:48:38.000Z</time>
      </trkpt>
      <trkpt lat="48.92775" lon="1.06828">
        <ele>203</ele>
        <time>2014-06-15T09:48:40.000Z</time>
      </trkpt>
      <trkpt lat="48.92776" lon="1.06818">
        <ele>204</ele>
        <time>2014-06-15T09:48:42.000Z</time>
      </trkpt>
      <trkpt lat="48.92778" lon="1.06806">
        <ele>204</ele>
        <time>2014-06-15T09:48:44.000Z</time>
      </trkpt>
      <trkpt lat="48.9278" lon="1.06795">
        <ele>204</ele>
        <time>2014-06-15T09:48:46.000Z</time>
      </trkpt>
      <trkpt lat="48.92782" lon="1.06783">
        <ele>205</ele>
        <time>2014-06-15T09:48:48.000Z</time>
      </trkpt>
      <trkpt lat="48.92783" lon="1.0677">
        <ele>205</ele>
        <time>2014-06-15T09:48:50.000Z</time>
      </trkpt>
      <trkpt lat="48.92784" lon="1.06757">
        <ele>205</ele>
        <time>2014-06-15T09:48:52.000Z</time>
      </trkpt>
      <trkpt lat="48.92785" lon="1.06746">
        <ele>206</ele>
        <time>2014-06-15T09:48:54.000Z</time>
      </trkpt>
      <trkpt lat="48.92784" lon="1.06734">
        <ele>206</ele>
        <time>2014-06-15T09:48:56.000Z</time>
      </trkpt>
      <trkpt lat="48.92784" lon="1.06721">
        <ele>206</ele>
        <time>2014-06-15T09:48:58.000Z</time>
      </trkpt>
      <trkpt lat="48.92783" lon="1.06709">
        <ele>206</ele>
        <time>2014-06-15T09:49:00.000Z</time>
      </trkpt>
      <trkpt lat="48.92783" lon="1.06695">
        <ele>207</ele>
        <time>2014-06-15T09:49:02.000Z</time>
      </trkpt>
      <trkpt lat="48.92783" lon="1.06681">
        <ele>207</ele>
        <time>2014-06-15T09:49:04.000Z</time>
      </trkpt>
      <trkpt lat="48.92783" lon="1.06669">
        <ele>207</ele>
        <time>2014-06-15T09:49:06.000Z</time>
      </trkpt>
      <trkpt lat="48.92782" lon="1.06657">
        <ele>207</ele>
        <time>2014-06-15T09:49:08.000Z</time>
      </trkpt>
      <trkpt lat="48.92781" lon="1.06644">
        <ele>207</ele>
        <time>2014-06-15T09:49:10.000Z</time>
      </trkpt>
      <trkpt lat="48.92781" lon="1.06629">
        <ele>207</ele>
        <time>2014-06-15T09:49:12.000Z</time>
      </trkpt>
      <trkpt lat="48.92782" lon="1.06594">
        <ele>206</ele>
        <time>2014-06-15T09:49:15.000Z</time>
      </trkpt>
      <trkpt lat="48.9278" lon="1.0657">
        <ele>205</ele>
        <time>2014-06-15T09:49:19.000Z</time>
      </trkpt>
      <trkpt lat="48.9278" lon="1.06556">
        <ele>205</ele>
        <time>2014-06-15T09:49:21.000Z</time>
      </trkpt>
      <trkpt lat="48.9278" lon="1.06541">
        <ele>203</ele>
        <time>2014-06-15T09:49:23.000Z</time>
      </trkpt>
      <trkpt lat="48.92781" lon="1.06527">
        <ele>201</ele>
        <time>2014-06-15T09:49:25.000Z</time>
      </trkpt>
      <trkpt lat="48.92782" lon="1.06514">
        <ele>200</ele>
        <time>2014-06-15T09:49:27.000Z</time>
      </trkpt>
      <trkpt lat="48.92785" lon="1.0649">
        <ele>200</ele>
        <time>2014-06-15T09:49:31.000Z</time>
      </trkpt>
      <trkpt lat="48.92786" lon="1.06475">
        <ele>200</ele>
        <time>2014-06-15T09:49:33.000Z</time>
      </trkpt>
      <trkpt lat="48.92785" lon="1.06455">
        <ele>202</ele>
        <time>2014-06-15T09:49:35.000Z</time>
      </trkpt>
      <trkpt lat="48.92786" lon="1.06436">
        <ele>203</ele>
        <time>2014-06-15T09:49:37.000Z</time>
      </trkpt>
      <trkpt lat="48.92784" lon="1.06423">
        <ele>205</ele>
        <time>2014-06-15T09:49:39.000Z</time>
      </trkpt>
      <trkpt lat="48.92783" lon="1.0641">
        <ele>205</ele>
        <time>2014-06-15T09:49:41.000Z</time>
      </trkpt>
      <trkpt lat="48.92782" lon="1.06401">
        <ele>205</ele>
        <time>2014-06-15T09:49:43.000Z</time>
      </trkpt>
      <trkpt lat="48.92784" lon="1.0639">
        <ele>204</ele>
        <time>2014-06-15T09:49:45.000Z</time>
      </trkpt>
      <trkpt lat="48.92784" lon="1.06381">
        <ele>204</ele>
        <time>2014-06-15T09:49:47.000Z</time>
      </trkpt>
      <trkpt lat="48.92784" lon="1.06381">
        <ele>204</ele>
        <time>2014-06-15T09:49:49.000Z</time>
      </trkpt>
      <trkpt lat="48.92788" lon="1.06374">
        <ele>203</ele>
        <time>2014-06-15T09:49:51.000Z</time>
      </trkpt>
      <trkpt lat="48.92788" lon="1.06374">
        <ele>203</ele>
        <time>2014-06-15T09:49:53.000Z</time>
      </trkpt>
      <trkpt lat="48.92797" lon="1.0638">
        <ele>202</ele>
        <time>2014-06-15T09:49:55.000Z</time>
      </trkpt>
      <trkpt lat="48.92797" lon="1.0638">
        <ele>202</ele>
        <time>2014-06-15T09:49:57.000Z</time>
      </trkpt>
      <trkpt lat="48.92805" lon="1.06388">
        <ele>201</ele>
        <time>2014-06-15T09:49:59.000Z</time>
      </trkpt>
      <trkpt lat="48.92805" lon="1.06388">
        <ele>201</ele>
        <time>2014-06-15T09:50:01.000Z</time>
      </trkpt>
      <trkpt lat="48.92815" lon="1.06395">
        <ele>200</ele>
        <time>2014-06-15T09:50:03.000Z</time>
      </trkpt>
      <trkpt lat="48.92815" lon="1.06395">
        <ele>200</ele>
        <time>2014-06-15T09:50:05.000Z</time>
      </trkpt>
      <trkpt lat="48.92821" lon="1.064">
        <ele>200</ele>
        <time>2014-06-15T09:50:07.000Z</time>
      </trkpt>
      <trkpt lat="48.92828" lon="1.064">
        <ele>199</ele>
        <time>2014-06-15T09:50:13.000Z</time>
      </trkpt>
      <trkpt lat="48.92834" lon="1.06403">
        <ele>198</ele>
        <time>2014-06-15T09:50:17.000Z</time>
      </trkpt>
      <trkpt lat="48.92843" lon="1.06408">
        <ele>197</ele>
        <time>2014-06-15T09:50:21.000Z</time>
      </trkpt>
      <trkpt lat="48.9285" lon="1.06412">
        <ele>196</ele>
        <time>2014-06-15T09:50:25.000Z</time>
      </trkpt>
      <trkpt lat="48.9285" lon="1.06412">
        <ele>196</ele>
        <time>2014-06-15T09:50:27.000Z</time>
      </trkpt>
      <trkpt lat="48.92855" lon="1.06416">
        <ele>196</ele>
        <time>2014-06-15T09:50:29.000Z</time>
      </trkpt>
      <trkpt lat="48.92855" lon="1.06416">
        <ele>196</ele>
        <time>2014-06-15T09:50:31.000Z</time>
      </trkpt>
      <trkpt lat="48.92861" lon="1.06421">
        <ele>195</ele>
        <time>2014-06-15T09:50:33.000Z</time>
      </trkpt>
      <trkpt lat="48.92868" lon="1.0643">
        <ele>195</ele>
        <time>2014-06-15T09:50:37.000Z</time>
      </trkpt>
      <trkpt lat="48.92877" lon="1.06433">
        <ele>195</ele>
        <time>2014-06-15T09:50:41.000Z</time>
      </trkpt>
      <trkpt lat="48.92877" lon="1.06433">
        <ele>195</ele>
        <time>2014-06-15T09:50:43.000Z</time>
      </trkpt>
      <trkpt lat="48.92884" lon="1.06434">
        <ele>195</ele>
        <time>2014-06-15T09:50:45.000Z</time>
      </trkpt>
      <trkpt lat="48.92884" lon="1.06434">
        <ele>195</ele>
        <time>2014-06-15T09:50:47.000Z</time>
      </trkpt>
      <trkpt lat="48.92889" lon="1.06435">
        <ele>195</ele>
        <time>2014-06-15T09:50:49.000Z</time>
      </trkpt>
      <trkpt lat="48.92894" lon="1.06437">
        <ele>195</ele>
        <time>2014-06-15T09:50:51.000Z</time>
      </trkpt>
      <trkpt lat="48.929" lon="1.06438">
        <ele>195</ele>
        <time>2014-06-15T09:50:53.000Z</time>
      </trkpt>
      <trkpt lat="48.92905" lon="1.0644">
        <ele>194</ele>
        <time>2014-06-15T09:50:55.000Z</time>
      </trkpt>
      <trkpt lat="48.9291" lon="1.06442">
        <ele>194</ele>
        <time>2014-06-15T09:50:57.000Z</time>
      </trkpt>
      <trkpt lat="48.9292" lon="1.06442">
        <ele>194</ele>
        <time>2014-06-15T09:50:59.000Z</time>
      </trkpt>
      <trkpt lat="48.9292" lon="1.06442">
        <ele>194</ele>
        <time>2014-06-15T09:51:01.000Z</time>
      </trkpt>
      <trkpt lat="48.92928" lon="1.06439">
        <ele>194</ele>
        <time>2014-06-15T09:51:03.000Z</time>
      </trkpt>
      <trkpt lat="48.92945" lon="1.06444">
        <ele>194</ele>
        <time>2014-06-15T09:51:10.000Z</time>
      </trkpt>
      <trkpt lat="48.9295" lon="1.06447">
        <ele>194</ele>
        <time>2014-06-15T09:51:12.000Z</time>
      </trkpt>
      <trkpt lat="48.92957" lon="1.06451">
        <ele>194</ele>
        <time>2014-06-15T09:51:14.000Z</time>
      </trkpt>
      <trkpt lat="48.92957" lon="1.06451">
        <ele>194</ele>
        <time>2014-06-15T09:51:16.000Z</time>
      </trkpt>
      <trkpt lat="48.92967" lon="1.06453">
        <ele>193</ele>
        <time>2014-06-15T09:51:18.000Z</time>
      </trkpt>
      <trkpt lat="48.92974" lon="1.06455">
        <ele>193</ele>
        <time>2014-06-15T09:51:20.000Z</time>
      </trkpt>
      <trkpt lat="48.92974" lon="1.06455">
        <ele>193</ele>
        <time>2014-06-15T09:51:22.000Z</time>
      </trkpt>
      <trkpt lat="48.92981" lon="1.06461">
        <ele>193</ele>
        <time>2014-06-15T09:51:24.000Z</time>
      </trkpt>
      <trkpt lat="48.92984" lon="1.06469">
        <ele>193</ele>
        <time>2014-06-15T09:51:26.000Z</time>
      </trkpt>
      <trkpt lat="48.92989" lon="1.06478">
        <ele>193</ele>
        <time>2014-06-15T09:51:28.000Z</time>
      </trkpt>
      <trkpt lat="48.92989" lon="1.06478">
        <ele>193</ele>
        <time>2014-06-15T09:51:30.000Z</time>
      </trkpt>
      <trkpt lat="48.92994" lon="1.06486">
        <ele>192</ele>
        <time>2014-06-15T09:51:32.000Z</time>
      </trkpt>
      <trkpt lat="48.93001" lon="1.0649">
        <ele>192</ele>
        <time>2014-06-15T09:51:34.000Z</time>
      </trkpt>
      <trkpt lat="48.93013" lon="1.06496">
        <ele>191</ele>
        <time>2014-06-15T09:51:36.000Z</time>
      </trkpt>
      <trkpt lat="48.93021" lon="1.065">
        <ele>191</ele>
        <time>2014-06-15T09:51:38.000Z</time>
      </trkpt>
      <trkpt lat="48.93027" lon="1.06505">
        <ele>191</ele>
        <time>2014-06-15T09:51:40.000Z</time>
      </trkpt>
      <trkpt lat="48.93027" lon="1.06505">
        <ele>191</ele>
        <time>2014-06-15T09:51:42.000Z</time>
      </trkpt>
      <trkpt lat="48.93036" lon="1.06506">
        <ele>190</ele>
        <time>2014-06-15T09:51:44.000Z</time>
      </trkpt>
      <trkpt lat="48.93042" lon="1.06502">
        <ele>189</ele>
        <time>2014-06-15T09:51:46.000Z</time>
      </trkpt>
      <trkpt lat="48.93048" lon="1.06499">
        <ele>189</ele>
        <time>2014-06-15T09:51:48.000Z</time>
      </trkpt>
      <trkpt lat="48.93048" lon="1.06499">
        <ele>189</ele>
        <time>2014-06-15T09:51:50.000Z</time>
      </trkpt>
      <trkpt lat="48.93058" lon="1.06499">
        <ele>188</ele>
        <time>2014-06-15T09:51:52.000Z</time>
      </trkpt>
      <trkpt lat="48.93058" lon="1.06499">
        <ele>188</ele>
        <time>2014-06-15T09:51:54.000Z</time>
      </trkpt>
      <trkpt lat="48.93058" lon="1.06499">
        <ele>188</ele>
        <time>2014-06-15T09:51:56.000Z</time>
      </trkpt>
      <trkpt lat="48.93073" lon="1.06494">
        <ele>186</ele>
        <time>2014-06-15T09:51:58.000Z</time>
      </trkpt>
      <trkpt lat="48.93079" lon="1.0649">
        <ele>186</ele>
        <time>2014-06-15T09:52:00.000Z</time>
      </trkpt>
      <trkpt lat="48.93085" lon="1.06486">
        <ele>185</ele>
        <time>2014-06-15T09:52:02.000Z</time>
      </trkpt>
      <trkpt lat="48.9309" lon="1.06481">
        <ele>185</ele>
        <time>2014-06-15T09:52:04.000Z</time>
      </trkpt>
      <trkpt lat="48.9309" lon="1.06481">
        <ele>185</ele>
        <time>2014-06-15T09:52:06.000Z</time>
      </trkpt>
      <trkpt lat="48.9309" lon="1.06481">
        <ele>185</ele>
        <time>2014-06-15T09:52:08.000Z</time>
      </trkpt>
      <trkpt lat="48.93103" lon="1.06476">
        <ele>184</ele>
        <time>2014-06-15T09:52:10.000Z</time>
      </trkpt>
      <trkpt lat="48.93103" lon="1.06476">
        <ele>184</ele>
        <time>2014-06-15T09:52:12.000Z</time>
      </trkpt>
      <trkpt lat="48.93113" lon="1.0647">
        <ele>184</ele>
        <time>2014-06-15T09:52:14.000Z</time>
      </trkpt>
      <trkpt lat="48.93122" lon="1.06464">
        <ele>184</ele>
        <time>2014-06-15T09:52:16.000Z</time>
      </trkpt>
      <trkpt lat="48.9313" lon="1.06458">
        <ele>184</ele>
        <time>2014-06-15T09:52:18.000Z</time>
      </trkpt>
      <trkpt lat="48.9313" lon="1.06458">
        <ele>184</ele>
        <time>2014-06-15T09:52:20.000Z</time>
      </trkpt>
      <trkpt lat="48.93137" lon="1.06448">
        <ele>183</ele>
        <time>2014-06-15T09:52:22.000Z</time>
      </trkpt>
      <trkpt lat="48.93137" lon="1.06448">
        <ele>183</ele>
        <time>2014-06-15T09:52:24.000Z</time>
      </trkpt>
      <trkpt lat="48.93137" lon="1.06448">
        <ele>183</ele>
        <time>2014-06-15T09:52:26.000Z</time>
      </trkpt>
      <trkpt lat="48.93145" lon="1.06436">
        <ele>182</ele>
        <time>2014-06-15T09:52:28.000Z</time>
      </trkpt>
      <trkpt lat="48.93145" lon="1.06436">
        <ele>182</ele>
        <time>2014-06-15T09:52:30.000Z</time>
      </trkpt>
      <trkpt lat="48.93154" lon="1.0643">
        <ele>181</ele>
        <time>2014-06-15T09:52:32.000Z</time>
      </trkpt>
      <trkpt lat="48.93159" lon="1.06428">
        <ele>181</ele>
        <time>2014-06-15T09:52:34.000Z</time>
      </trkpt>
      <trkpt lat="48.93159" lon="1.06428">
        <ele>181</ele>
        <time>2014-06-15T09:52:36.000Z</time>
      </trkpt>
      <trkpt lat="48.9317" lon="1.06424">
        <ele>180</ele>
        <time>2014-06-15T09:52:38.000Z</time>
      </trkpt>
      <trkpt lat="48.9317" lon="1.06424">
        <ele>180</ele>
        <time>2014-06-15T09:52:40.000Z</time>
      </trkpt>
      <trkpt lat="48.93185" lon="1.06419">
        <ele>179</ele>
        <time>2014-06-15T09:52:42.000Z</time>
      </trkpt>
      <trkpt lat="48.93193" lon="1.06415">
        <ele>179</ele>
        <time>2014-06-15T09:52:44.000Z</time>
      </trkpt>
      <trkpt lat="48.93202" lon="1.06411">
        <ele>179</ele>
        <time>2014-06-15T09:52:46.000Z</time>
      </trkpt>
      <trkpt lat="48.9321" lon="1.06406">
        <ele>179</ele>
        <time>2014-06-15T09:52:48.000Z</time>
      </trkpt>
      <trkpt lat="48.93221" lon="1.06399">
        <ele>179</ele>
        <time>2014-06-15T09:52:50.000Z</time>
      </trkpt>
      <trkpt lat="48.93229" lon="1.06393">
        <ele>178</ele>
        <time>2014-06-15T09:52:52.000Z</time>
      </trkpt>
      <trkpt lat="48.93247" lon="1.06379">
        <ele>177</ele>
        <time>2014-06-15T09:52:56.000Z</time>
      </trkpt>
      <trkpt lat="48.9326" lon="1.06369">
        <ele>173</ele>
        <time>2014-06-15T09:52:58.000Z</time>
      </trkpt>
      <trkpt lat="48.93272" lon="1.06359">
        <ele>170</ele>
        <time>2014-06-15T09:53:00.000Z</time>
      </trkpt>
      <trkpt lat="48.93285" lon="1.06349">
        <ele>170</ele>
        <time>2014-06-15T09:53:02.000Z</time>
      </trkpt>
      <trkpt lat="48.93297" lon="1.0634">
        <ele>170</ele>
        <time>2014-06-15T09:53:04.000Z</time>
      </trkpt>
      <trkpt lat="48.93308" lon="1.06329">
        <ele>171</ele>
        <time>2014-06-15T09:53:06.000Z</time>
      </trkpt>
      <trkpt lat="48.93319" lon="1.06319">
        <ele>173</ele>
        <time>2014-06-15T09:53:08.000Z</time>
      </trkpt>
      <trkpt lat="48.93329" lon="1.06308">
        <ele>173</ele>
        <time>2014-06-15T09:53:10.000Z</time>
      </trkpt>
      <trkpt lat="48.9334" lon="1.06301">
        <ele>173</ele>
        <time>2014-06-15T09:53:12.000Z</time>
      </trkpt>
      <trkpt lat="48.93351" lon="1.06295">
        <ele>174</ele>
        <time>2014-06-15T09:53:14.000Z</time>
      </trkpt>
      <trkpt lat="48.9336" lon="1.0629">
        <ele>174</ele>
        <time>2014-06-15T09:53:16.000Z</time>
      </trkpt>
      <trkpt lat="48.9336" lon="1.0629">
        <ele>174</ele>
        <time>2014-06-15T09:53:18.000Z</time>
      </trkpt>
      <trkpt lat="48.93377" lon="1.06284">
        <ele>174</ele>
        <time>2014-06-15T09:53:20.000Z</time>
      </trkpt>
      <trkpt lat="48.93385" lon="1.06281">
        <ele>175</ele>
        <time>2014-06-15T09:53:22.000Z</time>
      </trkpt>
      <trkpt lat="48.93402" lon="1.06272">
        <ele>175</ele>
        <time>2014-06-15T09:53:28.000Z</time>
      </trkpt>
      <trkpt lat="48.9341" lon="1.06267">
        <ele>175</ele>
        <time>2014-06-15T09:53:32.000Z</time>
      </trkpt>
      <trkpt lat="48.93418" lon="1.06261">
        <ele>176</ele>
        <time>2014-06-15T09:53:33.000Z</time>
      </trkpt>
      <trkpt lat="48.93427" lon="1.06255">
        <ele>176</ele>
        <time>2014-06-15T09:53:35.000Z</time>
      </trkpt>
      <trkpt lat="48.93433" lon="1.06251">
        <ele>175</ele>
        <time>2014-06-15T09:53:37.000Z</time>
      </trkpt>
      <trkpt lat="48.93433" lon="1.06251">
        <ele>175</ele>
        <time>2014-06-15T09:53:38.000Z</time>
      </trkpt>
      <trkpt lat="48.93445" lon="1.06243">
        <ele>175</ele>
        <time>2014-06-15T09:53:40.000Z</time>
      </trkpt>
      <trkpt lat="48.93445" lon="1.06243">
        <ele>175</ele>
        <time>2014-06-15T09:53:40.000Z</time>
      </trkpt>
      <trkpt lat="48.93445" lon="1.06243">
        <ele>175</ele>
        <time>2014-06-15T09:53:42.000Z</time>
      </trkpt>
      <trkpt lat="48.93452" lon="1.06223">
        <ele>176</ele>
        <time>2014-06-15T09:53:44.000Z</time>
      </trkpt>
      <trkpt lat="48.93459" lon="1.06216">
        <ele>176</ele>
        <time>2014-06-15T09:53:46.000Z</time>
      </trkpt>
      <trkpt lat="48.93477" lon="1.06206">
        <ele>177</ele>
        <time>2014-06-15T09:53:49.000Z</time>
      </trkpt>
      <trkpt lat="48.93485" lon="1.06203">
        <ele>178</ele>
        <time>2014-06-15T09:53:51.000Z</time>
      </trkpt>
      <trkpt lat="48.93485" lon="1.06203">
        <ele>178</ele>
        <time>2014-06-15T09:53:53.000Z</time>
      </trkpt>
      <trkpt lat="48.93496" lon="1.062">
        <ele>179</ele>
        <time>2014-06-15T09:53:55.000Z</time>
      </trkpt>
      <trkpt lat="48.93503" lon="1.06198">
        <ele>180</ele>
        <time>2014-06-15T09:53:57.000Z</time>
      </trkpt>
      <trkpt lat="48.93512" lon="1.06196">
        <ele>181</ele>
        <time>2014-06-15T09:53:59.000Z</time>
      </trkpt>
      <trkpt lat="48.93519" lon="1.06194">
        <ele>182</ele>
        <time>2014-06-15T09:54:01.000Z</time>
      </trkpt>
      <trkpt lat="48.93519" lon="1.06194">
        <ele>182</ele>
        <time>2014-06-15T09:54:03.000Z</time>
      </trkpt>
      <trkpt lat="48.9353" lon="1.0619">
        <ele>183</ele>
        <time>2014-06-15T09:54:05.000Z</time>
      </trkpt>
      <trkpt lat="48.93536" lon="1.06187">
        <ele>184</ele>
        <time>2014-06-15T09:54:07.000Z</time>
      </trkpt>
      <trkpt lat="48.93543" lon="1.06184">
        <ele>185</ele>
        <time>2014-06-15T09:54:13.000Z</time>
      </trkpt>
      <trkpt lat="48.93543" lon="1.06184">
        <ele>185</ele>
        <time>2014-06-15T09:54:15.000Z</time>
      </trkpt>
      <trkpt lat="48.93543" lon="1.06184">
        <ele>185</ele>
        <time>2014-06-15T09:54:17.000Z</time>
      </trkpt>
      <trkpt lat="48.93543" lon="1.06184">
        <ele>185</ele>
        <time>2014-06-15T09:54:19.000Z</time>
      </trkpt>
      <trkpt lat="48.93546" lon="1.06185">
        <ele>187</ele>
        <time>2014-06-15T09:54:21.000Z</time>
      </trkpt>
      <trkpt lat="48.93546" lon="1.06185">
        <ele>187</ele>
        <time>2014-06-15T09:54:23.000Z</time>
      </trkpt>
      <trkpt lat="48.93549" lon="1.06186">
        <ele>187</ele>
        <time>2014-06-15T09:54:25.000Z</time>
      </trkpt>
      <trkpt lat="48.93549" lon="1.06186">
        <ele>187</ele>
        <time>2014-06-15T09:54:27.000Z</time>
      </trkpt>
      <trkpt lat="48.93549" lon="1.06186">
        <ele>187</ele>
        <time>2014-06-15T09:54:29.000Z</time>
      </trkpt>
      <trkpt lat="48.93549" lon="1.06186">
        <ele>187</ele>
        <time>2014-06-15T09:54:33.000Z</time>
      </trkpt>
      <trkpt lat="48.93549" lon="1.06186">
        <ele>187</ele>
        <time>2014-06-15T09:54:38.000Z</time>
      </trkpt>
      <trkpt lat="48.93552" lon="1.0619">
        <ele>188</ele>
        <time>2014-06-15T09:54:40.000Z</time>
      </trkpt>
      <trkpt lat="48.93555" lon="1.06194">
        <ele>189</ele>
        <time>2014-06-15T09:54:42.000Z</time>
      </trkpt>
      <trkpt lat="48.93559" lon="1.06199">
        <ele>190</ele>
        <time>2014-06-15T09:54:44.000Z</time>
      </trkpt>
      <trkpt lat="48.93563" lon="1.06204">
        <ele>190</ele>
        <time>2014-06-15T09:54:46.000Z</time>
      </trkpt>
      <trkpt lat="48.93567" lon="1.06211">
        <ele>191</ele>
        <time>2014-06-15T09:54:48.000Z</time>
      </trkpt>
      <trkpt lat="48.93573" lon="1.06229">
        <ele>191</ele>
        <time>2014-06-15T09:54:50.000Z</time>
      </trkpt>
      <trkpt lat="48.93576" lon="1.06238">
        <ele>191</ele>
        <time>2014-06-15T09:54:52.000Z</time>
      </trkpt>
      <trkpt lat="48.93578" lon="1.06248">
        <ele>192</ele>
        <time>2014-06-15T09:54:54.000Z</time>
      </trkpt>
      <trkpt lat="48.93579" lon="1.06258">
        <ele>193</ele>
        <time>2014-06-15T09:54:56.000Z</time>
      </trkpt>
      <trkpt lat="48.93579" lon="1.06258">
        <ele>193</ele>
        <time>2014-06-15T09:54:58.000Z</time>
      </trkpt>
      <trkpt lat="48.9358" lon="1.06276">
        <ele>194</ele>
        <time>2014-06-15T09:55:00.000Z</time>
      </trkpt>
      <trkpt lat="48.9358" lon="1.06288">
        <ele>194</ele>
        <time>2014-06-15T09:55:02.000Z</time>
      </trkpt>
      <trkpt lat="48.93582" lon="1.06296">
        <ele>195</ele>
        <time>2014-06-15T09:55:04.000Z</time>
      </trkpt>
      <trkpt lat="48.93586" lon="1.06306">
        <ele>195</ele>
        <time>2014-06-15T09:55:06.000Z</time>
      </trkpt>
      <trkpt lat="48.93592" lon="1.06323">
        <ele>196</ele>
        <time>2014-06-15T09:55:10.000Z</time>
      </trkpt>
      <trkpt lat="48.936" lon="1.06333">
        <ele>196</ele>
        <time>2014-06-15T09:55:12.000Z</time>
      </trkpt>
      <trkpt lat="48.9361" lon="1.06343">
        <ele>198</ele>
        <time>2014-06-15T09:55:14.000Z</time>
      </trkpt>
      <trkpt lat="48.93622" lon="1.06358">
        <ele>199</ele>
        <time>2014-06-15T09:55:16.000Z</time>
      </trkpt>
      <trkpt lat="48.93633" lon="1.0637">
        <ele>199</ele>
        <time>2014-06-15T09:55:18.000Z</time>
      </trkpt>
      <trkpt lat="48.93639" lon="1.06378">
        <ele>199</ele>
        <time>2014-06-15T09:55:20.000Z</time>
      </trkpt>
      <trkpt lat="48.93642" lon="1.06387">
        <ele>199</ele>
        <time>2014-06-15T09:55:22.000Z</time>
      </trkpt>
      <trkpt lat="48.93645" lon="1.06404">
        <ele>199</ele>
        <time>2014-06-15T09:55:24.000Z</time>
      </trkpt>
      <trkpt lat="48.93645" lon="1.06423">
        <ele>199</ele>
        <time>2014-06-15T09:55:26.000Z</time>
      </trkpt>
      <trkpt lat="48.93644" lon="1.06442">
        <ele>200</ele>
        <time>2014-06-15T09:55:28.000Z</time>
      </trkpt>
      <trkpt lat="48.93644" lon="1.06458">
        <ele>199</ele>
        <time>2014-06-15T09:55:30.000Z</time>
      </trkpt>
      <trkpt lat="48.93644" lon="1.06472">
        <ele>199</ele>
        <time>2014-06-15T09:55:32.000Z</time>
      </trkpt>
      <trkpt lat="48.93641" lon="1.06488">
        <ele>199</ele>
        <time>2014-06-15T09:55:34.000Z</time>
      </trkpt>
      <trkpt lat="48.93638" lon="1.06506">
        <ele>199</ele>
        <time>2014-06-15T09:55:36.000Z</time>
      </trkpt>
      <trkpt lat="48.93635" lon="1.06522">
        <ele>200</ele>
        <time>2014-06-15T09:55:38.000Z</time>
      </trkpt>
      <trkpt lat="48.93632" lon="1.06532">
        <ele>200</ele>
        <time>2014-06-15T09:55:40.000Z</time>
      </trkpt>
      <trkpt lat="48.93628" lon="1.06545">
        <ele>200</ele>
        <time>2014-06-15T09:55:42.000Z</time>
      </trkpt>
      <trkpt lat="48.93623" lon="1.06559">
        <ele>201</ele>
        <time>2014-06-15T09:55:44.000Z</time>
      </trkpt>
      <trkpt lat="48.93618" lon="1.06569">
        <ele>201</ele>
        <time>2014-06-15T09:55:46.000Z</time>
      </trkpt>
      <trkpt lat="48.93613" lon="1.06579">
        <ele>201</ele>
        <time>2014-06-15T09:55:48.000Z</time>
      </trkpt>
      <trkpt lat="48.93607" lon="1.0659">
        <ele>202</ele>
        <time>2014-06-15T09:55:50.000Z</time>
      </trkpt>
      <trkpt lat="48.93602" lon="1.066">
        <ele>202</ele>
        <time>2014-06-15T09:55:52.000Z</time>
      </trkpt>
      <trkpt lat="48.93596" lon="1.0661">
        <ele>203</ele>
        <time>2014-06-15T09:55:54.000Z</time>
      </trkpt>
      <trkpt lat="48.9359" lon="1.06618">
        <ele>203</ele>
        <time>2014-06-15T09:55:56.000Z</time>
      </trkpt>
      <trkpt lat="48.93586" lon="1.06629">
        <ele>203</ele>
        <time>2014-06-15T09:55:58.000Z</time>
      </trkpt>
      <trkpt lat="48.93584" lon="1.06641">
        <ele>204</ele>
        <time>2014-06-15T09:56:00.000Z</time>
      </trkpt>
      <trkpt lat="48.93584" lon="1.06654">
        <ele>204</ele>
        <time>2014-06-15T09:56:02.000Z</time>
      </trkpt>
      <trkpt lat="48.93581" lon="1.06663">
        <ele>204</ele>
        <time>2014-06-15T09:56:04.000Z</time>
      </trkpt>
      <trkpt lat="48.93579" lon="1.06673">
        <ele>204</ele>
        <time>2014-06-15T09:56:07.000Z</time>
      </trkpt>
      <trkpt lat="48.93576" lon="1.06681">
        <ele>205</ele>
        <time>2014-06-15T09:56:08.000Z</time>
      </trkpt>
      <trkpt lat="48.93576" lon="1.06681">
        <ele>205</ele>
        <time>2014-06-15T09:56:10.000Z</time>
      </trkpt>
      <trkpt lat="48.9357" lon="1.06695">
        <ele>205</ele>
        <time>2014-06-15T09:56:12.000Z</time>
      </trkpt>
      <trkpt lat="48.93564" lon="1.06705">
        <ele>206</ele>
        <time>2014-06-15T09:56:14.000Z</time>
      </trkpt>
      <trkpt lat="48.93557" lon="1.06715">
        <ele>206</ele>
        <time>2014-06-15T09:56:16.000Z</time>
      </trkpt>
      <trkpt lat="48.93551" lon="1.06727">
        <ele>206</ele>
        <time>2014-06-15T09:56:18.000Z</time>
      </trkpt>
      <trkpt lat="48.93546" lon="1.06736">
        <ele>206</ele>
        <time>2014-06-15T09:56:20.000Z</time>
      </trkpt>
      <trkpt lat="48.93541" lon="1.06752">
        <ele>206</ele>
        <time>2014-06-15T09:56:22.000Z</time>
      </trkpt>
      <trkpt lat="48.93538" lon="1.06761">
        <ele>206</ele>
        <time>2014-06-15T09:56:24.000Z</time>
      </trkpt>
      <trkpt lat="48.93538" lon="1.06773">
        <ele>206</ele>
        <time>2014-06-15T09:56:26.000Z</time>
      </trkpt>
      <trkpt lat="48.93539" lon="1.06784">
        <ele>206</ele>
        <time>2014-06-15T09:56:28.000Z</time>
      </trkpt>
      <trkpt lat="48.9354" lon="1.06795">
        <ele>206</ele>
        <time>2014-06-15T09:56:30.000Z</time>
      </trkpt>
      <trkpt lat="48.93542" lon="1.06806">
        <ele>206</ele>
        <time>2014-06-15T09:56:32.000Z</time>
      </trkpt>
      <trkpt lat="48.93544" lon="1.06817">
        <ele>206</ele>
        <time>2014-06-15T09:56:36.000Z</time>
      </trkpt>
      <trkpt lat="48.93547" lon="1.06824">
        <ele>206</ele>
        <time>2014-06-15T09:56:38.000Z</time>
      </trkpt>
      <trkpt lat="48.9355" lon="1.06833">
        <ele>206</ele>
        <time>2014-06-15T09:56:40.000Z</time>
      </trkpt>
      <trkpt lat="48.9355" lon="1.06833">
        <ele>206</ele>
        <time>2014-06-15T09:56:43.000Z</time>
      </trkpt>
      <trkpt lat="48.93554" lon="1.06846">
        <ele>206</ele>
        <time>2014-06-15T09:56:44.000Z</time>
      </trkpt>
      <trkpt lat="48.93554" lon="1.06846">
        <ele>206</ele>
        <time>2014-06-15T09:56:46.000Z</time>
      </trkpt>
      <trkpt lat="48.93557" lon="1.06862">
        <ele>206</ele>
        <time>2014-06-15T09:56:48.000Z</time>
      </trkpt>
      <trkpt lat="48.93557" lon="1.06862">
        <ele>206</ele>
        <time>2014-06-15T09:56:50.000Z</time>
      </trkpt>
      <trkpt lat="48.9356" lon="1.06875">
        <ele>206</ele>
        <time>2014-06-15T09:56:52.000Z</time>
      </trkpt>
      <trkpt lat="48.9356" lon="1.06875">
        <ele>206</ele>
        <time>2014-06-15T09:56:54.000Z</time>
      </trkpt>
      <trkpt lat="48.93566" lon="1.06888">
        <ele>206</ele>
        <time>2014-06-15T09:56:56.000Z</time>
      </trkpt>
      <trkpt lat="48.93573" lon="1.069">
        <ele>205</ele>
        <time>2014-06-15T09:57:00.000Z</time>
      </trkpt>
      <trkpt lat="48.93577" lon="1.06907">
        <ele>205</ele>
        <time>2014-06-15T09:57:02.000Z</time>
      </trkpt>
      <trkpt lat="48.93582" lon="1.06915">
        <ele>205</ele>
        <time>2014-06-15T09:57:04.000Z</time>
      </trkpt>
      <trkpt lat="48.93589" lon="1.06924">
        <ele>205</ele>
        <time>2014-06-15T09:57:06.000Z</time>
      </trkpt>
      <trkpt lat="48.93589" lon="1.06924">
        <ele>205</ele>
        <time>2014-06-15T09:57:08.000Z</time>
      </trkpt>
      <trkpt lat="48.93622" lon="1.06967">
        <ele>205</ele>
        <time>2014-06-15T09:57:13.000Z</time>
      </trkpt>
      <trkpt lat="48.93633" lon="1.06981">
        <ele>205</ele>
        <time>2014-06-15T09:57:16.000Z</time>
      </trkpt>
      <trkpt lat="48.93639" lon="1.06987">
        <ele>205</ele>
        <time>2014-06-15T09:57:18.000Z</time>
      </trkpt>
      <trkpt lat="48.93643" lon="1.06993">
        <ele>205</ele>
        <time>2014-06-15T09:57:20.000Z</time>
      </trkpt>
      <trkpt lat="48.93643" lon="1.06993">
        <ele>205</ele>
        <time>2014-06-15T09:57:22.000Z</time>
      </trkpt>
      <trkpt lat="48.93647" lon="1.07004">
        <ele>205</ele>
        <time>2014-06-15T09:57:24.000Z</time>
      </trkpt>
      <trkpt lat="48.93647" lon="1.07004">
        <ele>205</ele>
        <time>2014-06-15T09:57:26.000Z</time>
      </trkpt>
      <trkpt lat="48.9365" lon="1.07014">
        <ele>205</ele>
        <time>2014-06-15T09:57:28.000Z</time>
      </trkpt>
      <trkpt lat="48.93655" lon="1.07025">
        <ele>205</ele>
        <time>2014-06-15T09:57:30.000Z</time>
      </trkpt>
      <trkpt lat="48.93659" lon="1.07033">
        <ele>206</ele>
        <time>2014-06-15T09:57:32.000Z</time>
      </trkpt>
      <trkpt lat="48.93659" lon="1.07033">
        <ele>206</ele>
        <time>2014-06-15T09:57:34.000Z</time>
      </trkpt>
      <trkpt lat="48.93663" lon="1.07042">
        <ele>206</ele>
        <time>2014-06-15T09:57:36.000Z</time>
      </trkpt>
      <trkpt lat="48.93668" lon="1.07047">
        <ele>206</ele>
        <time>2014-06-15T09:57:38.000Z</time>
      </trkpt>
      <trkpt lat="48.93676" lon="1.07059">
        <ele>205</ele>
        <time>2014-06-15T09:57:42.000Z</time>
      </trkpt>
      <trkpt lat="48.93681" lon="1.07069">
        <ele>205</ele>
        <time>2014-06-15T09:57:46.000Z</time>
      </trkpt>
      <trkpt lat="48.93681" lon="1.07069">
        <ele>205</ele>
        <time>2014-06-15T09:57:48.000Z</time>
      </trkpt>
      <trkpt lat="48.93688" lon="1.07078">
        <ele>205</ele>
        <time>2014-06-15T09:57:50.000Z</time>
      </trkpt>
      <trkpt lat="48.93693" lon="1.07083">
        <ele>204</ele>
        <time>2014-06-15T09:57:52.000Z</time>
      </trkpt>
      <trkpt lat="48.93701" lon="1.07093">
        <ele>204</ele>
        <time>2014-06-15T09:57:56.000Z</time>
      </trkpt>
      <trkpt lat="48.93701" lon="1.07093">
        <ele>204</ele>
        <time>2014-06-15T09:57:58.000Z</time>
      </trkpt>
      <trkpt lat="48.93708" lon="1.07097">
        <ele>203</ele>
        <time>2014-06-15T09:58:00.000Z</time>
      </trkpt>
      <trkpt lat="48.93714" lon="1.07103">
        <ele>203</ele>
        <time>2014-06-15T09:58:02.000Z</time>
      </trkpt>
      <trkpt lat="48.9372" lon="1.07109">
        <ele>202</ele>
        <time>2014-06-15T09:58:04.000Z</time>
      </trkpt>
      <trkpt lat="48.93727" lon="1.07113">
        <ele>202</ele>
        <time>2014-06-15T09:58:06.000Z</time>
      </trkpt>
      <trkpt lat="48.93727" lon="1.07113">
        <ele>202</ele>
        <time>2014-06-15T09:58:08.000Z</time>
      </trkpt>
      <trkpt lat="48.93735" lon="1.0712">
        <ele>202</ele>
        <time>2014-06-15T09:58:10.000Z</time>
      </trkpt>
      <trkpt lat="48.93735" lon="1.0712">
        <ele>202</ele>
        <time>2014-06-15T09:58:12.000Z</time>
      </trkpt>
      <trkpt lat="48.93744" lon="1.07127">
        <ele>202</ele>
        <time>2014-06-15T09:58:14.000Z</time>
      </trkpt>
      <trkpt lat="48.93755" lon="1.07139">
        <ele>201</ele>
        <time>2014-06-15T09:58:17.000Z</time>
      </trkpt>
      <trkpt lat="48.93755" lon="1.07139">
        <ele>201</ele>
        <time>2014-06-15T09:58:19.000Z</time>
      </trkpt>
      <trkpt lat="48.93765" lon="1.07148">
        <ele>201</ele>
        <time>2014-06-15T09:58:21.000Z</time>
      </trkpt>
      <trkpt lat="48.93781" lon="1.07161">
        <ele>201</ele>
        <time>2014-06-15T09:58:24.000Z</time>
      </trkpt>
      <trkpt lat="48.93791" lon="1.07169">
        <ele>201</ele>
        <time>2014-06-15T09:58:26.000Z</time>
      </trkpt>
      <trkpt lat="48.938" lon="1.07175">
        <ele>201</ele>
        <time>2014-06-15T09:58:28.000Z</time>
      </trkpt>
      <trkpt lat="48.93806" lon="1.07179">
        <ele>201</ele>
        <time>2014-06-15T09:58:30.000Z</time>
      </trkpt>
      <trkpt lat="48.93813" lon="1.07182">
        <ele>201</ele>
        <time>2014-06-15T09:58:32.000Z</time>
      </trkpt>
      <trkpt lat="48.93819" lon="1.07186">
        <ele>201</ele>
        <time>2014-06-15T09:58:34.000Z</time>
      </trkpt>
      <trkpt lat="48.93826" lon="1.07189">
        <ele>200</ele>
        <time>2014-06-15T09:58:36.000Z</time>
      </trkpt>
      <trkpt lat="48.93835" lon="1.07193">
        <ele>200</ele>
        <time>2014-06-15T09:58:38.000Z</time>
      </trkpt>
      <trkpt lat="48.93843" lon="1.07197">
        <ele>200</ele>
        <time>2014-06-15T09:58:40.000Z</time>
      </trkpt>
      <trkpt lat="48.93851" lon="1.07202">
        <ele>200</ele>
        <time>2014-06-15T09:58:42.000Z</time>
      </trkpt>
      <trkpt lat="48.93859" lon="1.07206">
        <ele>199</ele>
        <time>2014-06-15T09:58:44.000Z</time>
      </trkpt>
      <trkpt lat="48.93871" lon="1.07211">
        <ele>199</ele>
        <time>2014-06-15T09:58:46.000Z</time>
      </trkpt>
      <trkpt lat="48.93879" lon="1.07219">
        <ele>199</ele>
        <time>2014-06-15T09:58:48.000Z</time>
      </trkpt>
      <trkpt lat="48.93887" lon="1.07228">
        <ele>199</ele>
        <time>2014-06-15T09:58:50.000Z</time>
      </trkpt>
      <trkpt lat="48.93898" lon="1.07235">
        <ele>199</ele>
        <time>2014-06-15T09:58:52.000Z</time>
      </trkpt>
      <trkpt lat="48.93906" lon="1.07239">
        <ele>199</ele>
        <time>2014-06-15T09:58:54.000Z</time>
      </trkpt>
      <trkpt lat="48.93917" lon="1.07243">
        <ele>199</ele>
        <time>2014-06-15T09:58:56.000Z</time>
      </trkpt>
      <trkpt lat="48.93929" lon="1.07247">
        <ele>200</ele>
        <time>2014-06-15T09:58:58.000Z</time>
      </trkpt>
      <trkpt lat="48.9394" lon="1.07252">
        <ele>200</ele>
        <time>2014-06-15T09:59:00.000Z</time>
      </trkpt>
      <trkpt lat="48.93954" lon="1.07258">
        <ele>200</ele>
        <time>2014-06-15T09:59:02.000Z</time>
      </trkpt>
      <trkpt lat="48.93964" lon="1.07262">
        <ele>200</ele>
        <time>2014-06-15T09:59:04.000Z</time>
      </trkpt>
      <trkpt lat="48.93972" lon="1.07266">
        <ele>200</ele>
        <time>2014-06-15T09:59:06.000Z</time>
      </trkpt>
      <trkpt lat="48.93981" lon="1.07273">
        <ele>200</ele>
        <time>2014-06-15T09:59:08.000Z</time>
      </trkpt>
      <trkpt lat="48.93994" lon="1.07281">
        <ele>200</ele>
        <time>2014-06-15T09:59:10.000Z</time>
      </trkpt>
      <trkpt lat="48.94002" lon="1.07287">
        <ele>200</ele>
        <time>2014-06-15T09:59:12.000Z</time>
      </trkpt>
      <trkpt lat="48.94012" lon="1.07294">
        <ele>200</ele>
        <time>2014-06-15T09:59:14.000Z</time>
      </trkpt>
      <trkpt lat="48.9402" lon="1.07298">
        <ele>200</ele>
        <time>2014-06-15T09:59:16.000Z</time>
      </trkpt>
      <trkpt lat="48.94029" lon="1.07301">
        <ele>201</ele>
        <time>2014-06-15T09:59:18.000Z</time>
      </trkpt>
      <trkpt lat="48.94038" lon="1.07304">
        <ele>201</ele>
        <time>2014-06-15T09:59:20.000Z</time>
      </trkpt>
      <trkpt lat="48.94044" lon="1.07306">
        <ele>201</ele>
        <time>2014-06-15T09:59:22.000Z</time>
      </trkpt>
      <trkpt lat="48.94053" lon="1.07309">
        <ele>201</ele>
        <time>2014-06-15T09:59:24.000Z</time>
      </trkpt>
      <trkpt lat="48.94059" lon="1.07311">
        <ele>201</ele>
        <time>2014-06-15T09:59:26.000Z</time>
      </trkpt>
      <trkpt lat="48.94066" lon="1.07312">
        <ele>202</ele>
        <time>2014-06-15T09:59:28.000Z</time>
      </trkpt>
      <trkpt lat="48.94084" lon="1.07316">
        <ele>202</ele>
        <time>2014-06-15T09:59:32.000Z</time>
      </trkpt>
      <trkpt lat="48.94093" lon="1.07316">
        <ele>202</ele>
        <time>2014-06-15T09:59:35.000Z</time>
      </trkpt>
      <trkpt lat="48.94093" lon="1.07316">
        <ele>202</ele>
        <time>2014-06-15T09:59:37.000Z</time>
      </trkpt>
      <trkpt lat="48.94108" lon="1.07318">
        <ele>203</ele>
        <time>2014-06-15T09:59:39.000Z</time>
      </trkpt>
      <trkpt lat="48.94116" lon="1.07321">
        <ele>203</ele>
        <time>2014-06-15T09:59:41.000Z</time>
      </trkpt>
      <trkpt lat="48.94116" lon="1.07321">
        <ele>203</ele>
        <time>2014-06-15T09:59:43.000Z</time>
      </trkpt>
      <trkpt lat="48.94125" lon="1.07321">
        <ele>204</ele>
        <time>2014-06-15T09:59:45.000Z</time>
      </trkpt>
      <trkpt lat="48.94125" lon="1.07321">
        <ele>204</ele>
        <time>2014-06-15T09:59:47.000Z</time>
      </trkpt>
      <trkpt lat="48.94136" lon="1.07322">
        <ele>204</ele>
        <time>2014-06-15T09:59:49.000Z</time>
      </trkpt>
      <trkpt lat="48.94143" lon="1.07323">
        <ele>204</ele>
        <time>2014-06-15T09:59:51.000Z</time>
      </trkpt>
      <trkpt lat="48.94143" lon="1.07323">
        <ele>204</ele>
        <time>2014-06-15T09:59:53.000Z</time>
      </trkpt>
      <trkpt lat="48.94143" lon="1.07323">
        <ele>204</ele>
        <time>2014-06-15T09:59:55.000Z</time>
      </trkpt>
      <trkpt lat="48.94154" lon="1.07319">
        <ele>204</ele>
        <time>2014-06-15T09:59:57.000Z</time>
      </trkpt>
      <trkpt lat="48.94154" lon="1.07319">
        <ele>204</ele>
        <time>2014-06-15T09:59:59.000Z</time>
      </trkpt>
      <trkpt lat="48.94164" lon="1.07314">
        <ele>204</ele>
        <time>2014-06-15T10:00:02.000Z</time>
      </trkpt>
      <trkpt lat="48.94172" lon="1.07309">
        <ele>203</ele>
        <time>2014-06-15T10:00:03.000Z</time>
      </trkpt>
      <trkpt lat="48.94183" lon="1.07301">
        <ele>203</ele>
        <time>2014-06-15T10:00:05.000Z</time>
      </trkpt>
      <trkpt lat="48.94192" lon="1.07295">
        <ele>203</ele>
        <time>2014-06-15T10:00:07.000Z</time>
      </trkpt>
      <trkpt lat="48.94205" lon="1.07286">
        <ele>203</ele>
        <time>2014-06-15T10:00:09.000Z</time>
      </trkpt>
      <trkpt lat="48.94213" lon="1.07279">
        <ele>203</ele>
        <time>2014-06-15T10:00:11.000Z</time>
      </trkpt>
      <trkpt lat="48.94225" lon="1.0727">
        <ele>203</ele>
        <time>2014-06-15T10:00:13.000Z</time>
      </trkpt>
      <trkpt lat="48.94235" lon="1.07262">
        <ele>203</ele>
        <time>2014-06-15T10:00:15.000Z</time>
      </trkpt>
      <trkpt lat="48.94245" lon="1.07255">
        <ele>203</ele>
        <time>2014-06-15T10:00:17.000Z</time>
      </trkpt>
      <trkpt lat="48.94256" lon="1.07248">
        <ele>203</ele>
        <time>2014-06-15T10:00:19.000Z</time>
      </trkpt>
      <trkpt lat="48.94264" lon="1.07243">
        <ele>204</ele>
        <time>2014-06-15T10:00:22.000Z</time>
      </trkpt>
      <trkpt lat="48.9427" lon="1.07239">
        <ele>204</ele>
        <time>2014-06-15T10:00:24.000Z</time>
      </trkpt>
      <trkpt lat="48.94276" lon="1.07235">
        <ele>204</ele>
        <time>2014-06-15T10:00:26.000Z</time>
      </trkpt>
      <trkpt lat="48.94284" lon="1.0723">
        <ele>205</ele>
        <time>2014-06-15T10:00:28.000Z</time>
      </trkpt>
      <trkpt lat="48.9429" lon="1.07224">
        <ele>205</ele>
        <time>2014-06-15T10:00:30.000Z</time>
      </trkpt>
      <trkpt lat="48.94296" lon="1.07219">
        <ele>205</ele>
        <time>2014-06-15T10:00:32.000Z</time>
      </trkpt>
      <trkpt lat="48.94302" lon="1.07215">
        <ele>205</ele>
        <time>2014-06-15T10:00:34.000Z</time>
      </trkpt>
      <trkpt lat="48.94302" lon="1.07215">
        <ele>205</ele>
        <time>2014-06-15T10:00:36.000Z</time>
      </trkpt>
      <trkpt lat="48.94323" lon="1.07204">
        <ele>205</ele>
        <time>2014-06-15T10:00:39.000Z</time>
      </trkpt>
      <trkpt lat="48.94329" lon="1.072">
        <ele>205</ele>
        <time>2014-06-15T10:00:41.000Z</time>
      </trkpt>
      <trkpt lat="48.94339" lon="1.07195">
        <ele>205</ele>
        <time>2014-06-15T10:00:43.000Z</time>
      </trkpt>
      <trkpt lat="48.9435" lon="1.07189">
        <ele>205</ele>
        <time>2014-06-15T10:00:45.000Z</time>
      </trkpt>
      <trkpt lat="48.9436" lon="1.07184">
        <ele>206</ele>
        <time>2014-06-15T10:00:47.000Z</time>
      </trkpt>
      <trkpt lat="48.94371" lon="1.07177">
        <ele>206</ele>
        <time>2014-06-15T10:00:49.000Z</time>
      </trkpt>
      <trkpt lat="48.94378" lon="1.07171">
        <ele>206</ele>
        <time>2014-06-15T10:00:51.000Z</time>
      </trkpt>
      <trkpt lat="48.94388" lon="1.07165">
        <ele>206</ele>
        <time>2014-06-15T10:00:53.000Z</time>
      </trkpt>
      <trkpt lat="48.94395" lon="1.0716">
        <ele>206</ele>
        <time>2014-06-15T10:00:55.000Z</time>
      </trkpt>
      <trkpt lat="48.94402" lon="1.07157">
        <ele>206</ele>
        <time>2014-06-15T10:00:57.000Z</time>
      </trkpt>
      <trkpt lat="48.94408" lon="1.07151">
        <ele>206</ele>
        <time>2014-06-15T10:00:59.000Z</time>
      </trkpt>
      <trkpt lat="48.94416" lon="1.07142">
        <ele>206</ele>
        <time>2014-06-15T10:01:01.000Z</time>
      </trkpt>
      <trkpt lat="48.94421" lon="1.07137">
        <ele>206</ele>
        <time>2014-06-15T10:01:03.000Z</time>
      </trkpt>
      <trkpt lat="48.9443" lon="1.07133">
        <ele>206</ele>
        <time>2014-06-15T10:01:05.000Z</time>
      </trkpt>
      <trkpt lat="48.94439" lon="1.07127">
        <ele>206</ele>
        <time>2014-06-15T10:01:07.000Z</time>
      </trkpt>
      <trkpt lat="48.94449" lon="1.0712">
        <ele>206</ele>
        <time>2014-06-15T10:01:09.000Z</time>
      </trkpt>
      <trkpt lat="48.94459" lon="1.07113">
        <ele>206</ele>
        <time>2014-06-15T10:01:11.000Z</time>
      </trkpt>
      <trkpt lat="48.94468" lon="1.07107">
        <ele>206</ele>
        <time>2014-06-15T10:01:13.000Z</time>
      </trkpt>
      <trkpt lat="48.94479" lon="1.07101">
        <ele>205</ele>
        <time>2014-06-15T10:01:15.000Z</time>
      </trkpt>
      <trkpt lat="48.94489" lon="1.07096">
        <ele>205</ele>
        <time>2014-06-15T10:01:17.000Z</time>
      </trkpt>
      <trkpt lat="48.94497" lon="1.07093">
        <ele>205</ele>
        <time>2014-06-15T10:01:19.000Z</time>
      </trkpt>
      <trkpt lat="48.94504" lon="1.0709">
        <ele>205</ele>
        <time>2014-06-15T10:01:21.000Z</time>
      </trkpt>
      <trkpt lat="48.94511" lon="1.07085">
        <ele>204</ele>
        <time>2014-06-15T10:01:23.000Z</time>
      </trkpt>
      <trkpt lat="48.94511" lon="1.07085">
        <ele>204</ele>
        <time>2014-06-15T10:01:25.000Z</time>
      </trkpt>
      <trkpt lat="48.94516" lon="1.07082">
        <ele>204</ele>
        <time>2014-06-15T10:01:27.000Z</time>
      </trkpt>
      <trkpt lat="48.94522" lon="1.07079">
        <ele>204</ele>
        <time>2014-06-15T10:01:29.000Z</time>
      </trkpt>
      <trkpt lat="48.94528" lon="1.07076">
        <ele>204</ele>
        <time>2014-06-15T10:01:31.000Z</time>
      </trkpt>
      <trkpt lat="48.94534" lon="1.07072">
        <ele>204</ele>
        <time>2014-06-15T10:01:33.000Z</time>
      </trkpt>
      <trkpt lat="48.94541" lon="1.07068">
        <ele>204</ele>
        <time>2014-06-15T10:01:35.000Z</time>
      </trkpt>
      <trkpt lat="48.94554" lon="1.07061">
        <ele>204</ele>
        <time>2014-06-15T10:01:37.000Z</time>
      </trkpt>
      <trkpt lat="48.94554" lon="1.07061">
        <ele>204</ele>
        <time>2014-06-15T10:01:39.000Z</time>
      </trkpt>
      <trkpt lat="48.94565" lon="1.07056">
        <ele>204</ele>
        <time>2014-06-15T10:01:41.000Z</time>
      </trkpt>
      <trkpt lat="48.9457" lon="1.07052">
        <ele>204</ele>
        <time>2014-06-15T10:01:43.000Z</time>
      </trkpt>
      <trkpt lat="48.94574" lon="1.07045">
        <ele>204</ele>
        <time>2014-06-15T10:01:45.000Z</time>
      </trkpt>
      <trkpt lat="48.94579" lon="1.07039">
        <ele>204</ele>
        <time>2014-06-15T10:01:49.000Z</time>
      </trkpt>
      <trkpt lat="48.94579" lon="1.07039">
        <ele>204</ele>
        <time>2014-06-15T10:01:51.000Z</time>
      </trkpt>
      <trkpt lat="48.94587" lon="1.07037">
        <ele>204</ele>
        <time>2014-06-15T10:01:53.000Z</time>
      </trkpt>
      <trkpt lat="48.94587" lon="1.07037">
        <ele>204</ele>
        <time>2014-06-15T10:01:55.000Z</time>
      </trkpt>
      <trkpt lat="48.94594" lon="1.07036">
        <ele>204</ele>
        <time>2014-06-15T10:01:57.000Z</time>
      </trkpt>
      <trkpt lat="48.94605" lon="1.07039">
        <ele>204</ele>
        <time>2014-06-15T10:02:03.000Z</time>
      </trkpt>
      <trkpt lat="48.94605" lon="1.07039">
        <ele>204</ele>
        <time>2014-06-15T10:02:05.000Z</time>
      </trkpt>
      <trkpt lat="48.94616" lon="1.07038">
        <ele>203</ele>
        <time>2014-06-15T10:02:07.000Z</time>
      </trkpt>
      <trkpt lat="48.94634" lon="1.07027">
        <ele>203</ele>
        <time>2014-06-15T10:02:11.000Z</time>
      </trkpt>
      <trkpt lat="48.94643" lon="1.07021">
        <ele>203</ele>
        <time>2014-06-15T10:02:13.000Z</time>
      </trkpt>
      <trkpt lat="48.94653" lon="1.07013">
        <ele>203</ele>
        <time>2014-06-15T10:02:15.000Z</time>
      </trkpt>
      <trkpt lat="48.94661" lon="1.07007">
        <ele>203</ele>
        <time>2014-06-15T10:02:17.000Z</time>
      </trkpt>
      <trkpt lat="48.9467" lon="1.07001">
        <ele>203</ele>
        <time>2014-06-15T10:02:19.000Z</time>
      </trkpt>
      <trkpt lat="48.94688" lon="1.06986">
        <ele>203</ele>
        <time>2014-06-15T10:02:22.000Z</time>
      </trkpt>
      <trkpt lat="48.94698" lon="1.06982">
        <ele>203</ele>
        <time>2014-06-15T10:02:26.000Z</time>
      </trkpt>
      <trkpt lat="48.94709" lon="1.06981">
        <ele>203</ele>
        <time>2014-06-15T10:02:30.000Z</time>
      </trkpt>
      <trkpt lat="48.94709" lon="1.06981">
        <ele>203</ele>
        <time>2014-06-15T10:02:32.000Z</time>
      </trkpt>
      <trkpt lat="48.94723" lon="1.06974">
        <ele>204</ele>
        <time>2014-06-15T10:02:34.000Z</time>
      </trkpt>
      <trkpt lat="48.94723" lon="1.06974">
        <ele>204</ele>
        <time>2014-06-15T10:02:36.000Z</time>
      </trkpt>
      <trkpt lat="48.94733" lon="1.06971">
        <ele>204</ele>
        <time>2014-06-15T10:02:38.000Z</time>
      </trkpt>
      <trkpt lat="48.94744" lon="1.06974">
        <ele>204</ele>
        <time>2014-06-15T10:02:42.000Z</time>
      </trkpt>
      <trkpt lat="48.94754" lon="1.06957">
        <ele>204</ele>
        <time>2014-06-15T10:02:46.000Z</time>
      </trkpt>
      <trkpt lat="48.94754" lon="1.06957">
        <ele>204</ele>
        <time>2014-06-15T10:02:48.000Z</time>
      </trkpt>
      <trkpt lat="48.94765" lon="1.06943">
        <ele>204</ele>
        <time>2014-06-15T10:02:50.000Z</time>
      </trkpt>
      <trkpt lat="48.94773" lon="1.06933">
        <ele>204</ele>
        <time>2014-06-15T10:02:52.000Z</time>
      </trkpt>
      <trkpt lat="48.94783" lon="1.06925">
        <ele>205</ele>
        <time>2014-06-15T10:02:54.000Z</time>
      </trkpt>
      <trkpt lat="48.94793" lon="1.06919">
        <ele>205</ele>
        <time>2014-06-15T10:02:56.000Z</time>
      </trkpt>
      <trkpt lat="48.94801" lon="1.06913">
        <ele>205</ele>
        <time>2014-06-15T10:02:58.000Z</time>
      </trkpt>
      <trkpt lat="48.94801" lon="1.06913">
        <ele>205</ele>
        <time>2014-06-15T10:03:00.000Z</time>
      </trkpt>
      <trkpt lat="48.94817" lon="1.06901">
        <ele>205</ele>
        <time>2014-06-15T10:03:02.000Z</time>
      </trkpt>
      <trkpt lat="48.94825" lon="1.06897">
        <ele>205</ele>
        <time>2014-06-15T10:03:04.000Z</time>
      </trkpt>
      <trkpt lat="48.94825" lon="1.06897">
        <ele>205</ele>
        <time>2014-06-15T10:03:06.000Z</time>
      </trkpt>
      <trkpt lat="48.94839" lon="1.0689">
        <ele>205</ele>
        <time>2014-06-15T10:03:08.000Z</time>
      </trkpt>
      <trkpt lat="48.94848" lon="1.06886">
        <ele>205</ele>
        <time>2014-06-15T10:03:10.000Z</time>
      </trkpt>
      <trkpt lat="48.94857" lon="1.06879">
        <ele>205</ele>
        <time>2014-06-15T10:03:12.000Z</time>
      </trkpt>
      <trkpt lat="48.94865" lon="1.06872">
        <ele>205</ele>
        <time>2014-06-15T10:03:14.000Z</time>
      </trkpt>
      <trkpt lat="48.94873" lon="1.06865">
        <ele>205</ele>
        <time>2014-06-15T10:03:16.000Z</time>
      </trkpt>
      <trkpt lat="48.94883" lon="1.06858">
        <ele>205</ele>
        <time>2014-06-15T10:03:18.000Z</time>
      </trkpt>
      <trkpt lat="48.94904" lon="1.06841">
        <ele>205</ele>
        <time>2014-06-15T10:03:21.000Z</time>
      </trkpt>
      <trkpt lat="48.94921" lon="1.0683">
        <ele>205</ele>
        <time>2014-06-15T10:03:24.000Z</time>
      </trkpt>
      <trkpt lat="48.94935" lon="1.06819">
        <ele>206</ele>
        <time>2014-06-15T10:03:26.000Z</time>
      </trkpt>
      <trkpt lat="48.94945" lon="1.06812">
        <ele>207</ele>
        <time>2014-06-15T10:03:28.000Z</time>
      </trkpt>
      <trkpt lat="48.94957" lon="1.06804">
        <ele>207</ele>
        <time>2014-06-15T10:03:30.000Z</time>
      </trkpt>
      <trkpt lat="48.94973" lon="1.06792">
        <ele>207</ele>
        <time>2014-06-15T10:03:32.000Z</time>
      </trkpt>
      <trkpt lat="48.94985" lon="1.06785">
        <ele>207</ele>
        <time>2014-06-15T10:03:34.000Z</time>
      </trkpt>
      <trkpt lat="48.94996" lon="1.06778">
        <ele>206</ele>
        <time>2014-06-15T10:03:36.000Z</time>
      </trkpt>
      <trkpt lat="48.95004" lon="1.06776">
        <ele>206</ele>
        <time>2014-06-15T10:03:38.000Z</time>
      </trkpt>
      <trkpt lat="48.95012" lon="1.06772">
        <ele>206</ele>
        <time>2014-06-15T10:03:40.000Z</time>
      </trkpt>
      <trkpt lat="48.95018" lon="1.06768">
        <ele>207</ele>
        <time>2014-06-15T10:03:42.000Z</time>
      </trkpt>
      <trkpt lat="48.95018" lon="1.06768">
        <ele>207</ele>
        <time>2014-06-15T10:03:44.000Z</time>
      </trkpt>
      <trkpt lat="48.95025" lon="1.06761">
        <ele>207</ele>
        <time>2014-06-15T10:03:46.000Z</time>
      </trkpt>
      <trkpt lat="48.95025" lon="1.06761">
        <ele>207</ele>
        <time>2014-06-15T10:03:48.000Z</time>
      </trkpt>
      <trkpt lat="48.95031" lon="1.06757">
        <ele>206</ele>
        <time>2014-06-15T10:03:50.000Z</time>
      </trkpt>
      <trkpt lat="48.95031" lon="1.06757">
        <ele>206</ele>
        <time>2014-06-15T10:03:54.000Z</time>
      </trkpt>
      <trkpt lat="48.95036" lon="1.06752">
        <ele>206</ele>
        <time>2014-06-15T10:03:56.000Z</time>
      </trkpt>
      <trkpt lat="48.95036" lon="1.06752">
        <ele>206</ele>
        <time>2014-06-15T10:03:58.000Z</time>
      </trkpt>
      <trkpt lat="48.95036" lon="1.06752">
        <ele>206</ele>
        <time>2014-06-15T10:04:00.000Z</time>
      </trkpt>
      <trkpt lat="48.95036" lon="1.06752">
        <ele>206</ele>
        <time>2014-06-15T10:04:02.000Z</time>
      </trkpt>
      <trkpt lat="48.95037" lon="1.06738">
        <ele>205</ele>
        <time>2014-06-15T10:04:04.000Z</time>
      </trkpt>
      <trkpt lat="48.95037" lon="1.06738">
        <ele>205</ele>
        <time>2014-06-15T10:04:11.000Z</time>
      </trkpt>
      <trkpt lat="48.95043" lon="1.06729">
        <ele>205</ele>
        <time>2014-06-15T10:04:15.000Z</time>
      </trkpt>
      <trkpt lat="48.95043" lon="1.06729">
        <ele>205</ele>
        <time>2014-06-15T10:04:17.000Z</time>
      </trkpt>
      <trkpt lat="48.95043" lon="1.06729">
        <ele>205</ele>
        <time>2014-06-15T10:04:19.000Z</time>
      </trkpt>
      <trkpt lat="48.95049" lon="1.06724">
        <ele>205</ele>
        <time>2014-06-15T10:04:21.000Z</time>
      </trkpt>
      <trkpt lat="48.95049" lon="1.06724">
        <ele>205</ele>
        <time>2014-06-15T10:04:23.000Z</time>
      </trkpt>
      <trkpt lat="48.95049" lon="1.06724">
        <ele>205</ele>
        <time>2014-06-15T10:04:25.000Z</time>
      </trkpt>
      <trkpt lat="48.95049" lon="1.06724">
        <ele>205</ele>
        <time>2014-06-15T10:04:27.000Z</time>
      </trkpt>
      <trkpt lat="48.95049" lon="1.06724">
        <ele>205</ele>
        <time>2014-06-15T10:04:29.000Z</time>
      </trkpt>
      <trkpt lat="48.95052" lon="1.06722">
        <ele>204</ele>
        <time>2014-06-15T10:04:31.000Z</time>
      </trkpt>
      <trkpt lat="48.95052" lon="1.06722">
        <ele>204</ele>
        <time>2014-06-15T10:04:33.000Z</time>
      </trkpt>
      <trkpt lat="48.95055" lon="1.0672">
        <ele>204</ele>
        <time>2014-06-15T10:04:35.000Z</time>
      </trkpt>
      <trkpt lat="48.95055" lon="1.0672">
        <ele>204</ele>
        <time>2014-06-15T10:04:37.000Z</time>
      </trkpt>
      <trkpt lat="48.95055" lon="1.0672">
        <ele>204</ele>
        <time>2014-06-15T10:04:39.000Z</time>
      </trkpt>
      <trkpt lat="48.95057" lon="1.06716">
        <ele>204</ele>
        <time>2014-06-15T10:04:41.000Z</time>
      </trkpt>
      <trkpt lat="48.95057" lon="1.06716">
        <ele>204</ele>
        <time>2014-06-15T10:04:43.000Z</time>
      </trkpt>
      <trkpt lat="48.95061" lon="1.06715">
        <ele>204</ele>
        <time>2014-06-15T10:04:45.000Z</time>
      </trkpt>
      <trkpt lat="48.95061" lon="1.06715">
        <ele>204</ele>
        <time>2014-06-15T10:04:47.000Z</time>
      </trkpt>
      <trkpt lat="48.95061" lon="1.06715">
        <ele>204</ele>
        <time>2014-06-15T10:04:49.000Z</time>
      </trkpt>
      <trkpt lat="48.95061" lon="1.06715">
        <ele>204</ele>
        <time>2014-06-15T10:04:53.000Z</time>
      </trkpt>
      <trkpt lat="48.95069" lon="1.06713">
        <ele>205</ele>
        <time>2014-06-15T10:05:05.000Z</time>
      </trkpt>
      <trkpt lat="48.95074" lon="1.06712">
        <ele>205</ele>
        <time>2014-06-15T10:05:07.000Z</time>
      </trkpt>
      <trkpt lat="48.95078" lon="1.06711">
        <ele>205</ele>
        <time>2014-06-15T10:05:09.000Z</time>
      </trkpt>
      <trkpt lat="48.95083" lon="1.0671">
        <ele>205</ele>
        <time>2014-06-15T10:05:11.000Z</time>
      </trkpt>
      <trkpt lat="48.95087" lon="1.06711">
        <ele>205</ele>
        <time>2014-06-15T10:05:13.000Z</time>
      </trkpt>
      <trkpt lat="48.95092" lon="1.06713">
        <ele>204</ele>
        <time>2014-06-15T10:05:15.000Z</time>
      </trkpt>
      <trkpt lat="48.95092" lon="1.06713">
        <ele>204</ele>
        <time>2014-06-15T10:05:17.000Z</time>
      </trkpt>
      <trkpt lat="48.95092" lon="1.06713">
        <ele>204</ele>
        <time>2014-06-15T10:05:19.000Z</time>
      </trkpt>
      <trkpt lat="48.95101" lon="1.06713">
        <ele>204</ele>
        <time>2014-06-15T10:05:21.000Z</time>
      </trkpt>
      <trkpt lat="48.9511" lon="1.06711">
        <ele>203</ele>
        <time>2014-06-15T10:05:25.000Z</time>
      </trkpt>
      <trkpt lat="48.9511" lon="1.06711">
        <ele>203</ele>
        <time>2014-06-15T10:05:27.000Z</time>
      </trkpt>
      <trkpt lat="48.9511" lon="1.06711">
        <ele>203</ele>
        <time>2014-06-15T10:05:29.000Z</time>
      </trkpt>
      <trkpt lat="48.9511" lon="1.06711">
        <ele>203</ele>
        <time>2014-06-15T10:05:31.000Z</time>
      </trkpt>
      <trkpt lat="48.95119" lon="1.06706">
        <ele>200</ele>
        <time>2014-06-15T10:05:33.000Z</time>
      </trkpt>
      <trkpt lat="48.95129" lon="1.06699">
        <ele>199</ele>
        <time>2014-06-15T10:05:37.000Z</time>
      </trkpt>
      <trkpt lat="48.95134" lon="1.06695">
        <ele>199</ele>
        <time>2014-06-15T10:05:39.000Z</time>
      </trkpt>
      <trkpt lat="48.95134" lon="1.06695">
        <ele>199</ele>
        <time>2014-06-15T10:05:41.000Z</time>
      </trkpt>
      <trkpt lat="48.95134" lon="1.06695">
        <ele>199</ele>
        <time>2014-06-15T10:05:43.000Z</time>
      </trkpt>
      <trkpt lat="48.95158" lon="1.0668">
        <ele>198</ele>
        <time>2014-06-15T10:05:46.000Z</time>
      </trkpt>
      <trkpt lat="48.95192" lon="1.06653">
        <ele>199</ele>
        <time>2014-06-15T10:05:50.000Z</time>
      </trkpt>
      <trkpt lat="48.95213" lon="1.06643">
        <ele>199</ele>
        <time>2014-06-15T10:05:55.000Z</time>
      </trkpt>
      <trkpt lat="48.95213" lon="1.06643">
        <ele>199</ele>
        <time>2014-06-15T10:05:57.000Z</time>
      </trkpt>
      <trkpt lat="48.95225" lon="1.06637">
        <ele>199</ele>
        <time>2014-06-15T10:05:59.000Z</time>
      </trkpt>
      <trkpt lat="48.95235" lon="1.0663">
        <ele>199</ele>
        <time>2014-06-15T10:06:01.000Z</time>
      </trkpt>
      <trkpt lat="48.95258" lon="1.06615">
        <ele>199</ele>
        <time>2014-06-15T10:06:04.000Z</time>
      </trkpt>
      <trkpt lat="48.95269" lon="1.06607">
        <ele>199</ele>
        <time>2014-06-15T10:06:06.000Z</time>
      </trkpt>
      <trkpt lat="48.95279" lon="1.06598">
        <ele>199</ele>
        <time>2014-06-15T10:06:08.000Z</time>
      </trkpt>
      <trkpt lat="48.9529" lon="1.06588">
        <ele>199</ele>
        <time>2014-06-15T10:06:10.000Z</time>
      </trkpt>
      <trkpt lat="48.95296" lon="1.06583">
        <ele>199</ele>
        <time>2014-06-15T10:06:12.000Z</time>
      </trkpt>
      <trkpt lat="48.95306" lon="1.06574">
        <ele>199</ele>
        <time>2014-06-15T10:06:14.000Z</time>
      </trkpt>
      <trkpt lat="48.95317" lon="1.06565">
        <ele>200</ele>
        <time>2014-06-15T10:06:16.000Z</time>
      </trkpt>
      <trkpt lat="48.95327" lon="1.06556">
        <ele>200</ele>
        <time>2014-06-15T10:06:18.000Z</time>
      </trkpt>
      <trkpt lat="48.95338" lon="1.06547">
        <ele>200</ele>
        <time>2014-06-15T10:06:20.000Z</time>
      </trkpt>
      <trkpt lat="48.95347" lon="1.0654">
        <ele>200</ele>
        <time>2014-06-15T10:06:22.000Z</time>
      </trkpt>
      <trkpt lat="48.95354" lon="1.06536">
        <ele>201</ele>
        <time>2014-06-15T10:06:24.000Z</time>
      </trkpt>
      <trkpt lat="48.95362" lon="1.0653">
        <ele>201</ele>
        <time>2014-06-15T10:06:26.000Z</time>
      </trkpt>
      <trkpt lat="48.9537" lon="1.06524">
        <ele>201</ele>
        <time>2014-06-15T10:06:28.000Z</time>
      </trkpt>
      <trkpt lat="48.95377" lon="1.0652">
        <ele>202</ele>
        <time>2014-06-15T10:06:30.000Z</time>
      </trkpt>
      <trkpt lat="48.95382" lon="1.06517">
        <ele>202</ele>
        <time>2014-06-15T10:06:32.000Z</time>
      </trkpt>
      <trkpt lat="48.95382" lon="1.06517">
        <ele>202</ele>
        <time>2014-06-15T10:06:34.000Z</time>
      </trkpt>
      <trkpt lat="48.95392" lon="1.06517">
        <ele>203</ele>
        <time>2014-06-15T10:06:36.000Z</time>
      </trkpt>
      <trkpt lat="48.95392" lon="1.06517">
        <ele>203</ele>
        <time>2014-06-15T10:06:38.000Z</time>
      </trkpt>
      <trkpt lat="48.95404" lon="1.06516">
        <ele>203</ele>
        <time>2014-06-15T10:06:40.000Z</time>
      </trkpt>
      <trkpt lat="48.95411" lon="1.0651">
        <ele>203</ele>
        <time>2014-06-15T10:06:42.000Z</time>
      </trkpt>
      <trkpt lat="48.95421" lon="1.06505">
        <ele>203</ele>
        <time>2014-06-15T10:06:46.000Z</time>
      </trkpt>
      <trkpt lat="48.95421" lon="1.06505">
        <ele>203</ele>
        <time>2014-06-15T10:06:48.000Z</time>
      </trkpt>
      <trkpt lat="48.95432" lon="1.06499">
        <ele>204</ele>
        <time>2014-06-15T10:06:50.000Z</time>
      </trkpt>
      <trkpt lat="48.95441" lon="1.06492">
        <ele>204</ele>
        <time>2014-06-15T10:06:54.000Z</time>
      </trkpt>
      <trkpt lat="48.95447" lon="1.06485">
        <ele>204</ele>
        <time>2014-06-15T10:06:56.000Z</time>
      </trkpt>
      <trkpt lat="48.95452" lon="1.06478">
        <ele>203</ele>
        <time>2014-06-15T10:06:58.000Z</time>
      </trkpt>
      <trkpt lat="48.95458" lon="1.06471">
        <ele>204</ele>
        <time>2014-06-15T10:07:00.000Z</time>
      </trkpt>
      <trkpt lat="48.95464" lon="1.06464">
        <ele>204</ele>
        <time>2014-06-15T10:07:02.000Z</time>
      </trkpt>
      <trkpt lat="48.95469" lon="1.06455">
        <ele>205</ele>
        <time>2014-06-15T10:07:04.000Z</time>
      </trkpt>
      <trkpt lat="48.95474" lon="1.06448">
        <ele>205</ele>
        <time>2014-06-15T10:07:06.000Z</time>
      </trkpt>
      <trkpt lat="48.9548" lon="1.06441">
        <ele>205</ele>
        <time>2014-06-15T10:07:08.000Z</time>
      </trkpt>
      <trkpt lat="48.95487" lon="1.06431">
        <ele>206</ele>
        <time>2014-06-15T10:07:10.000Z</time>
      </trkpt>
      <trkpt lat="48.95496" lon="1.06419">
        <ele>206</ele>
        <time>2014-06-15T10:07:12.000Z</time>
      </trkpt>
      <trkpt lat="48.95503" lon="1.0641">
        <ele>207</ele>
        <time>2014-06-15T10:07:14.000Z</time>
      </trkpt>
      <trkpt lat="48.95509" lon="1.06404">
        <ele>207</ele>
        <time>2014-06-15T10:07:16.000Z</time>
      </trkpt>
      <trkpt lat="48.95515" lon="1.06396">
        <ele>207</ele>
        <time>2014-06-15T10:07:18.000Z</time>
      </trkpt>
      <trkpt lat="48.95522" lon="1.06389">
        <ele>207</ele>
        <time>2014-06-15T10:07:20.000Z</time>
      </trkpt>
      <trkpt lat="48.95529" lon="1.06385">
        <ele>207</ele>
        <time>2014-06-15T10:07:22.000Z</time>
      </trkpt>
      <trkpt lat="48.95529" lon="1.06385">
        <ele>207</ele>
        <time>2014-06-15T10:07:24.000Z</time>
      </trkpt>
      <trkpt lat="48.95539" lon="1.06375">
        <ele>207</ele>
        <time>2014-06-15T10:07:26.000Z</time>
      </trkpt>
      <trkpt lat="48.95543" lon="1.06368">
        <ele>207</ele>
        <time>2014-06-15T10:07:28.000Z</time>
      </trkpt>
      <trkpt lat="48.95548" lon="1.06361">
        <ele>207</ele>
        <time>2014-06-15T10:07:30.000Z</time>
      </trkpt>
      <trkpt lat="48.95555" lon="1.06353">
        <ele>207</ele>
        <time>2014-06-15T10:07:32.000Z</time>
      </trkpt>
      <trkpt lat="48.95562" lon="1.06345">
        <ele>207</ele>
        <time>2014-06-15T10:07:34.000Z</time>
      </trkpt>
      <trkpt lat="48.95569" lon="1.06338">
        <ele>207</ele>
        <time>2014-06-15T10:07:36.000Z</time>
      </trkpt>
      <trkpt lat="48.95577" lon="1.06331">
        <ele>207</ele>
        <time>2014-06-15T10:07:38.000Z</time>
      </trkpt>
      <trkpt lat="48.95586" lon="1.06325">
        <ele>207</ele>
        <time>2014-06-15T10:07:40.000Z</time>
      </trkpt>
      <trkpt lat="48.95594" lon="1.06319">
        <ele>208</ele>
        <time>2014-06-15T10:07:42.000Z</time>
      </trkpt>
      <trkpt lat="48.95603" lon="1.06313">
        <ele>208</ele>
        <time>2014-06-15T10:07:44.000Z</time>
      </trkpt>
      <trkpt lat="48.95612" lon="1.06307">
        <ele>208</ele>
        <time>2014-06-15T10:07:46.000Z</time>
      </trkpt>
      <trkpt lat="48.9562" lon="1.06302">
        <ele>208</ele>
        <time>2014-06-15T10:07:48.000Z</time>
      </trkpt>
      <trkpt lat="48.95628" lon="1.06297">
        <ele>208</ele>
        <time>2014-06-15T10:07:50.000Z</time>
      </trkpt>
      <trkpt lat="48.95636" lon="1.06292">
        <ele>208</ele>
        <time>2014-06-15T10:07:52.000Z</time>
      </trkpt>
      <trkpt lat="48.95644" lon="1.06288">
        <ele>208</ele>
        <time>2014-06-15T10:07:54.000Z</time>
      </trkpt>
      <trkpt lat="48.9565" lon="1.06282">
        <ele>208</ele>
        <time>2014-06-15T10:07:56.000Z</time>
      </trkpt>
      <trkpt lat="48.95655" lon="1.06277">
        <ele>208</ele>
        <time>2014-06-15T10:07:58.000Z</time>
      </trkpt>
      <trkpt lat="48.95661" lon="1.06272">
        <ele>208</ele>
        <time>2014-06-15T10:08:00.000Z</time>
      </trkpt>
      <trkpt lat="48.95667" lon="1.06268">
        <ele>208</ele>
        <time>2014-06-15T10:08:02.000Z</time>
      </trkpt>
      <trkpt lat="48.95676" lon="1.06261">
        <ele>208</ele>
        <time>2014-06-15T10:08:06.000Z</time>
      </trkpt>
      <trkpt lat="48.95684" lon="1.06256">
        <ele>208</ele>
        <time>2014-06-15T10:08:10.000Z</time>
      </trkpt>
      <trkpt lat="48.95689" lon="1.06245">
        <ele>208</ele>
        <time>2014-06-15T10:08:12.000Z</time>
      </trkpt>
      <trkpt lat="48.95697" lon="1.0623">
        <ele>209</ele>
        <time>2014-06-15T10:08:14.000Z</time>
      </trkpt>
      <trkpt lat="48.95705" lon="1.06221">
        <ele>208</ele>
        <time>2014-06-15T10:08:16.000Z</time>
      </trkpt>
      <trkpt lat="48.95711" lon="1.06215">
        <ele>208</ele>
        <time>2014-06-15T10:08:18.000Z</time>
      </trkpt>
      <trkpt lat="48.95728" lon="1.06202">
        <ele>208</ele>
        <time>2014-06-15T10:08:21.000Z</time>
      </trkpt>
      <trkpt lat="48.95737" lon="1.06195">
        <ele>208</ele>
        <time>2014-06-15T10:08:23.000Z</time>
      </trkpt>
      <trkpt lat="48.9575" lon="1.06185">
        <ele>208</ele>
        <time>2014-06-15T10:08:25.000Z</time>
      </trkpt>
      <trkpt lat="48.95765" lon="1.06174">
        <ele>207</ele>
        <time>2014-06-15T10:08:27.000Z</time>
      </trkpt>
      <trkpt lat="48.95778" lon="1.06165">
        <ele>207</ele>
        <time>2014-06-15T10:08:29.000Z</time>
      </trkpt>
      <trkpt lat="48.95789" lon="1.06156">
        <ele>207</ele>
        <time>2014-06-15T10:08:31.000Z</time>
      </trkpt>
      <trkpt lat="48.95798" lon="1.06148">
        <ele>207</ele>
        <time>2014-06-15T10:08:33.000Z</time>
      </trkpt>
      <trkpt lat="48.95805" lon="1.06138">
        <ele>207</ele>
        <time>2014-06-15T10:08:35.000Z</time>
      </trkpt>
      <trkpt lat="48.9581" lon="1.06128">
        <ele>207</ele>
        <time>2014-06-15T10:08:37.000Z</time>
      </trkpt>
      <trkpt lat="48.95812" lon="1.06119">
        <ele>208</ele>
        <time>2014-06-15T10:08:39.000Z</time>
      </trkpt>
      <trkpt lat="48.95815" lon="1.06106">
        <ele>208</ele>
        <time>2014-06-15T10:08:41.000Z</time>
      </trkpt>
      <trkpt lat="48.95816" lon="1.06091">
        <ele>209</ele>
        <time>2014-06-15T10:08:43.000Z</time>
      </trkpt>
      <trkpt lat="48.95816" lon="1.06075">
        <ele>212</ele>
        <time>2014-06-15T10:08:45.000Z</time>
      </trkpt>
      <trkpt lat="48.95815" lon="1.0606">
        <ele>214</ele>
        <time>2014-06-15T10:08:47.000Z</time>
      </trkpt>
      <trkpt lat="48.95813" lon="1.06045">
        <ele>218</ele>
        <time>2014-06-15T10:08:49.000Z</time>
      </trkpt>
      <trkpt lat="48.9581" lon="1.06029">
        <ele>219</ele>
        <time>2014-06-15T10:08:51.000Z</time>
      </trkpt>
      <trkpt lat="48.95807" lon="1.06011">
        <ele>218</ele>
        <time>2014-06-15T10:08:53.000Z</time>
      </trkpt>
      <trkpt lat="48.95803" lon="1.05992">
        <ele>218</ele>
        <time>2014-06-15T10:08:55.000Z</time>
      </trkpt>
      <trkpt lat="48.95798" lon="1.05973">
        <ele>218</ele>
        <time>2014-06-15T10:08:57.000Z</time>
      </trkpt>
      <trkpt lat="48.95795" lon="1.05953">
        <ele>218</ele>
        <time>2014-06-15T10:08:59.000Z</time>
      </trkpt>
      <trkpt lat="48.95791" lon="1.05936">
        <ele>218</ele>
        <time>2014-06-15T10:09:01.000Z</time>
      </trkpt>
      <trkpt lat="48.95787" lon="1.05917">
        <ele>218</ele>
        <time>2014-06-15T10:09:03.000Z</time>
      </trkpt>
      <trkpt lat="48.95771" lon="1.05853">
        <ele>213</ele>
        <time>2014-06-15T10:09:07.000Z</time>
      </trkpt>
      <trkpt lat="48.95763" lon="1.05818">
        <ele>210</ele>
        <time>2014-06-15T10:09:10.000Z</time>
      </trkpt>
      <trkpt lat="48.95759" lon="1.05795">
        <ele>210</ele>
        <time>2014-06-15T10:09:12.000Z</time>
      </trkpt>
      <trkpt lat="48.95755" lon="1.05773">
        <ele>210</ele>
        <time>2014-06-15T10:09:14.000Z</time>
      </trkpt>
      <trkpt lat="48.9575" lon="1.05753">
        <ele>209</ele>
        <time>2014-06-15T10:09:16.000Z</time>
      </trkpt>
      <trkpt lat="48.95747" lon="1.05734">
        <ele>207</ele>
        <time>2014-06-15T10:09:18.000Z</time>
      </trkpt>
      <trkpt lat="48.95743" lon="1.05713">
        <ele>207</ele>
        <time>2014-06-15T10:09:20.000Z</time>
      </trkpt>
      <trkpt lat="48.95739" lon="1.05696">
        <ele>207</ele>
        <time>2014-06-15T10:09:22.000Z</time>
      </trkpt>
      <trkpt lat="48.95735" lon="1.05678">
        <ele>208</ele>
        <time>2014-06-15T10:09:24.000Z</time>
      </trkpt>
      <trkpt lat="48.95732" lon="1.05661">
        <ele>208</ele>
        <time>2014-06-15T10:09:26.000Z</time>
      </trkpt>
      <trkpt lat="48.95729" lon="1.05644">
        <ele>208</ele>
        <time>2014-06-15T10:09:28.000Z</time>
      </trkpt>
      <trkpt lat="48.95726" lon="1.05626">
        <ele>210</ele>
        <time>2014-06-15T10:09:30.000Z</time>
      </trkpt>
      <trkpt lat="48.95724" lon="1.05609">
        <ele>213</ele>
        <time>2014-06-15T10:09:32.000Z</time>
      </trkpt>
      <trkpt lat="48.95721" lon="1.05592">
        <ele>215</ele>
        <time>2014-06-15T10:09:34.000Z</time>
      </trkpt>
      <trkpt lat="48.95717" lon="1.05576">
        <ele>216</ele>
        <time>2014-06-15T10:09:36.000Z</time>
      </trkpt>
      <trkpt lat="48.95714" lon="1.05561">
        <ele>216</ele>
        <time>2014-06-15T10:09:38.000Z</time>
      </trkpt>
      <trkpt lat="48.95712" lon="1.05546">
        <ele>216</ele>
        <time>2014-06-15T10:09:40.000Z</time>
      </trkpt>
      <trkpt lat="48.95709" lon="1.0553">
        <ele>219</ele>
        <time>2014-06-15T10:09:42.000Z</time>
      </trkpt>
      <trkpt lat="48.95707" lon="1.05515">
        <ele>220</ele>
        <time>2014-06-15T10:09:44.000Z</time>
      </trkpt>
      <trkpt lat="48.95703" lon="1.05499">
        <ele>220</ele>
        <time>2014-06-15T10:09:46.000Z</time>
      </trkpt>
      <trkpt lat="48.957" lon="1.05486">
        <ele>221</ele>
        <time>2014-06-15T10:09:48.000Z</time>
      </trkpt>
      <trkpt lat="48.95698" lon="1.05473">
        <ele>221</ele>
        <time>2014-06-15T10:09:50.000Z</time>
      </trkpt>
      <trkpt lat="48.95697" lon="1.05459">
        <ele>221</ele>
        <time>2014-06-15T10:09:52.000Z</time>
      </trkpt>
      <trkpt lat="48.95695" lon="1.05447">
        <ele>221</ele>
        <time>2014-06-15T10:09:54.000Z</time>
      </trkpt>
      <trkpt lat="48.95695" lon="1.05436">
        <ele>221</ele>
        <time>2014-06-15T10:09:56.000Z</time>
      </trkpt>
      <trkpt lat="48.95695" lon="1.05425">
        <ele>222</ele>
        <time>2014-06-15T10:09:58.000Z</time>
      </trkpt>
      <trkpt lat="48.95694" lon="1.05414">
        <ele>222</ele>
        <time>2014-06-15T10:10:00.000Z</time>
      </trkpt>
      <trkpt lat="48.95694" lon="1.05404">
        <ele>222</ele>
        <time>2014-06-15T10:10:02.000Z</time>
      </trkpt>
      <trkpt lat="48.95692" lon="1.05393">
        <ele>222</ele>
        <time>2014-06-15T10:10:04.000Z</time>
      </trkpt>
      <trkpt lat="48.9569" lon="1.05383">
        <ele>223</ele>
        <time>2014-06-15T10:10:06.000Z</time>
      </trkpt>
      <trkpt lat="48.95688" lon="1.05372">
        <ele>223</ele>
        <time>2014-06-15T10:10:08.000Z</time>
      </trkpt>
      <trkpt lat="48.95686" lon="1.05362">
        <ele>223</ele>
        <time>2014-06-15T10:10:10.000Z</time>
      </trkpt>
      <trkpt lat="48.95683" lon="1.05354">
        <ele>223</ele>
        <time>2014-06-15T10:10:12.000Z</time>
      </trkpt>
      <trkpt lat="48.95681" lon="1.05344">
        <ele>222</ele>
        <time>2014-06-15T10:10:14.000Z</time>
      </trkpt>
      <trkpt lat="48.9568" lon="1.05334">
        <ele>222</ele>
        <time>2014-06-15T10:10:16.000Z</time>
      </trkpt>
      <trkpt lat="48.9568" lon="1.05334">
        <ele>222</ele>
        <time>2014-06-15T10:10:18.000Z</time>
      </trkpt>
      <trkpt lat="48.95678" lon="1.05316">
        <ele>222</ele>
        <time>2014-06-15T10:10:20.000Z</time>
      </trkpt>
      <trkpt lat="48.95678" lon="1.05316">
        <ele>222</ele>
        <time>2014-06-15T10:10:22.000Z</time>
      </trkpt>
      <trkpt lat="48.95675" lon="1.05296">
        <ele>222</ele>
        <time>2014-06-15T10:10:24.000Z</time>
      </trkpt>
      <trkpt lat="48.95671" lon="1.05284">
        <ele>221</ele>
        <time>2014-06-15T10:10:26.000Z</time>
      </trkpt>
      <trkpt lat="48.9567" lon="1.05271">
        <ele>221</ele>
        <time>2014-06-15T10:10:28.000Z</time>
      </trkpt>
      <trkpt lat="48.95667" lon="1.05257">
        <ele>221</ele>
        <time>2014-06-15T10:10:30.000Z</time>
      </trkpt>
      <trkpt lat="48.95664" lon="1.0524">
        <ele>220</ele>
        <time>2014-06-15T10:10:32.000Z</time>
      </trkpt>
      <trkpt lat="48.95662" lon="1.05224">
        <ele>220</ele>
        <time>2014-06-15T10:10:34.000Z</time>
      </trkpt>
      <trkpt lat="48.95661" lon="1.05207">
        <ele>218</ele>
        <time>2014-06-15T10:10:36.000Z</time>
      </trkpt>
      <trkpt lat="48.95661" lon="1.0519">
        <ele>218</ele>
        <time>2014-06-15T10:10:38.000Z</time>
      </trkpt>
      <trkpt lat="48.9566" lon="1.05153">
        <ele>217</ele>
        <time>2014-06-15T10:10:41.000Z</time>
      </trkpt>
      <trkpt lat="48.95652" lon="1.05084">
        <ele>215</ele>
        <time>2014-06-15T10:10:45.000Z</time>
      </trkpt>
      <trkpt lat="48.95647" lon="1.05033">
        <ele>215</ele>
        <time>2014-06-15T10:10:51.000Z</time>
      </trkpt>
      <trkpt lat="48.95647" lon="1.05016">
        <ele>215</ele>
        <time>2014-06-15T10:10:53.000Z</time>
      </trkpt>
      <trkpt lat="48.95647" lon="1.05001">
        <ele>215</ele>
        <time>2014-06-15T10:10:55.000Z</time>
      </trkpt>
      <trkpt lat="48.95647" lon="1.04989">
        <ele>215</ele>
        <time>2014-06-15T10:10:57.000Z</time>
      </trkpt>
      <trkpt lat="48.95647" lon="1.04977">
        <ele>215</ele>
        <time>2014-06-15T10:10:59.000Z</time>
      </trkpt>
      <trkpt lat="48.95646" lon="1.04962">
        <ele>214</ele>
        <time>2014-06-15T10:11:01.000Z</time>
      </trkpt>
      <trkpt lat="48.95651" lon="1.04951">
        <ele>214</ele>
        <time>2014-06-15T10:11:03.000Z</time>
      </trkpt>
      <trkpt lat="48.95657" lon="1.0494">
        <ele>213</ele>
        <time>2014-06-15T10:11:05.000Z</time>
      </trkpt>
      <trkpt lat="48.9566" lon="1.04926">
        <ele>213</ele>
        <time>2014-06-15T10:11:07.000Z</time>
      </trkpt>
      <trkpt lat="48.95662" lon="1.04914">
        <ele>212</ele>
        <time>2014-06-15T10:11:09.000Z</time>
      </trkpt>
      <trkpt lat="48.95665" lon="1.04901">
        <ele>212</ele>
        <time>2014-06-15T10:11:11.000Z</time>
      </trkpt>
      <trkpt lat="48.95666" lon="1.04891">
        <ele>211</ele>
        <time>2014-06-15T10:11:13.000Z</time>
      </trkpt>
      <trkpt lat="48.95667" lon="1.04881">
        <ele>211</ele>
        <time>2014-06-15T10:11:15.000Z</time>
      </trkpt>
      <trkpt lat="48.95668" lon="1.04872">
        <ele>210</ele>
        <time>2014-06-15T10:11:17.000Z</time>
      </trkpt>
      <trkpt lat="48.95671" lon="1.04864">
        <ele>210</ele>
        <time>2014-06-15T10:11:19.000Z</time>
      </trkpt>
      <trkpt lat="48.95673" lon="1.04855">
        <ele>209</ele>
        <time>2014-06-15T10:11:21.000Z</time>
      </trkpt>
      <trkpt lat="48.95678" lon="1.04847">
        <ele>209</ele>
        <time>2014-06-15T10:11:23.000Z</time>
      </trkpt>
      <trkpt lat="48.95681" lon="1.04839">
        <ele>208</ele>
        <time>2014-06-15T10:11:25.000Z</time>
      </trkpt>
      <trkpt lat="48.95682" lon="1.04829">
        <ele>208</ele>
        <time>2014-06-15T10:11:27.000Z</time>
      </trkpt>
      <trkpt lat="48.9568" lon="1.04818">
        <ele>208</ele>
        <time>2014-06-15T10:11:29.000Z</time>
      </trkpt>
      <trkpt lat="48.9568" lon="1.04808">
        <ele>207</ele>
        <time>2014-06-15T10:11:31.000Z</time>
      </trkpt>
      <trkpt lat="48.95678" lon="1.04797">
        <ele>207</ele>
        <time>2014-06-15T10:11:33.000Z</time>
      </trkpt>
      <trkpt lat="48.95676" lon="1.04785">
        <ele>206</ele>
        <time>2014-06-15T10:11:35.000Z</time>
      </trkpt>
      <trkpt lat="48.95673" lon="1.04776">
        <ele>206</ele>
        <time>2014-06-15T10:11:37.000Z</time>
      </trkpt>
      <trkpt lat="48.9567" lon="1.04768">
        <ele>205</ele>
        <time>2014-06-15T10:11:39.000Z</time>
      </trkpt>
      <trkpt lat="48.95664" lon="1.04757">
        <ele>204</ele>
        <time>2014-06-15T10:11:41.000Z</time>
      </trkpt>
      <trkpt lat="48.95659" lon="1.0475">
        <ele>203</ele>
        <time>2014-06-15T10:11:43.000Z</time>
      </trkpt>
      <trkpt lat="48.95654" lon="1.04743">
        <ele>202</ele>
        <time>2014-06-15T10:11:45.000Z</time>
      </trkpt>
      <trkpt lat="48.95646" lon="1.04737">
        <ele>196</ele>
        <time>2014-06-15T10:11:47.000Z</time>
      </trkpt>
      <trkpt lat="48.95636" lon="1.0473">
        <ele>196</ele>
        <time>2014-06-15T10:11:49.000Z</time>
      </trkpt>
      <trkpt lat="48.95628" lon="1.04722">
        <ele>195</ele>
        <time>2014-06-15T10:11:51.000Z</time>
      </trkpt>
      <trkpt lat="48.9562" lon="1.04713">
        <ele>194</ele>
        <time>2014-06-15T10:11:53.000Z</time>
      </trkpt>
      <trkpt lat="48.95611" lon="1.04703">
        <ele>193</ele>
        <time>2014-06-15T10:11:55.000Z</time>
      </trkpt>
      <trkpt lat="48.95601" lon="1.04694">
        <ele>189</ele>
        <time>2014-06-15T10:11:57.000Z</time>
      </trkpt>
      <trkpt lat="48.9559" lon="1.04687">
        <ele>184</ele>
        <time>2014-06-15T10:11:59.000Z</time>
      </trkpt>
      <trkpt lat="48.95579" lon="1.04684">
        <ele>179</ele>
        <time>2014-06-15T10:12:01.000Z</time>
      </trkpt>
      <trkpt lat="48.9557" lon="1.04683">
        <ele>177</ele>
        <time>2014-06-15T10:12:03.000Z</time>
      </trkpt>
      <trkpt lat="48.95562" lon="1.04684">
        <ele>177</ele>
        <time>2014-06-15T10:12:05.000Z</time>
      </trkpt>
      <trkpt lat="48.95552" lon="1.04685">
        <ele>177</ele>
        <time>2014-06-15T10:12:07.000Z</time>
      </trkpt>
      <trkpt lat="48.95544" lon="1.04688">
        <ele>176</ele>
        <time>2014-06-15T10:12:09.000Z</time>
      </trkpt>
      <trkpt lat="48.95536" lon="1.04693">
        <ele>176</ele>
        <time>2014-06-15T10:12:11.000Z</time>
      </trkpt>
      <trkpt lat="48.95528" lon="1.04702">
        <ele>174</ele>
        <time>2014-06-15T10:12:13.000Z</time>
      </trkpt>
      <trkpt lat="48.95519" lon="1.04707">
        <ele>174</ele>
        <time>2014-06-15T10:12:15.000Z</time>
      </trkpt>
      <trkpt lat="48.95509" lon="1.04713">
        <ele>174</ele>
        <time>2014-06-15T10:12:17.000Z</time>
      </trkpt>
      <trkpt lat="48.955" lon="1.04719">
        <ele>174</ele>
        <time>2014-06-15T10:12:19.000Z</time>
      </trkpt>
      <trkpt lat="48.95491" lon="1.04729">
        <ele>173</ele>
        <time>2014-06-15T10:12:21.000Z</time>
      </trkpt>
      <trkpt lat="48.95487" lon="1.04745">
        <ele>170</ele>
        <time>2014-06-15T10:12:23.000Z</time>
      </trkpt>
      <trkpt lat="48.95483" lon="1.04763">
        <ele>168</ele>
        <time>2014-06-15T10:12:25.000Z</time>
      </trkpt>
      <trkpt lat="48.95478" lon="1.04785">
        <ele>165</ele>
        <time>2014-06-15T10:12:27.000Z</time>
      </trkpt>
      <trkpt lat="48.95472" lon="1.04805">
        <ele>163</ele>
        <time>2014-06-15T10:12:30.000Z</time>
      </trkpt>
      <trkpt lat="48.95467" lon="1.0482">
        <ele>162</ele>
        <time>2014-06-15T10:12:32.000Z</time>
      </trkpt>
      <trkpt lat="48.95462" lon="1.04833">
        <ele>160</ele>
        <time>2014-06-15T10:12:34.000Z</time>
      </trkpt>
      <trkpt lat="48.95458" lon="1.04846">
        <ele>159</ele>
        <time>2014-06-15T10:12:36.000Z</time>
      </trkpt>
      <trkpt lat="48.95455" lon="1.04857">
        <ele>158</ele>
        <time>2014-06-15T10:12:38.000Z</time>
      </trkpt>
      <trkpt lat="48.95451" lon="1.04869">
        <ele>157</ele>
        <time>2014-06-15T10:12:40.000Z</time>
      </trkpt>
      <trkpt lat="48.95446" lon="1.04881">
        <ele>156</ele>
        <time>2014-06-15T10:12:42.000Z</time>
      </trkpt>
      <trkpt lat="48.95442" lon="1.04892">
        <ele>155</ele>
        <time>2014-06-15T10:12:44.000Z</time>
      </trkpt>
      <trkpt lat="48.95438" lon="1.04904">
        <ele>156</ele>
        <time>2014-06-15T10:12:46.000Z</time>
      </trkpt>
      <trkpt lat="48.95433" lon="1.04917">
        <ele>157</ele>
        <time>2014-06-15T10:12:48.000Z</time>
      </trkpt>
      <trkpt lat="48.95429" lon="1.0493">
        <ele>157</ele>
        <time>2014-06-15T10:12:50.000Z</time>
      </trkpt>
      <trkpt lat="48.95425" lon="1.04942">
        <ele>157</ele>
        <time>2014-06-15T10:12:52.000Z</time>
      </trkpt>
      <trkpt lat="48.9542" lon="1.04956">
        <ele>156</ele>
        <time>2014-06-15T10:12:54.000Z</time>
      </trkpt>
      <trkpt lat="48.95416" lon="1.04969">
        <ele>155</ele>
        <time>2014-06-15T10:12:56.000Z</time>
      </trkpt>
      <trkpt lat="48.95413" lon="1.04982">
        <ele>155</ele>
        <time>2014-06-15T10:12:58.000Z</time>
      </trkpt>
      <trkpt lat="48.95409" lon="1.04993">
        <ele>156</ele>
        <time>2014-06-15T10:13:00.000Z</time>
      </trkpt>
      <trkpt lat="48.95403" lon="1.05008">
        <ele>155</ele>
        <time>2014-06-15T10:13:02.000Z</time>
      </trkpt>
      <trkpt lat="48.95399" lon="1.05022">
        <ele>155</ele>
        <time>2014-06-15T10:13:04.000Z</time>
      </trkpt>
      <trkpt lat="48.95395" lon="1.05037">
        <ele>155</ele>
        <time>2014-06-15T10:13:06.000Z</time>
      </trkpt>
      <trkpt lat="48.9539" lon="1.05052">
        <ele>156</ele>
        <time>2014-06-15T10:13:08.000Z</time>
      </trkpt>
      <trkpt lat="48.95386" lon="1.05065">
        <ele>157</ele>
        <time>2014-06-15T10:13:10.000Z</time>
      </trkpt>
      <trkpt lat="48.95382" lon="1.05078">
        <ele>157</ele>
        <time>2014-06-15T10:13:12.000Z</time>
      </trkpt>
      <trkpt lat="48.95377" lon="1.05094">
        <ele>156</ele>
        <time>2014-06-15T10:13:14.000Z</time>
      </trkpt>
      <trkpt lat="48.95374" lon="1.05107">
        <ele>155</ele>
        <time>2014-06-15T10:13:19.000Z</time>
      </trkpt>
      <trkpt lat="48.95371" lon="1.05119">
        <ele>155</ele>
        <time>2014-06-15T10:13:22.000Z</time>
      </trkpt>
      <trkpt lat="48.95368" lon="1.05133">
        <ele>155</ele>
        <time>2014-06-15T10:13:22.000Z</time>
      </trkpt>
      <trkpt lat="48.95366" lon="1.05147">
        <ele>154</ele>
        <time>2014-06-15T10:13:24.000Z</time>
      </trkpt>
      <trkpt lat="48.95364" lon="1.05161">
        <ele>154</ele>
        <time>2014-06-15T10:13:25.000Z</time>
      </trkpt>
      <trkpt lat="48.95363" lon="1.05172">
        <ele>153</ele>
        <time>2014-06-15T10:13:26.000Z</time>
      </trkpt>
      <trkpt lat="48.95363" lon="1.05172">
        <ele>153</ele>
        <time>2014-06-15T10:13:28.000Z</time>
      </trkpt>
      <trkpt lat="48.95359" lon="1.05187">
        <ele>153</ele>
        <time>2014-06-15T10:13:30.000Z</time>
      </trkpt>
      <trkpt lat="48.95359" lon="1.05187">
        <ele>153</ele>
        <time>2014-06-15T10:13:32.000Z</time>
      </trkpt>
      <trkpt lat="48.95356" lon="1.05199">
        <ele>153</ele>
        <time>2014-06-15T10:13:34.000Z</time>
      </trkpt>
      <trkpt lat="48.95356" lon="1.05199">
        <ele>153</ele>
        <time>2014-06-15T10:13:36.000Z</time>
      </trkpt>
      <trkpt lat="48.95356" lon="1.05199">
        <ele>153</ele>
        <time>2014-06-15T10:13:38.000Z</time>
      </trkpt>
      <trkpt lat="48.95352" lon="1.05212">
        <ele>154</ele>
        <time>2014-06-15T10:13:40.000Z</time>
      </trkpt>
      <trkpt lat="48.9535" lon="1.0522">
        <ele>154</ele>
        <time>2014-06-15T10:13:42.000Z</time>
      </trkpt>
      <trkpt lat="48.95346" lon="1.05228">
        <ele>154</ele>
        <time>2014-06-15T10:13:44.000Z</time>
      </trkpt>
      <trkpt lat="48.95343" lon="1.05237">
        <ele>154</ele>
        <time>2014-06-15T10:13:46.000Z</time>
      </trkpt>
      <trkpt lat="48.95339" lon="1.05247">
        <ele>154</ele>
        <time>2014-06-15T10:13:48.000Z</time>
      </trkpt>
      <trkpt lat="48.95335" lon="1.05259">
        <ele>154</ele>
        <time>2014-06-15T10:13:50.000Z</time>
      </trkpt>
      <trkpt lat="48.95331" lon="1.05269">
        <ele>154</ele>
        <time>2014-06-15T10:13:52.000Z</time>
      </trkpt>
      <trkpt lat="48.95328" lon="1.05278">
        <ele>154</ele>
        <time>2014-06-15T10:13:54.000Z</time>
      </trkpt>
      <trkpt lat="48.95323" lon="1.05287">
        <ele>154</ele>
        <time>2014-06-15T10:13:56.000Z</time>
      </trkpt>
      <trkpt lat="48.95318" lon="1.05297">
        <ele>156</ele>
        <time>2014-06-15T10:13:58.000Z</time>
      </trkpt>
      <trkpt lat="48.95314" lon="1.05306">
        <ele>156</ele>
        <time>2014-06-15T10:14:00.000Z</time>
      </trkpt>
      <trkpt lat="48.95309" lon="1.05316">
        <ele>156</ele>
        <time>2014-06-15T10:14:02.000Z</time>
      </trkpt>
      <trkpt lat="48.95305" lon="1.05325">
        <ele>156</ele>
        <time>2014-06-15T10:14:04.000Z</time>
      </trkpt>
      <trkpt lat="48.953" lon="1.05332">
        <ele>156</ele>
        <time>2014-06-15T10:14:06.000Z</time>
      </trkpt>
      <trkpt lat="48.95296" lon="1.05339">
        <ele>156</ele>
        <time>2014-06-15T10:14:08.000Z</time>
      </trkpt>
      <trkpt lat="48.95292" lon="1.05347">
        <ele>157</ele>
        <time>2014-06-15T10:14:10.000Z</time>
      </trkpt>
      <trkpt lat="48.95287" lon="1.05358">
        <ele>156</ele>
        <time>2014-06-15T10:14:12.000Z</time>
      </trkpt>
      <trkpt lat="48.95283" lon="1.05372">
        <ele>156</ele>
        <time>2014-06-15T10:14:14.000Z</time>
      </trkpt>
      <trkpt lat="48.95279" lon="1.05382">
        <ele>156</ele>
        <time>2014-06-15T10:14:16.000Z</time>
      </trkpt>
      <trkpt lat="48.95275" lon="1.05392">
        <ele>156</ele>
        <time>2014-06-15T10:14:18.000Z</time>
      </trkpt>
      <trkpt lat="48.95272" lon="1.054">
        <ele>156</ele>
        <time>2014-06-15T10:14:20.000Z</time>
      </trkpt>
      <trkpt lat="48.95272" lon="1.054">
        <ele>156</ele>
        <time>2014-06-15T10:14:22.000Z</time>
      </trkpt>
      <trkpt lat="48.95268" lon="1.05414">
        <ele>156</ele>
        <time>2014-06-15T10:14:24.000Z</time>
      </trkpt>
      <trkpt lat="48.95265" lon="1.05422">
        <ele>156</ele>
        <time>2014-06-15T10:14:26.000Z</time>
      </trkpt>
      <trkpt lat="48.95262" lon="1.0543">
        <ele>156</ele>
        <time>2014-06-15T10:14:28.000Z</time>
      </trkpt>
      <trkpt lat="48.95259" lon="1.05439">
        <ele>156</ele>
        <time>2014-06-15T10:14:30.000Z</time>
      </trkpt>
      <trkpt lat="48.95257" lon="1.05447">
        <ele>156</ele>
        <time>2014-06-15T10:14:32.000Z</time>
      </trkpt>
      <trkpt lat="48.95257" lon="1.05447">
        <ele>156</ele>
        <time>2014-06-15T10:14:34.000Z</time>
      </trkpt>
      <trkpt lat="48.95252" lon="1.05457">
        <ele>156</ele>
        <time>2014-06-15T10:14:36.000Z</time>
      </trkpt>
      <trkpt lat="48.95252" lon="1.05457">
        <ele>156</ele>
        <time>2014-06-15T10:14:38.000Z</time>
      </trkpt>
      <trkpt lat="48.95252" lon="1.05457">
        <ele>156</ele>
        <time>2014-06-15T10:14:40.000Z</time>
      </trkpt>
      <trkpt lat="48.9525" lon="1.05467">
        <ele>158</ele>
        <time>2014-06-15T10:14:42.000Z</time>
      </trkpt>
      <trkpt lat="48.9525" lon="1.05467">
        <ele>158</ele>
        <time>2014-06-15T10:14:44.000Z</time>
      </trkpt>
      <trkpt lat="48.9525" lon="1.05467">
        <ele>158</ele>
        <time>2014-06-15T10:14:46.000Z</time>
      </trkpt>
      <trkpt lat="48.95247" lon="1.05472">
        <ele>159</ele>
        <time>2014-06-15T10:14:48.000Z</time>
      </trkpt>
      <trkpt lat="48.95245" lon="1.05476">
        <ele>159</ele>
        <time>2014-06-15T10:14:50.000Z</time>
      </trkpt>
      <trkpt lat="48.95244" lon="1.0548">
        <ele>159</ele>
        <time>2014-06-15T10:14:52.000Z</time>
      </trkpt>
      <trkpt lat="48.95243" lon="1.05485">
        <ele>160</ele>
        <time>2014-06-15T10:14:54.000Z</time>
      </trkpt>
      <trkpt lat="48.95242" lon="1.05489">
        <ele>161</ele>
        <time>2014-06-15T10:14:56.000Z</time>
      </trkpt>
      <trkpt lat="48.9524" lon="1.05501">
        <ele>161</ele>
        <time>2014-06-15T10:14:58.000Z</time>
      </trkpt>
      <trkpt lat="48.95239" lon="1.05511">
        <ele>163</ele>
        <time>2014-06-15T10:15:02.000Z</time>
      </trkpt>
      <trkpt lat="48.95239" lon="1.05511">
        <ele>163</ele>
        <time>2014-06-15T10:15:04.000Z</time>
      </trkpt>
      <trkpt lat="48.95237" lon="1.05519">
        <ele>164</ele>
        <time>2014-06-15T10:15:06.000Z</time>
      </trkpt>
      <trkpt lat="48.95237" lon="1.05519">
        <ele>164</ele>
        <time>2014-06-15T10:15:08.000Z</time>
      </trkpt>
      <trkpt lat="48.95237" lon="1.05519">
        <ele>164</ele>
        <time>2014-06-15T10:15:10.000Z</time>
      </trkpt>
      <trkpt lat="48.95232" lon="1.05527">
        <ele>166</ele>
        <time>2014-06-15T10:15:12.000Z</time>
      </trkpt>
      <trkpt lat="48.95232" lon="1.05527">
        <ele>166</ele>
        <time>2014-06-15T10:15:14.000Z</time>
      </trkpt>
      <trkpt lat="48.95227" lon="1.05532">
        <ele>168</ele>
        <time>2014-06-15T10:15:16.000Z</time>
      </trkpt>
      <trkpt lat="48.95216" lon="1.05541">
        <ele>169</ele>
        <time>2014-06-15T10:15:20.000Z</time>
      </trkpt>
      <trkpt lat="48.95211" lon="1.05547">
        <ele>169</ele>
        <time>2014-06-15T10:15:22.000Z</time>
      </trkpt>
      <trkpt lat="48.95205" lon="1.05552">
        <ele>169</ele>
        <time>2014-06-15T10:15:24.000Z</time>
      </trkpt>
      <trkpt lat="48.95197" lon="1.05561">
        <ele>169</ele>
        <time>2014-06-15T10:15:26.000Z</time>
      </trkpt>
      <trkpt lat="48.95189" lon="1.05569">
        <ele>169</ele>
        <time>2014-06-15T10:15:28.000Z</time>
      </trkpt>
      <trkpt lat="48.95182" lon="1.05575">
        <ele>170</ele>
        <time>2014-06-15T10:15:30.000Z</time>
      </trkpt>
      <trkpt lat="48.95177" lon="1.05582">
        <ele>170</ele>
        <time>2014-06-15T10:15:32.000Z</time>
      </trkpt>
      <trkpt lat="48.9517" lon="1.05589">
        <ele>170</ele>
        <time>2014-06-15T10:15:34.000Z</time>
      </trkpt>
      <trkpt lat="48.95163" lon="1.05596">
        <ele>170</ele>
        <time>2014-06-15T10:15:36.000Z</time>
      </trkpt>
      <trkpt lat="48.95155" lon="1.05604">
        <ele>170</ele>
        <time>2014-06-15T10:15:38.000Z</time>
      </trkpt>
      <trkpt lat="48.95149" lon="1.05609">
        <ele>170</ele>
        <time>2014-06-15T10:15:40.000Z</time>
      </trkpt>
      <trkpt lat="48.95149" lon="1.05609">
        <ele>170</ele>
        <time>2014-06-15T10:15:42.000Z</time>
      </trkpt>
      <trkpt lat="48.9514" lon="1.05616">
        <ele>170</ele>
        <time>2014-06-15T10:15:44.000Z</time>
      </trkpt>
      <trkpt lat="48.9514" lon="1.05616">
        <ele>170</ele>
        <time>2014-06-15T10:15:46.000Z</time>
      </trkpt>
      <trkpt lat="48.95132" lon="1.05621">
        <ele>170</ele>
        <time>2014-06-15T10:15:48.000Z</time>
      </trkpt>
      <trkpt lat="48.95132" lon="1.05621">
        <ele>170</ele>
        <time>2014-06-15T10:15:50.000Z</time>
      </trkpt>
      <trkpt lat="48.95122" lon="1.05627">
        <ele>170</ele>
        <time>2014-06-15T10:15:52.000Z</time>
      </trkpt>
      <trkpt lat="48.95122" lon="1.05627">
        <ele>170</ele>
        <time>2014-06-15T10:15:54.000Z</time>
      </trkpt>
      <trkpt lat="48.95115" lon="1.0563">
        <ele>170</ele>
        <time>2014-06-15T10:15:56.000Z</time>
      </trkpt>
      <trkpt lat="48.95115" lon="1.0563">
        <ele>170</ele>
        <time>2014-06-15T10:15:58.000Z</time>
      </trkpt>
      <trkpt lat="48.95107" lon="1.05632">
        <ele>169</ele>
        <time>2014-06-15T10:16:00.000Z</time>
      </trkpt>
      <trkpt lat="48.95107" lon="1.05632">
        <ele>169</ele>
        <time>2014-06-15T10:16:02.000Z</time>
      </trkpt>
      <trkpt lat="48.95098" lon="1.05632">
        <ele>169</ele>
        <time>2014-06-15T10:16:04.000Z</time>
      </trkpt>
      <trkpt lat="48.95098" lon="1.05632">
        <ele>169</ele>
        <time>2014-06-15T10:16:06.000Z</time>
      </trkpt>
      <trkpt lat="48.9509" lon="1.05632">
        <ele>169</ele>
        <time>2014-06-15T10:16:08.000Z</time>
      </trkpt>
      <trkpt lat="48.95081" lon="1.05631">
        <ele>169</ele>
        <time>2014-06-15T10:16:12.000Z</time>
      </trkpt>
      <trkpt lat="48.95072" lon="1.0563">
        <ele>169</ele>
        <time>2014-06-15T10:16:16.000Z</time>
      </trkpt>
      <trkpt lat="48.95066" lon="1.05628">
        <ele>169</ele>
        <time>2014-06-15T10:16:18.000Z</time>
      </trkpt>
      <trkpt lat="48.95066" lon="1.05628">
        <ele>169</ele>
        <time>2014-06-15T10:16:20.000Z</time>
      </trkpt>
      <trkpt lat="48.95054" lon="1.05624">
        <ele>168</ele>
        <time>2014-06-15T10:16:22.000Z</time>
      </trkpt>
      <trkpt lat="48.95047" lon="1.05624">
        <ele>168</ele>
        <time>2014-06-15T10:16:24.000Z</time>
      </trkpt>
      <trkpt lat="48.95039" lon="1.05622">
        <ele>168</ele>
        <time>2014-06-15T10:16:26.000Z</time>
      </trkpt>
      <trkpt lat="48.95032" lon="1.05621">
        <ele>169</ele>
        <time>2014-06-15T10:16:28.000Z</time>
      </trkpt>
      <trkpt lat="48.95024" lon="1.05619">
        <ele>169</ele>
        <time>2014-06-15T10:16:30.000Z</time>
      </trkpt>
      <trkpt lat="48.95016" lon="1.05617">
        <ele>169</ele>
        <time>2014-06-15T10:16:32.000Z</time>
      </trkpt>
      <trkpt lat="48.95006" lon="1.05617">
        <ele>169</ele>
        <time>2014-06-15T10:16:36.000Z</time>
      </trkpt>
      <trkpt lat="48.94999" lon="1.05616">
        <ele>169</ele>
        <time>2014-06-15T10:16:38.000Z</time>
      </trkpt>
      <trkpt lat="48.94999" lon="1.05616">
        <ele>169</ele>
        <time>2014-06-15T10:16:40.000Z</time>
      </trkpt>
      <trkpt lat="48.94989" lon="1.05614">
        <ele>169</ele>
        <time>2014-06-15T10:16:42.000Z</time>
      </trkpt>
      <trkpt lat="48.94989" lon="1.05614">
        <ele>169</ele>
        <time>2014-06-15T10:16:44.000Z</time>
      </trkpt>
      <trkpt lat="48.94978" lon="1.05613">
        <ele>169</ele>
        <time>2014-06-15T10:16:46.000Z</time>
      </trkpt>
      <trkpt lat="48.94972" lon="1.05614">
        <ele>168</ele>
        <time>2014-06-15T10:16:48.000Z</time>
      </trkpt>
      <trkpt lat="48.94963" lon="1.05612">
        <ele>168</ele>
        <time>2014-06-15T10:16:52.000Z</time>
      </trkpt>
      <trkpt lat="48.94963" lon="1.05612">
        <ele>168</ele>
        <time>2014-06-15T10:16:54.000Z</time>
      </trkpt>
      <trkpt lat="48.94955" lon="1.05613">
        <ele>168</ele>
        <time>2014-06-15T10:16:56.000Z</time>
      </trkpt>
      <trkpt lat="48.94955" lon="1.05613">
        <ele>168</ele>
        <time>2014-06-15T10:16:58.000Z</time>
      </trkpt>
      <trkpt lat="48.94955" lon="1.05613">
        <ele>168</ele>
        <time>2014-06-15T10:17:00.000Z</time>
      </trkpt>
      <trkpt lat="48.94949" lon="1.05614">
        <ele>168</ele>
        <time>2014-06-15T10:17:02.000Z</time>
      </trkpt>
      <trkpt lat="48.94949" lon="1.05614">
        <ele>168</ele>
        <time>2014-06-15T10:17:04.000Z</time>
      </trkpt>
      <trkpt lat="48.94949" lon="1.05614">
        <ele>168</ele>
        <time>2014-06-15T10:17:06.000Z</time>
      </trkpt>
      <trkpt lat="48.94949" lon="1.05614">
        <ele>168</ele>
        <time>2014-06-15T10:17:18.000Z</time>
      </trkpt>
      <trkpt lat="48.94942" lon="1.05613">
        <ele>168</ele>
        <time>2014-06-15T10:17:22.000Z</time>
      </trkpt>
      <trkpt lat="48.94936" lon="1.05621">
        <ele>168</ele>
        <time>2014-06-15T10:17:26.000Z</time>
      </trkpt>
      <trkpt lat="48.94926" lon="1.05621">
        <ele>168</ele>
        <time>2014-06-15T10:17:30.000Z</time>
      </trkpt>
      <trkpt lat="48.94921" lon="1.05618">
        <ele>169</ele>
        <time>2014-06-15T10:17:34.000Z</time>
      </trkpt>
      <trkpt lat="48.94917" lon="1.05616">
        <ele>169</ele>
        <time>2014-06-15T10:17:36.000Z</time>
      </trkpt>
      <trkpt lat="48.94913" lon="1.05615">
        <ele>169</ele>
        <time>2014-06-15T10:17:38.000Z</time>
      </trkpt>
      <trkpt lat="48.9491" lon="1.05614">
        <ele>170</ele>
        <time>2014-06-15T10:17:40.000Z</time>
      </trkpt>
      <trkpt lat="48.94907" lon="1.05612">
        <ele>170</ele>
        <time>2014-06-15T10:17:42.000Z</time>
      </trkpt>
      <trkpt lat="48.94907" lon="1.05612">
        <ele>170</ele>
        <time>2014-06-15T10:17:44.000Z</time>
      </trkpt>
      <trkpt lat="48.94901" lon="1.05606">
        <ele>170</ele>
        <time>2014-06-15T10:17:46.000Z</time>
      </trkpt>
      <trkpt lat="48.94901" lon="1.05606">
        <ele>170</ele>
        <time>2014-06-15T10:17:48.000Z</time>
      </trkpt>
      <trkpt lat="48.94895" lon="1.05602">
        <ele>171</ele>
        <time>2014-06-15T10:17:50.000Z</time>
      </trkpt>
      <trkpt lat="48.94888" lon="1.05596">
        <ele>172</ele>
        <time>2014-06-15T10:17:54.000Z</time>
      </trkpt>
      <trkpt lat="48.94888" lon="1.05596">
        <ele>172</ele>
        <time>2014-06-15T10:17:56.000Z</time>
      </trkpt>
      <trkpt lat="48.94883" lon="1.05589">
        <ele>173</ele>
        <time>2014-06-15T10:17:58.000Z</time>
      </trkpt>
      <trkpt lat="48.94883" lon="1.05589">
        <ele>173</ele>
        <time>2014-06-15T10:18:00.000Z</time>
      </trkpt>
      <trkpt lat="48.94882" lon="1.0558">
        <ele>173</ele>
        <time>2014-06-15T10:18:02.000Z</time>
      </trkpt>
      <trkpt lat="48.94882" lon="1.0558">
        <ele>173</ele>
        <time>2014-06-15T10:18:04.000Z</time>
      </trkpt>
      <trkpt lat="48.94882" lon="1.0558">
        <ele>173</ele>
        <time>2014-06-15T10:18:06.000Z</time>
      </trkpt>
      <trkpt lat="48.94878" lon="1.05568">
        <ele>173</ele>
        <time>2014-06-15T10:18:08.000Z</time>
      </trkpt>
      <trkpt lat="48.94878" lon="1.05568">
        <ele>173</ele>
        <time>2014-06-15T10:18:10.000Z</time>
      </trkpt>
      <trkpt lat="48.9487" lon="1.05559">
        <ele>173</ele>
        <time>2014-06-15T10:18:12.000Z</time>
      </trkpt>
      <trkpt lat="48.94862" lon="1.05553">
        <ele>173</ele>
        <time>2014-06-15T10:18:14.000Z</time>
      </trkpt>
      <trkpt lat="48.94851" lon="1.05551">
        <ele>173</ele>
        <time>2014-06-15T10:18:16.000Z</time>
      </trkpt>
      <trkpt lat="48.94839" lon="1.05546">
        <ele>173</ele>
        <time>2014-06-15T10:18:20.000Z</time>
      </trkpt>
      <trkpt lat="48.94832" lon="1.05544">
        <ele>174</ele>
        <time>2014-06-15T10:18:22.000Z</time>
      </trkpt>
      <trkpt lat="48.94822" lon="1.05547">
        <ele>174</ele>
        <time>2014-06-15T10:18:24.000Z</time>
      </trkpt>
      <trkpt lat="48.94816" lon="1.05548">
        <ele>174</ele>
        <time>2014-06-15T10:18:26.000Z</time>
      </trkpt>
      <trkpt lat="48.9481" lon="1.05549">
        <ele>174</ele>
        <time>2014-06-15T10:18:28.000Z</time>
      </trkpt>
      <trkpt lat="48.9481" lon="1.05549">
        <ele>174</ele>
        <time>2014-06-15T10:18:30.000Z</time>
      </trkpt>
      <trkpt lat="48.94807" lon="1.05533">
        <ele>174</ele>
        <time>2014-06-15T10:18:32.000Z</time>
      </trkpt>
      <trkpt lat="48.94802" lon="1.05525">
        <ele>173</ele>
        <time>2014-06-15T10:18:34.000Z</time>
      </trkpt>
      <trkpt lat="48.94796" lon="1.05521">
        <ele>173</ele>
        <time>2014-06-15T10:18:36.000Z</time>
      </trkpt>
      <trkpt lat="48.9479" lon="1.05518">
        <ele>173</ele>
        <time>2014-06-15T10:18:38.000Z</time>
      </trkpt>
      <trkpt lat="48.94784" lon="1.05514">
        <ele>172</ele>
        <time>2014-06-15T10:18:40.000Z</time>
      </trkpt>
      <trkpt lat="48.94775" lon="1.05503">
        <ele>172</ele>
        <time>2014-06-15T10:18:44.000Z</time>
      </trkpt>
      <trkpt lat="48.94769" lon="1.05494">
        <ele>172</ele>
        <time>2014-06-15T10:18:46.000Z</time>
      </trkpt>
      <trkpt lat="48.94763" lon="1.05486">
        <ele>171</ele>
        <time>2014-06-15T10:18:48.000Z</time>
      </trkpt>
      <trkpt lat="48.94757" lon="1.05479">
        <ele>171</ele>
        <time>2014-06-15T10:18:50.000Z</time>
      </trkpt>
      <trkpt lat="48.9475" lon="1.05474">
        <ele>171</ele>
        <time>2014-06-15T10:18:54.000Z</time>
      </trkpt>
      <trkpt lat="48.94743" lon="1.0547">
        <ele>171</ele>
        <time>2014-06-15T10:18:54.000Z</time>
      </trkpt>
      <trkpt lat="48.94736" lon="1.05467">
        <ele>171</ele>
        <time>2014-06-15T10:18:56.000Z</time>
      </trkpt>
      <trkpt lat="48.94729" lon="1.05463">
        <ele>171</ele>
        <time>2014-06-15T10:18:58.000Z</time>
      </trkpt>
      <trkpt lat="48.94722" lon="1.05459">
        <ele>171</ele>
        <time>2014-06-15T10:19:00.000Z</time>
      </trkpt>
      <trkpt lat="48.94717" lon="1.05456">
        <ele>171</ele>
        <time>2014-06-15T10:19:02.000Z</time>
      </trkpt>
      <trkpt lat="48.94717" lon="1.05456">
        <ele>171</ele>
        <time>2014-06-15T10:19:04.000Z</time>
      </trkpt>
      <trkpt lat="48.94709" lon="1.05447">
        <ele>171</ele>
        <time>2014-06-15T10:19:06.000Z</time>
      </trkpt>
      <trkpt lat="48.94709" lon="1.05447">
        <ele>171</ele>
        <time>2014-06-15T10:19:08.000Z</time>
      </trkpt>
      <trkpt lat="48.94702" lon="1.05437">
        <ele>171</ele>
        <time>2014-06-15T10:19:10.000Z</time>
      </trkpt>
      <trkpt lat="48.94697" lon="1.05432">
        <ele>171</ele>
        <time>2014-06-15T10:19:12.000Z</time>
      </trkpt>
      <trkpt lat="48.94691" lon="1.05428">
        <ele>171</ele>
        <time>2014-06-15T10:19:14.000Z</time>
      </trkpt>
      <trkpt lat="48.94686" lon="1.05422">
        <ele>171</ele>
        <time>2014-06-15T10:19:16.000Z</time>
      </trkpt>
      <trkpt lat="48.9468" lon="1.05415">
        <ele>171</ele>
        <time>2014-06-15T10:19:18.000Z</time>
      </trkpt>
      <trkpt lat="48.94675" lon="1.05408">
        <ele>171</ele>
        <time>2014-06-15T10:19:20.000Z</time>
      </trkpt>
      <trkpt lat="48.94671" lon="1.05401">
        <ele>171</ele>
        <time>2014-06-15T10:19:22.000Z</time>
      </trkpt>
      <trkpt lat="48.94666" lon="1.0539">
        <ele>171</ele>
        <time>2014-06-15T10:19:24.000Z</time>
      </trkpt>
      <trkpt lat="48.94661" lon="1.05383">
        <ele>171</ele>
        <time>2014-06-15T10:19:26.000Z</time>
      </trkpt>
      <trkpt lat="48.94656" lon="1.05375">
        <ele>171</ele>
        <time>2014-06-15T10:19:28.000Z</time>
      </trkpt>
      <trkpt lat="48.94652" lon="1.05367">
        <ele>171</ele>
        <time>2014-06-15T10:19:30.000Z</time>
      </trkpt>
      <trkpt lat="48.94652" lon="1.05367">
        <ele>171</ele>
        <time>2014-06-15T10:19:32.000Z</time>
      </trkpt>
      <trkpt lat="48.94646" lon="1.05354">
        <ele>172</ele>
        <time>2014-06-15T10:19:34.000Z</time>
      </trkpt>
      <trkpt lat="48.94646" lon="1.05354">
        <ele>172</ele>
        <time>2014-06-15T10:19:36.000Z</time>
      </trkpt>
      <trkpt lat="48.94639" lon="1.05342">
        <ele>172</ele>
        <time>2014-06-15T10:19:38.000Z</time>
      </trkpt>
      <trkpt lat="48.94639" lon="1.05342">
        <ele>172</ele>
        <time>2014-06-15T10:19:40.000Z</time>
      </trkpt>
      <trkpt lat="48.94634" lon="1.05328">
        <ele>173</ele>
        <time>2014-06-15T10:19:42.000Z</time>
      </trkpt>
      <trkpt lat="48.9463" lon="1.05321">
        <ele>173</ele>
        <time>2014-06-15T10:19:44.000Z</time>
      </trkpt>
      <trkpt lat="48.94626" lon="1.05313">
        <ele>173</ele>
        <time>2014-06-15T10:19:46.000Z</time>
      </trkpt>
      <trkpt lat="48.94624" lon="1.05305">
        <ele>173</ele>
        <time>2014-06-15T10:19:48.000Z</time>
      </trkpt>
      <trkpt lat="48.94619" lon="1.05292">
        <ele>174</ele>
        <time>2014-06-15T10:19:52.000Z</time>
      </trkpt>
      <trkpt lat="48.94616" lon="1.05284">
        <ele>174</ele>
        <time>2014-06-15T10:19:54.000Z</time>
      </trkpt>
      <trkpt lat="48.9461" lon="1.0527">
        <ele>175</ele>
        <time>2014-06-15T10:19:58.000Z</time>
      </trkpt>
      <trkpt lat="48.9461" lon="1.0527">
        <ele>175</ele>
        <time>2014-06-15T10:20:00.000Z</time>
      </trkpt>
      <trkpt lat="48.94606" lon="1.05253">
        <ele>175</ele>
        <time>2014-06-15T10:20:02.000Z</time>
      </trkpt>
      <trkpt lat="48.94604" lon="1.05242">
        <ele>176</ele>
        <time>2014-06-15T10:20:04.000Z</time>
      </trkpt>
      <trkpt lat="48.94598" lon="1.05226">
        <ele>176</ele>
        <time>2014-06-15T10:20:08.000Z</time>
      </trkpt>
      <trkpt lat="48.94598" lon="1.05226">
        <ele>176</ele>
        <time>2014-06-15T10:20:10.000Z</time>
      </trkpt>
      <trkpt lat="48.94592" lon="1.05216">
        <ele>176</ele>
        <time>2014-06-15T10:20:12.000Z</time>
      </trkpt>
      <trkpt lat="48.94592" lon="1.05216">
        <ele>176</ele>
        <time>2014-06-15T10:20:14.000Z</time>
      </trkpt>
      <trkpt lat="48.94587" lon="1.052">
        <ele>177</ele>
        <time>2014-06-15T10:20:16.000Z</time>
      </trkpt>
      <trkpt lat="48.94583" lon="1.05192">
        <ele>177</ele>
        <time>2014-06-15T10:20:18.000Z</time>
      </trkpt>
      <trkpt lat="48.94574" lon="1.05185">
        <ele>178</ele>
        <time>2014-06-15T10:20:20.000Z</time>
      </trkpt>
      <trkpt lat="48.94569" lon="1.0518">
        <ele>178</ele>
        <time>2014-06-15T10:20:22.000Z</time>
      </trkpt>
      <trkpt lat="48.94569" lon="1.0518">
        <ele>178</ele>
        <time>2014-06-15T10:20:26.000Z</time>
      </trkpt>
      <trkpt lat="48.94566" lon="1.0519">
        <ele>178</ele>
        <time>2014-06-15T10:20:28.000Z</time>
      </trkpt>
      <trkpt lat="48.94563" lon="1.05202">
        <ele>178</ele>
        <time>2014-06-15T10:20:32.000Z</time>
      </trkpt>
      <trkpt lat="48.94561" lon="1.05213">
        <ele>179</ele>
        <time>2014-06-15T10:20:38.000Z</time>
      </trkpt>
      <trkpt lat="48.94561" lon="1.05213">
        <ele>179</ele>
        <time>2014-06-15T10:20:40.000Z</time>
      </trkpt>
      <trkpt lat="48.94559" lon="1.05221">
        <ele>180</ele>
        <time>2014-06-15T10:20:42.000Z</time>
      </trkpt>
      <trkpt lat="48.94559" lon="1.05221">
        <ele>180</ele>
        <time>2014-06-15T10:20:44.000Z</time>
      </trkpt>
      <trkpt lat="48.94558" lon="1.05232">
        <ele>180</ele>
        <time>2014-06-15T10:20:46.000Z</time>
      </trkpt>
      <trkpt lat="48.94556" lon="1.05239">
        <ele>181</ele>
        <time>2014-06-15T10:20:50.000Z</time>
      </trkpt>
      <trkpt lat="48.94555" lon="1.05246">
        <ele>181</ele>
        <time>2014-06-15T10:20:52.000Z</time>
      </trkpt>
      <trkpt lat="48.94554" lon="1.05252">
        <ele>182</ele>
        <time>2014-06-15T10:20:54.000Z</time>
      </trkpt>
      <trkpt lat="48.94553" lon="1.05258">
        <ele>182</ele>
        <time>2014-06-15T10:20:56.000Z</time>
      </trkpt>
      <trkpt lat="48.94552" lon="1.05263">
        <ele>183</ele>
        <time>2014-06-15T10:20:58.000Z</time>
      </trkpt>
      <trkpt lat="48.94552" lon="1.05274">
        <ele>183</ele>
        <time>2014-06-15T10:21:00.000Z</time>
      </trkpt>
      <trkpt lat="48.94552" lon="1.05274">
        <ele>183</ele>
        <time>2014-06-15T10:21:02.000Z</time>
      </trkpt>
      <trkpt lat="48.94554" lon="1.05286">
        <ele>184</ele>
        <time>2014-06-15T10:21:04.000Z</time>
      </trkpt>
      <trkpt lat="48.94556" lon="1.05298">
        <ele>185</ele>
        <time>2014-06-15T10:21:08.000Z</time>
      </trkpt>
      <trkpt lat="48.94557" lon="1.0531">
        <ele>185</ele>
        <time>2014-06-15T10:21:12.000Z</time>
      </trkpt>
      <trkpt lat="48.94559" lon="1.0532">
        <ele>186</ele>
        <time>2014-06-15T10:21:16.000Z</time>
      </trkpt>
      <trkpt lat="48.9456" lon="1.05332">
        <ele>187</ele>
        <time>2014-06-15T10:21:20.000Z</time>
      </trkpt>
      <trkpt lat="48.94562" lon="1.0534">
        <ele>187</ele>
        <time>2014-06-15T10:21:24.000Z</time>
      </trkpt>
      <trkpt lat="48.94562" lon="1.0534">
        <ele>187</ele>
        <time>2014-06-15T10:21:26.000Z</time>
      </trkpt>
      <trkpt lat="48.94562" lon="1.0534">
        <ele>187</ele>
        <time>2014-06-15T10:21:42.000Z</time>
      </trkpt>
      <trkpt lat="48.94566" lon="1.05353">
        <ele>187</ele>
        <time>2014-06-15T10:21:46.000Z</time>
      </trkpt>
      <trkpt lat="48.94566" lon="1.05368">
        <ele>187</ele>
        <time>2014-06-15T10:21:50.000Z</time>
      </trkpt>
      <trkpt lat="48.94566" lon="1.05383">
        <ele>188</ele>
        <time>2014-06-15T10:21:54.000Z</time>
      </trkpt>
      <trkpt lat="48.94566" lon="1.05398">
        <ele>188</ele>
        <time>2014-06-15T10:21:58.000Z</time>
      </trkpt>
      <trkpt lat="48.94566" lon="1.05398">
        <ele>188</ele>
        <time>2014-06-15T10:22:00.000Z</time>
      </trkpt>
      <trkpt lat="48.94566" lon="1.05398">
        <ele>188</ele>
        <time>2014-06-15T10:22:02.000Z</time>
      </trkpt>
      <trkpt lat="48.94565" lon="1.05413">
        <ele>190</ele>
        <time>2014-06-15T10:22:04.000Z</time>
      </trkpt>
      <trkpt lat="48.94565" lon="1.05413">
        <ele>190</ele>
        <time>2014-06-15T10:22:06.000Z</time>
      </trkpt>
      <trkpt lat="48.94568" lon="1.05424">
        <ele>190</ele>
        <time>2014-06-15T10:22:08.000Z</time>
      </trkpt>
      <trkpt lat="48.94568" lon="1.05424">
        <ele>190</ele>
        <time>2014-06-15T10:22:10.000Z</time>
      </trkpt>
      <trkpt lat="48.94571" lon="1.05435">
        <ele>191</ele>
        <time>2014-06-15T10:22:12.000Z</time>
      </trkpt>
      <trkpt lat="48.94571" lon="1.05435">
        <ele>191</ele>
        <time>2014-06-15T10:22:14.000Z</time>
      </trkpt>
      <trkpt lat="48.94573" lon="1.05447">
        <ele>193</ele>
        <time>2014-06-15T10:22:16.000Z</time>
      </trkpt>
      <trkpt lat="48.94577" lon="1.05462">
        <ele>194</ele>
        <time>2014-06-15T10:22:20.000Z</time>
      </trkpt>
      <trkpt lat="48.94577" lon="1.05474">
        <ele>194</ele>
        <time>2014-06-15T10:22:24.000Z</time>
      </trkpt>
      <trkpt lat="48.94577" lon="1.05474">
        <ele>194</ele>
        <time>2014-06-15T10:22:26.000Z</time>
      </trkpt>
      <trkpt lat="48.94576" lon="1.05484">
        <ele>195</ele>
        <time>2014-06-15T10:22:28.000Z</time>
      </trkpt>
      <trkpt lat="48.94576" lon="1.05484">
        <ele>195</ele>
        <time>2014-06-15T10:22:30.000Z</time>
      </trkpt>
      <trkpt lat="48.94575" lon="1.05498">
        <ele>196</ele>
        <time>2014-06-15T10:22:32.000Z</time>
      </trkpt>
      <trkpt lat="48.94573" lon="1.05512">
        <ele>197</ele>
        <time>2014-06-15T10:22:36.000Z</time>
      </trkpt>
      <trkpt lat="48.94571" lon="1.0552">
        <ele>198</ele>
        <time>2014-06-15T10:22:38.000Z</time>
      </trkpt>
      <trkpt lat="48.94571" lon="1.0552">
        <ele>198</ele>
        <time>2014-06-15T10:22:40.000Z</time>
      </trkpt>
      <trkpt lat="48.94567" lon="1.05533">
        <ele>199</ele>
        <time>2014-06-15T10:22:42.000Z</time>
      </trkpt>
      <trkpt lat="48.94567" lon="1.05533">
        <ele>199</ele>
        <time>2014-06-15T10:22:44.000Z</time>
      </trkpt>
      <trkpt lat="48.94561" lon="1.05549">
        <ele>199</ele>
        <time>2014-06-15T10:22:46.000Z</time>
      </trkpt>
      <trkpt lat="48.94562" lon="1.05561">
        <ele>200</ele>
        <time>2014-06-15T10:22:48.000Z</time>
      </trkpt>
      <trkpt lat="48.94562" lon="1.05561">
        <ele>200</ele>
        <time>2014-06-15T10:22:50.000Z</time>
      </trkpt>
      <trkpt lat="48.94561" lon="1.05576">
        <ele>200</ele>
        <time>2014-06-15T10:22:52.000Z</time>
      </trkpt>
      <trkpt lat="48.94561" lon="1.05576">
        <ele>200</ele>
        <time>2014-06-15T10:22:54.000Z</time>
      </trkpt>
      <trkpt lat="48.94558" lon="1.05585">
        <ele>201</ele>
        <time>2014-06-15T10:22:56.000Z</time>
      </trkpt>
      <trkpt lat="48.94558" lon="1.05585">
        <ele>201</ele>
        <time>2014-06-15T10:22:58.000Z</time>
      </trkpt>
      <trkpt lat="48.94555" lon="1.056">
        <ele>201</ele>
        <time>2014-06-15T10:23:00.000Z</time>
      </trkpt>
      <trkpt lat="48.94554" lon="1.0561">
        <ele>202</ele>
        <time>2014-06-15T10:23:02.000Z</time>
      </trkpt>
      <trkpt lat="48.9455" lon="1.05625">
        <ele>202</ele>
        <time>2014-06-15T10:23:06.000Z</time>
      </trkpt>
      <trkpt lat="48.94547" lon="1.05635">
        <ele>203</ele>
        <time>2014-06-15T10:23:08.000Z</time>
      </trkpt>
      <trkpt lat="48.94547" lon="1.05635">
        <ele>203</ele>
        <time>2014-06-15T10:23:10.000Z</time>
      </trkpt>
      <trkpt lat="48.94541" lon="1.05651">
        <ele>203</ele>
        <time>2014-06-15T10:23:12.000Z</time>
      </trkpt>
      <trkpt lat="48.94541" lon="1.05651">
        <ele>203</ele>
        <time>2014-06-15T10:23:14.000Z</time>
      </trkpt>
      <trkpt lat="48.94538" lon="1.05659">
        <ele>204</ele>
        <time>2014-06-15T10:23:16.000Z</time>
      </trkpt>
      <trkpt lat="48.94537" lon="1.05669">
        <ele>204</ele>
        <time>2014-06-15T10:23:18.000Z</time>
      </trkpt>
      <trkpt lat="48.94535" lon="1.05681">
        <ele>205</ele>
        <time>2014-06-15T10:23:20.000Z</time>
      </trkpt>
      <trkpt lat="48.94533" lon="1.05693">
        <ele>205</ele>
        <time>2014-06-15T10:23:22.000Z</time>
      </trkpt>
      <trkpt lat="48.94532" lon="1.05706">
        <ele>206</ele>
        <time>2014-06-15T10:23:24.000Z</time>
      </trkpt>
      <trkpt lat="48.94529" lon="1.05728">
        <ele>206</ele>
        <time>2014-06-15T10:23:26.000Z</time>
      </trkpt>
      <trkpt lat="48.94527" lon="1.05739">
        <ele>207</ele>
        <time>2014-06-15T10:23:28.000Z</time>
      </trkpt>
      <trkpt lat="48.94525" lon="1.0575">
        <ele>207</ele>
        <time>2014-06-15T10:23:30.000Z</time>
      </trkpt>
      <trkpt lat="48.94524" lon="1.05763">
        <ele>208</ele>
        <time>2014-06-15T10:23:32.000Z</time>
      </trkpt>
      <trkpt lat="48.94522" lon="1.05774">
        <ele>208</ele>
        <time>2014-06-15T10:23:34.000Z</time>
      </trkpt>
      <trkpt lat="48.94522" lon="1.05785">
        <ele>208</ele>
        <time>2014-06-15T10:23:36.000Z</time>
      </trkpt>
      <trkpt lat="48.94521" lon="1.05795">
        <ele>208</ele>
        <time>2014-06-15T10:23:38.000Z</time>
      </trkpt>
      <trkpt lat="48.94521" lon="1.05805">
        <ele>208</ele>
        <time>2014-06-15T10:23:40.000Z</time>
      </trkpt>
      <trkpt lat="48.9452" lon="1.05815">
        <ele>208</ele>
        <time>2014-06-15T10:23:42.000Z</time>
      </trkpt>
      <trkpt lat="48.94519" lon="1.05824">
        <ele>209</ele>
        <time>2014-06-15T10:23:44.000Z</time>
      </trkpt>
      <trkpt lat="48.94519" lon="1.05824">
        <ele>209</ele>
        <time>2014-06-15T10:23:46.000Z</time>
      </trkpt>
      <trkpt lat="48.9452" lon="1.05841">
        <ele>209</ele>
        <time>2014-06-15T10:23:48.000Z</time>
      </trkpt>
      <trkpt lat="48.9452" lon="1.05841">
        <ele>209</ele>
        <time>2014-06-15T10:23:50.000Z</time>
      </trkpt>
      <trkpt lat="48.94521" lon="1.05856">
        <ele>209</ele>
        <time>2014-06-15T10:23:52.000Z</time>
      </trkpt>
      <trkpt lat="48.94521" lon="1.05856">
        <ele>209</ele>
        <time>2014-06-15T10:23:54.000Z</time>
      </trkpt>
      <trkpt lat="48.94522" lon="1.05874">
        <ele>210</ele>
        <time>2014-06-15T10:23:56.000Z</time>
      </trkpt>
      <trkpt lat="48.94524" lon="1.05883">
        <ele>210</ele>
        <time>2014-06-15T10:23:58.000Z</time>
      </trkpt>
      <trkpt lat="48.94524" lon="1.05894">
        <ele>211</ele>
        <time>2014-06-15T10:24:00.000Z</time>
      </trkpt>
      <trkpt lat="48.94524" lon="1.05903">
        <ele>211</ele>
        <time>2014-06-15T10:24:02.000Z</time>
      </trkpt>
      <trkpt lat="48.94525" lon="1.05913">
        <ele>211</ele>
        <time>2014-06-15T10:24:04.000Z</time>
      </trkpt>
      <trkpt lat="48.94526" lon="1.05931">
        <ele>212</ele>
        <time>2014-06-15T10:24:08.000Z</time>
      </trkpt>
      <trkpt lat="48.94526" lon="1.0594">
        <ele>212</ele>
        <time>2014-06-15T10:24:10.000Z</time>
      </trkpt>
      <trkpt lat="48.94526" lon="1.05949">
        <ele>212</ele>
        <time>2014-06-15T10:24:12.000Z</time>
      </trkpt>
      <trkpt lat="48.94526" lon="1.05959">
        <ele>213</ele>
        <time>2014-06-15T10:24:14.000Z</time>
      </trkpt>
      <trkpt lat="48.94524" lon="1.05972">
        <ele>212</ele>
        <time>2014-06-15T10:24:16.000Z</time>
      </trkpt>
      <trkpt lat="48.94523" lon="1.05984">
        <ele>212</ele>
        <time>2014-06-15T10:24:18.000Z</time>
      </trkpt>
      <trkpt lat="48.94522" lon="1.05994">
        <ele>212</ele>
        <time>2014-06-15T10:24:20.000Z</time>
      </trkpt>
      <trkpt lat="48.94521" lon="1.06005">
        <ele>212</ele>
        <time>2014-06-15T10:24:22.000Z</time>
      </trkpt>
      <trkpt lat="48.94521" lon="1.06015">
        <ele>212</ele>
        <time>2014-06-15T10:24:24.000Z</time>
      </trkpt>
      <trkpt lat="48.94522" lon="1.06029">
        <ele>213</ele>
        <time>2014-06-15T10:24:28.000Z</time>
      </trkpt>
      <trkpt lat="48.94522" lon="1.06029">
        <ele>213</ele>
        <time>2014-06-15T10:24:30.000Z</time>
      </trkpt>
      <trkpt lat="48.94523" lon="1.06045">
        <ele>213</ele>
        <time>2014-06-15T10:24:32.000Z</time>
      </trkpt>
      <trkpt lat="48.94524" lon="1.06055">
        <ele>213</ele>
        <time>2014-06-15T10:24:34.000Z</time>
      </trkpt>
      <trkpt lat="48.94524" lon="1.06066">
        <ele>213</ele>
        <time>2014-06-15T10:24:36.000Z</time>
      </trkpt>
      <trkpt lat="48.94527" lon="1.06078">
        <ele>212</ele>
        <time>2014-06-15T10:24:40.000Z</time>
      </trkpt>
      <trkpt lat="48.94527" lon="1.06078">
        <ele>212</ele>
        <time>2014-06-15T10:24:42.000Z</time>
      </trkpt>
      <trkpt lat="48.94528" lon="1.06089">
        <ele>212</ele>
        <time>2014-06-15T10:24:44.000Z</time>
      </trkpt>
      <trkpt lat="48.94527" lon="1.06101">
        <ele>212</ele>
        <time>2014-06-15T10:24:48.000Z</time>
      </trkpt>
      <trkpt lat="48.94527" lon="1.06114">
        <ele>211</ele>
        <time>2014-06-15T10:24:52.000Z</time>
      </trkpt>
      <trkpt lat="48.94527" lon="1.06114">
        <ele>211</ele>
        <time>2014-06-15T10:24:54.000Z</time>
      </trkpt>
      <trkpt lat="48.94527" lon="1.06126">
        <ele>211</ele>
        <time>2014-06-15T10:24:56.000Z</time>
      </trkpt>
      <trkpt lat="48.94527" lon="1.06126">
        <ele>211</ele>
        <time>2014-06-15T10:24:58.000Z</time>
      </trkpt>
      <trkpt lat="48.94527" lon="1.06139">
        <ele>211</ele>
        <time>2014-06-15T10:25:00.000Z</time>
      </trkpt>
      <trkpt lat="48.94527" lon="1.06153">
        <ele>210</ele>
        <time>2014-06-15T10:25:04.000Z</time>
      </trkpt>
      <trkpt lat="48.94525" lon="1.06169">
        <ele>210</ele>
        <time>2014-06-15T10:25:08.000Z</time>
      </trkpt>
      <trkpt lat="48.94523" lon="1.06178">
        <ele>210</ele>
        <time>2014-06-15T10:25:10.000Z</time>
      </trkpt>
      <trkpt lat="48.94521" lon="1.06188">
        <ele>211</ele>
        <time>2014-06-15T10:25:12.000Z</time>
      </trkpt>
      <trkpt lat="48.94519" lon="1.06196">
        <ele>211</ele>
        <time>2014-06-15T10:25:16.000Z</time>
      </trkpt>
      <trkpt lat="48.94519" lon="1.06196">
        <ele>211</ele>
        <time>2014-06-15T10:25:18.000Z</time>
      </trkpt>
      <trkpt lat="48.94519" lon="1.06196">
        <ele>211</ele>
        <time>2014-06-15T10:25:20.000Z</time>
      </trkpt>
      <trkpt lat="48.94511" lon="1.06207">
        <ele>211</ele>
        <time>2014-06-15T10:25:22.000Z</time>
      </trkpt>
      <trkpt lat="48.94511" lon="1.06207">
        <ele>211</ele>
        <time>2014-06-15T10:25:24.000Z</time>
      </trkpt>
      <trkpt lat="48.94503" lon="1.06218">
        <ele>211</ele>
        <time>2014-06-15T10:25:26.000Z</time>
      </trkpt>
      <trkpt lat="48.94503" lon="1.06218">
        <ele>211</ele>
        <time>2014-06-15T10:25:28.000Z</time>
      </trkpt>
      <trkpt lat="48.94493" lon="1.06225">
        <ele>211</ele>
        <time>2014-06-15T10:25:30.000Z</time>
      </trkpt>
      <trkpt lat="48.94485" lon="1.0623">
        <ele>211</ele>
        <time>2014-06-15T10:25:32.000Z</time>
      </trkpt>
      <trkpt lat="48.94475" lon="1.06237">
        <ele>211</ele>
        <time>2014-06-15T10:25:34.000Z</time>
      </trkpt>
      <trkpt lat="48.94464" lon="1.06244">
        <ele>211</ele>
        <time>2014-06-15T10:25:36.000Z</time>
      </trkpt>
      <trkpt lat="48.94454" lon="1.06252">
        <ele>212</ele>
        <time>2014-06-15T10:25:38.000Z</time>
      </trkpt>
      <trkpt lat="48.94445" lon="1.06259">
        <ele>213</ele>
        <time>2014-06-15T10:25:40.000Z</time>
      </trkpt>
      <trkpt lat="48.94437" lon="1.06266">
        <ele>212</ele>
        <time>2014-06-15T10:25:42.000Z</time>
      </trkpt>
      <trkpt lat="48.94429" lon="1.06273">
        <ele>212</ele>
        <time>2014-06-15T10:25:44.000Z</time>
      </trkpt>
      <trkpt lat="48.94419" lon="1.06281">
        <ele>211</ele>
        <time>2014-06-15T10:25:46.000Z</time>
      </trkpt>
      <trkpt lat="48.9441" lon="1.06287">
        <ele>211</ele>
        <time>2014-06-15T10:25:48.000Z</time>
      </trkpt>
      <trkpt lat="48.944" lon="1.06294">
        <ele>211</ele>
        <time>2014-06-15T10:25:50.000Z</time>
      </trkpt>
      <trkpt lat="48.94389" lon="1.063">
        <ele>211</ele>
        <time>2014-06-15T10:25:52.000Z</time>
      </trkpt>
      <trkpt lat="48.94376" lon="1.06307">
        <ele>210</ele>
        <time>2014-06-15T10:25:54.000Z</time>
      </trkpt>
      <trkpt lat="48.94365" lon="1.06315">
        <ele>210</ele>
        <time>2014-06-15T10:25:56.000Z</time>
      </trkpt>
      <trkpt lat="48.94353" lon="1.06324">
        <ele>210</ele>
        <time>2014-06-15T10:25:58.000Z</time>
      </trkpt>
      <trkpt lat="48.94343" lon="1.06332">
        <ele>209</ele>
        <time>2014-06-15T10:26:00.000Z</time>
      </trkpt>
      <trkpt lat="48.94331" lon="1.06341">
        <ele>209</ele>
        <time>2014-06-15T10:26:02.000Z</time>
      </trkpt>
      <trkpt lat="48.94319" lon="1.06351">
        <ele>208</ele>
        <time>2014-06-15T10:26:04.000Z</time>
      </trkpt>
      <trkpt lat="48.94306" lon="1.06361">
        <ele>207</ele>
        <time>2014-06-15T10:26:06.000Z</time>
      </trkpt>
      <trkpt lat="48.94294" lon="1.0637">
        <ele>206</ele>
        <time>2014-06-15T10:26:08.000Z</time>
      </trkpt>
      <trkpt lat="48.94282" lon="1.06378">
        <ele>206</ele>
        <time>2014-06-15T10:26:10.000Z</time>
      </trkpt>
      <trkpt lat="48.94268" lon="1.06387">
        <ele>205</ele>
        <time>2014-06-15T10:26:12.000Z</time>
      </trkpt>
      <trkpt lat="48.94255" lon="1.06396">
        <ele>205</ele>
        <time>2014-06-15T10:26:14.000Z</time>
      </trkpt>
      <trkpt lat="48.94242" lon="1.06404">
        <ele>204</ele>
        <time>2014-06-15T10:26:16.000Z</time>
      </trkpt>
      <trkpt lat="48.9423" lon="1.06414">
        <ele>203</ele>
        <time>2014-06-15T10:26:18.000Z</time>
      </trkpt>
      <trkpt lat="48.94218" lon="1.06422">
        <ele>201</ele>
        <time>2014-06-15T10:26:20.000Z</time>
      </trkpt>
      <trkpt lat="48.94206" lon="1.0643">
        <ele>201</ele>
        <time>2014-06-15T10:26:22.000Z</time>
      </trkpt>
      <trkpt lat="48.94195" lon="1.06437">
        <ele>202</ele>
        <time>2014-06-15T10:26:24.000Z</time>
      </trkpt>
      <trkpt lat="48.94186" lon="1.06442">
        <ele>202</ele>
        <time>2014-06-15T10:26:26.000Z</time>
      </trkpt>
      <trkpt lat="48.94179" lon="1.06445">
        <ele>202</ele>
        <time>2014-06-15T10:26:28.000Z</time>
      </trkpt>
      <trkpt lat="48.94173" lon="1.06445">
        <ele>202</ele>
        <time>2014-06-15T10:26:30.000Z</time>
      </trkpt>
      <trkpt lat="48.94165" lon="1.06433">
        <ele>203</ele>
        <time>2014-06-15T10:26:34.000Z</time>
      </trkpt>
      <trkpt lat="48.9416" lon="1.06418">
        <ele>204</ele>
        <time>2014-06-15T10:26:36.000Z</time>
      </trkpt>
      <trkpt lat="48.94154" lon="1.06402">
        <ele>204</ele>
        <time>2014-06-15T10:26:38.000Z</time>
      </trkpt>
      <trkpt lat="48.94151" lon="1.06389">
        <ele>204</ele>
        <time>2014-06-15T10:26:40.000Z</time>
      </trkpt>
      <trkpt lat="48.94147" lon="1.06378">
        <ele>204</ele>
        <time>2014-06-15T10:26:42.000Z</time>
      </trkpt>
      <trkpt lat="48.94144" lon="1.06367">
        <ele>203</ele>
        <time>2014-06-15T10:26:44.000Z</time>
      </trkpt>
      <trkpt lat="48.94144" lon="1.06367">
        <ele>203</ele>
        <time>2014-06-15T10:26:46.000Z</time>
      </trkpt>
      <trkpt lat="48.94139" lon="1.06353">
        <ele>203</ele>
        <time>2014-06-15T10:26:48.000Z</time>
      </trkpt>
      <trkpt lat="48.94139" lon="1.06353">
        <ele>203</ele>
        <time>2014-06-15T10:26:51.000Z</time>
      </trkpt>
      <trkpt lat="48.9413" lon="1.06344">
        <ele>202</ele>
        <time>2014-06-15T10:26:53.000Z</time>
      </trkpt>
      <trkpt lat="48.9412" lon="1.06334">
        <ele>201</ele>
        <time>2014-06-15T10:26:57.000Z</time>
      </trkpt>
      <trkpt lat="48.94115" lon="1.0633">
        <ele>200</ele>
        <time>2014-06-15T10:26:59.000Z</time>
      </trkpt>
      <trkpt lat="48.94115" lon="1.0633">
        <ele>200</ele>
        <time>2014-06-15T10:27:01.000Z</time>
      </trkpt>
      <trkpt lat="48.94105" lon="1.06319">
        <ele>199</ele>
        <time>2014-06-15T10:27:03.000Z</time>
      </trkpt>
      <trkpt lat="48.94105" lon="1.06319">
        <ele>199</ele>
        <time>2014-06-15T10:27:05.000Z</time>
      </trkpt>
      <trkpt lat="48.94095" lon="1.0631">
        <ele>198</ele>
        <time>2014-06-15T10:27:07.000Z</time>
      </trkpt>
      <trkpt lat="48.9409" lon="1.06306">
        <ele>194</ele>
        <time>2014-06-15T10:27:09.000Z</time>
      </trkpt>
      <trkpt lat="48.9409" lon="1.06306">
        <ele>194</ele>
        <time>2014-06-15T10:27:11.000Z</time>
      </trkpt>
      <trkpt lat="48.94079" lon="1.06298">
        <ele>192</ele>
        <time>2014-06-15T10:27:13.000Z</time>
      </trkpt>
      <trkpt lat="48.94074" lon="1.06293">
        <ele>192</ele>
        <time>2014-06-15T10:27:15.000Z</time>
      </trkpt>
      <trkpt lat="48.94069" lon="1.06285">
        <ele>191</ele>
        <time>2014-06-15T10:27:17.000Z</time>
      </trkpt>
      <trkpt lat="48.94063" lon="1.06277">
        <ele>191</ele>
        <time>2014-06-15T10:27:19.000Z</time>
      </trkpt>
      <trkpt lat="48.94059" lon="1.06267">
        <ele>190</ele>
        <time>2014-06-15T10:27:21.000Z</time>
      </trkpt>
      <trkpt lat="48.94066" lon="1.06253">
        <ele>189</ele>
        <time>2014-06-15T10:27:23.000Z</time>
      </trkpt>
      <trkpt lat="48.94073" lon="1.0624">
        <ele>189</ele>
        <time>2014-06-15T10:27:25.000Z</time>
      </trkpt>
      <trkpt lat="48.9408" lon="1.06228">
        <ele>189</ele>
        <time>2014-06-15T10:27:27.000Z</time>
      </trkpt>
      <trkpt lat="48.94086" lon="1.06214">
        <ele>188</ele>
        <time>2014-06-15T10:27:29.000Z</time>
      </trkpt>
      <trkpt lat="48.9409" lon="1.06202">
        <ele>188</ele>
        <time>2014-06-15T10:27:31.000Z</time>
      </trkpt>
      <trkpt lat="48.94094" lon="1.06188">
        <ele>188</ele>
        <time>2014-06-15T10:27:33.000Z</time>
      </trkpt>
      <trkpt lat="48.94097" lon="1.06171">
        <ele>188</ele>
        <time>2014-06-15T10:27:35.000Z</time>
      </trkpt>
      <trkpt lat="48.94101" lon="1.06147">
        <ele>188</ele>
        <time>2014-06-15T10:27:37.000Z</time>
      </trkpt>
      <trkpt lat="48.94101" lon="1.06125">
        <ele>187</ele>
        <time>2014-06-15T10:27:40.000Z</time>
      </trkpt>
      <trkpt lat="48.94095" lon="1.06113">
        <ele>185</ele>
        <time>2014-06-15T10:27:42.000Z</time>
      </trkpt>
      <trkpt lat="48.94088" lon="1.06102">
        <ele>182</ele>
        <time>2014-06-15T10:27:44.000Z</time>
      </trkpt>
      <trkpt lat="48.94081" lon="1.0609">
        <ele>178</ele>
        <time>2014-06-15T10:27:46.000Z</time>
      </trkpt>
      <trkpt lat="48.94073" lon="1.06081">
        <ele>177</ele>
        <time>2014-06-15T10:27:48.000Z</time>
      </trkpt>
      <trkpt lat="48.94068" lon="1.06076">
        <ele>177</ele>
        <time>2014-06-15T10:27:50.000Z</time>
      </trkpt>
      <trkpt lat="48.94062" lon="1.06072">
        <ele>176</ele>
        <time>2014-06-15T10:27:52.000Z</time>
      </trkpt>
      <trkpt lat="48.94056" lon="1.06069">
        <ele>176</ele>
        <time>2014-06-15T10:27:54.000Z</time>
      </trkpt>
      <trkpt lat="48.9405" lon="1.06068">
        <ele>175</ele>
        <time>2014-06-15T10:27:56.000Z</time>
      </trkpt>
      <trkpt lat="48.9405" lon="1.06068">
        <ele>175</ele>
        <time>2014-06-15T10:27:58.000Z</time>
      </trkpt>
      <trkpt lat="48.94042" lon="1.0607">
        <ele>174</ele>
        <time>2014-06-15T10:28:04.000Z</time>
      </trkpt>
      <trkpt lat="48.94038" lon="1.06064">
        <ele>174</ele>
        <time>2014-06-15T10:28:06.000Z</time>
      </trkpt>
      <trkpt lat="48.94038" lon="1.06064">
        <ele>174</ele>
        <time>2014-06-15T10:28:08.000Z</time>
      </trkpt>
      <trkpt lat="48.94038" lon="1.06064">
        <ele>174</ele>
        <time>2014-06-15T10:28:10.000Z</time>
      </trkpt>
      <trkpt lat="48.94036" lon="1.0606">
        <ele>173</ele>
        <time>2014-06-15T10:28:16.000Z</time>
      </trkpt>
      <trkpt lat="48.94036" lon="1.0606">
        <ele>173</ele>
        <time>2014-06-15T10:28:19.000Z</time>
      </trkpt>
      <trkpt lat="48.94033" lon="1.06057">
        <ele>172</ele>
        <time>2014-06-15T10:28:21.000Z</time>
      </trkpt>
      <trkpt lat="48.94031" lon="1.06054">
        <ele>172</ele>
        <time>2014-06-15T10:28:23.000Z</time>
      </trkpt>
      <trkpt lat="48.94027" lon="1.06052">
        <ele>172</ele>
        <time>2014-06-15T10:28:26.000Z</time>
      </trkpt>
      <trkpt lat="48.94024" lon="1.06051">
        <ele>172</ele>
        <time>2014-06-15T10:28:27.000Z</time>
      </trkpt>
      <trkpt lat="48.94019" lon="1.06049">
        <ele>172</ele>
        <time>2014-06-15T10:28:29.000Z</time>
      </trkpt>
      <trkpt lat="48.9401" lon="1.06045">
        <ele>171</ele>
        <time>2014-06-15T10:28:31.000Z</time>
      </trkpt>
      <trkpt lat="48.94003" lon="1.06043">
        <ele>171</ele>
        <time>2014-06-15T10:28:33.000Z</time>
      </trkpt>
      <trkpt lat="48.93993" lon="1.06037">
        <ele>172</ele>
        <time>2014-06-15T10:28:37.000Z</time>
      </trkpt>
      <trkpt lat="48.93988" lon="1.06035">
        <ele>172</ele>
        <time>2014-06-15T10:28:39.000Z</time>
      </trkpt>
      <trkpt lat="48.93988" lon="1.06035">
        <ele>172</ele>
        <time>2014-06-15T10:28:41.000Z</time>
      </trkpt>
      <trkpt lat="48.93978" lon="1.06032">
        <ele>172</ele>
        <time>2014-06-15T10:28:43.000Z</time>
      </trkpt>
      <trkpt lat="48.93971" lon="1.06029">
        <ele>172</ele>
        <time>2014-06-15T10:28:47.000Z</time>
      </trkpt>
      <trkpt lat="48.93962" lon="1.06022">
        <ele>172</ele>
        <time>2014-06-15T10:28:49.000Z</time>
      </trkpt>
      <trkpt lat="48.93962" lon="1.06022">
        <ele>172</ele>
        <time>2014-06-15T10:28:51.000Z</time>
      </trkpt>
      <trkpt lat="48.93961" lon="1.06012">
        <ele>171</ele>
        <time>2014-06-15T10:28:53.000Z</time>
      </trkpt>
      <trkpt lat="48.93958" lon="1.06001">
        <ele>172</ele>
        <time>2014-06-15T10:28:59.000Z</time>
      </trkpt>
      <trkpt lat="48.93951" lon="1.05997">
        <ele>172</ele>
        <time>2014-06-15T10:29:01.000Z</time>
      </trkpt>
      <trkpt lat="48.93944" lon="1.05996">
        <ele>172</ele>
        <time>2014-06-15T10:29:03.000Z</time>
      </trkpt>
      <trkpt lat="48.93937" lon="1.05993">
        <ele>171</ele>
        <time>2014-06-15T10:29:05.000Z</time>
      </trkpt>
      <trkpt lat="48.93928" lon="1.0599">
        <ele>171</ele>
        <time>2014-06-15T10:29:07.000Z</time>
      </trkpt>
      <trkpt lat="48.93916" lon="1.05987">
        <ele>171</ele>
        <time>2014-06-15T10:29:09.000Z</time>
      </trkpt>
      <trkpt lat="48.93906" lon="1.05985">
        <ele>171</ele>
        <time>2014-06-15T10:29:11.000Z</time>
      </trkpt>
      <trkpt lat="48.93897" lon="1.05983">
        <ele>171</ele>
        <time>2014-06-15T10:29:13.000Z</time>
      </trkpt>
      <trkpt lat="48.93888" lon="1.05981">
        <ele>171</ele>
        <time>2014-06-15T10:29:15.000Z</time>
      </trkpt>
      <trkpt lat="48.93888" lon="1.05981">
        <ele>171</ele>
        <time>2014-06-15T10:29:17.000Z</time>
      </trkpt>
      <trkpt lat="48.93874" lon="1.05978">
        <ele>171</ele>
        <time>2014-06-15T10:29:19.000Z</time>
      </trkpt>
      <trkpt lat="48.93866" lon="1.05979">
        <ele>170</ele>
        <time>2014-06-15T10:29:21.000Z</time>
      </trkpt>
      <trkpt lat="48.93858" lon="1.0598">
        <ele>170</ele>
        <time>2014-06-15T10:29:23.000Z</time>
      </trkpt>
      <trkpt lat="48.93851" lon="1.05982">
        <ele>170</ele>
        <time>2014-06-15T10:29:25.000Z</time>
      </trkpt>
      <trkpt lat="48.93844" lon="1.05984">
        <ele>170</ele>
        <time>2014-06-15T10:29:27.000Z</time>
      </trkpt>
      <trkpt lat="48.93834" lon="1.05985">
        <ele>170</ele>
        <time>2014-06-15T10:29:31.000Z</time>
      </trkpt>
      <trkpt lat="48.93834" lon="1.05985">
        <ele>170</ele>
        <time>2014-06-15T10:29:33.000Z</time>
      </trkpt>
      <trkpt lat="48.93825" lon="1.05983">
        <ele>170</ele>
        <time>2014-06-15T10:29:35.000Z</time>
      </trkpt>
      <trkpt lat="48.93825" lon="1.05983">
        <ele>170</ele>
        <time>2014-06-15T10:29:37.000Z</time>
      </trkpt>
      <trkpt lat="48.93814" lon="1.05985">
        <ele>169</ele>
        <time>2014-06-15T10:29:39.000Z</time>
      </trkpt>
      <trkpt lat="48.93808" lon="1.05984">
        <ele>169</ele>
        <time>2014-06-15T10:29:41.000Z</time>
      </trkpt>
      <trkpt lat="48.93801" lon="1.0598">
        <ele>169</ele>
        <time>2014-06-15T10:29:43.000Z</time>
      </trkpt>
      <trkpt lat="48.93792" lon="1.05976">
        <ele>169</ele>
        <time>2014-06-15T10:29:47.000Z</time>
      </trkpt>
      <trkpt lat="48.93785" lon="1.05977">
        <ele>169</ele>
        <time>2014-06-15T10:29:49.000Z</time>
      </trkpt>
      <trkpt lat="48.93785" lon="1.05977">
        <ele>169</ele>
        <time>2014-06-15T10:29:51.000Z</time>
      </trkpt>
      <trkpt lat="48.93773" lon="1.05978">
        <ele>169</ele>
        <time>2014-06-15T10:29:53.000Z</time>
      </trkpt>
      <trkpt lat="48.93773" lon="1.05978">
        <ele>169</ele>
        <time>2014-06-15T10:29:55.000Z</time>
      </trkpt>
      <trkpt lat="48.93764" lon="1.05977">
        <ele>169</ele>
        <time>2014-06-15T10:29:57.000Z</time>
      </trkpt>
      <trkpt lat="48.93764" lon="1.05977">
        <ele>169</ele>
        <time>2014-06-15T10:29:59.000Z</time>
      </trkpt>
      <trkpt lat="48.93758" lon="1.0597">
        <ele>169</ele>
        <time>2014-06-15T10:30:01.000Z</time>
      </trkpt>
      <trkpt lat="48.93758" lon="1.0597">
        <ele>169</ele>
        <time>2014-06-15T10:30:05.000Z</time>
      </trkpt>
      <trkpt lat="48.93758" lon="1.0597">
        <ele>169</ele>
        <time>2014-06-15T10:30:07.000Z</time>
      </trkpt>
      <trkpt lat="48.93758" lon="1.0597">
        <ele>169</ele>
        <time>2014-06-15T10:30:09.000Z</time>
      </trkpt>
      <trkpt lat="48.93758" lon="1.0597">
        <ele>169</ele>
        <time>2014-06-15T10:30:15.000Z</time>
      </trkpt>
      <trkpt lat="48.93754" lon="1.05958">
        <ele>169</ele>
        <time>2014-06-15T10:30:26.000Z</time>
      </trkpt>
      <trkpt lat="48.93742" lon="1.05933">
        <ele>168</ele>
        <time>2014-06-15T10:30:30.000Z</time>
      </trkpt>
      <trkpt lat="48.93735" lon="1.05927">
        <ele>168</ele>
        <time>2014-06-15T10:30:34.000Z</time>
      </trkpt>
      <trkpt lat="48.9373" lon="1.05923">
        <ele>167</ele>
        <time>2014-06-15T10:30:36.000Z</time>
      </trkpt>
      <trkpt lat="48.93719" lon="1.0591">
        <ele>167</ele>
        <time>2014-06-15T10:30:39.000Z</time>
      </trkpt>
      <trkpt lat="48.93714" lon="1.05903">
        <ele>167</ele>
        <time>2014-06-15T10:30:40.000Z</time>
      </trkpt>
      <trkpt lat="48.93709" lon="1.05895">
        <ele>166</ele>
        <time>2014-06-15T10:30:42.000Z</time>
      </trkpt>
      <trkpt lat="48.93704" lon="1.05886">
        <ele>166</ele>
        <time>2014-06-15T10:30:44.000Z</time>
      </trkpt>
      <trkpt lat="48.93699" lon="1.05877">
        <ele>166</ele>
        <time>2014-06-15T10:30:46.000Z</time>
      </trkpt>
      <trkpt lat="48.93694" lon="1.05868">
        <ele>164</ele>
        <time>2014-06-15T10:30:48.000Z</time>
      </trkpt>
      <trkpt lat="48.93688" lon="1.05859">
        <ele>162</ele>
        <time>2014-06-15T10:30:50.000Z</time>
      </trkpt>
      <trkpt lat="48.93682" lon="1.05852">
        <ele>161</ele>
        <time>2014-06-15T10:30:52.000Z</time>
      </trkpt>
      <trkpt lat="48.93676" lon="1.05845">
        <ele>161</ele>
        <time>2014-06-15T10:30:54.000Z</time>
      </trkpt>
      <trkpt lat="48.9367" lon="1.05838">
        <ele>160</ele>
        <time>2014-06-15T10:30:56.000Z</time>
      </trkpt>
      <trkpt lat="48.93663" lon="1.0583">
        <ele>160</ele>
        <time>2014-06-15T10:30:58.000Z</time>
      </trkpt>
      <trkpt lat="48.93658" lon="1.05824">
        <ele>160</ele>
        <time>2014-06-15T10:31:00.000Z</time>
      </trkpt>
      <trkpt lat="48.93653" lon="1.05816">
        <ele>160</ele>
        <time>2014-06-15T10:31:02.000Z</time>
      </trkpt>
      <trkpt lat="48.93647" lon="1.05808">
        <ele>160</ele>
        <time>2014-06-15T10:31:04.000Z</time>
      </trkpt>
      <trkpt lat="48.93641" lon="1.05798">
        <ele>161</ele>
        <time>2014-06-15T10:31:06.000Z</time>
      </trkpt>
      <trkpt lat="48.93636" lon="1.05786">
        <ele>161</ele>
        <time>2014-06-15T10:31:08.000Z</time>
      </trkpt>
      <trkpt lat="48.9363" lon="1.05773">
        <ele>160</ele>
        <time>2014-06-15T10:31:10.000Z</time>
      </trkpt>
      <trkpt lat="48.93625" lon="1.05761">
        <ele>160</ele>
        <time>2014-06-15T10:31:12.000Z</time>
      </trkpt>
      <trkpt lat="48.9362" lon="1.05751">
        <ele>160</ele>
        <time>2014-06-15T10:31:14.000Z</time>
      </trkpt>
      <trkpt lat="48.93615" lon="1.05742">
        <ele>161</ele>
        <time>2014-06-15T10:31:16.000Z</time>
      </trkpt>
      <trkpt lat="48.93609" lon="1.05733">
        <ele>162</ele>
        <time>2014-06-15T10:31:18.000Z</time>
      </trkpt>
      <trkpt lat="48.93604" lon="1.05724">
        <ele>162</ele>
        <time>2014-06-15T10:31:20.000Z</time>
      </trkpt>
      <trkpt lat="48.93599" lon="1.05714">
        <ele>162</ele>
        <time>2014-06-15T10:31:22.000Z</time>
      </trkpt>
      <trkpt lat="48.93593" lon="1.05706">
        <ele>163</ele>
        <time>2014-06-15T10:31:24.000Z</time>
      </trkpt>
      <trkpt lat="48.93589" lon="1.05697">
        <ele>163</ele>
        <time>2014-06-15T10:31:26.000Z</time>
      </trkpt>
      <trkpt lat="48.93584" lon="1.05688">
        <ele>163</ele>
        <time>2014-06-15T10:31:28.000Z</time>
      </trkpt>
      <trkpt lat="48.93579" lon="1.05677">
        <ele>162</ele>
        <time>2014-06-15T10:31:30.000Z</time>
      </trkpt>
      <trkpt lat="48.93575" lon="1.05667">
        <ele>162</ele>
        <time>2014-06-15T10:31:32.000Z</time>
      </trkpt>
      <trkpt lat="48.93572" lon="1.05656">
        <ele>162</ele>
        <time>2014-06-15T10:31:34.000Z</time>
      </trkpt>
      <trkpt lat="48.93568" lon="1.05648">
        <ele>162</ele>
        <time>2014-06-15T10:31:36.000Z</time>
      </trkpt>
      <trkpt lat="48.93561" lon="1.05643">
        <ele>162</ele>
        <time>2014-06-15T10:31:38.000Z</time>
      </trkpt>
      <trkpt lat="48.93556" lon="1.05635">
        <ele>162</ele>
        <time>2014-06-15T10:31:40.000Z</time>
      </trkpt>
      <trkpt lat="48.9355" lon="1.05627">
        <ele>161</ele>
        <time>2014-06-15T10:31:42.000Z</time>
      </trkpt>
      <trkpt lat="48.93543" lon="1.05617">
        <ele>160</ele>
        <time>2014-06-15T10:31:44.000Z</time>
      </trkpt>
      <trkpt lat="48.93538" lon="1.05606">
        <ele>159</ele>
        <time>2014-06-15T10:31:46.000Z</time>
      </trkpt>
      <trkpt lat="48.93533" lon="1.05592">
        <ele>159</ele>
        <time>2014-06-15T10:31:48.000Z</time>
      </trkpt>
      <trkpt lat="48.93523" lon="1.05562">
        <ele>159</ele>
        <time>2014-06-15T10:31:51.000Z</time>
      </trkpt>
      <trkpt lat="48.93518" lon="1.05547">
        <ele>159</ele>
        <time>2014-06-15T10:31:53.000Z</time>
      </trkpt>
      <trkpt lat="48.93514" lon="1.0553">
        <ele>158</ele>
        <time>2014-06-15T10:31:55.000Z</time>
      </trkpt>
      <trkpt lat="48.9351" lon="1.05514">
        <ele>156</ele>
        <time>2014-06-15T10:31:57.000Z</time>
      </trkpt>
      <trkpt lat="48.93505" lon="1.05497">
        <ele>155</ele>
        <time>2014-06-15T10:31:59.000Z</time>
      </trkpt>
      <trkpt lat="48.93501" lon="1.05481">
        <ele>153</ele>
        <time>2014-06-15T10:32:01.000Z</time>
      </trkpt>
      <trkpt lat="48.93495" lon="1.05464">
        <ele>151</ele>
        <time>2014-06-15T10:32:03.000Z</time>
      </trkpt>
      <trkpt lat="48.93491" lon="1.05447">
        <ele>151</ele>
        <time>2014-06-15T10:32:05.000Z</time>
      </trkpt>
      <trkpt lat="48.93487" lon="1.0543">
        <ele>151</ele>
        <time>2014-06-15T10:32:07.000Z</time>
      </trkpt>
      <trkpt lat="48.93487" lon="1.05414">
        <ele>149</ele>
        <time>2014-06-15T10:32:09.000Z</time>
      </trkpt>
      <trkpt lat="48.93491" lon="1.05399">
        <ele>150</ele>
        <time>2014-06-15T10:32:11.000Z</time>
      </trkpt>
      <trkpt lat="48.93494" lon="1.05382">
        <ele>151</ele>
        <time>2014-06-15T10:32:13.000Z</time>
      </trkpt>
      <trkpt lat="48.93499" lon="1.05367">
        <ele>152</ele>
        <time>2014-06-15T10:32:15.000Z</time>
      </trkpt>
      <trkpt lat="48.93504" lon="1.05351">
        <ele>153</ele>
        <time>2014-06-15T10:32:17.000Z</time>
      </trkpt>
      <trkpt lat="48.9351" lon="1.05339">
        <ele>155</ele>
        <time>2014-06-15T10:32:19.000Z</time>
      </trkpt>
      <trkpt lat="48.93515" lon="1.05326">
        <ele>156</ele>
        <time>2014-06-15T10:32:21.000Z</time>
      </trkpt>
      <trkpt lat="48.93515" lon="1.05312">
        <ele>157</ele>
        <time>2014-06-15T10:32:23.000Z</time>
      </trkpt>
      <trkpt lat="48.93512" lon="1.05296">
        <ele>157</ele>
        <time>2014-06-15T10:32:25.000Z</time>
      </trkpt>
      <trkpt lat="48.93507" lon="1.05283">
        <ele>158</ele>
        <time>2014-06-15T10:32:27.000Z</time>
      </trkpt>
      <trkpt lat="48.93502" lon="1.0527">
        <ele>159</ele>
        <time>2014-06-15T10:32:29.000Z</time>
      </trkpt>
      <trkpt lat="48.93497" lon="1.0526">
        <ele>159</ele>
        <time>2014-06-15T10:32:31.000Z</time>
      </trkpt>
      <trkpt lat="48.93497" lon="1.0526">
        <ele>159</ele>
        <time>2014-06-15T10:32:33.000Z</time>
      </trkpt>
      <trkpt lat="48.93488" lon="1.05255">
        <ele>159</ele>
        <time>2014-06-15T10:32:35.000Z</time>
      </trkpt>
      <trkpt lat="48.93483" lon="1.05261">
        <ele>159</ele>
        <time>2014-06-15T10:32:37.000Z</time>
      </trkpt>
      <trkpt lat="48.93476" lon="1.05267">
        <ele>159</ele>
        <time>2014-06-15T10:32:39.000Z</time>
      </trkpt>
      <trkpt lat="48.93471" lon="1.05274">
        <ele>159</ele>
        <time>2014-06-15T10:32:41.000Z</time>
      </trkpt>
      <trkpt lat="48.93467" lon="1.05281">
        <ele>159</ele>
        <time>2014-06-15T10:32:43.000Z</time>
      </trkpt>
      <trkpt lat="48.93467" lon="1.05281">
        <ele>159</ele>
        <time>2014-06-15T10:32:45.000Z</time>
      </trkpt>
      <trkpt lat="48.93461" lon="1.05293">
        <ele>160</ele>
        <time>2014-06-15T10:32:47.000Z</time>
      </trkpt>
      <trkpt lat="48.93461" lon="1.05293">
        <ele>160</ele>
        <time>2014-06-15T10:32:49.000Z</time>
      </trkpt>
      <trkpt lat="48.93456" lon="1.05303">
        <ele>160</ele>
        <time>2014-06-15T10:32:51.000Z</time>
      </trkpt>
      <trkpt lat="48.93456" lon="1.05303">
        <ele>160</ele>
        <time>2014-06-15T10:32:53.000Z</time>
      </trkpt>
      <trkpt lat="48.93456" lon="1.05303">
        <ele>160</ele>
        <time>2014-06-15T10:32:55.000Z</time>
      </trkpt>
      <trkpt lat="48.93451" lon="1.05313">
        <ele>161</ele>
        <time>2014-06-15T10:32:57.000Z</time>
      </trkpt>
      <trkpt lat="48.93451" lon="1.05313">
        <ele>161</ele>
        <time>2014-06-15T10:32:59.000Z</time>
      </trkpt>
      <trkpt lat="48.93447" lon="1.05322">
        <ele>161</ele>
        <time>2014-06-15T10:33:01.000Z</time>
      </trkpt>
      <trkpt lat="48.93447" lon="1.05322">
        <ele>161</ele>
        <time>2014-06-15T10:33:03.000Z</time>
      </trkpt>
      <trkpt lat="48.93443" lon="1.0533">
        <ele>161</ele>
        <time>2014-06-15T10:33:05.000Z</time>
      </trkpt>
      <trkpt lat="48.93443" lon="1.0533">
        <ele>161</ele>
        <time>2014-06-15T10:33:07.000Z</time>
      </trkpt>
      <trkpt lat="48.93443" lon="1.0533">
        <ele>161</ele>
        <time>2014-06-15T10:33:13.000Z</time>
      </trkpt>
      <trkpt lat="48.93441" lon="1.05334">
        <ele>162</ele>
        <time>2014-06-15T10:33:14.000Z</time>
      </trkpt>
      <trkpt lat="48.9344" lon="1.05338">
        <ele>162</ele>
        <time>2014-06-15T10:33:14.000Z</time>
      </trkpt>
      <trkpt lat="48.93439" lon="1.05343">
        <ele>163</ele>
        <time>2014-06-15T10:33:15.000Z</time>
      </trkpt>
      <trkpt lat="48.93437" lon="1.05348">
        <ele>163</ele>
        <time>2014-06-15T10:33:17.000Z</time>
      </trkpt>
      <trkpt lat="48.93435" lon="1.05352">
        <ele>164</ele>
        <time>2014-06-15T10:33:19.000Z</time>
      </trkpt>
      <trkpt lat="48.93432" lon="1.05361">
        <ele>164</ele>
        <time>2014-06-15T10:33:21.000Z</time>
      </trkpt>
      <trkpt lat="48.93432" lon="1.05361">
        <ele>164</ele>
        <time>2014-06-15T10:33:23.000Z</time>
      </trkpt>
      <trkpt lat="48.93432" lon="1.05361">
        <ele>164</ele>
        <time>2014-06-15T10:33:25.000Z</time>
      </trkpt>
      <trkpt lat="48.93428" lon="1.05373">
        <ele>166</ele>
        <time>2014-06-15T10:33:27.000Z</time>
      </trkpt>
      <trkpt lat="48.93428" lon="1.05373">
        <ele>166</ele>
        <time>2014-06-15T10:33:29.000Z</time>
      </trkpt>
      <trkpt lat="48.93424" lon="1.0538">
        <ele>167</ele>
        <time>2014-06-15T10:33:31.000Z</time>
      </trkpt>
      <trkpt lat="48.9342" lon="1.05389">
        <ele>168</ele>
        <time>2014-06-15T10:33:35.000Z</time>
      </trkpt>
      <trkpt lat="48.93416" lon="1.05396">
        <ele>169</ele>
        <time>2014-06-15T10:33:39.000Z</time>
      </trkpt>
      <trkpt lat="48.93416" lon="1.05396">
        <ele>169</ele>
        <time>2014-06-15T10:33:41.000Z</time>
      </trkpt>
      <trkpt lat="48.93411" lon="1.05406">
        <ele>171</ele>
        <time>2014-06-15T10:33:43.000Z</time>
      </trkpt>
      <trkpt lat="48.93411" lon="1.05406">
        <ele>171</ele>
        <time>2014-06-15T10:33:45.000Z</time>
      </trkpt>
      <trkpt lat="48.93407" lon="1.05414">
        <ele>172</ele>
        <time>2014-06-15T10:33:47.000Z</time>
      </trkpt>
      <trkpt lat="48.93404" lon="1.05425">
        <ele>174</ele>
        <time>2014-06-15T10:33:51.000Z</time>
      </trkpt>
      <trkpt lat="48.93399" lon="1.05436">
        <ele>176</ele>
        <time>2014-06-15T10:33:55.000Z</time>
      </trkpt>
      <trkpt lat="48.93391" lon="1.05446">
        <ele>177</ele>
        <time>2014-06-15T10:33:59.000Z</time>
      </trkpt>
      <trkpt lat="48.93391" lon="1.05446">
        <ele>177</ele>
        <time>2014-06-15T10:34:01.000Z</time>
      </trkpt>
      <trkpt lat="48.93386" lon="1.05452">
        <ele>178</ele>
        <time>2014-06-15T10:34:03.000Z</time>
      </trkpt>
      <trkpt lat="48.93386" lon="1.05452">
        <ele>178</ele>
        <time>2014-06-15T10:34:05.000Z</time>
      </trkpt>
      <trkpt lat="48.93381" lon="1.05458">
        <ele>179</ele>
        <time>2014-06-15T10:34:07.000Z</time>
      </trkpt>
      <trkpt lat="48.93381" lon="1.05458">
        <ele>179</ele>
        <time>2014-06-15T10:34:09.000Z</time>
      </trkpt>
      <trkpt lat="48.93381" lon="1.05458">
        <ele>179</ele>
        <time>2014-06-15T10:34:11.000Z</time>
      </trkpt>
      <trkpt lat="48.93377" lon="1.05466">
        <ele>180</ele>
        <time>2014-06-15T10:34:13.000Z</time>
      </trkpt>
      <trkpt lat="48.93377" lon="1.05466">
        <ele>180</ele>
        <time>2014-06-15T10:34:15.000Z</time>
      </trkpt>
      <trkpt lat="48.93373" lon="1.05476">
        <ele>181</ele>
        <time>2014-06-15T10:34:17.000Z</time>
      </trkpt>
      <trkpt lat="48.93368" lon="1.05487">
        <ele>182</ele>
        <time>2014-06-15T10:34:21.000Z</time>
      </trkpt>
      <trkpt lat="48.93364" lon="1.05499">
        <ele>182</ele>
        <time>2014-06-15T10:34:25.000Z</time>
      </trkpt>
      <trkpt lat="48.9336" lon="1.05507">
        <ele>182</ele>
        <time>2014-06-15T10:34:29.000Z</time>
      </trkpt>
      <trkpt lat="48.9336" lon="1.05507">
        <ele>182</ele>
        <time>2014-06-15T10:34:31.000Z</time>
      </trkpt>
      <trkpt lat="48.9336" lon="1.05507">
        <ele>182</ele>
        <time>2014-06-15T10:34:33.000Z</time>
      </trkpt>
      <trkpt lat="48.93354" lon="1.05515">
        <ele>184</ele>
        <time>2014-06-15T10:34:35.000Z</time>
      </trkpt>
      <trkpt lat="48.93349" lon="1.0552">
        <ele>184</ele>
        <time>2014-06-15T10:34:39.000Z</time>
      </trkpt>
      <trkpt lat="48.93343" lon="1.05526">
        <ele>185</ele>
        <time>2014-06-15T10:34:43.000Z</time>
      </trkpt>
      <trkpt lat="48.93335" lon="1.05535">
        <ele>186</ele>
        <time>2014-06-15T10:34:47.000Z</time>
      </trkpt>
      <trkpt lat="48.93329" lon="1.05542">
        <ele>186</ele>
        <time>2014-06-15T10:34:51.000Z</time>
      </trkpt>
      <trkpt lat="48.93329" lon="1.05542">
        <ele>186</ele>
        <time>2014-06-15T10:34:53.000Z</time>
      </trkpt>
      <trkpt lat="48.93325" lon="1.05548">
        <ele>186</ele>
        <time>2014-06-15T10:34:55.000Z</time>
      </trkpt>
      <trkpt lat="48.93325" lon="1.05548">
        <ele>186</ele>
        <time>2014-06-15T10:34:57.000Z</time>
      </trkpt>
      <trkpt lat="48.93321" lon="1.05556">
        <ele>187</ele>
        <time>2014-06-15T10:34:59.000Z</time>
      </trkpt>
      <trkpt lat="48.93321" lon="1.05556">
        <ele>187</ele>
        <time>2014-06-15T10:35:01.000Z</time>
      </trkpt>
      <trkpt lat="48.93321" lon="1.05556">
        <ele>187</ele>
        <time>2014-06-15T10:35:03.000Z</time>
      </trkpt>
      <trkpt lat="48.9332" lon="1.05566">
        <ele>187</ele>
        <time>2014-06-15T10:35:05.000Z</time>
      </trkpt>
      <trkpt lat="48.9332" lon="1.05566">
        <ele>187</ele>
        <time>2014-06-15T10:35:07.000Z</time>
      </trkpt>
      <trkpt lat="48.9332" lon="1.05566">
        <ele>187</ele>
        <time>2014-06-15T10:35:09.000Z</time>
      </trkpt>
      <trkpt lat="48.93319" lon="1.05571">
        <ele>189</ele>
        <time>2014-06-15T10:35:11.000Z</time>
      </trkpt>
      <trkpt lat="48.93319" lon="1.05576">
        <ele>189</ele>
        <time>2014-06-15T10:35:13.000Z</time>
      </trkpt>
      <trkpt lat="48.93319" lon="1.05581">
        <ele>189</ele>
        <time>2014-06-15T10:35:15.000Z</time>
      </trkpt>
      <trkpt lat="48.93319" lon="1.05581">
        <ele>189</ele>
        <time>2014-06-15T10:35:17.000Z</time>
      </trkpt>
      <trkpt lat="48.93318" lon="1.05588">
        <ele>190</ele>
        <time>2014-06-15T10:35:19.000Z</time>
      </trkpt>
      <trkpt lat="48.93318" lon="1.05593">
        <ele>190</ele>
        <time>2014-06-15T10:35:21.000Z</time>
      </trkpt>
      <trkpt lat="48.93317" lon="1.05599">
        <ele>191</ele>
        <time>2014-06-15T10:35:23.000Z</time>
      </trkpt>
      <trkpt lat="48.93317" lon="1.05604">
        <ele>191</ele>
        <time>2014-06-15T10:35:25.000Z</time>
      </trkpt>
      <trkpt lat="48.93317" lon="1.05604">
        <ele>191</ele>
        <time>2014-06-15T10:35:27.000Z</time>
      </trkpt>
      <trkpt lat="48.93317" lon="1.05609">
        <ele>192</ele>
        <time>2014-06-15T10:35:29.000Z</time>
      </trkpt>
      <trkpt lat="48.93316" lon="1.05614">
        <ele>192</ele>
        <time>2014-06-15T10:35:31.000Z</time>
      </trkpt>
      <trkpt lat="48.93316" lon="1.05618">
        <ele>192</ele>
        <time>2014-06-15T10:35:33.000Z</time>
      </trkpt>
      <trkpt lat="48.93316" lon="1.05623">
        <ele>193</ele>
        <time>2014-06-15T10:35:35.000Z</time>
      </trkpt>
      <trkpt lat="48.93316" lon="1.05628">
        <ele>193</ele>
        <time>2014-06-15T10:35:37.000Z</time>
      </trkpt>
      <trkpt lat="48.93316" lon="1.05628">
        <ele>193</ele>
        <time>2014-06-15T10:35:39.000Z</time>
      </trkpt>
      <trkpt lat="48.93316" lon="1.05639">
        <ele>194</ele>
        <time>2014-06-15T10:35:41.000Z</time>
      </trkpt>
      <trkpt lat="48.93316" lon="1.05639">
        <ele>194</ele>
        <time>2014-06-15T10:35:43.000Z</time>
      </trkpt>
      <trkpt lat="48.93316" lon="1.05639">
        <ele>194</ele>
        <time>2014-06-15T10:35:45.000Z</time>
      </trkpt>
      <trkpt lat="48.93314" lon="1.05654">
        <ele>195</ele>
        <time>2014-06-15T10:35:47.000Z</time>
      </trkpt>
      <trkpt lat="48.93316" lon="1.05666">
        <ele>196</ele>
        <time>2014-06-15T10:35:51.000Z</time>
      </trkpt>
      <trkpt lat="48.93316" lon="1.05666">
        <ele>196</ele>
        <time>2014-06-15T10:35:55.000Z</time>
      </trkpt>
      <trkpt lat="48.93316" lon="1.05678">
        <ele>197</ele>
        <time>2014-06-15T10:35:57.000Z</time>
      </trkpt>
      <trkpt lat="48.93316" lon="1.05678">
        <ele>197</ele>
        <time>2014-06-15T10:35:59.000Z</time>
      </trkpt>
      <trkpt lat="48.93316" lon="1.05688">
        <ele>198</ele>
        <time>2014-06-15T10:36:01.000Z</time>
      </trkpt>
      <trkpt lat="48.93316" lon="1.05688">
        <ele>198</ele>
        <time>2014-06-15T10:36:03.000Z</time>
      </trkpt>
      <trkpt lat="48.93317" lon="1.05704">
        <ele>198</ele>
        <time>2014-06-15T10:36:05.000Z</time>
      </trkpt>
      <trkpt lat="48.93317" lon="1.05713">
        <ele>199</ele>
        <time>2014-06-15T10:36:07.000Z</time>
      </trkpt>
      <trkpt lat="48.93317" lon="1.05723">
        <ele>199</ele>
        <time>2014-06-15T10:36:09.000Z</time>
      </trkpt>
      <trkpt lat="48.93317" lon="1.05732">
        <ele>199</ele>
        <time>2014-06-15T10:36:11.000Z</time>
      </trkpt>
      <trkpt lat="48.93316" lon="1.05741">
        <ele>199</ele>
        <time>2014-06-15T10:36:13.000Z</time>
      </trkpt>
      <trkpt lat="48.93316" lon="1.0575">
        <ele>200</ele>
        <time>2014-06-15T10:36:15.000Z</time>
      </trkpt>
      <trkpt lat="48.93316" lon="1.05759">
        <ele>200</ele>
        <time>2014-06-15T10:36:17.000Z</time>
      </trkpt>
      <trkpt lat="48.93316" lon="1.05771">
        <ele>200</ele>
        <time>2014-06-15T10:36:19.000Z</time>
      </trkpt>
      <trkpt lat="48.93316" lon="1.05781">
        <ele>201</ele>
        <time>2014-06-15T10:36:21.000Z</time>
      </trkpt>
      <trkpt lat="48.93316" lon="1.05792">
        <ele>201</ele>
        <time>2014-06-15T10:36:23.000Z</time>
      </trkpt>
      <trkpt lat="48.93317" lon="1.05805">
        <ele>202</ele>
        <time>2014-06-15T10:36:25.000Z</time>
      </trkpt>
      <trkpt lat="48.93319" lon="1.05816">
        <ele>202</ele>
        <time>2014-06-15T10:36:27.000Z</time>
      </trkpt>
      <trkpt lat="48.93319" lon="1.05816">
        <ele>202</ele>
        <time>2014-06-15T10:36:29.000Z</time>
      </trkpt>
      <trkpt lat="48.93318" lon="1.05832">
        <ele>203</ele>
        <time>2014-06-15T10:36:31.000Z</time>
      </trkpt>
      <trkpt lat="48.93318" lon="1.05832">
        <ele>203</ele>
        <time>2014-06-15T10:36:33.000Z</time>
      </trkpt>
      <trkpt lat="48.93317" lon="1.05848">
        <ele>203</ele>
        <time>2014-06-15T10:36:35.000Z</time>
      </trkpt>
      <trkpt lat="48.93316" lon="1.05859">
        <ele>203</ele>
        <time>2014-06-15T10:36:37.000Z</time>
      </trkpt>
      <trkpt lat="48.93316" lon="1.05869">
        <ele>204</ele>
        <time>2014-06-15T10:36:39.000Z</time>
      </trkpt>
      <trkpt lat="48.93313" lon="1.0588">
        <ele>204</ele>
        <time>2014-06-15T10:36:41.000Z</time>
      </trkpt>
      <trkpt lat="48.9331" lon="1.05891">
        <ele>204</ele>
        <time>2014-06-15T10:36:43.000Z</time>
      </trkpt>
      <trkpt lat="48.93307" lon="1.059">
        <ele>205</ele>
        <time>2014-06-15T10:36:45.000Z</time>
      </trkpt>
      <trkpt lat="48.93304" lon="1.05914">
        <ele>205</ele>
        <time>2014-06-15T10:36:47.000Z</time>
      </trkpt>
      <trkpt lat="48.933" lon="1.05926">
        <ele>204</ele>
        <time>2014-06-15T10:36:49.000Z</time>
      </trkpt>
      <trkpt lat="48.93297" lon="1.05935">
        <ele>204</ele>
        <time>2014-06-15T10:36:51.000Z</time>
      </trkpt>
      <trkpt lat="48.93294" lon="1.05946">
        <ele>204</ele>
        <time>2014-06-15T10:36:53.000Z</time>
      </trkpt>
      <trkpt lat="48.93291" lon="1.05955">
        <ele>204</ele>
        <time>2014-06-15T10:36:55.000Z</time>
      </trkpt>
      <trkpt lat="48.93289" lon="1.05966">
        <ele>205</ele>
        <time>2014-06-15T10:36:57.000Z</time>
      </trkpt>
      <trkpt lat="48.93287" lon="1.05976">
        <ele>205</ele>
        <time>2014-06-15T10:36:59.000Z</time>
      </trkpt>
      <trkpt lat="48.93285" lon="1.05985">
        <ele>205</ele>
        <time>2014-06-15T10:37:01.000Z</time>
      </trkpt>
      <trkpt lat="48.93284" lon="1.05995">
        <ele>205</ele>
        <time>2014-06-15T10:37:03.000Z</time>
      </trkpt>
      <trkpt lat="48.93284" lon="1.05995">
        <ele>205</ele>
        <time>2014-06-15T10:37:05.000Z</time>
      </trkpt>
      <trkpt lat="48.93281" lon="1.06012">
        <ele>206</ele>
        <time>2014-06-15T10:37:07.000Z</time>
      </trkpt>
      <trkpt lat="48.93279" lon="1.06023">
        <ele>206</ele>
        <time>2014-06-15T10:37:09.000Z</time>
      </trkpt>
      <trkpt lat="48.93275" lon="1.06033">
        <ele>206</ele>
        <time>2014-06-15T10:37:11.000Z</time>
      </trkpt>
      <trkpt lat="48.9327" lon="1.06044">
        <ele>207</ele>
        <time>2014-06-15T10:37:13.000Z</time>
      </trkpt>
      <trkpt lat="48.93266" lon="1.06054">
        <ele>207</ele>
        <time>2014-06-15T10:37:15.000Z</time>
      </trkpt>
      <trkpt lat="48.93262" lon="1.06065">
        <ele>207</ele>
        <time>2014-06-15T10:37:17.000Z</time>
      </trkpt>
      <trkpt lat="48.93258" lon="1.06074">
        <ele>207</ele>
        <time>2014-06-15T10:37:19.000Z</time>
      </trkpt>
      <trkpt lat="48.93254" lon="1.06083">
        <ele>207</ele>
        <time>2014-06-15T10:37:21.000Z</time>
      </trkpt>
      <trkpt lat="48.93251" lon="1.06092">
        <ele>207</ele>
        <time>2014-06-15T10:37:23.000Z</time>
      </trkpt>
      <trkpt lat="48.93248" lon="1.06101">
        <ele>207</ele>
        <time>2014-06-15T10:37:25.000Z</time>
      </trkpt>
      <trkpt lat="48.93245" lon="1.06111">
        <ele>207</ele>
        <time>2014-06-15T10:37:27.000Z</time>
      </trkpt>
      <trkpt lat="48.93242" lon="1.06122">
        <ele>206</ele>
        <time>2014-06-15T10:37:29.000Z</time>
      </trkpt>
      <trkpt lat="48.93239" lon="1.06132">
        <ele>207</ele>
        <time>2014-06-15T10:37:31.000Z</time>
      </trkpt>
      <trkpt lat="48.93236" lon="1.06142">
        <ele>206</ele>
        <time>2014-06-15T10:37:33.000Z</time>
      </trkpt>
      <trkpt lat="48.93232" lon="1.06151">
        <ele>206</ele>
        <time>2014-06-15T10:37:35.000Z</time>
      </trkpt>
      <trkpt lat="48.93229" lon="1.06162">
        <ele>206</ele>
        <time>2014-06-15T10:37:37.000Z</time>
      </trkpt>
      <trkpt lat="48.93228" lon="1.06172">
        <ele>206</ele>
        <time>2014-06-15T10:37:39.000Z</time>
      </trkpt>
      <trkpt lat="48.93228" lon="1.06172">
        <ele>206</ele>
        <time>2014-06-15T10:37:41.000Z</time>
      </trkpt>
      <trkpt lat="48.93226" lon="1.06183">
        <ele>206</ele>
        <time>2014-06-15T10:37:43.000Z</time>
      </trkpt>
      <trkpt lat="48.93226" lon="1.06183">
        <ele>206</ele>
        <time>2014-06-15T10:37:45.000Z</time>
      </trkpt>
      <trkpt lat="48.93226" lon="1.06183">
        <ele>206</ele>
        <time>2014-06-15T10:37:47.000Z</time>
      </trkpt>
      <trkpt lat="48.93226" lon="1.06183">
        <ele>206</ele>
        <time>2014-06-15T10:37:49.000Z</time>
      </trkpt>
      <trkpt lat="48.93226" lon="1.06183">
        <ele>206</ele>
        <time>2014-06-15T10:37:51.000Z</time>
      </trkpt>
      <trkpt lat="48.93222" lon="1.06175">
        <ele>206</ele>
        <time>2014-06-15T10:37:53.000Z</time>
      </trkpt>
      <trkpt lat="48.93219" lon="1.06166">
        <ele>206</ele>
        <time>2014-06-15T10:37:55.000Z</time>
      </trkpt>
      <trkpt lat="48.93216" lon="1.06158">
        <ele>206</ele>
        <time>2014-06-15T10:37:57.000Z</time>
      </trkpt>
      <trkpt lat="48.93211" lon="1.06148">
        <ele>206</ele>
        <time>2014-06-15T10:37:59.000Z</time>
      </trkpt>
      <trkpt lat="48.93205" lon="1.06134">
        <ele>206</ele>
        <time>2014-06-15T10:38:01.000Z</time>
      </trkpt>
      <trkpt lat="48.932" lon="1.06123">
        <ele>205</ele>
        <time>2014-06-15T10:38:03.000Z</time>
      </trkpt>
      <trkpt lat="48.93194" lon="1.06115">
        <ele>205</ele>
        <time>2014-06-15T10:38:05.000Z</time>
      </trkpt>
      <trkpt lat="48.93187" lon="1.0611">
        <ele>204</ele>
        <time>2014-06-15T10:38:07.000Z</time>
      </trkpt>
      <trkpt lat="48.93182" lon="1.06107">
        <ele>203</ele>
        <time>2014-06-15T10:38:09.000Z</time>
      </trkpt>
      <trkpt lat="48.93176" lon="1.06102">
        <ele>203</ele>
        <time>2014-06-15T10:38:11.000Z</time>
      </trkpt>
      <trkpt lat="48.93171" lon="1.06096">
        <ele>202</ele>
        <time>2014-06-15T10:38:13.000Z</time>
      </trkpt>
      <trkpt lat="48.93163" lon="1.06085">
        <ele>201</ele>
        <time>2014-06-15T10:38:17.000Z</time>
      </trkpt>
      <trkpt lat="48.93156" lon="1.0608">
        <ele>200</ele>
        <time>2014-06-15T10:38:19.000Z</time>
      </trkpt>
      <trkpt lat="48.93147" lon="1.06075">
        <ele>190</ele>
        <time>2014-06-15T10:38:21.000Z</time>
      </trkpt>
      <trkpt lat="48.93136" lon="1.06067">
        <ele>184</ele>
        <time>2014-06-15T10:38:23.000Z</time>
      </trkpt>
      <trkpt lat="48.93121" lon="1.06057">
        <ele>180</ele>
        <time>2014-06-15T10:38:25.000Z</time>
      </trkpt>
      <trkpt lat="48.9311" lon="1.06048">
        <ele>177</ele>
        <time>2014-06-15T10:38:27.000Z</time>
      </trkpt>
      <trkpt lat="48.93098" lon="1.06039">
        <ele>174</ele>
        <time>2014-06-15T10:38:29.000Z</time>
      </trkpt>
      <trkpt lat="48.93089" lon="1.06031">
        <ele>173</ele>
        <time>2014-06-15T10:38:31.000Z</time>
      </trkpt>
      <trkpt lat="48.93082" lon="1.06025">
        <ele>173</ele>
        <time>2014-06-15T10:38:33.000Z</time>
      </trkpt>
      <trkpt lat="48.93075" lon="1.06019">
        <ele>173</ele>
        <time>2014-06-15T10:38:35.000Z</time>
      </trkpt>
      <trkpt lat="48.93069" lon="1.06014">
        <ele>173</ele>
        <time>2014-06-15T10:38:37.000Z</time>
      </trkpt>
      <trkpt lat="48.93063" lon="1.06009">
        <ele>173</ele>
        <time>2014-06-15T10:38:39.000Z</time>
      </trkpt>
      <trkpt lat="48.93058" lon="1.06003">
        <ele>173</ele>
        <time>2014-06-15T10:38:41.000Z</time>
      </trkpt>
      <trkpt lat="48.93052" lon="1.05997">
        <ele>172</ele>
        <time>2014-06-15T10:38:43.000Z</time>
      </trkpt>
      <trkpt lat="48.93045" lon="1.05989">
        <ele>172</ele>
        <time>2014-06-15T10:38:45.000Z</time>
      </trkpt>
      <trkpt lat="48.93037" lon="1.0598">
        <ele>172</ele>
        <time>2014-06-15T10:38:47.000Z</time>
      </trkpt>
      <trkpt lat="48.93031" lon="1.05973">
        <ele>172</ele>
        <time>2014-06-15T10:38:49.000Z</time>
      </trkpt>
      <trkpt lat="48.93025" lon="1.05966">
        <ele>172</ele>
        <time>2014-06-15T10:38:51.000Z</time>
      </trkpt>
      <trkpt lat="48.93018" lon="1.05959">
        <ele>171</ele>
        <time>2014-06-15T10:38:53.000Z</time>
      </trkpt>
      <trkpt lat="48.93012" lon="1.05955">
        <ele>171</ele>
        <time>2014-06-15T10:38:55.000Z</time>
      </trkpt>
      <trkpt lat="48.93007" lon="1.0595">
        <ele>171</ele>
        <time>2014-06-15T10:38:57.000Z</time>
      </trkpt>
      <trkpt lat="48.93" lon="1.05944">
        <ele>171</ele>
        <time>2014-06-15T10:38:59.000Z</time>
      </trkpt>
      <trkpt lat="48.92994" lon="1.0594">
        <ele>170</ele>
        <time>2014-06-15T10:39:01.000Z</time>
      </trkpt>
      <trkpt lat="48.92987" lon="1.05934">
        <ele>170</ele>
        <time>2014-06-15T10:39:03.000Z</time>
      </trkpt>
      <trkpt lat="48.92981" lon="1.05929">
        <ele>170</ele>
        <time>2014-06-15T10:39:05.000Z</time>
      </trkpt>
      <trkpt lat="48.92974" lon="1.05925">
        <ele>170</ele>
        <time>2014-06-15T10:39:07.000Z</time>
      </trkpt>
      <trkpt lat="48.92969" lon="1.05921">
        <ele>170</ele>
        <time>2014-06-15T10:39:09.000Z</time>
      </trkpt>
      <trkpt lat="48.92963" lon="1.05917">
        <ele>170</ele>
        <time>2014-06-15T10:39:11.000Z</time>
      </trkpt>
      <trkpt lat="48.92957" lon="1.05914">
        <ele>170</ele>
        <time>2014-06-15T10:39:13.000Z</time>
      </trkpt>
      <trkpt lat="48.92957" lon="1.05914">
        <ele>170</ele>
        <time>2014-06-15T10:39:15.000Z</time>
      </trkpt>
      <trkpt lat="48.92946" lon="1.0591">
        <ele>170</ele>
        <time>2014-06-15T10:39:17.000Z</time>
      </trkpt>
      <trkpt lat="48.9294" lon="1.05905">
        <ele>170</ele>
        <time>2014-06-15T10:39:19.000Z</time>
      </trkpt>
      <trkpt lat="48.92934" lon="1.05901">
        <ele>170</ele>
        <time>2014-06-15T10:39:21.000Z</time>
      </trkpt>
      <trkpt lat="48.92928" lon="1.05895">
        <ele>170</ele>
        <time>2014-06-15T10:39:23.000Z</time>
      </trkpt>
      <trkpt lat="48.92922" lon="1.05889">
        <ele>170</ele>
        <time>2014-06-15T10:39:25.000Z</time>
      </trkpt>
      <trkpt lat="48.92916" lon="1.05881">
        <ele>170</ele>
        <time>2014-06-15T10:39:27.000Z</time>
      </trkpt>
      <trkpt lat="48.9291" lon="1.05873">
        <ele>169</ele>
        <time>2014-06-15T10:39:29.000Z</time>
      </trkpt>
      <trkpt lat="48.92903" lon="1.05866">
        <ele>167</ele>
        <time>2014-06-15T10:39:31.000Z</time>
      </trkpt>
      <trkpt lat="48.92897" lon="1.0586">
        <ele>166</ele>
        <time>2014-06-15T10:39:33.000Z</time>
      </trkpt>
      <trkpt lat="48.92891" lon="1.05854">
        <ele>166</ele>
        <time>2014-06-15T10:39:35.000Z</time>
      </trkpt>
      <trkpt lat="48.92884" lon="1.05845">
        <ele>166</ele>
        <time>2014-06-15T10:39:37.000Z</time>
      </trkpt>
      <trkpt lat="48.92876" lon="1.05837">
        <ele>166</ele>
        <time>2014-06-15T10:39:39.000Z</time>
      </trkpt>
      <trkpt lat="48.92869" lon="1.05829">
        <ele>167</ele>
        <time>2014-06-15T10:39:41.000Z</time>
      </trkpt>
      <trkpt lat="48.92862" lon="1.05822">
        <ele>167</ele>
        <time>2014-06-15T10:39:43.000Z</time>
      </trkpt>
      <trkpt lat="48.92854" lon="1.05814">
        <ele>168</ele>
        <time>2014-06-15T10:39:45.000Z</time>
      </trkpt>
      <trkpt lat="48.92847" lon="1.05802">
        <ele>168</ele>
        <time>2014-06-15T10:39:47.000Z</time>
      </trkpt>
      <trkpt lat="48.92844" lon="1.05789">
        <ele>168</ele>
        <time>2014-06-15T10:39:49.000Z</time>
      </trkpt>
      <trkpt lat="48.92846" lon="1.05772">
        <ele>168</ele>
        <time>2014-06-15T10:39:51.000Z</time>
      </trkpt>
      <trkpt lat="48.92847" lon="1.05754">
        <ele>167</ele>
        <time>2014-06-15T10:39:53.000Z</time>
      </trkpt>
      <trkpt lat="48.92848" lon="1.05733">
        <ele>167</ele>
        <time>2014-06-15T10:39:55.000Z</time>
      </trkpt>
      <trkpt lat="48.9285" lon="1.05712">
        <ele>167</ele>
        <time>2014-06-15T10:39:57.000Z</time>
      </trkpt>
      <trkpt lat="48.92852" lon="1.05691">
        <ele>168</ele>
        <time>2014-06-15T10:39:59.000Z</time>
      </trkpt>
      <trkpt lat="48.92854" lon="1.05668">
        <ele>168</ele>
        <time>2014-06-15T10:40:01.000Z</time>
      </trkpt>
      <trkpt lat="48.92856" lon="1.05646">
        <ele>169</ele>
        <time>2014-06-15T10:40:03.000Z</time>
      </trkpt>
      <trkpt lat="48.92858" lon="1.05625">
        <ele>168</ele>
        <time>2014-06-15T10:40:05.000Z</time>
      </trkpt>
      <trkpt lat="48.92859" lon="1.05606">
        <ele>168</ele>
        <time>2014-06-15T10:40:07.000Z</time>
      </trkpt>
      <trkpt lat="48.9286" lon="1.0559">
        <ele>169</ele>
        <time>2014-06-15T10:40:09.000Z</time>
      </trkpt>
      <trkpt lat="48.9286" lon="1.05578">
        <ele>169</ele>
        <time>2014-06-15T10:40:11.000Z</time>
      </trkpt>
      <trkpt lat="48.9286" lon="1.05569">
        <ele>169</ele>
        <time>2014-06-15T10:40:13.000Z</time>
      </trkpt>
      <trkpt lat="48.9286" lon="1.05569">
        <ele>169</ele>
        <time>2014-06-15T10:40:15.000Z</time>
      </trkpt>
      <trkpt lat="48.9286" lon="1.05569">
        <ele>169</ele>
        <time>2014-06-15T10:40:17.000Z</time>
      </trkpt>
      <trkpt lat="48.92849" lon="1.05563">
        <ele>169</ele>
        <time>2014-06-15T10:40:20.000Z</time>
      </trkpt>
      <trkpt lat="48.92834" lon="1.05567">
        <ele>169</ele>
        <time>2014-06-15T10:40:23.000Z</time>
      </trkpt>
      <trkpt lat="48.92819" lon="1.05569">
        <ele>170</ele>
        <time>2014-06-15T10:40:25.000Z</time>
      </trkpt>
      <trkpt lat="48.92787" lon="1.05575">
        <ele>170</ele>
        <time>2014-06-15T10:40:28.000Z</time>
      </trkpt>
      <trkpt lat="48.92764" lon="1.05579">
        <ele>169</ele>
        <time>2014-06-15T10:40:32.000Z</time>
      </trkpt>
      <trkpt lat="48.92755" lon="1.05578">
        <ele>169</ele>
        <time>2014-06-15T10:40:34.000Z</time>
      </trkpt>
      <trkpt lat="48.92744" lon="1.05578">
        <ele>168</ele>
        <time>2014-06-15T10:40:36.000Z</time>
      </trkpt>
      <trkpt lat="48.92734" lon="1.05578">
        <ele>168</ele>
        <time>2014-06-15T10:40:38.000Z</time>
      </trkpt>
      <trkpt lat="48.92723" lon="1.05578">
        <ele>168</ele>
        <time>2014-06-15T10:40:40.000Z</time>
      </trkpt>
      <trkpt lat="48.92711" lon="1.05577">
        <ele>167</ele>
        <time>2014-06-15T10:40:42.000Z</time>
      </trkpt>
      <trkpt lat="48.92699" lon="1.05577">
        <ele>165</ele>
        <time>2014-06-15T10:40:44.000Z</time>
      </trkpt>
      <trkpt lat="48.92688" lon="1.05577">
        <ele>165</ele>
        <time>2014-06-15T10:40:46.000Z</time>
      </trkpt>
      <trkpt lat="48.92679" lon="1.05579">
        <ele>164</ele>
        <time>2014-06-15T10:40:48.000Z</time>
      </trkpt>
      <trkpt lat="48.92669" lon="1.05579">
        <ele>164</ele>
        <time>2014-06-15T10:40:50.000Z</time>
      </trkpt>
      <trkpt lat="48.92657" lon="1.05584">
        <ele>164</ele>
        <time>2014-06-15T10:40:52.000Z</time>
      </trkpt>
      <trkpt lat="48.92649" lon="1.05591">
        <ele>161</ele>
        <time>2014-06-15T10:40:54.000Z</time>
      </trkpt>
      <trkpt lat="48.92642" lon="1.05602">
        <ele>159</ele>
        <time>2014-06-15T10:40:56.000Z</time>
      </trkpt>
      <trkpt lat="48.92636" lon="1.05614">
        <ele>157</ele>
        <time>2014-06-15T10:40:58.000Z</time>
      </trkpt>
      <trkpt lat="48.92632" lon="1.05626">
        <ele>155</ele>
        <time>2014-06-15T10:41:00.000Z</time>
      </trkpt>
      <trkpt lat="48.92627" lon="1.05638">
        <ele>154</ele>
        <time>2014-06-15T10:41:02.000Z</time>
      </trkpt>
      <trkpt lat="48.92624" lon="1.0565">
        <ele>154</ele>
        <time>2014-06-15T10:41:04.000Z</time>
      </trkpt>
      <trkpt lat="48.9262" lon="1.05667">
        <ele>155</ele>
        <time>2014-06-15T10:41:11.000Z</time>
      </trkpt>
      <trkpt lat="48.92617" lon="1.05678">
        <ele>158</ele>
        <time>2014-06-15T10:41:15.000Z</time>
      </trkpt>
      <trkpt lat="48.92614" lon="1.05691">
        <ele>160</ele>
        <time>2014-06-15T10:41:18.000Z</time>
      </trkpt>
      <trkpt lat="48.92611" lon="1.05705">
        <ele>162</ele>
        <time>2014-06-15T10:41:18.000Z</time>
      </trkpt>
      <trkpt lat="48.92609" lon="1.05718">
        <ele>163</ele>
        <time>2014-06-15T10:41:19.000Z</time>
      </trkpt>
      <trkpt lat="48.92607" lon="1.05732">
        <ele>163</ele>
        <time>2014-06-15T10:41:19.000Z</time>
      </trkpt>
      <trkpt lat="48.92605" lon="1.05746">
        <ele>164</ele>
        <time>2014-06-15T10:41:20.000Z</time>
      </trkpt>
      <trkpt lat="48.92604" lon="1.0576">
        <ele>163</ele>
        <time>2014-06-15T10:41:20.000Z</time>
      </trkpt>
      <trkpt lat="48.92603" lon="1.05773">
        <ele>164</ele>
        <time>2014-06-15T10:41:22.000Z</time>
      </trkpt>
      <trkpt lat="48.92601" lon="1.05787">
        <ele>165</ele>
        <time>2014-06-15T10:41:24.000Z</time>
      </trkpt>
      <trkpt lat="48.92599" lon="1.05801">
        <ele>164</ele>
        <time>2014-06-15T10:41:27.000Z</time>
      </trkpt>
      <trkpt lat="48.92598" lon="1.05815">
        <ele>164</ele>
        <time>2014-06-15T10:41:28.000Z</time>
      </trkpt>
      <trkpt lat="48.92596" lon="1.05829">
        <ele>164</ele>
        <time>2014-06-15T10:41:30.000Z</time>
      </trkpt>
      <trkpt lat="48.92594" lon="1.05842">
        <ele>164</ele>
        <time>2014-06-15T10:41:32.000Z</time>
      </trkpt>
      <trkpt lat="48.92592" lon="1.05854">
        <ele>164</ele>
        <time>2014-06-15T10:41:34.000Z</time>
      </trkpt>
      <trkpt lat="48.92589" lon="1.05863">
        <ele>164</ele>
        <time>2014-06-15T10:41:36.000Z</time>
      </trkpt>
      <trkpt lat="48.92582" lon="1.0587">
        <ele>164</ele>
        <time>2014-06-15T10:41:38.000Z</time>
      </trkpt>
      <trkpt lat="48.92575" lon="1.05878">
        <ele>165</ele>
        <time>2014-06-15T10:41:40.000Z</time>
      </trkpt>
      <trkpt lat="48.9257" lon="1.05887">
        <ele>166</ele>
        <time>2014-06-15T10:41:42.000Z</time>
      </trkpt>
      <trkpt lat="48.92567" lon="1.05899">
        <ele>165</ele>
        <time>2014-06-15T10:41:44.000Z</time>
      </trkpt>
      <trkpt lat="48.92563" lon="1.05911">
        <ele>165</ele>
        <time>2014-06-15T10:41:46.000Z</time>
      </trkpt>
      <trkpt lat="48.9256" lon="1.05923">
        <ele>165</ele>
        <time>2014-06-15T10:41:48.000Z</time>
      </trkpt>
      <trkpt lat="48.92558" lon="1.05935">
        <ele>165</ele>
        <time>2014-06-15T10:41:50.000Z</time>
      </trkpt>
      <trkpt lat="48.92554" lon="1.05947">
        <ele>165</ele>
        <time>2014-06-15T10:41:52.000Z</time>
      </trkpt>
      <trkpt lat="48.92551" lon="1.05961">
        <ele>165</ele>
        <time>2014-06-15T10:41:54.000Z</time>
      </trkpt>
      <trkpt lat="48.92549" lon="1.05973">
        <ele>164</ele>
        <time>2014-06-15T10:41:56.000Z</time>
      </trkpt>
      <trkpt lat="48.92546" lon="1.05986">
        <ele>164</ele>
        <time>2014-06-15T10:41:58.000Z</time>
      </trkpt>
      <trkpt lat="48.92543" lon="1.05998">
        <ele>165</ele>
        <time>2014-06-15T10:42:00.000Z</time>
      </trkpt>
      <trkpt lat="48.9254" lon="1.06011">
        <ele>164</ele>
        <time>2014-06-15T10:42:02.000Z</time>
      </trkpt>
      <trkpt lat="48.92537" lon="1.06023">
        <ele>164</ele>
        <time>2014-06-15T10:42:04.000Z</time>
      </trkpt>
      <trkpt lat="48.92533" lon="1.06036">
        <ele>164</ele>
        <time>2014-06-15T10:42:06.000Z</time>
      </trkpt>
      <trkpt lat="48.92531" lon="1.06048">
        <ele>163</ele>
        <time>2014-06-15T10:42:08.000Z</time>
      </trkpt>
      <trkpt lat="48.92528" lon="1.0606">
        <ele>163</ele>
        <time>2014-06-15T10:42:10.000Z</time>
      </trkpt>
      <trkpt lat="48.92525" lon="1.06073">
        <ele>163</ele>
        <time>2014-06-15T10:42:12.000Z</time>
      </trkpt>
      <trkpt lat="48.92522" lon="1.06086">
        <ele>163</ele>
        <time>2014-06-15T10:42:14.000Z</time>
      </trkpt>
      <trkpt lat="48.9252" lon="1.06099">
        <ele>163</ele>
        <time>2014-06-15T10:42:16.000Z</time>
      </trkpt>
      <trkpt lat="48.92517" lon="1.06113">
        <ele>163</ele>
        <time>2014-06-15T10:42:18.000Z</time>
      </trkpt>
      <trkpt lat="48.92514" lon="1.06126">
        <ele>163</ele>
        <time>2014-06-15T10:42:20.000Z</time>
      </trkpt>
      <trkpt lat="48.92511" lon="1.06139">
        <ele>164</ele>
        <time>2014-06-15T10:42:22.000Z</time>
      </trkpt>
      <trkpt lat="48.92507" lon="1.06151">
        <ele>164</ele>
        <time>2014-06-15T10:42:26.000Z</time>
      </trkpt>
      <trkpt lat="48.92504" lon="1.06164">
        <ele>164</ele>
        <time>2014-06-15T10:42:26.000Z</time>
      </trkpt>
      <trkpt lat="48.92501" lon="1.06176">
        <ele>165</ele>
        <time>2014-06-15T10:42:28.000Z</time>
      </trkpt>
      <trkpt lat="48.92498" lon="1.06188">
        <ele>165</ele>
        <time>2014-06-15T10:42:30.000Z</time>
      </trkpt>
      <trkpt lat="48.92495" lon="1.062">
        <ele>165</ele>
        <time>2014-06-15T10:42:32.000Z</time>
      </trkpt>
      <trkpt lat="48.92492" lon="1.0621">
        <ele>166</ele>
        <time>2014-06-15T10:42:34.000Z</time>
      </trkpt>
      <trkpt lat="48.92489" lon="1.06221">
        <ele>167</ele>
        <time>2014-06-15T10:42:36.000Z</time>
      </trkpt>
      <trkpt lat="48.92485" lon="1.06231">
        <ele>167</ele>
        <time>2014-06-15T10:42:38.000Z</time>
      </trkpt>
      <trkpt lat="48.92482" lon="1.0624">
        <ele>168</ele>
        <time>2014-06-15T10:42:40.000Z</time>
      </trkpt>
      <trkpt lat="48.92479" lon="1.06251">
        <ele>168</ele>
        <time>2014-06-15T10:42:42.000Z</time>
      </trkpt>
      <trkpt lat="48.92475" lon="1.06262">
        <ele>169</ele>
        <time>2014-06-15T10:42:44.000Z</time>
      </trkpt>
      <trkpt lat="48.92471" lon="1.06275">
        <ele>169</ele>
        <time>2014-06-15T10:42:46.000Z</time>
      </trkpt>
      <trkpt lat="48.92467" lon="1.06286">
        <ele>169</ele>
        <time>2014-06-15T10:42:48.000Z</time>
      </trkpt>
      <trkpt lat="48.92464" lon="1.06297">
        <ele>168</ele>
        <time>2014-06-15T10:42:50.000Z</time>
      </trkpt>
      <trkpt lat="48.92461" lon="1.06308">
        <ele>168</ele>
        <time>2014-06-15T10:42:52.000Z</time>
      </trkpt>
      <trkpt lat="48.92459" lon="1.06319">
        <ele>168</ele>
        <time>2014-06-15T10:42:54.000Z</time>
      </trkpt>
      <trkpt lat="48.92457" lon="1.06332">
        <ele>168</ele>
        <time>2014-06-15T10:42:56.000Z</time>
      </trkpt>
      <trkpt lat="48.92456" lon="1.06342">
        <ele>168</ele>
        <time>2014-06-15T10:42:58.000Z</time>
      </trkpt>
      <trkpt lat="48.92456" lon="1.06342">
        <ele>168</ele>
        <time>2014-06-15T10:43:00.000Z</time>
      </trkpt>
      <trkpt lat="48.92454" lon="1.06358">
        <ele>168</ele>
        <time>2014-06-15T10:43:02.000Z</time>
      </trkpt>
      <trkpt lat="48.92453" lon="1.06367">
        <ele>168</ele>
        <time>2014-06-15T10:43:04.000Z</time>
      </trkpt>
      <trkpt lat="48.92453" lon="1.06378">
        <ele>169</ele>
        <time>2014-06-15T10:43:06.000Z</time>
      </trkpt>
      <trkpt lat="48.92453" lon="1.06391">
        <ele>169</ele>
        <time>2014-06-15T10:43:08.000Z</time>
      </trkpt>
      <trkpt lat="48.92453" lon="1.06403">
        <ele>169</ele>
        <time>2014-06-15T10:43:10.000Z</time>
      </trkpt>
      <trkpt lat="48.92453" lon="1.06414">
        <ele>169</ele>
        <time>2014-06-15T10:43:12.000Z</time>
      </trkpt>
      <trkpt lat="48.92453" lon="1.06423">
        <ele>169</ele>
        <time>2014-06-15T10:43:14.000Z</time>
      </trkpt>
      <trkpt lat="48.92453" lon="1.06423">
        <ele>169</ele>
        <time>2014-06-15T10:43:16.000Z</time>
      </trkpt>
      <trkpt lat="48.92443" lon="1.06421">
        <ele>170</ele>
        <time>2014-06-15T10:43:18.000Z</time>
      </trkpt>
      <trkpt lat="48.92435" lon="1.0641">
        <ele>171</ele>
        <time>2014-06-15T10:43:20.000Z</time>
      </trkpt>
      <trkpt lat="48.92427" lon="1.064">
        <ele>171</ele>
        <time>2014-06-15T10:43:22.000Z</time>
      </trkpt>
      <trkpt lat="48.9242" lon="1.06391">
        <ele>171</ele>
        <time>2014-06-15T10:43:24.000Z</time>
      </trkpt>
      <trkpt lat="48.92413" lon="1.06383">
        <ele>171</ele>
        <time>2014-06-15T10:43:26.000Z</time>
      </trkpt>
      <trkpt lat="48.92408" lon="1.06376">
        <ele>170</ele>
        <time>2014-06-15T10:43:28.000Z</time>
      </trkpt>
      <trkpt lat="48.92402" lon="1.06367">
        <ele>169</ele>
        <time>2014-06-15T10:43:30.000Z</time>
      </trkpt>
      <trkpt lat="48.92396" lon="1.06358">
        <ele>167</ele>
        <time>2014-06-15T10:43:32.000Z</time>
      </trkpt>
      <trkpt lat="48.92389" lon="1.06348">
        <ele>167</ele>
        <time>2014-06-15T10:43:34.000Z</time>
      </trkpt>
      <trkpt lat="48.92382" lon="1.0634">
        <ele>167</ele>
        <time>2014-06-15T10:43:36.000Z</time>
      </trkpt>
      <trkpt lat="48.92377" lon="1.06334">
        <ele>167</ele>
        <time>2014-06-15T10:43:38.000Z</time>
      </trkpt>
      <trkpt lat="48.92372" lon="1.06328">
        <ele>167</ele>
        <time>2014-06-15T10:43:40.000Z</time>
      </trkpt>
      <trkpt lat="48.92367" lon="1.06322">
        <ele>167</ele>
        <time>2014-06-15T10:43:42.000Z</time>
      </trkpt>
      <trkpt lat="48.92362" lon="1.06315">
        <ele>167</ele>
        <time>2014-06-15T10:43:44.000Z</time>
      </trkpt>
      <trkpt lat="48.92362" lon="1.06315">
        <ele>167</ele>
        <time>2014-06-15T10:43:46.000Z</time>
      </trkpt>
      <trkpt lat="48.92353" lon="1.06302">
        <ele>168</ele>
        <time>2014-06-15T10:43:48.000Z</time>
      </trkpt>
      <trkpt lat="48.92349" lon="1.06294">
        <ele>168</ele>
        <time>2014-06-15T10:43:50.000Z</time>
      </trkpt>
      <trkpt lat="48.92347" lon="1.06284">
        <ele>168</ele>
        <time>2014-06-15T10:43:52.000Z</time>
      </trkpt>
      <trkpt lat="48.92345" lon="1.06275">
        <ele>168</ele>
        <time>2014-06-15T10:43:54.000Z</time>
      </trkpt>
      <trkpt lat="48.92342" lon="1.06265">
        <ele>168</ele>
        <time>2014-06-15T10:43:56.000Z</time>
      </trkpt>
      <trkpt lat="48.9234" lon="1.06255">
        <ele>169</ele>
        <time>2014-06-15T10:43:58.000Z</time>
      </trkpt>
      <trkpt lat="48.9234" lon="1.06255">
        <ele>169</ele>
        <time>2014-06-15T10:44:00.000Z</time>
      </trkpt>
      <trkpt lat="48.92336" lon="1.06237">
        <ele>169</ele>
        <time>2014-06-15T10:44:02.000Z</time>
      </trkpt>
      <trkpt lat="48.92334" lon="1.06228">
        <ele>170</ele>
        <time>2014-06-15T10:44:04.000Z</time>
      </trkpt>
      <trkpt lat="48.92332" lon="1.06219">
        <ele>170</ele>
        <time>2014-06-15T10:44:06.000Z</time>
      </trkpt>
      <trkpt lat="48.9233" lon="1.06211">
        <ele>170</ele>
        <time>2014-06-15T10:44:08.000Z</time>
      </trkpt>
      <trkpt lat="48.9233" lon="1.06211">
        <ele>170</ele>
        <time>2014-06-15T10:44:10.000Z</time>
      </trkpt>
      <trkpt lat="48.92325" lon="1.06195">
        <ele>171</ele>
        <time>2014-06-15T10:44:12.000Z</time>
      </trkpt>
      <trkpt lat="48.92325" lon="1.06195">
        <ele>171</ele>
        <time>2014-06-15T10:44:14.000Z</time>
      </trkpt>
      <trkpt lat="48.92319" lon="1.06181">
        <ele>172</ele>
        <time>2014-06-15T10:44:16.000Z</time>
      </trkpt>
      <trkpt lat="48.92316" lon="1.06173">
        <ele>172</ele>
        <time>2014-06-15T10:44:18.000Z</time>
      </trkpt>
      <trkpt lat="48.92316" lon="1.06173">
        <ele>172</ele>
        <time>2014-06-15T10:44:20.000Z</time>
      </trkpt>
      <trkpt lat="48.92311" lon="1.06159">
        <ele>173</ele>
        <time>2014-06-15T10:44:22.000Z</time>
      </trkpt>
      <trkpt lat="48.92309" lon="1.06151">
        <ele>173</ele>
        <time>2014-06-15T10:44:24.000Z</time>
      </trkpt>
      <trkpt lat="48.92304" lon="1.06137">
        <ele>174</ele>
        <time>2014-06-15T10:44:28.000Z</time>
      </trkpt>
      <trkpt lat="48.92304" lon="1.06137">
        <ele>174</ele>
        <time>2014-06-15T10:44:30.000Z</time>
      </trkpt>
      <trkpt lat="48.92299" lon="1.06122">
        <ele>175</ele>
        <time>2014-06-15T10:44:32.000Z</time>
      </trkpt>
      <trkpt lat="48.92297" lon="1.06113">
        <ele>175</ele>
        <time>2014-06-15T10:44:34.000Z</time>
      </trkpt>
      <trkpt lat="48.92296" lon="1.06105">
        <ele>175</ele>
        <time>2014-06-15T10:44:36.000Z</time>
      </trkpt>
      <trkpt lat="48.92295" lon="1.06095">
        <ele>175</ele>
        <time>2014-06-15T10:44:38.000Z</time>
      </trkpt>
      <trkpt lat="48.92294" lon="1.06085">
        <ele>176</ele>
        <time>2014-06-15T10:44:40.000Z</time>
      </trkpt>
      <trkpt lat="48.92293" lon="1.06076">
        <ele>176</ele>
        <time>2014-06-15T10:44:42.000Z</time>
      </trkpt>
      <trkpt lat="48.92293" lon="1.06076">
        <ele>176</ele>
        <time>2014-06-15T10:44:44.000Z</time>
      </trkpt>
      <trkpt lat="48.92292" lon="1.06067">
        <ele>176</ele>
        <time>2014-06-15T10:44:46.000Z</time>
      </trkpt>
      <trkpt lat="48.92291" lon="1.06058">
        <ele>176</ele>
        <time>2014-06-15T10:44:48.000Z</time>
      </trkpt>
      <trkpt lat="48.9229" lon="1.06049">
        <ele>177</ele>
        <time>2014-06-15T10:44:50.000Z</time>
      </trkpt>
      <trkpt lat="48.92289" lon="1.06039">
        <ele>177</ele>
        <time>2014-06-15T10:44:52.000Z</time>
      </trkpt>
      <trkpt lat="48.92288" lon="1.0603">
        <ele>177</ele>
        <time>2014-06-15T10:44:54.000Z</time>
      </trkpt>
      <trkpt lat="48.92285" lon="1.06011">
        <ele>178</ele>
        <time>2014-06-15T10:44:56.000Z</time>
      </trkpt>
      <trkpt lat="48.92285" lon="1.06011">
        <ele>178</ele>
        <time>2014-06-15T10:44:58.000Z</time>
      </trkpt>
      <trkpt lat="48.92283" lon="1.05995">
        <ele>178</ele>
        <time>2014-06-15T10:45:00.000Z</time>
      </trkpt>
      <trkpt lat="48.92283" lon="1.05995">
        <ele>178</ele>
        <time>2014-06-15T10:45:02.000Z</time>
      </trkpt>
      <trkpt lat="48.92281" lon="1.05979">
        <ele>179</ele>
        <time>2014-06-15T10:45:04.000Z</time>
      </trkpt>
      <trkpt lat="48.92281" lon="1.05979">
        <ele>179</ele>
        <time>2014-06-15T10:45:06.000Z</time>
      </trkpt>
      <trkpt lat="48.9228" lon="1.05964">
        <ele>180</ele>
        <time>2014-06-15T10:45:08.000Z</time>
      </trkpt>
      <trkpt lat="48.9228" lon="1.05964">
        <ele>180</ele>
        <time>2014-06-15T10:45:10.000Z</time>
      </trkpt>
      <trkpt lat="48.92279" lon="1.0595">
        <ele>180</ele>
        <time>2014-06-15T10:45:12.000Z</time>
      </trkpt>
      <trkpt lat="48.92279" lon="1.0595">
        <ele>180</ele>
        <time>2014-06-15T10:45:14.000Z</time>
      </trkpt>
      <trkpt lat="48.92276" lon="1.05936">
        <ele>181</ele>
        <time>2014-06-15T10:45:16.000Z</time>
      </trkpt>
      <trkpt lat="48.92276" lon="1.05936">
        <ele>181</ele>
        <time>2014-06-15T10:45:18.000Z</time>
      </trkpt>
      <trkpt lat="48.92274" lon="1.05921">
        <ele>181</ele>
        <time>2014-06-15T10:45:20.000Z</time>
      </trkpt>
      <trkpt lat="48.92274" lon="1.05921">
        <ele>181</ele>
        <time>2014-06-15T10:45:22.000Z</time>
      </trkpt>
      <trkpt lat="48.92273" lon="1.05907">
        <ele>182</ele>
        <time>2014-06-15T10:45:24.000Z</time>
      </trkpt>
      <trkpt lat="48.92273" lon="1.05907">
        <ele>182</ele>
        <time>2014-06-15T10:45:26.000Z</time>
      </trkpt>
      <trkpt lat="48.92272" lon="1.05893">
        <ele>182</ele>
        <time>2014-06-15T10:45:28.000Z</time>
      </trkpt>
      <trkpt lat="48.92272" lon="1.05893">
        <ele>182</ele>
        <time>2014-06-15T10:45:30.000Z</time>
      </trkpt>
      <trkpt lat="48.9227" lon="1.05878">
        <ele>183</ele>
        <time>2014-06-15T10:45:32.000Z</time>
      </trkpt>
      <trkpt lat="48.92269" lon="1.05864">
        <ele>183</ele>
        <time>2014-06-15T10:45:36.000Z</time>
      </trkpt>
      <trkpt lat="48.92268" lon="1.0585">
        <ele>183</ele>
        <time>2014-06-15T10:45:40.000Z</time>
      </trkpt>
      <trkpt lat="48.92268" lon="1.0585">
        <ele>183</ele>
        <time>2014-06-15T10:45:42.000Z</time>
      </trkpt>
      <trkpt lat="48.92266" lon="1.05837">
        <ele>184</ele>
        <time>2014-06-15T10:45:44.000Z</time>
      </trkpt>
      <trkpt lat="48.92266" lon="1.05837">
        <ele>184</ele>
        <time>2014-06-15T10:45:46.000Z</time>
      </trkpt>
      <trkpt lat="48.92264" lon="1.05823">
        <ele>183</ele>
        <time>2014-06-15T10:45:48.000Z</time>
      </trkpt>
      <trkpt lat="48.92264" lon="1.05823">
        <ele>183</ele>
        <time>2014-06-15T10:45:50.000Z</time>
      </trkpt>
      <trkpt lat="48.92263" lon="1.05814">
        <ele>183</ele>
        <time>2014-06-15T10:45:52.000Z</time>
      </trkpt>
      <trkpt lat="48.92263" lon="1.05814">
        <ele>183</ele>
        <time>2014-06-15T10:45:54.000Z</time>
      </trkpt>
      <trkpt lat="48.92263" lon="1.05814">
        <ele>183</ele>
        <time>2014-06-15T10:45:56.000Z</time>
      </trkpt>
      <trkpt lat="48.92259" lon="1.05805">
        <ele>183</ele>
        <time>2014-06-15T10:45:58.000Z</time>
      </trkpt>
      <trkpt lat="48.92259" lon="1.05805">
        <ele>183</ele>
        <time>2014-06-15T10:46:00.000Z</time>
      </trkpt>
      <trkpt lat="48.92255" lon="1.05797">
        <ele>183</ele>
        <time>2014-06-15T10:46:02.000Z</time>
      </trkpt>
      <trkpt lat="48.92255" lon="1.05797">
        <ele>183</ele>
        <time>2014-06-15T10:46:04.000Z</time>
      </trkpt>
      <trkpt lat="48.9225" lon="1.05786">
        <ele>184</ele>
        <time>2014-06-15T10:46:06.000Z</time>
      </trkpt>
      <trkpt lat="48.9225" lon="1.05786">
        <ele>184</ele>
        <time>2014-06-15T10:46:08.000Z</time>
      </trkpt>
      <trkpt lat="48.92246" lon="1.05778">
        <ele>185</ele>
        <time>2014-06-15T10:46:10.000Z</time>
      </trkpt>
      <trkpt lat="48.92246" lon="1.05778">
        <ele>185</ele>
        <time>2014-06-15T10:46:12.000Z</time>
      </trkpt>
      <trkpt lat="48.9224" lon="1.05773">
        <ele>186</ele>
        <time>2014-06-15T10:46:14.000Z</time>
      </trkpt>
      <trkpt lat="48.9224" lon="1.05773">
        <ele>186</ele>
        <time>2014-06-15T10:46:16.000Z</time>
      </trkpt>
      <trkpt lat="48.92237" lon="1.05765">
        <ele>187</ele>
        <time>2014-06-15T10:46:18.000Z</time>
      </trkpt>
      <trkpt lat="48.92237" lon="1.05765">
        <ele>187</ele>
        <time>2014-06-15T10:46:20.000Z</time>
      </trkpt>
      <trkpt lat="48.92236" lon="1.05752">
        <ele>188</ele>
        <time>2014-06-15T10:46:22.000Z</time>
      </trkpt>
      <trkpt lat="48.92232" lon="1.05742">
        <ele>189</ele>
        <time>2014-06-15T10:46:26.000Z</time>
      </trkpt>
      <trkpt lat="48.92232" lon="1.05742">
        <ele>189</ele>
        <time>2014-06-15T10:46:28.000Z</time>
      </trkpt>
      <trkpt lat="48.92226" lon="1.05737">
        <ele>190</ele>
        <time>2014-06-15T10:46:30.000Z</time>
      </trkpt>
      <trkpt lat="48.92226" lon="1.05737">
        <ele>190</ele>
        <time>2014-06-15T10:46:32.000Z</time>
      </trkpt>
      <trkpt lat="48.92219" lon="1.05727">
        <ele>191</ele>
        <time>2014-06-15T10:46:34.000Z</time>
      </trkpt>
      <trkpt lat="48.9221" lon="1.05717">
        <ele>192</ele>
        <time>2014-06-15T10:46:38.000Z</time>
      </trkpt>
      <trkpt lat="48.9221" lon="1.05717">
        <ele>192</ele>
        <time>2014-06-15T10:46:40.000Z</time>
      </trkpt>
      <trkpt lat="48.922" lon="1.05705">
        <ele>192</ele>
        <time>2014-06-15T10:46:42.000Z</time>
      </trkpt>
      <trkpt lat="48.92195" lon="1.05699">
        <ele>193</ele>
        <time>2014-06-15T10:46:44.000Z</time>
      </trkpt>
      <trkpt lat="48.92189" lon="1.05693">
        <ele>193</ele>
        <time>2014-06-15T10:46:46.000Z</time>
      </trkpt>
      <trkpt lat="48.92181" lon="1.05684">
        <ele>193</ele>
        <time>2014-06-15T10:46:48.000Z</time>
      </trkpt>
      <trkpt lat="48.92173" lon="1.05674">
        <ele>193</ele>
        <time>2014-06-15T10:46:50.000Z</time>
      </trkpt>
      <trkpt lat="48.92154" lon="1.05646">
        <ele>194</ele>
        <time>2014-06-15T10:46:53.000Z</time>
      </trkpt>
      <trkpt lat="48.92143" lon="1.05626">
        <ele>195</ele>
        <time>2014-06-15T10:46:57.000Z</time>
      </trkpt>
      <trkpt lat="48.92138" lon="1.0562">
        <ele>195</ele>
        <time>2014-06-15T10:46:59.000Z</time>
      </trkpt>
      <trkpt lat="48.92131" lon="1.05615">
        <ele>196</ele>
        <time>2014-06-15T10:47:01.000Z</time>
      </trkpt>
      <trkpt lat="48.92124" lon="1.05608">
        <ele>196</ele>
        <time>2014-06-15T10:47:03.000Z</time>
      </trkpt>
      <trkpt lat="48.92117" lon="1.05599">
        <ele>197</ele>
        <time>2014-06-15T10:47:05.000Z</time>
      </trkpt>
      <trkpt lat="48.9211" lon="1.05593">
        <ele>198</ele>
        <time>2014-06-15T10:47:07.000Z</time>
      </trkpt>
      <trkpt lat="48.92105" lon="1.0559">
        <ele>198</ele>
        <time>2014-06-15T10:47:09.000Z</time>
      </trkpt>
      <trkpt lat="48.92105" lon="1.0559">
        <ele>198</ele>
        <time>2014-06-15T10:47:11.000Z</time>
      </trkpt>
      <trkpt lat="48.92099" lon="1.05579">
        <ele>199</ele>
        <time>2014-06-15T10:47:13.000Z</time>
      </trkpt>
      <trkpt lat="48.92099" lon="1.05579">
        <ele>199</ele>
        <time>2014-06-15T10:47:15.000Z</time>
      </trkpt>
      <trkpt lat="48.92094" lon="1.05573">
        <ele>200</ele>
        <time>2014-06-15T10:47:17.000Z</time>
      </trkpt>
      <trkpt lat="48.92094" lon="1.05573">
        <ele>200</ele>
        <time>2014-06-15T10:47:27.000Z</time>
      </trkpt>
      <trkpt lat="48.92094" lon="1.05573">
        <ele>200</ele>
        <time>2014-06-15T10:47:29.000Z</time>
      </trkpt>
      <trkpt lat="48.92094" lon="1.05573">
        <ele>200</ele>
        <time>2014-06-15T10:47:32.000Z</time>
      </trkpt>
      <trkpt lat="48.92094" lon="1.05573">
        <ele>200</ele>
        <time>2014-06-15T10:47:34.000Z</time>
      </trkpt>
      <trkpt lat="48.92094" lon="1.05568">
        <ele>201</ele>
        <time>2014-06-15T10:47:36.000Z</time>
      </trkpt>
      <trkpt lat="48.92094" lon="1.05562">
        <ele>200</ele>
        <time>2014-06-15T10:47:44.000Z</time>
      </trkpt>
      <trkpt lat="48.92094" lon="1.05562">
        <ele>200</ele>
        <time>2014-06-15T10:47:50.000Z</time>
      </trkpt>
      <trkpt lat="48.92093" lon="1.05557">
        <ele>199</ele>
        <time>2014-06-15T10:48:22.000Z</time>
      </trkpt>
      <trkpt lat="48.92091" lon="1.0555">
        <ele>199</ele>
        <time>2014-06-15T10:48:24.000Z</time>
      </trkpt>
      <trkpt lat="48.92089" lon="1.05543">
        <ele>199</ele>
        <time>2014-06-15T10:48:26.000Z</time>
      </trkpt>
      <trkpt lat="48.92086" lon="1.05537">
        <ele>200</ele>
        <time>2014-06-15T10:48:28.000Z</time>
      </trkpt>
      <trkpt lat="48.92081" lon="1.0553">
        <ele>200</ele>
        <time>2014-06-15T10:48:30.000Z</time>
      </trkpt>
      <trkpt lat="48.92073" lon="1.05514">
        <ele>200</ele>
        <time>2014-06-15T10:48:32.000Z</time>
      </trkpt>
      <trkpt lat="48.9207" lon="1.05506">
        <ele>201</ele>
        <time>2014-06-15T10:48:34.000Z</time>
      </trkpt>
      <trkpt lat="48.92064" lon="1.05496">
        <ele>201</ele>
        <time>2014-06-15T10:48:36.000Z</time>
      </trkpt>
      <trkpt lat="48.92058" lon="1.05488">
        <ele>201</ele>
        <time>2014-06-15T10:48:38.000Z</time>
      </trkpt>
      <trkpt lat="48.92052" lon="1.05479">
        <ele>201</ele>
        <time>2014-06-15T10:48:40.000Z</time>
      </trkpt>
      <trkpt lat="48.92046" lon="1.0547">
        <ele>202</ele>
        <time>2014-06-15T10:48:42.000Z</time>
      </trkpt>
      <trkpt lat="48.9204" lon="1.05459">
        <ele>202</ele>
        <time>2014-06-15T10:48:44.000Z</time>
      </trkpt>
      <trkpt lat="48.92033" lon="1.05449">
        <ele>205</ele>
        <time>2014-06-15T10:48:46.000Z</time>
      </trkpt>
      <trkpt lat="48.92026" lon="1.05437">
        <ele>205</ele>
        <time>2014-06-15T10:48:48.000Z</time>
      </trkpt>
      <trkpt lat="48.92021" lon="1.05426">
        <ele>205</ele>
        <time>2014-06-15T10:48:50.000Z</time>
      </trkpt>
      <trkpt lat="48.92014" lon="1.05417">
        <ele>205</ele>
        <time>2014-06-15T10:48:52.000Z</time>
      </trkpt>
      <trkpt lat="48.92006" lon="1.05408">
        <ele>206</ele>
        <time>2014-06-15T10:48:54.000Z</time>
      </trkpt>
      <trkpt lat="48.92003" lon="1.054">
        <ele>206</ele>
        <time>2014-06-15T10:48:56.000Z</time>
      </trkpt>
      <trkpt lat="48.92001" lon="1.05391">
        <ele>206</ele>
        <time>2014-06-15T10:48:58.000Z</time>
      </trkpt>
      <trkpt lat="48.91998" lon="1.05382">
        <ele>206</ele>
        <time>2014-06-15T10:49:00.000Z</time>
      </trkpt>
      <trkpt lat="48.91994" lon="1.05374">
        <ele>206</ele>
        <time>2014-06-15T10:49:02.000Z</time>
      </trkpt>
      <trkpt lat="48.9199" lon="1.05364">
        <ele>207</ele>
        <time>2014-06-15T10:49:04.000Z</time>
      </trkpt>
      <trkpt lat="48.91987" lon="1.05355">
        <ele>207</ele>
        <time>2014-06-15T10:49:06.000Z</time>
      </trkpt>
      <trkpt lat="48.91984" lon="1.05348">
        <ele>207</ele>
        <time>2014-06-15T10:49:08.000Z</time>
      </trkpt>
      <trkpt lat="48.9198" lon="1.05341">
        <ele>207</ele>
        <time>2014-06-15T10:49:10.000Z</time>
      </trkpt>
      <trkpt lat="48.91975" lon="1.05334">
        <ele>207</ele>
        <time>2014-06-15T10:49:12.000Z</time>
      </trkpt>
      <trkpt lat="48.91971" lon="1.05326">
        <ele>208</ele>
        <time>2014-06-15T10:49:14.000Z</time>
      </trkpt>
      <trkpt lat="48.91965" lon="1.05316">
        <ele>208</ele>
        <time>2014-06-15T10:49:16.000Z</time>
      </trkpt>
      <trkpt lat="48.9196" lon="1.05305">
        <ele>208</ele>
        <time>2014-06-15T10:49:18.000Z</time>
      </trkpt>
      <trkpt lat="48.91956" lon="1.05296">
        <ele>209</ele>
        <time>2014-06-15T10:49:20.000Z</time>
      </trkpt>
      <trkpt lat="48.91953" lon="1.05284">
        <ele>209</ele>
        <time>2014-06-15T10:49:22.000Z</time>
      </trkpt>
      <trkpt lat="48.91949" lon="1.05275">
        <ele>209</ele>
        <time>2014-06-15T10:49:24.000Z</time>
      </trkpt>
      <trkpt lat="48.91945" lon="1.05266">
        <ele>209</ele>
        <time>2014-06-15T10:49:26.000Z</time>
      </trkpt>
      <trkpt lat="48.9194" lon="1.05257">
        <ele>209</ele>
        <time>2014-06-15T10:49:28.000Z</time>
      </trkpt>
      <trkpt lat="48.91933" lon="1.05247">
        <ele>209</ele>
        <time>2014-06-15T10:49:30.000Z</time>
      </trkpt>
      <trkpt lat="48.91927" lon="1.05236">
        <ele>209</ele>
        <time>2014-06-15T10:49:32.000Z</time>
      </trkpt>
      <trkpt lat="48.91922" lon="1.05227">
        <ele>209</ele>
        <time>2014-06-15T10:49:34.000Z</time>
      </trkpt>
      <trkpt lat="48.91916" lon="1.05217">
        <ele>209</ele>
        <time>2014-06-15T10:49:36.000Z</time>
      </trkpt>
      <trkpt lat="48.9191" lon="1.05203">
        <ele>209</ele>
        <time>2014-06-15T10:49:38.000Z</time>
      </trkpt>
      <trkpt lat="48.91906" lon="1.0519">
        <ele>209</ele>
        <time>2014-06-15T10:49:40.000Z</time>
      </trkpt>
      <trkpt lat="48.91904" lon="1.05177">
        <ele>207</ele>
        <time>2014-06-15T10:49:42.000Z</time>
      </trkpt>
      <trkpt lat="48.91902" lon="1.05166">
        <ele>205</ele>
        <time>2014-06-15T10:49:44.000Z</time>
      </trkpt>
      <trkpt lat="48.91901" lon="1.05153">
        <ele>205</ele>
        <time>2014-06-15T10:49:46.000Z</time>
      </trkpt>
      <trkpt lat="48.91896" lon="1.05139">
        <ele>205</ele>
        <time>2014-06-15T10:49:48.000Z</time>
      </trkpt>
      <trkpt lat="48.9189" lon="1.05134">
        <ele>204</ele>
        <time>2014-06-15T10:49:50.000Z</time>
      </trkpt>
      <trkpt lat="48.91883" lon="1.0513">
        <ele>204</ele>
        <time>2014-06-15T10:49:52.000Z</time>
      </trkpt>
      <trkpt lat="48.91875" lon="1.05129">
        <ele>203</ele>
        <time>2014-06-15T10:49:54.000Z</time>
      </trkpt>
      <trkpt lat="48.91867" lon="1.05128">
        <ele>202</ele>
        <time>2014-06-15T10:49:56.000Z</time>
      </trkpt>
      <trkpt lat="48.9186" lon="1.05127">
        <ele>202</ele>
        <time>2014-06-15T10:49:58.000Z</time>
      </trkpt>
      <trkpt lat="48.91853" lon="1.05126">
        <ele>201</ele>
        <time>2014-06-15T10:50:00.000Z</time>
      </trkpt>
      <trkpt lat="48.91846" lon="1.05126">
        <ele>201</ele>
        <time>2014-06-15T10:50:02.000Z</time>
      </trkpt>
      <trkpt lat="48.91846" lon="1.05126">
        <ele>201</ele>
        <time>2014-06-15T10:50:04.000Z</time>
      </trkpt>
      <trkpt lat="48.91836" lon="1.05128">
        <ele>200</ele>
        <time>2014-06-15T10:50:06.000Z</time>
      </trkpt>
      <trkpt lat="48.91836" lon="1.05128">
        <ele>200</ele>
        <time>2014-06-15T10:50:08.000Z</time>
      </trkpt>
      <trkpt lat="48.91828" lon="1.05134">
        <ele>199</ele>
        <time>2014-06-15T10:50:10.000Z</time>
      </trkpt>
      <trkpt lat="48.91828" lon="1.05134">
        <ele>199</ele>
        <time>2014-06-15T10:50:12.000Z</time>
      </trkpt>
      <trkpt lat="48.91821" lon="1.05142">
        <ele>198</ele>
        <time>2014-06-15T10:50:14.000Z</time>
      </trkpt>
      <trkpt lat="48.91821" lon="1.05142">
        <ele>198</ele>
        <time>2014-06-15T10:50:16.000Z</time>
      </trkpt>
      <trkpt lat="48.91812" lon="1.05153">
        <ele>198</ele>
        <time>2014-06-15T10:50:18.000Z</time>
      </trkpt>
      <trkpt lat="48.91807" lon="1.0516">
        <ele>198</ele>
        <time>2014-06-15T10:50:20.000Z</time>
      </trkpt>
      <trkpt lat="48.91801" lon="1.05168">
        <ele>198</ele>
        <time>2014-06-15T10:50:22.000Z</time>
      </trkpt>
      <trkpt lat="48.91796" lon="1.05175">
        <ele>197</ele>
        <time>2014-06-15T10:50:24.000Z</time>
      </trkpt>
      <trkpt lat="48.9179" lon="1.05181">
        <ele>197</ele>
        <time>2014-06-15T10:50:26.000Z</time>
      </trkpt>
      <trkpt lat="48.91784" lon="1.05187">
        <ele>197</ele>
        <time>2014-06-15T10:50:28.000Z</time>
      </trkpt>
      <trkpt lat="48.91777" lon="1.05192">
        <ele>197</ele>
        <time>2014-06-15T10:50:30.000Z</time>
      </trkpt>
      <trkpt lat="48.91771" lon="1.05196">
        <ele>197</ele>
        <time>2014-06-15T10:50:32.000Z</time>
      </trkpt>
      <trkpt lat="48.91763" lon="1.052">
        <ele>197</ele>
        <time>2014-06-15T10:50:34.000Z</time>
      </trkpt>
      <trkpt lat="48.91754" lon="1.05203">
        <ele>197</ele>
        <time>2014-06-15T10:50:36.000Z</time>
      </trkpt>
      <trkpt lat="48.91747" lon="1.05206">
        <ele>197</ele>
        <time>2014-06-15T10:50:38.000Z</time>
      </trkpt>
      <trkpt lat="48.91738" lon="1.05209">
        <ele>197</ele>
        <time>2014-06-15T10:50:40.000Z</time>
      </trkpt>
      <trkpt lat="48.91729" lon="1.05212">
        <ele>197</ele>
        <time>2014-06-15T10:50:42.000Z</time>
      </trkpt>
      <trkpt lat="48.91721" lon="1.05215">
        <ele>197</ele>
        <time>2014-06-15T10:50:44.000Z</time>
      </trkpt>
      <trkpt lat="48.91713" lon="1.05218">
        <ele>198</ele>
        <time>2014-06-15T10:50:46.000Z</time>
      </trkpt>
      <trkpt lat="48.91705" lon="1.05222">
        <ele>198</ele>
        <time>2014-06-15T10:50:48.000Z</time>
      </trkpt>
      <trkpt lat="48.91696" lon="1.05226">
        <ele>198</ele>
        <time>2014-06-15T10:50:50.000Z</time>
      </trkpt>
      <trkpt lat="48.91688" lon="1.0523">
        <ele>199</ele>
        <time>2014-06-15T10:50:52.000Z</time>
      </trkpt>
      <trkpt lat="48.91679" lon="1.05235">
        <ele>199</ele>
        <time>2014-06-15T10:50:54.000Z</time>
      </trkpt>
      <trkpt lat="48.9167" lon="1.05241">
        <ele>199</ele>
        <time>2014-06-15T10:50:56.000Z</time>
      </trkpt>
      <trkpt lat="48.9166" lon="1.05247">
        <ele>199</ele>
        <time>2014-06-15T10:50:58.000Z</time>
      </trkpt>
      <trkpt lat="48.9165" lon="1.05252">
        <ele>198</ele>
        <time>2014-06-15T10:51:00.000Z</time>
      </trkpt>
      <trkpt lat="48.9164" lon="1.05258">
        <ele>198</ele>
        <time>2014-06-15T10:51:02.000Z</time>
      </trkpt>
      <trkpt lat="48.91631" lon="1.05264">
        <ele>197</ele>
        <time>2014-06-15T10:51:04.000Z</time>
      </trkpt>
      <trkpt lat="48.91622" lon="1.05268">
        <ele>197</ele>
        <time>2014-06-15T10:51:06.000Z</time>
      </trkpt>
      <trkpt lat="48.91612" lon="1.05273">
        <ele>197</ele>
        <time>2014-06-15T10:51:08.000Z</time>
      </trkpt>
      <trkpt lat="48.91604" lon="1.05278">
        <ele>196</ele>
        <time>2014-06-15T10:51:10.000Z</time>
      </trkpt>
      <trkpt lat="48.91596" lon="1.05282">
        <ele>196</ele>
        <time>2014-06-15T10:51:12.000Z</time>
      </trkpt>
      <trkpt lat="48.91589" lon="1.05286">
        <ele>196</ele>
        <time>2014-06-15T10:51:14.000Z</time>
      </trkpt>
      <trkpt lat="48.91582" lon="1.0529">
        <ele>196</ele>
        <time>2014-06-15T10:51:16.000Z</time>
      </trkpt>
      <trkpt lat="48.91576" lon="1.05295">
        <ele>196</ele>
        <time>2014-06-15T10:51:18.000Z</time>
      </trkpt>
      <trkpt lat="48.9157" lon="1.05297">
        <ele>196</ele>
        <time>2014-06-15T10:51:20.000Z</time>
      </trkpt>
      <trkpt lat="48.91563" lon="1.053">
        <ele>196</ele>
        <time>2014-06-15T10:51:22.000Z</time>
      </trkpt>
      <trkpt lat="48.91557" lon="1.05304">
        <ele>196</ele>
        <time>2014-06-15T10:51:24.000Z</time>
      </trkpt>
      <trkpt lat="48.9155" lon="1.05307">
        <ele>196</ele>
        <time>2014-06-15T10:51:26.000Z</time>
      </trkpt>
      <trkpt lat="48.91543" lon="1.05311">
        <ele>196</ele>
        <time>2014-06-15T10:51:28.000Z</time>
      </trkpt>
      <trkpt lat="48.91537" lon="1.05315">
        <ele>196</ele>
        <time>2014-06-15T10:51:30.000Z</time>
      </trkpt>
      <trkpt lat="48.91531" lon="1.05318">
        <ele>196</ele>
        <time>2014-06-15T10:51:32.000Z</time>
      </trkpt>
      <trkpt lat="48.91525" lon="1.05321">
        <ele>196</ele>
        <time>2014-06-15T10:51:34.000Z</time>
      </trkpt>
      <trkpt lat="48.91518" lon="1.05325">
        <ele>196</ele>
        <time>2014-06-15T10:51:36.000Z</time>
      </trkpt>
      <trkpt lat="48.91512" lon="1.05328">
        <ele>196</ele>
        <time>2014-06-15T10:51:38.000Z</time>
      </trkpt>
      <trkpt lat="48.91505" lon="1.05332">
        <ele>196</ele>
        <time>2014-06-15T10:51:40.000Z</time>
      </trkpt>
      <trkpt lat="48.91497" lon="1.05336">
        <ele>196</ele>
        <time>2014-06-15T10:51:42.000Z</time>
      </trkpt>
      <trkpt lat="48.9149" lon="1.05339">
        <ele>196</ele>
        <time>2014-06-15T10:51:44.000Z</time>
      </trkpt>
      <trkpt lat="48.91482" lon="1.05343">
        <ele>196</ele>
        <time>2014-06-15T10:51:46.000Z</time>
      </trkpt>
      <trkpt lat="48.91475" lon="1.05346">
        <ele>196</ele>
        <time>2014-06-15T10:51:48.000Z</time>
      </trkpt>
      <trkpt lat="48.91468" lon="1.05349">
        <ele>195</ele>
        <time>2014-06-15T10:51:50.000Z</time>
      </trkpt>
      <trkpt lat="48.91461" lon="1.05351">
        <ele>195</ele>
        <time>2014-06-15T10:51:52.000Z</time>
      </trkpt>
      <trkpt lat="48.91454" lon="1.05354">
        <ele>195</ele>
        <time>2014-06-15T10:51:54.000Z</time>
      </trkpt>
      <trkpt lat="48.91447" lon="1.05357">
        <ele>195</ele>
        <time>2014-06-15T10:51:56.000Z</time>
      </trkpt>
      <trkpt lat="48.91441" lon="1.0536">
        <ele>195</ele>
        <time>2014-06-15T10:51:58.000Z</time>
      </trkpt>
      <trkpt lat="48.91433" lon="1.05363">
        <ele>195</ele>
        <time>2014-06-15T10:52:00.000Z</time>
      </trkpt>
      <trkpt lat="48.91426" lon="1.05366">
        <ele>195</ele>
        <time>2014-06-15T10:52:02.000Z</time>
      </trkpt>
      <trkpt lat="48.91418" lon="1.05369">
        <ele>194</ele>
        <time>2014-06-15T10:52:04.000Z</time>
      </trkpt>
      <trkpt lat="48.91411" lon="1.05372">
        <ele>194</ele>
        <time>2014-06-15T10:52:06.000Z</time>
      </trkpt>
      <trkpt lat="48.91403" lon="1.05375">
        <ele>194</ele>
        <time>2014-06-15T10:52:08.000Z</time>
      </trkpt>
      <trkpt lat="48.91396" lon="1.05378">
        <ele>194</ele>
        <time>2014-06-15T10:52:10.000Z</time>
      </trkpt>
      <trkpt lat="48.91389" lon="1.05381">
        <ele>194</ele>
        <time>2014-06-15T10:52:12.000Z</time>
      </trkpt>
      <trkpt lat="48.91383" lon="1.05384">
        <ele>194</ele>
        <time>2014-06-15T10:52:14.000Z</time>
      </trkpt>
      <trkpt lat="48.91375" lon="1.05387">
        <ele>195</ele>
        <time>2014-06-15T10:52:16.000Z</time>
      </trkpt>
      <trkpt lat="48.91367" lon="1.0539">
        <ele>195</ele>
        <time>2014-06-15T10:52:18.000Z</time>
      </trkpt>
      <trkpt lat="48.91359" lon="1.05393">
        <ele>196</ele>
        <time>2014-06-15T10:52:20.000Z</time>
      </trkpt>
      <trkpt lat="48.9135" lon="1.05397">
        <ele>196</ele>
        <time>2014-06-15T10:52:22.000Z</time>
      </trkpt>
      <trkpt lat="48.91341" lon="1.054">
        <ele>196</ele>
        <time>2014-06-15T10:52:24.000Z</time>
      </trkpt>
      <trkpt lat="48.91333" lon="1.05404">
        <ele>196</ele>
        <time>2014-06-15T10:52:26.000Z</time>
      </trkpt>
      <trkpt lat="48.91324" lon="1.05407">
        <ele>196</ele>
        <time>2014-06-15T10:52:28.000Z</time>
      </trkpt>
      <trkpt lat="48.91315" lon="1.05411">
        <ele>196</ele>
        <time>2014-06-15T10:52:30.000Z</time>
      </trkpt>
      <trkpt lat="48.91307" lon="1.05413">
        <ele>196</ele>
        <time>2014-06-15T10:52:32.000Z</time>
      </trkpt>
      <trkpt lat="48.91299" lon="1.05415">
        <ele>196</ele>
        <time>2014-06-15T10:52:34.000Z</time>
      </trkpt>
      <trkpt lat="48.91292" lon="1.05418">
        <ele>196</ele>
        <time>2014-06-15T10:52:36.000Z</time>
      </trkpt>
      <trkpt lat="48.91285" lon="1.05422">
        <ele>196</ele>
        <time>2014-06-15T10:52:38.000Z</time>
      </trkpt>
      <trkpt lat="48.91277" lon="1.05426">
        <ele>195</ele>
        <time>2014-06-15T10:52:40.000Z</time>
      </trkpt>
      <trkpt lat="48.91269" lon="1.05429">
        <ele>195</ele>
        <time>2014-06-15T10:52:42.000Z</time>
      </trkpt>
      <trkpt lat="48.91261" lon="1.05433">
        <ele>195</ele>
        <time>2014-06-15T10:52:44.000Z</time>
      </trkpt>
      <trkpt lat="48.91253" lon="1.05436">
        <ele>194</ele>
        <time>2014-06-15T10:52:46.000Z</time>
      </trkpt>
      <trkpt lat="48.91245" lon="1.0544">
        <ele>194</ele>
        <time>2014-06-15T10:52:48.000Z</time>
      </trkpt>
      <trkpt lat="48.91238" lon="1.05444">
        <ele>194</ele>
        <time>2014-06-15T10:52:50.000Z</time>
      </trkpt>
      <trkpt lat="48.91231" lon="1.05447">
        <ele>194</ele>
        <time>2014-06-15T10:52:52.000Z</time>
      </trkpt>
      <trkpt lat="48.91224" lon="1.0545">
        <ele>194</ele>
        <time>2014-06-15T10:52:54.000Z</time>
      </trkpt>
      <trkpt lat="48.91216" lon="1.05453">
        <ele>194</ele>
        <time>2014-06-15T10:52:56.000Z</time>
      </trkpt>
      <trkpt lat="48.91208" lon="1.05457">
        <ele>195</ele>
        <time>2014-06-15T10:52:58.000Z</time>
      </trkpt>
      <trkpt lat="48.91199" lon="1.05461">
        <ele>195</ele>
        <time>2014-06-15T10:53:00.000Z</time>
      </trkpt>
      <trkpt lat="48.9119" lon="1.05464">
        <ele>194</ele>
        <time>2014-06-15T10:53:02.000Z</time>
      </trkpt>
      <trkpt lat="48.91181" lon="1.05467">
        <ele>194</ele>
        <time>2014-06-15T10:53:04.000Z</time>
      </trkpt>
      <trkpt lat="48.91172" lon="1.05471">
        <ele>194</ele>
        <time>2014-06-15T10:53:06.000Z</time>
      </trkpt>
      <trkpt lat="48.91163" lon="1.05474">
        <ele>194</ele>
        <time>2014-06-15T10:53:08.000Z</time>
      </trkpt>
      <trkpt lat="48.91155" lon="1.05478">
        <ele>194</ele>
        <time>2014-06-15T10:53:10.000Z</time>
      </trkpt>
      <trkpt lat="48.91146" lon="1.05482">
        <ele>193</ele>
        <time>2014-06-15T10:53:12.000Z</time>
      </trkpt>
      <trkpt lat="48.91138" lon="1.05485">
        <ele>193</ele>
        <time>2014-06-15T10:53:14.000Z</time>
      </trkpt>
      <trkpt lat="48.91131" lon="1.05489">
        <ele>194</ele>
        <time>2014-06-15T10:53:16.000Z</time>
      </trkpt>
      <trkpt lat="48.91123" lon="1.05492">
        <ele>194</ele>
        <time>2014-06-15T10:53:18.000Z</time>
      </trkpt>
      <trkpt lat="48.91116" lon="1.05495">
        <ele>194</ele>
        <time>2014-06-15T10:53:20.000Z</time>
      </trkpt>
      <trkpt lat="48.9111" lon="1.05497">
        <ele>195</ele>
        <time>2014-06-15T10:53:22.000Z</time>
      </trkpt>
      <trkpt lat="48.9111" lon="1.05497">
        <ele>195</ele>
        <time>2014-06-15T10:53:24.000Z</time>
      </trkpt>
      <trkpt lat="48.91105" lon="1.05506">
        <ele>195</ele>
        <time>2014-06-15T10:53:26.000Z</time>
      </trkpt>
      <trkpt lat="48.91105" lon="1.05506">
        <ele>195</ele>
        <time>2014-06-15T10:53:28.000Z</time>
      </trkpt>
      <trkpt lat="48.91107" lon="1.05519">
        <ele>195</ele>
        <time>2014-06-15T10:53:30.000Z</time>
      </trkpt>
      <trkpt lat="48.91112" lon="1.0553">
        <ele>195</ele>
        <time>2014-06-15T10:53:32.000Z</time>
      </trkpt>
      <trkpt lat="48.91116" lon="1.0554">
        <ele>195</ele>
        <time>2014-06-15T10:53:34.000Z</time>
      </trkpt>
      <trkpt lat="48.9112" lon="1.05551">
        <ele>194</ele>
        <time>2014-06-15T10:53:36.000Z</time>
      </trkpt>
      <trkpt lat="48.91124" lon="1.05562">
        <ele>194</ele>
        <time>2014-06-15T10:53:38.000Z</time>
      </trkpt>
      <trkpt lat="48.91128" lon="1.05574">
        <ele>194</ele>
        <time>2014-06-15T10:53:40.000Z</time>
      </trkpt>
      <trkpt lat="48.91133" lon="1.05587">
        <ele>194</ele>
        <time>2014-06-15T10:53:42.000Z</time>
      </trkpt>
      <trkpt lat="48.91139" lon="1.056">
        <ele>195</ele>
        <time>2014-06-15T10:53:44.000Z</time>
      </trkpt>
      <trkpt lat="48.91149" lon="1.05613">
        <ele>195</ele>
        <time>2014-06-15T10:53:46.000Z</time>
      </trkpt>
      <trkpt lat="48.91158" lon="1.05624">
        <ele>195</ele>
        <time>2014-06-15T10:53:48.000Z</time>
      </trkpt>
      <trkpt lat="48.91167" lon="1.05633">
        <ele>194</ele>
        <time>2014-06-15T10:53:50.000Z</time>
      </trkpt>
      <trkpt lat="48.91177" lon="1.05641">
        <ele>194</ele>
        <time>2014-06-15T10:53:52.000Z</time>
      </trkpt>
      <trkpt lat="48.91187" lon="1.0565">
        <ele>194</ele>
        <time>2014-06-15T10:53:54.000Z</time>
      </trkpt>
      <trkpt lat="48.91197" lon="1.05657">
        <ele>194</ele>
        <time>2014-06-15T10:53:56.000Z</time>
      </trkpt>
      <trkpt lat="48.91207" lon="1.05665">
        <ele>194</ele>
        <time>2014-06-15T10:53:58.000Z</time>
      </trkpt>
      <trkpt lat="48.91217" lon="1.05673">
        <ele>194</ele>
        <time>2014-06-15T10:54:00.000Z</time>
      </trkpt>
      <trkpt lat="48.91227" lon="1.05682">
        <ele>194</ele>
        <time>2014-06-15T10:54:02.000Z</time>
      </trkpt>
      <trkpt lat="48.91236" lon="1.05694">
        <ele>193</ele>
        <time>2014-06-15T10:54:04.000Z</time>
      </trkpt>
      <trkpt lat="48.91247" lon="1.05706">
        <ele>193</ele>
        <time>2014-06-15T10:54:06.000Z</time>
      </trkpt>
      <trkpt lat="48.91256" lon="1.05719">
        <ele>193</ele>
        <time>2014-06-15T10:54:08.000Z</time>
      </trkpt>
      <trkpt lat="48.91265" lon="1.05733">
        <ele>193</ele>
        <time>2014-06-15T10:54:10.000Z</time>
      </trkpt>
      <trkpt lat="48.91274" lon="1.05747">
        <ele>193</ele>
        <time>2014-06-15T10:54:12.000Z</time>
      </trkpt>
      <trkpt lat="48.91281" lon="1.05758">
        <ele>193</ele>
        <time>2014-06-15T10:54:14.000Z</time>
      </trkpt>
      <trkpt lat="48.91288" lon="1.05769">
        <ele>194</ele>
        <time>2014-06-15T10:54:16.000Z</time>
      </trkpt>
      <trkpt lat="48.91293" lon="1.05779">
        <ele>193</ele>
        <time>2014-06-15T10:54:18.000Z</time>
      </trkpt>
      <trkpt lat="48.91299" lon="1.05788">
        <ele>193</ele>
        <time>2014-06-15T10:54:20.000Z</time>
      </trkpt>
      <trkpt lat="48.91305" lon="1.05797">
        <ele>193</ele>
        <time>2014-06-15T10:54:22.000Z</time>
      </trkpt>
      <trkpt lat="48.91311" lon="1.05806">
        <ele>193</ele>
        <time>2014-06-15T10:54:24.000Z</time>
      </trkpt>
      <trkpt lat="48.91317" lon="1.05814">
        <ele>194</ele>
        <time>2014-06-15T10:54:26.000Z</time>
      </trkpt>
      <trkpt lat="48.91323" lon="1.05821">
        <ele>194</ele>
        <time>2014-06-15T10:54:28.000Z</time>
      </trkpt>
      <trkpt lat="48.91329" lon="1.05827">
        <ele>194</ele>
        <time>2014-06-15T10:54:30.000Z</time>
      </trkpt>
      <trkpt lat="48.91337" lon="1.05837">
        <ele>194</ele>
        <time>2014-06-15T10:54:32.000Z</time>
      </trkpt>
      <trkpt lat="48.91345" lon="1.05846">
        <ele>194</ele>
        <time>2014-06-15T10:54:34.000Z</time>
      </trkpt>
      <trkpt lat="48.91354" lon="1.05858">
        <ele>194</ele>
        <time>2014-06-15T10:54:36.000Z</time>
      </trkpt>
      <trkpt lat="48.91362" lon="1.05869">
        <ele>194</ele>
        <time>2014-06-15T10:54:38.000Z</time>
      </trkpt>
      <trkpt lat="48.91369" lon="1.05879">
        <ele>194</ele>
        <time>2014-06-15T10:54:40.000Z</time>
      </trkpt>
      <trkpt lat="48.91377" lon="1.05889">
        <ele>194</ele>
        <time>2014-06-15T10:54:42.000Z</time>
      </trkpt>
      <trkpt lat="48.91385" lon="1.05899">
        <ele>194</ele>
        <time>2014-06-15T10:54:44.000Z</time>
      </trkpt>
      <trkpt lat="48.91393" lon="1.05908">
        <ele>194</ele>
        <time>2014-06-15T10:54:46.000Z</time>
      </trkpt>
      <trkpt lat="48.91398" lon="1.05919">
        <ele>195</ele>
        <time>2014-06-15T10:54:48.000Z</time>
      </trkpt>
      <trkpt lat="48.91403" lon="1.05931">
        <ele>195</ele>
        <time>2014-06-15T10:54:50.000Z</time>
      </trkpt>
      <trkpt lat="48.91407" lon="1.05944">
        <ele>196</ele>
        <time>2014-06-15T10:54:52.000Z</time>
      </trkpt>
      <trkpt lat="48.91409" lon="1.05957">
        <ele>196</ele>
        <time>2014-06-15T10:54:54.000Z</time>
      </trkpt>
      <trkpt lat="48.9141" lon="1.05971">
        <ele>196</ele>
        <time>2014-06-15T10:54:56.000Z</time>
      </trkpt>
      <trkpt lat="48.91412" lon="1.05984">
        <ele>196</ele>
        <time>2014-06-15T10:54:58.000Z</time>
      </trkpt>
      <trkpt lat="48.91413" lon="1.05998">
        <ele>196</ele>
        <time>2014-06-15T10:55:00.000Z</time>
      </trkpt>
      <trkpt lat="48.91413" lon="1.06012">
        <ele>196</ele>
        <time>2014-06-15T10:55:02.000Z</time>
      </trkpt>
      <trkpt lat="48.91412" lon="1.06025">
        <ele>197</ele>
        <time>2014-06-15T10:55:04.000Z</time>
      </trkpt>
      <trkpt lat="48.91412" lon="1.06037">
        <ele>198</ele>
        <time>2014-06-15T10:55:06.000Z</time>
      </trkpt>
      <trkpt lat="48.9141" lon="1.06049">
        <ele>198</ele>
        <time>2014-06-15T10:55:08.000Z</time>
      </trkpt>
      <trkpt lat="48.91407" lon="1.06059">
        <ele>199</ele>
        <time>2014-06-15T10:55:10.000Z</time>
      </trkpt>
      <trkpt lat="48.91405" lon="1.06072">
        <ele>200</ele>
        <time>2014-06-15T10:55:12.000Z</time>
      </trkpt>
      <trkpt lat="48.914" lon="1.06084">
        <ele>199</ele>
        <time>2014-06-15T10:55:14.000Z</time>
      </trkpt>
      <trkpt lat="48.91395" lon="1.06095">
        <ele>199</ele>
        <time>2014-06-15T10:55:16.000Z</time>
      </trkpt>
      <trkpt lat="48.9139" lon="1.06105">
        <ele>198</ele>
        <time>2014-06-15T10:55:18.000Z</time>
      </trkpt>
      <trkpt lat="48.91386" lon="1.06116">
        <ele>198</ele>
        <time>2014-06-15T10:55:20.000Z</time>
      </trkpt>
      <trkpt lat="48.91381" lon="1.06129">
        <ele>198</ele>
        <time>2014-06-15T10:55:22.000Z</time>
      </trkpt>
      <trkpt lat="48.91376" lon="1.06143">
        <ele>197</ele>
        <time>2014-06-15T10:55:24.000Z</time>
      </trkpt>
      <trkpt lat="48.91372" lon="1.06156">
        <ele>197</ele>
        <time>2014-06-15T10:55:26.000Z</time>
      </trkpt>
      <trkpt lat="48.91367" lon="1.06169">
        <ele>197</ele>
        <time>2014-06-15T10:55:28.000Z</time>
      </trkpt>
      <trkpt lat="48.91362" lon="1.06182">
        <ele>196</ele>
        <time>2014-06-15T10:55:30.000Z</time>
      </trkpt>
      <trkpt lat="48.91358" lon="1.06193">
        <ele>196</ele>
        <time>2014-06-15T10:55:32.000Z</time>
      </trkpt>
      <trkpt lat="48.91354" lon="1.06204">
        <ele>196</ele>
        <time>2014-06-15T10:55:34.000Z</time>
      </trkpt>
      <trkpt lat="48.9135" lon="1.06213">
        <ele>196</ele>
        <time>2014-06-15T10:55:36.000Z</time>
      </trkpt>
      <trkpt lat="48.91345" lon="1.06222">
        <ele>196</ele>
        <time>2014-06-15T10:55:38.000Z</time>
      </trkpt>
      <trkpt lat="48.9134" lon="1.06231">
        <ele>196</ele>
        <time>2014-06-15T10:55:40.000Z</time>
      </trkpt>
      <trkpt lat="48.91335" lon="1.06239">
        <ele>197</ele>
        <time>2014-06-15T10:55:42.000Z</time>
      </trkpt>
      <trkpt lat="48.91328" lon="1.06247">
        <ele>197</ele>
        <time>2014-06-15T10:55:44.000Z</time>
      </trkpt>
      <trkpt lat="48.91321" lon="1.06254">
        <ele>198</ele>
        <time>2014-06-15T10:55:46.000Z</time>
      </trkpt>
      <trkpt lat="48.91314" lon="1.06261">
        <ele>199</ele>
        <time>2014-06-15T10:55:48.000Z</time>
      </trkpt>
      <trkpt lat="48.91307" lon="1.06266">
        <ele>200</ele>
        <time>2014-06-15T10:55:50.000Z</time>
      </trkpt>
      <trkpt lat="48.91301" lon="1.06272">
        <ele>200</ele>
        <time>2014-06-15T10:55:52.000Z</time>
      </trkpt>
      <trkpt lat="48.91293" lon="1.06278">
        <ele>201</ele>
        <time>2014-06-15T10:55:54.000Z</time>
      </trkpt>
      <trkpt lat="48.91286" lon="1.06285">
        <ele>201</ele>
        <time>2014-06-15T10:55:56.000Z</time>
      </trkpt>
      <trkpt lat="48.9128" lon="1.06292">
        <ele>202</ele>
        <time>2014-06-15T10:55:58.000Z</time>
      </trkpt>
      <trkpt lat="48.91275" lon="1.06299">
        <ele>202</ele>
        <time>2014-06-15T10:56:00.000Z</time>
      </trkpt>
      <trkpt lat="48.91275" lon="1.06299">
        <ele>202</ele>
        <time>2014-06-15T10:56:02.000Z</time>
      </trkpt>
      <trkpt lat="48.91262" lon="1.06308">
        <ele>202</ele>
        <time>2014-06-15T10:56:04.000Z</time>
      </trkpt>
      <trkpt lat="48.91256" lon="1.06312">
        <ele>202</ele>
        <time>2014-06-15T10:56:06.000Z</time>
      </trkpt>
      <trkpt lat="48.91248" lon="1.06318">
        <ele>203</ele>
        <time>2014-06-15T10:56:08.000Z</time>
      </trkpt>
      <trkpt lat="48.91241" lon="1.06323">
        <ele>203</ele>
        <time>2014-06-15T10:56:10.000Z</time>
      </trkpt>
      <trkpt lat="48.91235" lon="1.06328">
        <ele>203</ele>
        <time>2014-06-15T10:56:12.000Z</time>
      </trkpt>
      <trkpt lat="48.91227" lon="1.06336">
        <ele>203</ele>
        <time>2014-06-15T10:56:14.000Z</time>
      </trkpt>
      <trkpt lat="48.9122" lon="1.06343">
        <ele>203</ele>
        <time>2014-06-15T10:56:16.000Z</time>
      </trkpt>
      <trkpt lat="48.91212" lon="1.06351">
        <ele>203</ele>
        <time>2014-06-15T10:56:18.000Z</time>
      </trkpt>
      <trkpt lat="48.91207" lon="1.06361">
        <ele>203</ele>
        <time>2014-06-15T10:56:20.000Z</time>
      </trkpt>
      <trkpt lat="48.912" lon="1.06374">
        <ele>203</ele>
        <time>2014-06-15T10:56:22.000Z</time>
      </trkpt>
      <trkpt lat="48.91192" lon="1.06388">
        <ele>203</ele>
        <time>2014-06-15T10:56:24.000Z</time>
      </trkpt>
      <trkpt lat="48.91185" lon="1.064">
        <ele>203</ele>
        <time>2014-06-15T10:56:26.000Z</time>
      </trkpt>
      <trkpt lat="48.9118" lon="1.06411">
        <ele>202</ele>
        <time>2014-06-15T10:56:28.000Z</time>
      </trkpt>
      <trkpt lat="48.91174" lon="1.06421">
        <ele>201</ele>
        <time>2014-06-15T10:56:30.000Z</time>
      </trkpt>
      <trkpt lat="48.91167" lon="1.0643">
        <ele>201</ele>
        <time>2014-06-15T10:56:32.000Z</time>
      </trkpt>
      <trkpt lat="48.91159" lon="1.0644">
        <ele>200</ele>
        <time>2014-06-15T10:56:34.000Z</time>
      </trkpt>
      <trkpt lat="48.91152" lon="1.06448">
        <ele>200</ele>
        <time>2014-06-15T10:56:36.000Z</time>
      </trkpt>
      <trkpt lat="48.91145" lon="1.06456">
        <ele>199</ele>
        <time>2014-06-15T10:56:38.000Z</time>
      </trkpt>
      <trkpt lat="48.91139" lon="1.06464">
        <ele>198</ele>
        <time>2014-06-15T10:56:40.000Z</time>
      </trkpt>
      <trkpt lat="48.91132" lon="1.06473">
        <ele>198</ele>
        <time>2014-06-15T10:56:42.000Z</time>
      </trkpt>
      <trkpt lat="48.91125" lon="1.06482">
        <ele>198</ele>
        <time>2014-06-15T10:56:44.000Z</time>
      </trkpt>
      <trkpt lat="48.91125" lon="1.06482">
        <ele>198</ele>
        <time>2014-06-15T10:56:46.000Z</time>
      </trkpt>
      <trkpt lat="48.91125" lon="1.06482">
        <ele>198</ele>
        <time>2014-06-15T10:56:48.000Z</time>
      </trkpt>
      <trkpt lat="48.9112" lon="1.06487">
        <ele>198</ele>
        <time>2014-06-15T10:56:50.000Z</time>
      </trkpt>
      <trkpt lat="48.9112" lon="1.06487">
        <ele>198</ele>
        <time>2014-06-15T10:56:52.000Z</time>
      </trkpt>
      <trkpt lat="48.9112" lon="1.06487">
        <ele>198</ele>
        <time>2014-06-15T10:56:54.000Z</time>
      </trkpt>
      <trkpt lat="48.9112" lon="1.06487">
        <ele>198</ele>
        <time>2014-06-15T10:56:56.000Z</time>
      </trkpt>
      <trkpt lat="48.9112" lon="1.06487">
        <ele>198</ele>
        <time>2014-06-15T10:57:00.000Z</time>
      </trkpt>
      <trkpt lat="48.91114" lon="1.06496">
        <ele>198</ele>
        <time>2014-06-15T10:57:02.000Z</time>
      </trkpt>
      <trkpt lat="48.9111" lon="1.06503">
        <ele>198</ele>
        <time>2014-06-15T10:57:04.000Z</time>
      </trkpt>
      <trkpt lat="48.91104" lon="1.06516">
        <ele>199</ele>
        <time>2014-06-15T10:57:08.000Z</time>
      </trkpt>
      <trkpt lat="48.91098" lon="1.06531">
        <ele>199</ele>
        <time>2014-06-15T10:57:12.000Z</time>
      </trkpt>
      <trkpt lat="48.91095" lon="1.06539">
        <ele>199</ele>
        <time>2014-06-15T10:57:14.000Z</time>
      </trkpt>
      <trkpt lat="48.9109" lon="1.06549">
        <ele>199</ele>
        <time>2014-06-15T10:57:16.000Z</time>
      </trkpt>
      <trkpt lat="48.91087" lon="1.06559">
        <ele>199</ele>
        <time>2014-06-15T10:57:18.000Z</time>
      </trkpt>
      <trkpt lat="48.91082" lon="1.06568">
        <ele>199</ele>
        <time>2014-06-15T10:57:20.000Z</time>
      </trkpt>
      <trkpt lat="48.91078" lon="1.06577">
        <ele>199</ele>
        <time>2014-06-15T10:57:22.000Z</time>
      </trkpt>
      <trkpt lat="48.91073" lon="1.06586">
        <ele>199</ele>
        <time>2014-06-15T10:57:24.000Z</time>
      </trkpt>
      <trkpt lat="48.91068" lon="1.06594">
        <ele>199</ele>
        <time>2014-06-15T10:57:26.000Z</time>
      </trkpt>
      <trkpt lat="48.91062" lon="1.06602">
        <ele>198</ele>
        <time>2014-06-15T10:57:28.000Z</time>
      </trkpt>
      <trkpt lat="48.91056" lon="1.0661">
        <ele>198</ele>
        <time>2014-06-15T10:57:30.000Z</time>
      </trkpt>
      <trkpt lat="48.9105" lon="1.06616">
        <ele>198</ele>
        <time>2014-06-15T10:57:32.000Z</time>
      </trkpt>
      <trkpt lat="48.91045" lon="1.0662">
        <ele>198</ele>
        <time>2014-06-15T10:57:34.000Z</time>
      </trkpt>
      <trkpt lat="48.91045" lon="1.0662">
        <ele>198</ele>
        <time>2014-06-15T10:57:36.000Z</time>
      </trkpt>
      <trkpt lat="48.9104" lon="1.06637">
        <ele>199</ele>
        <time>2014-06-15T10:57:38.000Z</time>
      </trkpt>
      <trkpt lat="48.91039" lon="1.06648">
        <ele>199</ele>
        <time>2014-06-15T10:57:40.000Z</time>
      </trkpt>
      <trkpt lat="48.91037" lon="1.06661">
        <ele>199</ele>
        <time>2014-06-15T10:57:42.000Z</time>
      </trkpt>
      <trkpt lat="48.91034" lon="1.06676">
        <ele>199</ele>
        <time>2014-06-15T10:57:44.000Z</time>
      </trkpt>
      <trkpt lat="48.91028" lon="1.06692">
        <ele>199</ele>
        <time>2014-06-15T10:57:46.000Z</time>
      </trkpt>
      <trkpt lat="48.91022" lon="1.06707">
        <ele>199</ele>
        <time>2014-06-15T10:57:48.000Z</time>
      </trkpt>
      <trkpt lat="48.91016" lon="1.0672">
        <ele>199</ele>
        <time>2014-06-15T10:57:50.000Z</time>
      </trkpt>
      <trkpt lat="48.91008" lon="1.06732">
        <ele>199</ele>
        <time>2014-06-15T10:57:52.000Z</time>
      </trkpt>
      <trkpt lat="48.91" lon="1.06745">
        <ele>199</ele>
        <time>2014-06-15T10:57:54.000Z</time>
      </trkpt>
      <trkpt lat="48.90992" lon="1.06757">
        <ele>199</ele>
        <time>2014-06-15T10:57:56.000Z</time>
      </trkpt>
      <trkpt lat="48.90982" lon="1.06767">
        <ele>198</ele>
        <time>2014-06-15T10:57:58.000Z</time>
      </trkpt>
      <trkpt lat="48.90971" lon="1.06775">
        <ele>198</ele>
        <time>2014-06-15T10:58:00.000Z</time>
      </trkpt>
      <trkpt lat="48.90961" lon="1.06783">
        <ele>198</ele>
        <time>2014-06-15T10:58:02.000Z</time>
      </trkpt>
      <trkpt lat="48.9095" lon="1.06791">
        <ele>198</ele>
        <time>2014-06-15T10:58:04.000Z</time>
      </trkpt>
      <trkpt lat="48.90939" lon="1.06799">
        <ele>199</ele>
        <time>2014-06-15T10:58:06.000Z</time>
      </trkpt>
      <trkpt lat="48.90928" lon="1.06807">
        <ele>199</ele>
        <time>2014-06-15T10:58:08.000Z</time>
      </trkpt>
      <trkpt lat="48.90916" lon="1.06817">
        <ele>199</ele>
        <time>2014-06-15T10:58:10.000Z</time>
      </trkpt>
      <trkpt lat="48.90905" lon="1.06826">
        <ele>199</ele>
        <time>2014-06-15T10:58:12.000Z</time>
      </trkpt>
      <trkpt lat="48.90892" lon="1.06836">
        <ele>198</ele>
        <time>2014-06-15T10:58:14.000Z</time>
      </trkpt>
      <trkpt lat="48.90881" lon="1.06847">
        <ele>198</ele>
        <time>2014-06-15T10:58:16.000Z</time>
      </trkpt>
      <trkpt lat="48.90869" lon="1.06859">
        <ele>198</ele>
        <time>2014-06-15T10:58:18.000Z</time>
      </trkpt>
      <trkpt lat="48.90857" lon="1.06869">
        <ele>197</ele>
        <time>2014-06-15T10:58:20.000Z</time>
      </trkpt>
      <trkpt lat="48.90845" lon="1.06877">
        <ele>197</ele>
        <time>2014-06-15T10:58:22.000Z</time>
      </trkpt>
      <trkpt lat="48.90834" lon="1.06883">
        <ele>197</ele>
        <time>2014-06-15T10:58:24.000Z</time>
      </trkpt>
      <trkpt lat="48.90825" lon="1.06891">
        <ele>198</ele>
        <time>2014-06-15T10:58:26.000Z</time>
      </trkpt>
      <trkpt lat="48.90816" lon="1.06902">
        <ele>198</ele>
        <time>2014-06-15T10:58:28.000Z</time>
      </trkpt>
      <trkpt lat="48.90814" lon="1.06916">
        <ele>198</ele>
        <time>2014-06-15T10:58:30.000Z</time>
      </trkpt>
      <trkpt lat="48.90809" lon="1.06929">
        <ele>198</ele>
        <time>2014-06-15T10:58:32.000Z</time>
      </trkpt>
      <trkpt lat="48.90803" lon="1.0694">
        <ele>199</ele>
        <time>2014-06-15T10:58:34.000Z</time>
      </trkpt>
      <trkpt lat="48.90797" lon="1.06951">
        <ele>198</ele>
        <time>2014-06-15T10:58:36.000Z</time>
      </trkpt>
      <trkpt lat="48.90791" lon="1.06962">
        <ele>198</ele>
        <time>2014-06-15T10:58:38.000Z</time>
      </trkpt>
      <trkpt lat="48.90784" lon="1.06973">
        <ele>199</ele>
        <time>2014-06-15T10:58:40.000Z</time>
      </trkpt>
      <trkpt lat="48.90777" lon="1.06985">
        <ele>199</ele>
        <time>2014-06-15T10:58:42.000Z</time>
      </trkpt>
      <trkpt lat="48.90769" lon="1.06996">
        <ele>199</ele>
        <time>2014-06-15T10:58:44.000Z</time>
      </trkpt>
      <trkpt lat="48.90761" lon="1.07008">
        <ele>199</ele>
        <time>2014-06-15T10:58:46.000Z</time>
      </trkpt>
      <trkpt lat="48.90752" lon="1.07018">
        <ele>199</ele>
        <time>2014-06-15T10:58:48.000Z</time>
      </trkpt>
      <trkpt lat="48.90742" lon="1.07029">
        <ele>199</ele>
        <time>2014-06-15T10:58:50.000Z</time>
      </trkpt>
      <trkpt lat="48.90733" lon="1.07039">
        <ele>198</ele>
        <time>2014-06-15T10:58:52.000Z</time>
      </trkpt>
      <trkpt lat="48.90722" lon="1.07049">
        <ele>198</ele>
        <time>2014-06-15T10:58:54.000Z</time>
      </trkpt>
      <trkpt lat="48.90711" lon="1.07059">
        <ele>197</ele>
        <time>2014-06-15T10:58:56.000Z</time>
      </trkpt>
      <trkpt lat="48.907" lon="1.07068">
        <ele>197</ele>
        <time>2014-06-15T10:58:58.000Z</time>
      </trkpt>
      <trkpt lat="48.90688" lon="1.07077">
        <ele>197</ele>
        <time>2014-06-15T10:59:00.000Z</time>
      </trkpt>
      <trkpt lat="48.90676" lon="1.07086">
        <ele>196</ele>
        <time>2014-06-15T10:59:02.000Z</time>
      </trkpt>
      <trkpt lat="48.90665" lon="1.07094">
        <ele>196</ele>
        <time>2014-06-15T10:59:04.000Z</time>
      </trkpt>
      <trkpt lat="48.90653" lon="1.07099">
        <ele>196</ele>
        <time>2014-06-15T10:59:06.000Z</time>
      </trkpt>
      <trkpt lat="48.90642" lon="1.07104">
        <ele>196</ele>
        <time>2014-06-15T10:59:08.000Z</time>
      </trkpt>
      <trkpt lat="48.90633" lon="1.07109">
        <ele>197</ele>
        <time>2014-06-15T10:59:10.000Z</time>
      </trkpt>
      <trkpt lat="48.90623" lon="1.07115">
        <ele>197</ele>
        <time>2014-06-15T10:59:12.000Z</time>
      </trkpt>
      <trkpt lat="48.90613" lon="1.07122">
        <ele>198</ele>
        <time>2014-06-15T10:59:14.000Z</time>
      </trkpt>
      <trkpt lat="48.90604" lon="1.07129">
        <ele>200</ele>
        <time>2014-06-15T10:59:16.000Z</time>
      </trkpt>
      <trkpt lat="48.90595" lon="1.07139">
        <ele>202</ele>
        <time>2014-06-15T10:59:18.000Z</time>
      </trkpt>
      <trkpt lat="48.90586" lon="1.0715">
        <ele>203</ele>
        <time>2014-06-15T10:59:20.000Z</time>
      </trkpt>
      <trkpt lat="48.90575" lon="1.07165">
        <ele>203</ele>
        <time>2014-06-15T10:59:22.000Z</time>
      </trkpt>
      <trkpt lat="48.90564" lon="1.0718">
        <ele>203</ele>
        <time>2014-06-15T10:59:24.000Z</time>
      </trkpt>
      <trkpt lat="48.90553" lon="1.07196">
        <ele>202</ele>
        <time>2014-06-15T10:59:26.000Z</time>
      </trkpt>
      <trkpt lat="48.90543" lon="1.07208">
        <ele>200</ele>
        <time>2014-06-15T10:59:28.000Z</time>
      </trkpt>
      <trkpt lat="48.90534" lon="1.07218">
        <ele>199</ele>
        <time>2014-06-15T10:59:30.000Z</time>
      </trkpt>
      <trkpt lat="48.90525" lon="1.07227">
        <ele>198</ele>
        <time>2014-06-15T10:59:32.000Z</time>
      </trkpt>
      <trkpt lat="48.90516" lon="1.07235">
        <ele>198</ele>
        <time>2014-06-15T10:59:34.000Z</time>
      </trkpt>
      <trkpt lat="48.90508" lon="1.07242">
        <ele>197</ele>
        <time>2014-06-15T10:59:36.000Z</time>
      </trkpt>
      <trkpt lat="48.90499" lon="1.07248">
        <ele>196</ele>
        <time>2014-06-15T10:59:38.000Z</time>
      </trkpt>
      <trkpt lat="48.90491" lon="1.07253">
        <ele>196</ele>
        <time>2014-06-15T10:59:40.000Z</time>
      </trkpt>
      <trkpt lat="48.90482" lon="1.07257">
        <ele>196</ele>
        <time>2014-06-15T10:59:42.000Z</time>
      </trkpt>
      <trkpt lat="48.90472" lon="1.07262">
        <ele>196</ele>
        <time>2014-06-15T10:59:44.000Z</time>
      </trkpt>
      <trkpt lat="48.90462" lon="1.07266">
        <ele>196</ele>
        <time>2014-06-15T10:59:46.000Z</time>
      </trkpt>
      <trkpt lat="48.90453" lon="1.07271">
        <ele>196</ele>
        <time>2014-06-15T10:59:48.000Z</time>
      </trkpt>
      <trkpt lat="48.90442" lon="1.07278">
        <ele>196</ele>
        <time>2014-06-15T10:59:50.000Z</time>
      </trkpt>
      <trkpt lat="48.90432" lon="1.07286">
        <ele>196</ele>
        <time>2014-06-15T10:59:52.000Z</time>
      </trkpt>
      <trkpt lat="48.90421" lon="1.07294">
        <ele>196</ele>
        <time>2014-06-15T10:59:54.000Z</time>
      </trkpt>
      <trkpt lat="48.90411" lon="1.07302">
        <ele>196</ele>
        <time>2014-06-15T10:59:56.000Z</time>
      </trkpt>
      <trkpt lat="48.90401" lon="1.0731">
        <ele>196</ele>
        <time>2014-06-15T10:59:58.000Z</time>
      </trkpt>
      <trkpt lat="48.90391" lon="1.07315">
        <ele>196</ele>
        <time>2014-06-15T11:00:00.000Z</time>
      </trkpt>
      <trkpt lat="48.90382" lon="1.0732">
        <ele>197</ele>
        <time>2014-06-15T11:00:02.000Z</time>
      </trkpt>
      <trkpt lat="48.90372" lon="1.07324">
        <ele>198</ele>
        <time>2014-06-15T11:00:04.000Z</time>
      </trkpt>
      <trkpt lat="48.90364" lon="1.07329">
        <ele>198</ele>
        <time>2014-06-15T11:00:06.000Z</time>
      </trkpt>
      <trkpt lat="48.90356" lon="1.07333">
        <ele>199</ele>
        <time>2014-06-15T11:00:08.000Z</time>
      </trkpt>
      <trkpt lat="48.90345" lon="1.07336">
        <ele>199</ele>
        <time>2014-06-15T11:00:10.000Z</time>
      </trkpt>
      <trkpt lat="48.90335" lon="1.07338">
        <ele>199</ele>
        <time>2014-06-15T11:00:12.000Z</time>
      </trkpt>
      <trkpt lat="48.90326" lon="1.07338">
        <ele>199</ele>
        <time>2014-06-15T11:00:14.000Z</time>
      </trkpt>
      <trkpt lat="48.90316" lon="1.07334">
        <ele>199</ele>
        <time>2014-06-15T11:00:16.000Z</time>
      </trkpt>
      <trkpt lat="48.90311" lon="1.07319">
        <ele>199</ele>
        <time>2014-06-15T11:00:18.000Z</time>
      </trkpt>
      <trkpt lat="48.9031" lon="1.07309">
        <ele>200</ele>
        <time>2014-06-15T11:00:20.000Z</time>
      </trkpt>
      <trkpt lat="48.90307" lon="1.07298">
        <ele>199</ele>
        <time>2014-06-15T11:00:22.000Z</time>
      </trkpt>
      <trkpt lat="48.90302" lon="1.07293">
        <ele>198</ele>
        <time>2014-06-15T11:00:24.000Z</time>
      </trkpt>
      <trkpt lat="48.90292" lon="1.07298">
        <ele>197</ele>
        <time>2014-06-15T11:00:26.000Z</time>
      </trkpt>
      <trkpt lat="48.90282" lon="1.07306">
        <ele>195</ele>
        <time>2014-06-15T11:00:28.000Z</time>
      </trkpt>
      <trkpt lat="48.90271" lon="1.07315">
        <ele>194</ele>
        <time>2014-06-15T11:00:30.000Z</time>
      </trkpt>
      <trkpt lat="48.90257" lon="1.07326">
        <ele>193</ele>
        <time>2014-06-15T11:00:32.000Z</time>
      </trkpt>
      <trkpt lat="48.90244" lon="1.07334">
        <ele>191</ele>
        <time>2014-06-15T11:00:34.000Z</time>
      </trkpt>
      <trkpt lat="48.90231" lon="1.07341">
        <ele>190</ele>
        <time>2014-06-15T11:00:36.000Z</time>
      </trkpt>
      <trkpt lat="48.90218" lon="1.07348">
        <ele>190</ele>
        <time>2014-06-15T11:00:38.000Z</time>
      </trkpt>
      <trkpt lat="48.90205" lon="1.07354">
        <ele>189</ele>
        <time>2014-06-15T11:00:40.000Z</time>
      </trkpt>
      <trkpt lat="48.90194" lon="1.07359">
        <ele>189</ele>
        <time>2014-06-15T11:00:42.000Z</time>
      </trkpt>
      <trkpt lat="48.90184" lon="1.07363">
        <ele>189</ele>
        <time>2014-06-15T11:00:44.000Z</time>
      </trkpt>
      <trkpt lat="48.90174" lon="1.07367">
        <ele>189</ele>
        <time>2014-06-15T11:00:46.000Z</time>
      </trkpt>
      <trkpt lat="48.90163" lon="1.07372">
        <ele>189</ele>
        <time>2014-06-15T11:00:48.000Z</time>
      </trkpt>
      <trkpt lat="48.90152" lon="1.07377">
        <ele>189</ele>
        <time>2014-06-15T11:00:50.000Z</time>
      </trkpt>
      <trkpt lat="48.90141" lon="1.07381">
        <ele>189</ele>
        <time>2014-06-15T11:00:52.000Z</time>
      </trkpt>
      <trkpt lat="48.90128" lon="1.07383">
        <ele>189</ele>
        <time>2014-06-15T11:00:54.000Z</time>
      </trkpt>
      <trkpt lat="48.90116" lon="1.07387">
        <ele>189</ele>
        <time>2014-06-15T11:00:56.000Z</time>
      </trkpt>
      <trkpt lat="48.90104" lon="1.07394">
        <ele>189</ele>
        <time>2014-06-15T11:00:58.000Z</time>
      </trkpt>
      <trkpt lat="48.90092" lon="1.07401">
        <ele>189</ele>
        <time>2014-06-15T11:01:00.000Z</time>
      </trkpt>
      <trkpt lat="48.90081" lon="1.07408">
        <ele>189</ele>
        <time>2014-06-15T11:01:02.000Z</time>
      </trkpt>
      <trkpt lat="48.90071" lon="1.07414">
        <ele>189</ele>
        <time>2014-06-15T11:01:04.000Z</time>
      </trkpt>
      <trkpt lat="48.90061" lon="1.07421">
        <ele>189</ele>
        <time>2014-06-15T11:01:06.000Z</time>
      </trkpt>
      <trkpt lat="48.90051" lon="1.07423">
        <ele>189</ele>
        <time>2014-06-15T11:01:08.000Z</time>
      </trkpt>
      <trkpt lat="48.90041" lon="1.07424">
        <ele>189</ele>
        <time>2014-06-15T11:01:10.000Z</time>
      </trkpt>
      <trkpt lat="48.90032" lon="1.07424">
        <ele>188</ele>
        <time>2014-06-15T11:01:12.000Z</time>
      </trkpt>
      <trkpt lat="48.90023" lon="1.07424">
        <ele>187</ele>
        <time>2014-06-15T11:01:14.000Z</time>
      </trkpt>
      <trkpt lat="48.90015" lon="1.07424">
        <ele>187</ele>
        <time>2014-06-15T11:01:16.000Z</time>
      </trkpt>
      <trkpt lat="48.90006" lon="1.07425">
        <ele>186</ele>
        <time>2014-06-15T11:01:18.000Z</time>
      </trkpt>
      <trkpt lat="48.89997" lon="1.07426">
        <ele>186</ele>
        <time>2014-06-15T11:01:20.000Z</time>
      </trkpt>
      <trkpt lat="48.89988" lon="1.07428">
        <ele>185</ele>
        <time>2014-06-15T11:01:22.000Z</time>
      </trkpt>
      <trkpt lat="48.89979" lon="1.0743">
        <ele>185</ele>
        <time>2014-06-15T11:01:24.000Z</time>
      </trkpt>
      <trkpt lat="48.89969" lon="1.07432">
        <ele>185</ele>
        <time>2014-06-15T11:01:26.000Z</time>
      </trkpt>
      <trkpt lat="48.89959" lon="1.07434">
        <ele>184</ele>
        <time>2014-06-15T11:01:28.000Z</time>
      </trkpt>
      <trkpt lat="48.89949" lon="1.07434">
        <ele>184</ele>
        <time>2014-06-15T11:01:30.000Z</time>
      </trkpt>
      <trkpt lat="48.89939" lon="1.07435">
        <ele>184</ele>
        <time>2014-06-15T11:01:32.000Z</time>
      </trkpt>
      <trkpt lat="48.8993" lon="1.07434">
        <ele>184</ele>
        <time>2014-06-15T11:01:34.000Z</time>
      </trkpt>
      <trkpt lat="48.89921" lon="1.07432">
        <ele>184</ele>
        <time>2014-06-15T11:01:36.000Z</time>
      </trkpt>
      <trkpt lat="48.89911" lon="1.07431">
        <ele>185</ele>
        <time>2014-06-15T11:01:38.000Z</time>
      </trkpt>
      <trkpt lat="48.89902" lon="1.07431">
        <ele>186</ele>
        <time>2014-06-15T11:01:40.000Z</time>
      </trkpt>
      <trkpt lat="48.89892" lon="1.07432">
        <ele>186</ele>
        <time>2014-06-15T11:01:42.000Z</time>
      </trkpt>
      <trkpt lat="48.89881" lon="1.07435">
        <ele>186</ele>
        <time>2014-06-15T11:01:44.000Z</time>
      </trkpt>
      <trkpt lat="48.89874" lon="1.07442">
        <ele>186</ele>
        <time>2014-06-15T11:01:46.000Z</time>
      </trkpt>
      <trkpt lat="48.89865" lon="1.07449">
        <ele>187</ele>
        <time>2014-06-15T11:01:48.000Z</time>
      </trkpt>
      <trkpt lat="48.89857" lon="1.07456">
        <ele>187</ele>
        <time>2014-06-15T11:01:50.000Z</time>
      </trkpt>
      <trkpt lat="48.89848" lon="1.07463">
        <ele>187</ele>
        <time>2014-06-15T11:01:52.000Z</time>
      </trkpt>
      <trkpt lat="48.89844" lon="1.07473">
        <ele>187</ele>
        <time>2014-06-15T11:01:54.000Z</time>
      </trkpt>
      <trkpt lat="48.89841" lon="1.07489">
        <ele>187</ele>
        <time>2014-06-15T11:01:56.000Z</time>
      </trkpt>
      <trkpt lat="48.89843" lon="1.07507">
        <ele>186</ele>
        <time>2014-06-15T11:01:58.000Z</time>
      </trkpt>
      <trkpt lat="48.89845" lon="1.07526">
        <ele>186</ele>
        <time>2014-06-15T11:02:00.000Z</time>
      </trkpt>
      <trkpt lat="48.89846" lon="1.07548">
        <ele>185</ele>
        <time>2014-06-15T11:02:02.000Z</time>
      </trkpt>
      <trkpt lat="48.89846" lon="1.07572">
        <ele>185</ele>
        <time>2014-06-15T11:02:04.000Z</time>
      </trkpt>
      <trkpt lat="48.89845" lon="1.07597">
        <ele>183</ele>
        <time>2014-06-15T11:02:06.000Z</time>
      </trkpt>
      <trkpt lat="48.89839" lon="1.07622">
        <ele>183</ele>
        <time>2014-06-15T11:02:08.000Z</time>
      </trkpt>
      <trkpt lat="48.89825" lon="1.0764">
        <ele>182</ele>
        <time>2014-06-15T11:02:10.000Z</time>
      </trkpt>
      <trkpt lat="48.8981" lon="1.07653">
        <ele>181</ele>
        <time>2014-06-15T11:02:12.000Z</time>
      </trkpt>
      <trkpt lat="48.89794" lon="1.07662">
        <ele>180</ele>
        <time>2014-06-15T11:02:14.000Z</time>
      </trkpt>
      <trkpt lat="48.8978" lon="1.07671">
        <ele>179</ele>
        <time>2014-06-15T11:02:16.000Z</time>
      </trkpt>
      <trkpt lat="48.89767" lon="1.0768">
        <ele>178</ele>
        <time>2014-06-15T11:02:18.000Z</time>
      </trkpt>
      <trkpt lat="48.89759" lon="1.07689">
        <ele>177</ele>
        <time>2014-06-15T11:02:20.000Z</time>
      </trkpt>
      <trkpt lat="48.89748" lon="1.07699">
        <ele>177</ele>
        <time>2014-06-15T11:02:22.000Z</time>
      </trkpt>
      <trkpt lat="48.89737" lon="1.0771">
        <ele>177</ele>
        <time>2014-06-15T11:02:24.000Z</time>
      </trkpt>
      <trkpt lat="48.89727" lon="1.0772">
        <ele>178</ele>
        <time>2014-06-15T11:02:26.000Z</time>
      </trkpt>
      <trkpt lat="48.89716" lon="1.07731">
        <ele>177</ele>
        <time>2014-06-15T11:02:28.000Z</time>
      </trkpt>
      <trkpt lat="48.89705" lon="1.07741">
        <ele>177</ele>
        <time>2014-06-15T11:02:30.000Z</time>
      </trkpt>
      <trkpt lat="48.89696" lon="1.07752">
        <ele>177</ele>
        <time>2014-06-15T11:02:32.000Z</time>
      </trkpt>
      <trkpt lat="48.8969" lon="1.07767">
        <ele>176</ele>
        <time>2014-06-15T11:02:34.000Z</time>
      </trkpt>
      <trkpt lat="48.89685" lon="1.07782">
        <ele>176</ele>
        <time>2014-06-15T11:02:36.000Z</time>
      </trkpt>
      <trkpt lat="48.89681" lon="1.07799">
        <ele>176</ele>
        <time>2014-06-15T11:02:38.000Z</time>
      </trkpt>
      <trkpt lat="48.89678" lon="1.07814">
        <ele>176</ele>
        <time>2014-06-15T11:02:40.000Z</time>
      </trkpt>
      <trkpt lat="48.89675" lon="1.07828">
        <ele>176</ele>
        <time>2014-06-15T11:02:42.000Z</time>
      </trkpt>
      <trkpt lat="48.89672" lon="1.07842">
        <ele>176</ele>
        <time>2014-06-15T11:02:44.000Z</time>
      </trkpt>
      <trkpt lat="48.89669" lon="1.07855">
        <ele>176</ele>
        <time>2014-06-15T11:02:46.000Z</time>
      </trkpt>
      <trkpt lat="48.89666" lon="1.07867">
        <ele>177</ele>
        <time>2014-06-15T11:02:48.000Z</time>
      </trkpt>
      <trkpt lat="48.89664" lon="1.07878">
        <ele>177</ele>
        <time>2014-06-15T11:02:50.000Z</time>
      </trkpt>
      <trkpt lat="48.89662" lon="1.07889">
        <ele>177</ele>
        <time>2014-06-15T11:02:52.000Z</time>
      </trkpt>
      <trkpt lat="48.89662" lon="1.07889">
        <ele>177</ele>
        <time>2014-06-15T11:02:54.000Z</time>
      </trkpt>
      <trkpt lat="48.89655" lon="1.07888">
        <ele>177</ele>
        <time>2014-06-15T11:02:56.000Z</time>
      </trkpt>
      <trkpt lat="48.89649" lon="1.07878">
        <ele>177</ele>
        <time>2014-06-15T11:02:58.000Z</time>
      </trkpt>
      <trkpt lat="48.89643" lon="1.07868">
        <ele>177</ele>
        <time>2014-06-15T11:03:00.000Z</time>
      </trkpt>
      <trkpt lat="48.89636" lon="1.07856">
        <ele>177</ele>
        <time>2014-06-15T11:03:02.000Z</time>
      </trkpt>
      <trkpt lat="48.89629" lon="1.07845">
        <ele>177</ele>
        <time>2014-06-15T11:03:04.000Z</time>
      </trkpt>
      <trkpt lat="48.89623" lon="1.07834">
        <ele>176</ele>
        <time>2014-06-15T11:03:06.000Z</time>
      </trkpt>
      <trkpt lat="48.89616" lon="1.07822">
        <ele>176</ele>
        <time>2014-06-15T11:03:08.000Z</time>
      </trkpt>
      <trkpt lat="48.89608" lon="1.0781">
        <ele>177</ele>
        <time>2014-06-15T11:03:10.000Z</time>
      </trkpt>
      <trkpt lat="48.89601" lon="1.07798">
        <ele>177</ele>
        <time>2014-06-15T11:03:12.000Z</time>
      </trkpt>
      <trkpt lat="48.89593" lon="1.07786">
        <ele>177</ele>
        <time>2014-06-15T11:03:14.000Z</time>
      </trkpt>
      <trkpt lat="48.89585" lon="1.07773">
        <ele>177</ele>
        <time>2014-06-15T11:03:16.000Z</time>
      </trkpt>
      <trkpt lat="48.89578" lon="1.07762">
        <ele>177</ele>
        <time>2014-06-15T11:03:18.000Z</time>
      </trkpt>
      <trkpt lat="48.8957" lon="1.07751">
        <ele>176</ele>
        <time>2014-06-15T11:03:20.000Z</time>
      </trkpt>
      <trkpt lat="48.8956" lon="1.07739">
        <ele>176</ele>
        <time>2014-06-15T11:03:22.000Z</time>
      </trkpt>
      <trkpt lat="48.8955" lon="1.0773">
        <ele>176</ele>
        <time>2014-06-15T11:03:24.000Z</time>
      </trkpt>
      <trkpt lat="48.89541" lon="1.0772">
        <ele>176</ele>
        <time>2014-06-15T11:03:26.000Z</time>
      </trkpt>
      <trkpt lat="48.89532" lon="1.07712">
        <ele>176</ele>
        <time>2014-06-15T11:03:28.000Z</time>
      </trkpt>
      <trkpt lat="48.89522" lon="1.07704">
        <ele>178</ele>
        <time>2014-06-15T11:03:30.000Z</time>
      </trkpt>
      <trkpt lat="48.89511" lon="1.07696">
        <ele>179</ele>
        <time>2014-06-15T11:03:32.000Z</time>
      </trkpt>
      <trkpt lat="48.895" lon="1.07687">
        <ele>180</ele>
        <time>2014-06-15T11:03:34.000Z</time>
      </trkpt>
      <trkpt lat="48.89489" lon="1.0768">
        <ele>181</ele>
        <time>2014-06-15T11:03:36.000Z</time>
      </trkpt>
      <trkpt lat="48.89479" lon="1.07683">
        <ele>180</ele>
        <time>2014-06-15T11:03:38.000Z</time>
      </trkpt>
      <trkpt lat="48.89474" lon="1.07693">
        <ele>180</ele>
        <time>2014-06-15T11:03:40.000Z</time>
      </trkpt>
      <trkpt lat="48.89475" lon="1.07706">
        <ele>180</ele>
        <time>2014-06-15T11:03:42.000Z</time>
      </trkpt>
      <trkpt lat="48.89475" lon="1.07718">
        <ele>179</ele>
        <time>2014-06-15T11:03:44.000Z</time>
      </trkpt>
      <trkpt lat="48.89476" lon="1.07729">
        <ele>179</ele>
        <time>2014-06-15T11:03:46.000Z</time>
      </trkpt>
      <trkpt lat="48.89476" lon="1.0774">
        <ele>179</ele>
        <time>2014-06-15T11:03:48.000Z</time>
      </trkpt>
      <trkpt lat="48.89478" lon="1.0775">
        <ele>180</ele>
        <time>2014-06-15T11:03:50.000Z</time>
      </trkpt>
      <trkpt lat="48.89478" lon="1.0776">
        <ele>180</ele>
        <time>2014-06-15T11:03:52.000Z</time>
      </trkpt>
      <trkpt lat="48.89478" lon="1.0776">
        <ele>180</ele>
        <time>2014-06-15T11:03:54.000Z</time>
      </trkpt>
      <trkpt lat="48.89478" lon="1.07775">
        <ele>180</ele>
        <time>2014-06-15T11:03:56.000Z</time>
      </trkpt>
      <trkpt lat="48.89478" lon="1.07775">
        <ele>180</ele>
        <time>2014-06-15T11:03:58.000Z</time>
      </trkpt>
      <trkpt lat="48.89479" lon="1.07789">
        <ele>180</ele>
        <time>2014-06-15T11:04:00.000Z</time>
      </trkpt>
      <trkpt lat="48.89479" lon="1.07789">
        <ele>180</ele>
        <time>2014-06-15T11:04:02.000Z</time>
      </trkpt>
      <trkpt lat="48.89479" lon="1.07802">
        <ele>180</ele>
        <time>2014-06-15T11:04:04.000Z</time>
      </trkpt>
      <trkpt lat="48.89479" lon="1.07802">
        <ele>180</ele>
        <time>2014-06-15T11:04:06.000Z</time>
      </trkpt>
      <trkpt lat="48.89476" lon="1.07814">
        <ele>181</ele>
        <time>2014-06-15T11:04:08.000Z</time>
      </trkpt>
      <trkpt lat="48.89472" lon="1.07826">
        <ele>181</ele>
        <time>2014-06-15T11:04:12.000Z</time>
      </trkpt>
      <trkpt lat="48.89466" lon="1.0784">
        <ele>181</ele>
        <time>2014-06-15T11:04:16.000Z</time>
      </trkpt>
      <trkpt lat="48.89461" lon="1.07857">
        <ele>181</ele>
        <time>2014-06-15T11:04:20.000Z</time>
      </trkpt>
      <trkpt lat="48.89458" lon="1.07866">
        <ele>181</ele>
        <time>2014-06-15T11:04:22.000Z</time>
      </trkpt>
      <trkpt lat="48.89455" lon="1.07876">
        <ele>182</ele>
        <time>2014-06-15T11:04:24.000Z</time>
      </trkpt>
      <trkpt lat="48.89451" lon="1.07886">
        <ele>182</ele>
        <time>2014-06-15T11:04:26.000Z</time>
      </trkpt>
      <trkpt lat="48.89449" lon="1.07894">
        <ele>182</ele>
        <time>2014-06-15T11:04:28.000Z</time>
      </trkpt>
      <trkpt lat="48.89446" lon="1.07901">
        <ele>182</ele>
        <time>2014-06-15T11:04:30.000Z</time>
      </trkpt>
      <trkpt lat="48.89444" lon="1.0791">
        <ele>182</ele>
        <time>2014-06-15T11:04:32.000Z</time>
      </trkpt>
      <trkpt lat="48.89442" lon="1.07919">
        <ele>182</ele>
        <time>2014-06-15T11:04:34.000Z</time>
      </trkpt>
      <trkpt lat="48.8944" lon="1.07928">
        <ele>182</ele>
        <time>2014-06-15T11:04:36.000Z</time>
      </trkpt>
      <trkpt lat="48.89439" lon="1.0794">
        <ele>182</ele>
        <time>2014-06-15T11:04:38.000Z</time>
      </trkpt>
      <trkpt lat="48.89436" lon="1.07954">
        <ele>182</ele>
        <time>2014-06-15T11:04:40.000Z</time>
      </trkpt>
      <trkpt lat="48.89432" lon="1.0797">
        <ele>182</ele>
        <time>2014-06-15T11:04:42.000Z</time>
      </trkpt>
      <trkpt lat="48.89426" lon="1.07985">
        <ele>182</ele>
        <time>2014-06-15T11:04:44.000Z</time>
      </trkpt>
      <trkpt lat="48.89421" lon="1.08">
        <ele>183</ele>
        <time>2014-06-15T11:04:46.000Z</time>
      </trkpt>
      <trkpt lat="48.89416" lon="1.08011">
        <ele>184</ele>
        <time>2014-06-15T11:04:48.000Z</time>
      </trkpt>
      <trkpt lat="48.89412" lon="1.08022">
        <ele>184</ele>
        <time>2014-06-15T11:04:50.000Z</time>
      </trkpt>
      <trkpt lat="48.89408" lon="1.08034">
        <ele>184</ele>
        <time>2014-06-15T11:04:52.000Z</time>
      </trkpt>
      <trkpt lat="48.89405" lon="1.08047">
        <ele>185</ele>
        <time>2014-06-15T11:04:54.000Z</time>
      </trkpt>
      <trkpt lat="48.89402" lon="1.08062">
        <ele>185</ele>
        <time>2014-06-15T11:04:56.000Z</time>
      </trkpt>
      <trkpt lat="48.89399" lon="1.08078">
        <ele>185</ele>
        <time>2014-06-15T11:04:58.000Z</time>
      </trkpt>
      <trkpt lat="48.89399" lon="1.08096">
        <ele>185</ele>
        <time>2014-06-15T11:05:00.000Z</time>
      </trkpt>
      <trkpt lat="48.894" lon="1.08113">
        <ele>185</ele>
        <time>2014-06-15T11:05:02.000Z</time>
      </trkpt>
      <trkpt lat="48.89401" lon="1.08128">
        <ele>185</ele>
        <time>2014-06-15T11:05:04.000Z</time>
      </trkpt>
      <trkpt lat="48.89403" lon="1.08144">
        <ele>185</ele>
        <time>2014-06-15T11:05:06.000Z</time>
      </trkpt>
      <trkpt lat="48.89404" lon="1.08156">
        <ele>185</ele>
        <time>2014-06-15T11:05:08.000Z</time>
      </trkpt>
      <trkpt lat="48.89406" lon="1.08168">
        <ele>185</ele>
        <time>2014-06-15T11:05:10.000Z</time>
      </trkpt>
      <trkpt lat="48.89407" lon="1.08181">
        <ele>184</ele>
        <time>2014-06-15T11:05:12.000Z</time>
      </trkpt>
      <trkpt lat="48.89407" lon="1.08193">
        <ele>185</ele>
        <time>2014-06-15T11:05:14.000Z</time>
      </trkpt>
      <trkpt lat="48.89405" lon="1.08204">
        <ele>185</ele>
        <time>2014-06-15T11:05:16.000Z</time>
      </trkpt>
      <trkpt lat="48.894" lon="1.08213">
        <ele>185</ele>
        <time>2014-06-15T11:05:18.000Z</time>
      </trkpt>
      <trkpt lat="48.89393" lon="1.0822">
        <ele>185</ele>
        <time>2014-06-15T11:05:20.000Z</time>
      </trkpt>
      <trkpt lat="48.89386" lon="1.08227">
        <ele>186</ele>
        <time>2014-06-15T11:05:22.000Z</time>
      </trkpt>
      <trkpt lat="48.89376" lon="1.08234">
        <ele>186</ele>
        <time>2014-06-15T11:05:24.000Z</time>
      </trkpt>
      <trkpt lat="48.89367" lon="1.0824">
        <ele>186</ele>
        <time>2014-06-15T11:05:26.000Z</time>
      </trkpt>
      <trkpt lat="48.89356" lon="1.08246">
        <ele>186</ele>
        <time>2014-06-15T11:05:28.000Z</time>
      </trkpt>
      <trkpt lat="48.89345" lon="1.0825">
        <ele>186</ele>
        <time>2014-06-15T11:05:30.000Z</time>
      </trkpt>
      <trkpt lat="48.89334" lon="1.08254">
        <ele>186</ele>
        <time>2014-06-15T11:05:32.000Z</time>
      </trkpt>
      <trkpt lat="48.89323" lon="1.08258">
        <ele>187</ele>
        <time>2014-06-15T11:05:34.000Z</time>
      </trkpt>
      <trkpt lat="48.89312" lon="1.08262">
        <ele>187</ele>
        <time>2014-06-15T11:05:36.000Z</time>
      </trkpt>
      <trkpt lat="48.89302" lon="1.08266">
        <ele>187</ele>
        <time>2014-06-15T11:05:38.000Z</time>
      </trkpt>
      <trkpt lat="48.89291" lon="1.08269">
        <ele>187</ele>
        <time>2014-06-15T11:05:40.000Z</time>
      </trkpt>
      <trkpt lat="48.89281" lon="1.08273">
        <ele>187</ele>
        <time>2014-06-15T11:05:42.000Z</time>
      </trkpt>
      <trkpt lat="48.89271" lon="1.08278">
        <ele>187</ele>
        <time>2014-06-15T11:05:44.000Z</time>
      </trkpt>
      <trkpt lat="48.89261" lon="1.08283">
        <ele>186</ele>
        <time>2014-06-15T11:05:46.000Z</time>
      </trkpt>
      <trkpt lat="48.89253" lon="1.08289">
        <ele>187</ele>
        <time>2014-06-15T11:05:48.000Z</time>
      </trkpt>
      <trkpt lat="48.89246" lon="1.08295">
        <ele>187</ele>
        <time>2014-06-15T11:05:50.000Z</time>
      </trkpt>
      <trkpt lat="48.89239" lon="1.08301">
        <ele>188</ele>
        <time>2014-06-15T11:05:52.000Z</time>
      </trkpt>
      <trkpt lat="48.89232" lon="1.08308">
        <ele>189</ele>
        <time>2014-06-15T11:05:54.000Z</time>
      </trkpt>
      <trkpt lat="48.89225" lon="1.08316">
        <ele>190</ele>
        <time>2014-06-15T11:05:56.000Z</time>
      </trkpt>
      <trkpt lat="48.89217" lon="1.08325">
        <ele>189</ele>
        <time>2014-06-15T11:05:58.000Z</time>
      </trkpt>
      <trkpt lat="48.89209" lon="1.08335">
        <ele>189</ele>
        <time>2014-06-15T11:06:00.000Z</time>
      </trkpt>
      <trkpt lat="48.892" lon="1.08346">
        <ele>190</ele>
        <time>2014-06-15T11:06:02.000Z</time>
      </trkpt>
      <trkpt lat="48.89192" lon="1.08356">
        <ele>190</ele>
        <time>2014-06-15T11:06:04.000Z</time>
      </trkpt>
      <trkpt lat="48.89185" lon="1.08366">
        <ele>190</ele>
        <time>2014-06-15T11:06:06.000Z</time>
      </trkpt>
      <trkpt lat="48.89178" lon="1.08377">
        <ele>191</ele>
        <time>2014-06-15T11:06:08.000Z</time>
      </trkpt>
      <trkpt lat="48.89171" lon="1.08388">
        <ele>190</ele>
        <time>2014-06-15T11:06:10.000Z</time>
      </trkpt>
      <trkpt lat="48.89164" lon="1.08399">
        <ele>190</ele>
        <time>2014-06-15T11:06:12.000Z</time>
      </trkpt>
      <trkpt lat="48.89157" lon="1.08411">
        <ele>190</ele>
        <time>2014-06-15T11:06:14.000Z</time>
      </trkpt>
      <trkpt lat="48.8915" lon="1.08423">
        <ele>191</ele>
        <time>2014-06-15T11:06:16.000Z</time>
      </trkpt>
      <trkpt lat="48.89143" lon="1.08435">
        <ele>191</ele>
        <time>2014-06-15T11:06:18.000Z</time>
      </trkpt>
      <trkpt lat="48.89136" lon="1.08446">
        <ele>192</ele>
        <time>2014-06-15T11:06:20.000Z</time>
      </trkpt>
      <trkpt lat="48.89129" lon="1.08457">
        <ele>193</ele>
        <time>2014-06-15T11:06:22.000Z</time>
      </trkpt>
      <trkpt lat="48.89122" lon="1.0847">
        <ele>193</ele>
        <time>2014-06-15T11:06:24.000Z</time>
      </trkpt>
      <trkpt lat="48.89116" lon="1.08482">
        <ele>194</ele>
        <time>2014-06-15T11:06:26.000Z</time>
      </trkpt>
      <trkpt lat="48.8911" lon="1.08493">
        <ele>194</ele>
        <time>2014-06-15T11:06:28.000Z</time>
      </trkpt>
      <trkpt lat="48.89105" lon="1.08502">
        <ele>195</ele>
        <time>2014-06-15T11:06:30.000Z</time>
      </trkpt>
      <trkpt lat="48.89099" lon="1.08513">
        <ele>197</ele>
        <time>2014-06-15T11:06:32.000Z</time>
      </trkpt>
      <trkpt lat="48.89095" lon="1.08523">
        <ele>199</ele>
        <time>2014-06-15T11:06:34.000Z</time>
      </trkpt>
      <trkpt lat="48.89089" lon="1.08533">
        <ele>200</ele>
        <time>2014-06-15T11:06:36.000Z</time>
      </trkpt>
      <trkpt lat="48.89084" lon="1.08543">
        <ele>201</ele>
        <time>2014-06-15T11:06:38.000Z</time>
      </trkpt>
      <trkpt lat="48.89079" lon="1.08554">
        <ele>201</ele>
        <time>2014-06-15T11:06:40.000Z</time>
      </trkpt>
      <trkpt lat="48.89074" lon="1.08564">
        <ele>201</ele>
        <time>2014-06-15T11:06:42.000Z</time>
      </trkpt>
      <trkpt lat="48.89068" lon="1.08575">
        <ele>201</ele>
        <time>2014-06-15T11:06:44.000Z</time>
      </trkpt>
      <trkpt lat="48.89061" lon="1.08587">
        <ele>200</ele>
        <time>2014-06-15T11:06:46.000Z</time>
      </trkpt>
      <trkpt lat="48.89054" lon="1.08599">
        <ele>200</ele>
        <time>2014-06-15T11:06:48.000Z</time>
      </trkpt>
      <trkpt lat="48.89047" lon="1.08609">
        <ele>201</ele>
        <time>2014-06-15T11:06:50.000Z</time>
      </trkpt>
      <trkpt lat="48.8904" lon="1.08618">
        <ele>201</ele>
        <time>2014-06-15T11:06:52.000Z</time>
      </trkpt>
      <trkpt lat="48.89032" lon="1.08631">
        <ele>203</ele>
        <time>2014-06-15T11:06:54.000Z</time>
      </trkpt>
      <trkpt lat="48.89024" lon="1.08643">
        <ele>204</ele>
        <time>2014-06-15T11:06:56.000Z</time>
      </trkpt>
      <trkpt lat="48.89016" lon="1.08657">
        <ele>204</ele>
        <time>2014-06-15T11:06:58.000Z</time>
      </trkpt>
      <trkpt lat="48.89007" lon="1.08671">
        <ele>203</ele>
        <time>2014-06-15T11:07:00.000Z</time>
      </trkpt>
      <trkpt lat="48.89" lon="1.08684">
        <ele>203</ele>
        <time>2014-06-15T11:07:02.000Z</time>
      </trkpt>
      <trkpt lat="48.88992" lon="1.08696">
        <ele>202</ele>
        <time>2014-06-15T11:07:04.000Z</time>
      </trkpt>
      <trkpt lat="48.88985" lon="1.08707">
        <ele>202</ele>
        <time>2014-06-15T11:07:06.000Z</time>
      </trkpt>
      <trkpt lat="48.88978" lon="1.08717">
        <ele>203</ele>
        <time>2014-06-15T11:07:08.000Z</time>
      </trkpt>
      <trkpt lat="48.88972" lon="1.08727">
        <ele>203</ele>
        <time>2014-06-15T11:07:10.000Z</time>
      </trkpt>
      <trkpt lat="48.88965" lon="1.08737">
        <ele>204</ele>
        <time>2014-06-15T11:07:12.000Z</time>
      </trkpt>
      <trkpt lat="48.88958" lon="1.08747">
        <ele>204</ele>
        <time>2014-06-15T11:07:14.000Z</time>
      </trkpt>
      <trkpt lat="48.8895" lon="1.08758">
        <ele>205</ele>
        <time>2014-06-15T11:07:16.000Z</time>
      </trkpt>
      <trkpt lat="48.88942" lon="1.08771">
        <ele>204</ele>
        <time>2014-06-15T11:07:18.000Z</time>
      </trkpt>
      <trkpt lat="48.88935" lon="1.08784">
        <ele>203</ele>
        <time>2014-06-15T11:07:20.000Z</time>
      </trkpt>
      <trkpt lat="48.88927" lon="1.08797">
        <ele>203</ele>
        <time>2014-06-15T11:07:22.000Z</time>
      </trkpt>
      <trkpt lat="48.88919" lon="1.08809">
        <ele>203</ele>
        <time>2014-06-15T11:07:24.000Z</time>
      </trkpt>
      <trkpt lat="48.88912" lon="1.08821">
        <ele>203</ele>
        <time>2014-06-15T11:07:26.000Z</time>
      </trkpt>
      <trkpt lat="48.88905" lon="1.08832">
        <ele>204</ele>
        <time>2014-06-15T11:07:28.000Z</time>
      </trkpt>
      <trkpt lat="48.88898" lon="1.08844">
        <ele>206</ele>
        <time>2014-06-15T11:07:30.000Z</time>
      </trkpt>
      <trkpt lat="48.88889" lon="1.08854">
        <ele>208</ele>
        <time>2014-06-15T11:07:32.000Z</time>
      </trkpt>
      <trkpt lat="48.88882" lon="1.08865">
        <ele>209</ele>
        <time>2014-06-15T11:07:34.000Z</time>
      </trkpt>
      <trkpt lat="48.88873" lon="1.08877">
        <ele>211</ele>
        <time>2014-06-15T11:07:36.000Z</time>
      </trkpt>
      <trkpt lat="48.88864" lon="1.0889">
        <ele>212</ele>
        <time>2014-06-15T11:07:38.000Z</time>
      </trkpt>
      <trkpt lat="48.88854" lon="1.08904">
        <ele>212</ele>
        <time>2014-06-15T11:07:40.000Z</time>
      </trkpt>
      <trkpt lat="48.88846" lon="1.08918">
        <ele>212</ele>
        <time>2014-06-15T11:07:42.000Z</time>
      </trkpt>
      <trkpt lat="48.88838" lon="1.0893">
        <ele>211</ele>
        <time>2014-06-15T11:07:44.000Z</time>
      </trkpt>
      <trkpt lat="48.88829" lon="1.08944">
        <ele>209</ele>
        <time>2014-06-15T11:07:46.000Z</time>
      </trkpt>
      <trkpt lat="48.88822" lon="1.08956">
        <ele>207</ele>
        <time>2014-06-15T11:07:48.000Z</time>
      </trkpt>
      <trkpt lat="48.88815" lon="1.08966">
        <ele>206</ele>
        <time>2014-06-15T11:07:50.000Z</time>
      </trkpt>
      <trkpt lat="48.88808" lon="1.08975">
        <ele>206</ele>
        <time>2014-06-15T11:07:52.000Z</time>
      </trkpt>
      <trkpt lat="48.88801" lon="1.08985">
        <ele>206</ele>
        <time>2014-06-15T11:07:54.000Z</time>
      </trkpt>
      <trkpt lat="48.88795" lon="1.08994">
        <ele>206</ele>
        <time>2014-06-15T11:07:56.000Z</time>
      </trkpt>
      <trkpt lat="48.88789" lon="1.09002">
        <ele>207</ele>
        <time>2014-06-15T11:07:58.000Z</time>
      </trkpt>
      <trkpt lat="48.88782" lon="1.09013">
        <ele>207</ele>
        <time>2014-06-15T11:08:00.000Z</time>
      </trkpt>
      <trkpt lat="48.88774" lon="1.09025">
        <ele>206</ele>
        <time>2014-06-15T11:08:02.000Z</time>
      </trkpt>
      <trkpt lat="48.88768" lon="1.09035">
        <ele>205</ele>
        <time>2014-06-15T11:08:04.000Z</time>
      </trkpt>
      <trkpt lat="48.88761" lon="1.09046">
        <ele>204</ele>
        <time>2014-06-15T11:08:06.000Z</time>
      </trkpt>
      <trkpt lat="48.88754" lon="1.09058">
        <ele>202</ele>
        <time>2014-06-15T11:08:08.000Z</time>
      </trkpt>
      <trkpt lat="48.88746" lon="1.09069">
        <ele>201</ele>
        <time>2014-06-15T11:08:10.000Z</time>
      </trkpt>
      <trkpt lat="48.88737" lon="1.09079">
        <ele>201</ele>
        <time>2014-06-15T11:08:12.000Z</time>
      </trkpt>
      <trkpt lat="48.88729" lon="1.09083">
        <ele>201</ele>
        <time>2014-06-15T11:08:14.000Z</time>
      </trkpt>
      <trkpt lat="48.88719" lon="1.09082">
        <ele>201</ele>
        <time>2014-06-15T11:08:16.000Z</time>
      </trkpt>
      <trkpt lat="48.88707" lon="1.09076">
        <ele>202</ele>
        <time>2014-06-15T11:08:18.000Z</time>
      </trkpt>
      <trkpt lat="48.88692" lon="1.09065">
        <ele>202</ele>
        <time>2014-06-15T11:08:20.000Z</time>
      </trkpt>
      <trkpt lat="48.88677" lon="1.09053">
        <ele>200</ele>
        <time>2014-06-15T11:08:22.000Z</time>
      </trkpt>
      <trkpt lat="48.88663" lon="1.09041">
        <ele>198</ele>
        <time>2014-06-15T11:08:24.000Z</time>
      </trkpt>
      <trkpt lat="48.88651" lon="1.09031">
        <ele>196</ele>
        <time>2014-06-15T11:08:26.000Z</time>
      </trkpt>
      <trkpt lat="48.88638" lon="1.09021">
        <ele>194</ele>
        <time>2014-06-15T11:08:28.000Z</time>
      </trkpt>
      <trkpt lat="48.88626" lon="1.09011">
        <ele>193</ele>
        <time>2014-06-15T11:08:30.000Z</time>
      </trkpt>
      <trkpt lat="48.88614" lon="1.08999">
        <ele>192</ele>
        <time>2014-06-15T11:08:32.000Z</time>
      </trkpt>
      <trkpt lat="48.886" lon="1.08987">
        <ele>192</ele>
        <time>2014-06-15T11:08:34.000Z</time>
      </trkpt>
      <trkpt lat="48.88586" lon="1.08972">
        <ele>191</ele>
        <time>2014-06-15T11:08:36.000Z</time>
      </trkpt>
      <trkpt lat="48.8857" lon="1.08957">
        <ele>191</ele>
        <time>2014-06-15T11:08:38.000Z</time>
      </trkpt>
      <trkpt lat="48.88553" lon="1.08941">
        <ele>191</ele>
        <time>2014-06-15T11:08:40.000Z</time>
      </trkpt>
      <trkpt lat="48.88536" lon="1.08925">
        <ele>191</ele>
        <time>2014-06-15T11:08:42.000Z</time>
      </trkpt>
      <trkpt lat="48.88519" lon="1.08909">
        <ele>190</ele>
        <time>2014-06-15T11:08:44.000Z</time>
      </trkpt>
      <trkpt lat="48.88501" lon="1.08894">
        <ele>190</ele>
        <time>2014-06-15T11:08:46.000Z</time>
      </trkpt>
      <trkpt lat="48.88483" lon="1.08878">
        <ele>189</ele>
        <time>2014-06-15T11:08:48.000Z</time>
      </trkpt>
      <trkpt lat="48.88464" lon="1.08861">
        <ele>189</ele>
        <time>2014-06-15T11:08:50.000Z</time>
      </trkpt>
      <trkpt lat="48.88448" lon="1.08846">
        <ele>188</ele>
        <time>2014-06-15T11:08:52.000Z</time>
      </trkpt>
      <trkpt lat="48.88431" lon="1.08831">
        <ele>188</ele>
        <time>2014-06-15T11:08:54.000Z</time>
      </trkpt>
      <trkpt lat="48.88414" lon="1.08816">
        <ele>186</ele>
        <time>2014-06-15T11:08:56.000Z</time>
      </trkpt>
      <trkpt lat="48.88398" lon="1.08802">
        <ele>185</ele>
        <time>2014-06-15T11:08:58.000Z</time>
      </trkpt>
      <trkpt lat="48.88383" lon="1.08789">
        <ele>185</ele>
        <time>2014-06-15T11:09:00.000Z</time>
      </trkpt>
      <trkpt lat="48.88367" lon="1.08777">
        <ele>185</ele>
        <time>2014-06-15T11:09:02.000Z</time>
      </trkpt>
      <trkpt lat="48.88351" lon="1.08766">
        <ele>185</ele>
        <time>2014-06-15T11:09:04.000Z</time>
      </trkpt>
      <trkpt lat="48.88335" lon="1.08756">
        <ele>184</ele>
        <time>2014-06-15T11:09:06.000Z</time>
      </trkpt>
      <trkpt lat="48.88319" lon="1.08749">
        <ele>184</ele>
        <time>2014-06-15T11:09:08.000Z</time>
      </trkpt>
      <trkpt lat="48.88302" lon="1.08741">
        <ele>184</ele>
        <time>2014-06-15T11:09:10.000Z</time>
      </trkpt>
      <trkpt lat="48.88287" lon="1.08735">
        <ele>183</ele>
        <time>2014-06-15T11:09:12.000Z</time>
      </trkpt>
      <trkpt lat="48.88272" lon="1.0873">
        <ele>183</ele>
        <time>2014-06-15T11:09:14.000Z</time>
      </trkpt>
      <trkpt lat="48.88259" lon="1.08728">
        <ele>182</ele>
        <time>2014-06-15T11:09:16.000Z</time>
      </trkpt>
      <trkpt lat="48.88248" lon="1.08737">
        <ele>182</ele>
        <time>2014-06-15T11:09:18.000Z</time>
      </trkpt>
      <trkpt lat="48.88243" lon="1.08754">
        <ele>182</ele>
        <time>2014-06-15T11:09:20.000Z</time>
      </trkpt>
      <trkpt lat="48.88239" lon="1.08774">
        <ele>183</ele>
        <time>2014-06-15T11:09:22.000Z</time>
      </trkpt>
      <trkpt lat="48.88236" lon="1.08794">
        <ele>183</ele>
        <time>2014-06-15T11:09:24.000Z</time>
      </trkpt>
      <trkpt lat="48.88234" lon="1.08816">
        <ele>184</ele>
        <time>2014-06-15T11:09:26.000Z</time>
      </trkpt>
      <trkpt lat="48.88233" lon="1.08837">
        <ele>183</ele>
        <time>2014-06-15T11:09:28.000Z</time>
      </trkpt>
      <trkpt lat="48.88231" lon="1.08858">
        <ele>182</ele>
        <time>2014-06-15T11:09:30.000Z</time>
      </trkpt>
      <trkpt lat="48.88229" lon="1.0888">
        <ele>182</ele>
        <time>2014-06-15T11:09:32.000Z</time>
      </trkpt>
      <trkpt lat="48.88226" lon="1.089">
        <ele>182</ele>
        <time>2014-06-15T11:09:34.000Z</time>
      </trkpt>
      <trkpt lat="48.88225" lon="1.08916">
        <ele>183</ele>
        <time>2014-06-15T11:09:36.000Z</time>
      </trkpt>
      <trkpt lat="48.88224" lon="1.0893">
        <ele>184</ele>
        <time>2014-06-15T11:09:38.000Z</time>
      </trkpt>
      <trkpt lat="48.88224" lon="1.08943">
        <ele>185</ele>
        <time>2014-06-15T11:09:40.000Z</time>
      </trkpt>
      <trkpt lat="48.88223" lon="1.0896">
        <ele>186</ele>
        <time>2014-06-15T11:09:42.000Z</time>
      </trkpt>
      <trkpt lat="48.88222" lon="1.08971">
        <ele>187</ele>
        <time>2014-06-15T11:09:44.000Z</time>
      </trkpt>
      <trkpt lat="48.8822" lon="1.08981">
        <ele>187</ele>
        <time>2014-06-15T11:09:46.000Z</time>
      </trkpt>
      <trkpt lat="48.88218" lon="1.0899">
        <ele>187</ele>
        <time>2014-06-15T11:09:48.000Z</time>
      </trkpt>
      <trkpt lat="48.88216" lon="1.09001">
        <ele>187</ele>
        <time>2014-06-15T11:09:50.000Z</time>
      </trkpt>
      <trkpt lat="48.88214" lon="1.09012">
        <ele>188</ele>
        <time>2014-06-15T11:09:52.000Z</time>
      </trkpt>
      <trkpt lat="48.88213" lon="1.09025">
        <ele>188</ele>
        <time>2014-06-15T11:09:54.000Z</time>
      </trkpt>
      <trkpt lat="48.88213" lon="1.09039">
        <ele>188</ele>
        <time>2014-06-15T11:09:56.000Z</time>
      </trkpt>
      <trkpt lat="48.88214" lon="1.09053">
        <ele>188</ele>
        <time>2014-06-15T11:09:58.000Z</time>
      </trkpt>
      <trkpt lat="48.88216" lon="1.09067">
        <ele>188</ele>
        <time>2014-06-15T11:10:00.000Z</time>
      </trkpt>
      <trkpt lat="48.88218" lon="1.09077">
        <ele>188</ele>
        <time>2014-06-15T11:10:02.000Z</time>
      </trkpt>
      <trkpt lat="48.88223" lon="1.09089">
        <ele>189</ele>
        <time>2014-06-15T11:10:04.000Z</time>
      </trkpt>
      <trkpt lat="48.88229" lon="1.09098">
        <ele>189</ele>
        <time>2014-06-15T11:10:06.000Z</time>
      </trkpt>
      <trkpt lat="48.88235" lon="1.09108">
        <ele>189</ele>
        <time>2014-06-15T11:10:08.000Z</time>
      </trkpt>
      <trkpt lat="48.88243" lon="1.09116">
        <ele>189</ele>
        <time>2014-06-15T11:10:10.000Z</time>
      </trkpt>
      <trkpt lat="48.88251" lon="1.09124">
        <ele>189</ele>
        <time>2014-06-15T11:10:12.000Z</time>
      </trkpt>
      <trkpt lat="48.88256" lon="1.0913">
        <ele>189</ele>
        <time>2014-06-15T11:10:14.000Z</time>
      </trkpt>
      <trkpt lat="48.88262" lon="1.09136">
        <ele>190</ele>
        <time>2014-06-15T11:10:16.000Z</time>
      </trkpt>
      <trkpt lat="48.88262" lon="1.09136">
        <ele>190</ele>
        <time>2014-06-15T11:10:18.000Z</time>
      </trkpt>
      <trkpt lat="48.88271" lon="1.09147">
        <ele>190</ele>
        <time>2014-06-15T11:10:20.000Z</time>
      </trkpt>
      <trkpt lat="48.88271" lon="1.09147">
        <ele>190</ele>
        <time>2014-06-15T11:10:22.000Z</time>
      </trkpt>
      <trkpt lat="48.88276" lon="1.09159">
        <ele>191</ele>
        <time>2014-06-15T11:10:24.000Z</time>
      </trkpt>
      <trkpt lat="48.88276" lon="1.09159">
        <ele>191</ele>
        <time>2014-06-15T11:10:26.000Z</time>
      </trkpt>
      <trkpt lat="48.88274" lon="1.09175">
        <ele>191</ele>
        <time>2014-06-15T11:10:28.000Z</time>
      </trkpt>
      <trkpt lat="48.88271" lon="1.09188">
        <ele>193</ele>
        <time>2014-06-15T11:10:30.000Z</time>
      </trkpt>
      <trkpt lat="48.88268" lon="1.09201">
        <ele>193</ele>
        <time>2014-06-15T11:10:32.000Z</time>
      </trkpt>
      <trkpt lat="48.88265" lon="1.09212">
        <ele>194</ele>
        <time>2014-06-15T11:10:34.000Z</time>
      </trkpt>
      <trkpt lat="48.88261" lon="1.09224">
        <ele>194</ele>
        <time>2014-06-15T11:10:36.000Z</time>
      </trkpt>
      <trkpt lat="48.88257" lon="1.09238">
        <ele>194</ele>
        <time>2014-06-15T11:10:38.000Z</time>
      </trkpt>
      <trkpt lat="48.88255" lon="1.09251">
        <ele>195</ele>
        <time>2014-06-15T11:10:40.000Z</time>
      </trkpt>
      <trkpt lat="48.88252" lon="1.09262">
        <ele>195</ele>
        <time>2014-06-15T11:10:42.000Z</time>
      </trkpt>
      <trkpt lat="48.8825" lon="1.09271">
        <ele>195</ele>
        <time>2014-06-15T11:10:44.000Z</time>
      </trkpt>
      <trkpt lat="48.88248" lon="1.0928">
        <ele>195</ele>
        <time>2014-06-15T11:10:46.000Z</time>
      </trkpt>
      <trkpt lat="48.88247" lon="1.09289">
        <ele>196</ele>
        <time>2014-06-15T11:10:48.000Z</time>
      </trkpt>
      <trkpt lat="48.88246" lon="1.093">
        <ele>196</ele>
        <time>2014-06-15T11:10:50.000Z</time>
      </trkpt>
      <trkpt lat="48.88247" lon="1.0931">
        <ele>196</ele>
        <time>2014-06-15T11:10:52.000Z</time>
      </trkpt>
      <trkpt lat="48.88247" lon="1.09319">
        <ele>196</ele>
        <time>2014-06-15T11:10:54.000Z</time>
      </trkpt>
      <trkpt lat="48.88247" lon="1.09328">
        <ele>197</ele>
        <time>2014-06-15T11:10:56.000Z</time>
      </trkpt>
      <trkpt lat="48.88247" lon="1.09328">
        <ele>197</ele>
        <time>2014-06-15T11:10:58.000Z</time>
      </trkpt>
      <trkpt lat="48.88245" lon="1.09346">
        <ele>197</ele>
        <time>2014-06-15T11:11:00.000Z</time>
      </trkpt>
      <trkpt lat="48.88245" lon="1.09355">
        <ele>197</ele>
        <time>2014-06-15T11:11:02.000Z</time>
      </trkpt>
      <trkpt lat="48.88245" lon="1.09355">
        <ele>197</ele>
        <time>2014-06-15T11:11:04.000Z</time>
      </trkpt>
      <trkpt lat="48.88245" lon="1.09364">
        <ele>198</ele>
        <time>2014-06-15T11:11:06.000Z</time>
      </trkpt>
      <trkpt lat="48.88245" lon="1.09374">
        <ele>198</ele>
        <time>2014-06-15T11:11:08.000Z</time>
      </trkpt>
      <trkpt lat="48.88246" lon="1.09382">
        <ele>198</ele>
        <time>2014-06-15T11:11:10.000Z</time>
      </trkpt>
      <trkpt lat="48.88246" lon="1.0939">
        <ele>199</ele>
        <time>2014-06-15T11:11:12.000Z</time>
      </trkpt>
      <trkpt lat="48.88246" lon="1.09398">
        <ele>199</ele>
        <time>2014-06-15T11:11:14.000Z</time>
      </trkpt>
      <trkpt lat="48.88247" lon="1.09417">
        <ele>199</ele>
        <time>2014-06-15T11:11:16.000Z</time>
      </trkpt>
      <trkpt lat="48.88248" lon="1.09433">
        <ele>199</ele>
        <time>2014-06-15T11:11:20.000Z</time>
      </trkpt>
      <trkpt lat="48.8825" lon="1.09442">
        <ele>199</ele>
        <time>2014-06-15T11:11:22.000Z</time>
      </trkpt>
      <trkpt lat="48.88251" lon="1.09457">
        <ele>200</ele>
        <time>2014-06-15T11:11:26.000Z</time>
      </trkpt>
      <trkpt lat="48.88249" lon="1.0947">
        <ele>200</ele>
        <time>2014-06-15T11:11:28.000Z</time>
      </trkpt>
      <trkpt lat="48.88236" lon="1.09463">
        <ele>199</ele>
        <time>2014-06-15T11:11:32.000Z</time>
      </trkpt>
      <trkpt lat="48.88228" lon="1.09455">
        <ele>199</ele>
        <time>2014-06-15T11:11:34.000Z</time>
      </trkpt>
      <trkpt lat="48.88219" lon="1.09447">
        <ele>199</ele>
        <time>2014-06-15T11:11:36.000Z</time>
      </trkpt>
      <trkpt lat="48.8821" lon="1.09439">
        <ele>198</ele>
        <time>2014-06-15T11:11:38.000Z</time>
      </trkpt>
      <trkpt lat="48.88202" lon="1.0943">
        <ele>197</ele>
        <time>2014-06-15T11:11:40.000Z</time>
      </trkpt>
      <trkpt lat="48.88194" lon="1.09422">
        <ele>196</ele>
        <time>2014-06-15T11:11:42.000Z</time>
      </trkpt>
      <trkpt lat="48.88185" lon="1.09415">
        <ele>194</ele>
        <time>2014-06-15T11:11:44.000Z</time>
      </trkpt>
      <trkpt lat="48.88176" lon="1.09407">
        <ele>194</ele>
        <time>2014-06-15T11:11:46.000Z</time>
      </trkpt>
      <trkpt lat="48.88166" lon="1.094">
        <ele>194</ele>
        <time>2014-06-15T11:11:48.000Z</time>
      </trkpt>
      <trkpt lat="48.88154" lon="1.09393">
        <ele>193</ele>
        <time>2014-06-15T11:11:50.000Z</time>
      </trkpt>
      <trkpt lat="48.88143" lon="1.09385">
        <ele>192</ele>
        <time>2014-06-15T11:11:52.000Z</time>
      </trkpt>
      <trkpt lat="48.88131" lon="1.09376">
        <ele>192</ele>
        <time>2014-06-15T11:11:54.000Z</time>
      </trkpt>
      <trkpt lat="48.8812" lon="1.09369">
        <ele>192</ele>
        <time>2014-06-15T11:11:56.000Z</time>
      </trkpt>
      <trkpt lat="48.8811" lon="1.09362">
        <ele>192</ele>
        <time>2014-06-15T11:11:58.000Z</time>
      </trkpt>
      <trkpt lat="48.88098" lon="1.09355">
        <ele>193</ele>
        <time>2014-06-15T11:12:00.000Z</time>
      </trkpt>
      <trkpt lat="48.88087" lon="1.09349">
        <ele>194</ele>
        <time>2014-06-15T11:12:02.000Z</time>
      </trkpt>
      <trkpt lat="48.88079" lon="1.09346">
        <ele>194</ele>
        <time>2014-06-15T11:12:04.000Z</time>
      </trkpt>
      <trkpt lat="48.8807" lon="1.09355">
        <ele>194</ele>
        <time>2014-06-15T11:12:06.000Z</time>
      </trkpt>
      <trkpt lat="48.88063" lon="1.09371">
        <ele>194</ele>
        <time>2014-06-15T11:12:08.000Z</time>
      </trkpt>
      <trkpt lat="48.8806" lon="1.09385">
        <ele>194</ele>
        <time>2014-06-15T11:12:10.000Z</time>
      </trkpt>
      <trkpt lat="48.88057" lon="1.09398">
        <ele>193</ele>
        <time>2014-06-15T11:12:12.000Z</time>
      </trkpt>
      <trkpt lat="48.88053" lon="1.09411">
        <ele>192</ele>
        <time>2014-06-15T11:12:14.000Z</time>
      </trkpt>
      <trkpt lat="48.8805" lon="1.09423">
        <ele>192</ele>
        <time>2014-06-15T11:12:16.000Z</time>
      </trkpt>
      <trkpt lat="48.88046" lon="1.09435">
        <ele>191</ele>
        <time>2014-06-15T11:12:18.000Z</time>
      </trkpt>
      <trkpt lat="48.88043" lon="1.09447">
        <ele>191</ele>
        <time>2014-06-15T11:12:20.000Z</time>
      </trkpt>
      <trkpt lat="48.8804" lon="1.09458">
        <ele>191</ele>
        <time>2014-06-15T11:12:22.000Z</time>
      </trkpt>
      <trkpt lat="48.88037" lon="1.09469">
        <ele>190</ele>
        <time>2014-06-15T11:12:24.000Z</time>
      </trkpt>
      <trkpt lat="48.88033" lon="1.09479">
        <ele>190</ele>
        <time>2014-06-15T11:12:26.000Z</time>
      </trkpt>
      <trkpt lat="48.8803" lon="1.09491">
        <ele>190</ele>
        <time>2014-06-15T11:12:28.000Z</time>
      </trkpt>
      <trkpt lat="48.88027" lon="1.09502">
        <ele>190</ele>
        <time>2014-06-15T11:12:30.000Z</time>
      </trkpt>
      <trkpt lat="48.88025" lon="1.09513">
        <ele>190</ele>
        <time>2014-06-15T11:12:32.000Z</time>
      </trkpt>
      <trkpt lat="48.88022" lon="1.09523">
        <ele>190</ele>
        <time>2014-06-15T11:12:34.000Z</time>
      </trkpt>
      <trkpt lat="48.8802" lon="1.09533">
        <ele>190</ele>
        <time>2014-06-15T11:12:37.000Z</time>
      </trkpt>
      <trkpt lat="48.88017" lon="1.09541">
        <ele>190</ele>
        <time>2014-06-15T11:12:40.000Z</time>
      </trkpt>
      <trkpt lat="48.88017" lon="1.09541">
        <ele>190</ele>
        <time>2014-06-15T11:12:44.000Z</time>
      </trkpt>
      <trkpt lat="48.88014" lon="1.09555">
        <ele>190</ele>
        <time>2014-06-15T11:12:45.000Z</time>
      </trkpt>
      <trkpt lat="48.88014" lon="1.09555">
        <ele>190</ele>
        <time>2014-06-15T11:12:46.000Z</time>
      </trkpt>
      <trkpt lat="48.8801" lon="1.09566">
        <ele>191</ele>
        <time>2014-06-15T11:12:47.000Z</time>
      </trkpt>
      <trkpt lat="48.8801" lon="1.09566">
        <ele>191</ele>
        <time>2014-06-15T11:12:49.000Z</time>
      </trkpt>
      <trkpt lat="48.88002" lon="1.09574">
        <ele>191</ele>
        <time>2014-06-15T11:12:51.000Z</time>
      </trkpt>
      <trkpt lat="48.87997" lon="1.09579">
        <ele>191</ele>
        <time>2014-06-15T11:12:53.000Z</time>
      </trkpt>
      <trkpt lat="48.87992" lon="1.09585">
        <ele>191</ele>
        <time>2014-06-15T11:12:55.000Z</time>
      </trkpt>
      <trkpt lat="48.87988" lon="1.09591">
        <ele>191</ele>
        <time>2014-06-15T11:12:57.000Z</time>
      </trkpt>
      <trkpt lat="48.87983" lon="1.09598">
        <ele>191</ele>
        <time>2014-06-15T11:12:59.000Z</time>
      </trkpt>
      <trkpt lat="48.87976" lon="1.09607">
        <ele>192</ele>
        <time>2014-06-15T11:13:01.000Z</time>
      </trkpt>
      <trkpt lat="48.8797" lon="1.09615">
        <ele>192</ele>
        <time>2014-06-15T11:13:03.000Z</time>
      </trkpt>
      <trkpt lat="48.87964" lon="1.09624">
        <ele>194</ele>
        <time>2014-06-15T11:13:05.000Z</time>
      </trkpt>
      <trkpt lat="48.87957" lon="1.09633">
        <ele>195</ele>
        <time>2014-06-15T11:13:07.000Z</time>
      </trkpt>
      <trkpt lat="48.87951" lon="1.09642">
        <ele>195</ele>
        <time>2014-06-15T11:13:09.000Z</time>
      </trkpt>
      <trkpt lat="48.87945" lon="1.09651">
        <ele>196</ele>
        <time>2014-06-15T11:13:11.000Z</time>
      </trkpt>
      <trkpt lat="48.8794" lon="1.09659">
        <ele>196</ele>
        <time>2014-06-15T11:13:13.000Z</time>
      </trkpt>
      <trkpt lat="48.87934" lon="1.09666">
        <ele>197</ele>
        <time>2014-06-15T11:13:16.000Z</time>
      </trkpt>
      <trkpt lat="48.87928" lon="1.09675">
        <ele>198</ele>
        <time>2014-06-15T11:13:17.000Z</time>
      </trkpt>
      <trkpt lat="48.87923" lon="1.0968">
        <ele>198</ele>
        <time>2014-06-15T11:13:19.000Z</time>
      </trkpt>
      <trkpt lat="48.87918" lon="1.09687">
        <ele>198</ele>
        <time>2014-06-15T11:13:21.000Z</time>
      </trkpt>
      <trkpt lat="48.87911" lon="1.09694">
        <ele>199</ele>
        <time>2014-06-15T11:13:23.000Z</time>
      </trkpt>
      <trkpt lat="48.87905" lon="1.09702">
        <ele>199</ele>
        <time>2014-06-15T11:13:25.000Z</time>
      </trkpt>
      <trkpt lat="48.87897" lon="1.0971">
        <ele>200</ele>
        <time>2014-06-15T11:13:27.000Z</time>
      </trkpt>
      <trkpt lat="48.8789" lon="1.09717">
        <ele>201</ele>
        <time>2014-06-15T11:13:29.000Z</time>
      </trkpt>
      <trkpt lat="48.87884" lon="1.09725">
        <ele>201</ele>
        <time>2014-06-15T11:13:31.000Z</time>
      </trkpt>
      <trkpt lat="48.87882" lon="1.09735">
        <ele>201</ele>
        <time>2014-06-15T11:13:33.000Z</time>
      </trkpt>
      <trkpt lat="48.87882" lon="1.09745">
        <ele>201</ele>
        <time>2014-06-15T11:13:35.000Z</time>
      </trkpt>
      <trkpt lat="48.87885" lon="1.09755">
        <ele>202</ele>
        <time>2014-06-15T11:13:37.000Z</time>
      </trkpt>
      <trkpt lat="48.87891" lon="1.09763">
        <ele>202</ele>
        <time>2014-06-15T11:13:39.000Z</time>
      </trkpt>
      <trkpt lat="48.87899" lon="1.09769">
        <ele>202</ele>
        <time>2014-06-15T11:13:41.000Z</time>
      </trkpt>
      <trkpt lat="48.8791" lon="1.09775">
        <ele>202</ele>
        <time>2014-06-15T11:13:43.000Z</time>
      </trkpt>
      <trkpt lat="48.87921" lon="1.09781">
        <ele>202</ele>
        <time>2014-06-15T11:13:45.000Z</time>
      </trkpt>
      <trkpt lat="48.8793" lon="1.09786">
        <ele>202</ele>
        <time>2014-06-15T11:13:47.000Z</time>
      </trkpt>
      <trkpt lat="48.87939" lon="1.09791">
        <ele>201</ele>
        <time>2014-06-15T11:13:49.000Z</time>
      </trkpt>
      <trkpt lat="48.8795" lon="1.09796">
        <ele>199</ele>
        <time>2014-06-15T11:13:51.000Z</time>
      </trkpt>
      <trkpt lat="48.87961" lon="1.098">
        <ele>198</ele>
        <time>2014-06-15T11:13:53.000Z</time>
      </trkpt>
      <trkpt lat="48.87971" lon="1.09803">
        <ele>197</ele>
        <time>2014-06-15T11:13:55.000Z</time>
      </trkpt>
      <trkpt lat="48.87983" lon="1.09806">
        <ele>196</ele>
        <time>2014-06-15T11:13:57.000Z</time>
      </trkpt>
      <trkpt lat="48.87994" lon="1.09807">
        <ele>195</ele>
        <time>2014-06-15T11:13:59.000Z</time>
      </trkpt>
      <trkpt lat="48.88006" lon="1.09808">
        <ele>194</ele>
        <time>2014-06-15T11:14:01.000Z</time>
      </trkpt>
      <trkpt lat="48.88018" lon="1.0981">
        <ele>193</ele>
        <time>2014-06-15T11:14:03.000Z</time>
      </trkpt>
      <trkpt lat="48.8803" lon="1.09811">
        <ele>193</ele>
        <time>2014-06-15T11:14:05.000Z</time>
      </trkpt>
      <trkpt lat="48.88042" lon="1.09813">
        <ele>193</ele>
        <time>2014-06-15T11:14:08.000Z</time>
      </trkpt>
      <trkpt lat="48.88054" lon="1.09813">
        <ele>193</ele>
        <time>2014-06-15T11:14:09.000Z</time>
      </trkpt>
      <trkpt lat="48.88066" lon="1.09813">
        <ele>192</ele>
        <time>2014-06-15T11:14:11.000Z</time>
      </trkpt>
      <trkpt lat="48.88078" lon="1.0981">
        <ele>191</ele>
        <time>2014-06-15T11:14:13.000Z</time>
      </trkpt>
      <trkpt lat="48.8809" lon="1.09806">
        <ele>190</ele>
        <time>2014-06-15T11:14:15.000Z</time>
      </trkpt>
      <trkpt lat="48.88102" lon="1.098">
        <ele>190</ele>
        <time>2014-06-15T11:14:17.000Z</time>
      </trkpt>
      <trkpt lat="48.88113" lon="1.09792">
        <ele>189</ele>
        <time>2014-06-15T11:14:19.000Z</time>
      </trkpt>
      <trkpt lat="48.88123" lon="1.09783">
        <ele>188</ele>
        <time>2014-06-15T11:14:21.000Z</time>
      </trkpt>
      <trkpt lat="48.88132" lon="1.09774">
        <ele>188</ele>
        <time>2014-06-15T11:14:23.000Z</time>
      </trkpt>
      <trkpt lat="48.88141" lon="1.09764">
        <ele>189</ele>
        <time>2014-06-15T11:14:25.000Z</time>
      </trkpt>
      <trkpt lat="48.8815" lon="1.09754">
        <ele>189</ele>
        <time>2014-06-15T11:14:28.000Z</time>
      </trkpt>
      <trkpt lat="48.8816" lon="1.09745">
        <ele>189</ele>
        <time>2014-06-15T11:14:29.000Z</time>
      </trkpt>
      <trkpt lat="48.88168" lon="1.0974">
        <ele>189</ele>
        <time>2014-06-15T11:14:30.000Z</time>
      </trkpt>
      <trkpt lat="48.88178" lon="1.09738">
        <ele>190</ele>
        <time>2014-06-15T11:14:32.000Z</time>
      </trkpt>
      <trkpt lat="48.88187" lon="1.09737">
        <ele>191</ele>
        <time>2014-06-15T11:14:34.000Z</time>
      </trkpt>
      <trkpt lat="48.88197" lon="1.09738">
        <ele>193</ele>
        <time>2014-06-15T11:14:36.000Z</time>
      </trkpt>
      <trkpt lat="48.88205" lon="1.09733">
        <ele>194</ele>
        <time>2014-06-15T11:14:39.000Z</time>
      </trkpt>
      <trkpt lat="48.88214" lon="1.09717">
        <ele>194</ele>
        <time>2014-06-15T11:14:40.000Z</time>
      </trkpt>
      <trkpt lat="48.88222" lon="1.09701">
        <ele>194</ele>
        <time>2014-06-15T11:14:42.000Z</time>
      </trkpt>
      <trkpt lat="48.88229" lon="1.09685">
        <ele>194</ele>
        <time>2014-06-15T11:14:44.000Z</time>
      </trkpt>
      <trkpt lat="48.88236" lon="1.09669">
        <ele>193</ele>
        <time>2014-06-15T11:14:46.000Z</time>
      </trkpt>
      <trkpt lat="48.88244" lon="1.09653">
        <ele>192</ele>
        <time>2014-06-15T11:14:48.000Z</time>
      </trkpt>
      <trkpt lat="48.88253" lon="1.09635">
        <ele>191</ele>
        <time>2014-06-15T11:14:50.000Z</time>
      </trkpt>
      <trkpt lat="48.8826" lon="1.09621">
        <ele>191</ele>
        <time>2014-06-15T11:14:52.000Z</time>
      </trkpt>
      <trkpt lat="48.88268" lon="1.09606">
        <ele>191</ele>
        <time>2014-06-15T11:14:54.000Z</time>
      </trkpt>
      <trkpt lat="48.88275" lon="1.09592">
        <ele>191</ele>
        <time>2014-06-15T11:14:56.000Z</time>
      </trkpt>
      <trkpt lat="48.88282" lon="1.09579">
        <ele>191</ele>
        <time>2014-06-15T11:14:58.000Z</time>
      </trkpt>
      <trkpt lat="48.88288" lon="1.09566">
        <ele>192</ele>
        <time>2014-06-15T11:15:00.000Z</time>
      </trkpt>
      <trkpt lat="48.88295" lon="1.09557">
        <ele>192</ele>
        <time>2014-06-15T11:15:03.000Z</time>
      </trkpt>
      <trkpt lat="48.88301" lon="1.0956">
        <ele>192</ele>
        <time>2014-06-15T11:15:04.000Z</time>
      </trkpt>
      <trkpt lat="48.88307" lon="1.09568">
        <ele>192</ele>
        <time>2014-06-15T11:15:06.000Z</time>
      </trkpt>
      <trkpt lat="48.88312" lon="1.09577">
        <ele>192</ele>
        <time>2014-06-15T11:15:08.000Z</time>
      </trkpt>
      <trkpt lat="48.88317" lon="1.09584">
        <ele>192</ele>
        <time>2014-06-15T11:15:10.000Z</time>
      </trkpt>
      <trkpt lat="48.88322" lon="1.09592">
        <ele>192</ele>
        <time>2014-06-15T11:15:12.000Z</time>
      </trkpt>
      <trkpt lat="48.88327" lon="1.09599">
        <ele>192</ele>
        <time>2014-06-15T11:15:14.000Z</time>
      </trkpt>
      <trkpt lat="48.88332" lon="1.09607">
        <ele>192</ele>
        <time>2014-06-15T11:15:16.000Z</time>
      </trkpt>
      <trkpt lat="48.88336" lon="1.09613">
        <ele>192</ele>
        <time>2014-06-15T11:15:18.000Z</time>
      </trkpt>
      <trkpt lat="48.88342" lon="1.09617">
        <ele>192</ele>
        <time>2014-06-15T11:15:20.000Z</time>
      </trkpt>
      <trkpt lat="48.88342" lon="1.09617">
        <ele>192</ele>
        <time>2014-06-15T11:15:22.000Z</time>
      </trkpt>
      <trkpt lat="48.88349" lon="1.09613">
        <ele>192</ele>
        <time>2014-06-15T11:15:25.000Z</time>
      </trkpt>
      <trkpt lat="48.88349" lon="1.09613">
        <ele>192</ele>
        <time>2014-06-15T11:15:26.000Z</time>
      </trkpt>
      <trkpt lat="48.88347" lon="1.09603">
        <ele>192</ele>
        <time>2014-06-15T11:15:28.000Z</time>
      </trkpt>
      <trkpt lat="48.88347" lon="1.09603">
        <ele>192</ele>
        <time>2014-06-15T11:15:31.000Z</time>
      </trkpt>
      <trkpt lat="48.88347" lon="1.09603">
        <ele>192</ele>
        <time>2014-06-15T11:15:33.000Z</time>
      </trkpt>
      <trkpt lat="48.88347" lon="1.09603">
        <ele>192</ele>
        <time>2014-06-15T11:15:50.000Z</time>
      </trkpt>
      <trkpt lat="48.88347" lon="1.09603">
        <ele>192</ele>
        <time>2014-06-15T11:17:37.000Z</time>
      </trkpt>
      <trkpt lat="48.8835" lon="1.09599">
        <ele>190</ele>
        <time>2014-06-15T11:18:12.000Z</time>
      </trkpt>
      <trkpt lat="48.8835" lon="1.09599">
        <ele>190</ele>
        <time>2014-06-15T11:18:14.000Z</time>
      </trkpt>
      <trkpt lat="48.8835" lon="1.09599">
        <ele>190</ele>
        <time>2014-06-15T11:18:21.000Z</time>
      </trkpt>
      <trkpt lat="48.8835" lon="1.09599">
        <ele>190</ele>
        <time>2014-06-15T11:18:22.000Z</time>
      </trkpt>
    </trkseg>
  </trk>
</gpx>